<?xml version="1.0" encoding="UTF-8" standalone="no" ?>
<gpx xmlns="http://www.topografix.com/GPX/1/1" xmlns:xsi="http://www.w3.org/2001/XMLSchema-instance" xsi:schemaLocation="http://www.topografix.com/GPX/1/1 http://www.topografix.com/GPX/1/1/gpx.xsd" version="1.1" creator="VisuGPX - https://www.visugpx.com">
  <metadata>
    <name>2018-10-02 Bike ride-Amberieux-Savigneux O v33k</name>
    <desc><![CDATA[2018-10-02 Bike ride-Amberieux-Savigneux O v33k]]></desc>
  </metadata>
  <wpt lat="45.9247" lon="4.7373">
    <ele>174</ele>
    <name><![CDATA[2018-10-02 10:43 (Start)]]></name>
  </wpt>
  <wpt lat="45.9246" lon="4.73713">
    <ele>174</ele>
    <name><![CDATA[2018-10-02 10:43 (End)]]></name>
  </wpt>
  <trk>
    <name><![CDATA[2018-10-02 10:43]]></name>
    <trkseg>
      <trkpt lat="45.9247" lon="4.7373">
        <ele>174</ele>
        <time>2018-10-02T08:43:15.612Z</time>
      </trkpt>
      <trkpt lat="45.92457" lon="4.73722">
        <ele>174</ele>
        <time>2018-10-02T08:43:17.222Z</time>
      </trkpt>
      <trkpt lat="45.92454" lon="4.73723">
        <ele>174</ele>
        <time>2018-10-02T08:43:18.222Z</time>
      </trkpt>
      <trkpt lat="45.92455" lon="4.7372">
        <ele>174</ele>
        <time>2018-10-02T08:43:20.219Z</time>
      </trkpt>
      <trkpt lat="45.92454" lon="4.73722">
        <ele>174</ele>
        <time>2018-10-02T08:43:21Z</time>
      </trkpt>
      <trkpt lat="45.92452" lon="4.73723">
        <ele>174</ele>
        <time>2018-10-02T08:43:22Z</time>
      </trkpt>
      <trkpt lat="45.92455" lon="4.73715">
        <ele>174</ele>
        <time>2018-10-02T08:43:23Z</time>
      </trkpt>
      <trkpt lat="45.92456" lon="4.73711">
        <ele>174</ele>
        <time>2018-10-02T08:43:24Z</time>
      </trkpt>
      <trkpt lat="45.92463" lon="4.73707">
        <ele>174</ele>
        <time>2018-10-02T08:43:42Z</time>
      </trkpt>
      <trkpt lat="45.92465" lon="4.73706">
        <ele>174</ele>
        <time>2018-10-02T08:43:43Z</time>
      </trkpt>
      <trkpt lat="45.92468" lon="4.73695">
        <ele>174</ele>
        <time>2018-10-02T08:43:47Z</time>
      </trkpt>
      <trkpt lat="45.92468" lon="4.73691">
        <ele>174</ele>
        <time>2018-10-02T08:43:48Z</time>
      </trkpt>
      <trkpt lat="45.92468" lon="4.73687">
        <ele>174</ele>
        <time>2018-10-02T08:43:49Z</time>
      </trkpt>
      <trkpt lat="45.9247" lon="4.73675">
        <ele>174</ele>
        <time>2018-10-02T08:43:50Z</time>
      </trkpt>
      <trkpt lat="45.92471" lon="4.73664">
        <ele>174</ele>
        <time>2018-10-02T08:43:52Z</time>
      </trkpt>
      <trkpt lat="45.92471" lon="4.73661">
        <ele>174</ele>
        <time>2018-10-02T08:43:53Z</time>
      </trkpt>
      <trkpt lat="45.92474" lon="4.73652">
        <ele>174</ele>
        <time>2018-10-02T08:43:56Z</time>
      </trkpt>
      <trkpt lat="45.92476" lon="4.73649">
        <ele>174</ele>
        <time>2018-10-02T08:43:57Z</time>
      </trkpt>
      <trkpt lat="45.92482" lon="4.73645">
        <ele>174</ele>
        <time>2018-10-02T08:43:59Z</time>
      </trkpt>
      <trkpt lat="45.92485" lon="4.73643">
        <ele>174</ele>
        <time>2018-10-02T08:44:00Z</time>
      </trkpt>
      <trkpt lat="45.92496" lon="4.73641">
        <ele>174</ele>
        <time>2018-10-02T08:44:01Z</time>
      </trkpt>
      <trkpt lat="45.92504" lon="4.73642">
        <ele>174</ele>
        <time>2018-10-02T08:44:03Z</time>
      </trkpt>
      <trkpt lat="45.92508" lon="4.73643">
        <ele>174</ele>
        <time>2018-10-02T08:44:04Z</time>
      </trkpt>
      <trkpt lat="45.92513" lon="4.73643">
        <ele>174</ele>
        <time>2018-10-02T08:44:05Z</time>
      </trkpt>
      <trkpt lat="45.92517" lon="4.73644">
        <ele>174</ele>
        <time>2018-10-02T08:44:06Z</time>
      </trkpt>
      <trkpt lat="45.92522" lon="4.73643">
        <ele>173</ele>
        <time>2018-10-02T08:44:07Z</time>
      </trkpt>
      <trkpt lat="45.92527" lon="4.73641">
        <ele>173</ele>
        <time>2018-10-02T08:44:08Z</time>
      </trkpt>
      <trkpt lat="45.92531" lon="4.73641">
        <ele>173</ele>
        <time>2018-10-02T08:44:09Z</time>
      </trkpt>
      <trkpt lat="45.92536" lon="4.7364">
        <ele>173</ele>
        <time>2018-10-02T08:44:10Z</time>
      </trkpt>
      <trkpt lat="45.92542" lon="4.73639">
        <ele>173</ele>
        <time>2018-10-02T08:44:11Z</time>
      </trkpt>
      <trkpt lat="45.92547" lon="4.73637">
        <ele>173</ele>
        <time>2018-10-02T08:44:12Z</time>
      </trkpt>
      <trkpt lat="45.92552" lon="4.73636">
        <ele>173</ele>
        <time>2018-10-02T08:44:13Z</time>
      </trkpt>
      <trkpt lat="45.92556" lon="4.73635">
        <ele>173</ele>
        <time>2018-10-02T08:44:14Z</time>
      </trkpt>
      <trkpt lat="45.92564" lon="4.73632">
        <ele>173</ele>
        <time>2018-10-02T08:44:16Z</time>
      </trkpt>
      <trkpt lat="45.92568" lon="4.73631">
        <ele>173</ele>
        <time>2018-10-02T08:44:17Z</time>
      </trkpt>
      <trkpt lat="45.92576" lon="4.73629">
        <ele>173</ele>
        <time>2018-10-02T08:44:19Z</time>
      </trkpt>
      <trkpt lat="45.9258" lon="4.73627">
        <ele>173</ele>
        <time>2018-10-02T08:44:20Z</time>
      </trkpt>
      <trkpt lat="45.92588" lon="4.73626">
        <ele>172</ele>
        <time>2018-10-02T08:44:22Z</time>
      </trkpt>
      <trkpt lat="45.92593" lon="4.73624">
        <ele>173</ele>
        <time>2018-10-02T08:44:23Z</time>
      </trkpt>
      <trkpt lat="45.92598" lon="4.73623">
        <ele>173</ele>
        <time>2018-10-02T08:44:24Z</time>
      </trkpt>
      <trkpt lat="45.92602" lon="4.73622">
        <ele>173</ele>
        <time>2018-10-02T08:44:25Z</time>
      </trkpt>
      <trkpt lat="45.92607" lon="4.73623">
        <ele>173</ele>
        <time>2018-10-02T08:44:26Z</time>
      </trkpt>
      <trkpt lat="45.92612" lon="4.73623">
        <ele>173</ele>
        <time>2018-10-02T08:44:27Z</time>
      </trkpt>
      <trkpt lat="45.92616" lon="4.73625">
        <ele>173</ele>
        <time>2018-10-02T08:44:28Z</time>
      </trkpt>
      <trkpt lat="45.92621" lon="4.73632">
        <ele>173</ele>
        <time>2018-10-02T08:44:29Z</time>
      </trkpt>
      <trkpt lat="45.92627" lon="4.73642">
        <ele>173</ele>
        <time>2018-10-02T08:44:31Z</time>
      </trkpt>
      <trkpt lat="45.9263" lon="4.73648">
        <ele>173</ele>
        <time>2018-10-02T08:44:32Z</time>
      </trkpt>
      <trkpt lat="45.92632" lon="4.73654">
        <ele>173</ele>
        <time>2018-10-02T08:44:33Z</time>
      </trkpt>
      <trkpt lat="45.92635" lon="4.7366">
        <ele>173</ele>
        <time>2018-10-02T08:44:34Z</time>
      </trkpt>
      <trkpt lat="45.92639" lon="4.73669">
        <ele>173</ele>
        <time>2018-10-02T08:44:35Z</time>
      </trkpt>
      <trkpt lat="45.92642" lon="4.73674">
        <ele>173</ele>
        <time>2018-10-02T08:44:36Z</time>
      </trkpt>
      <trkpt lat="45.92648" lon="4.73683">
        <ele>173</ele>
        <time>2018-10-02T08:44:38Z</time>
      </trkpt>
      <trkpt lat="45.92651" lon="4.73687">
        <ele>173</ele>
        <time>2018-10-02T08:44:39Z</time>
      </trkpt>
      <trkpt lat="45.92655" lon="4.7369">
        <ele>173</ele>
        <time>2018-10-02T08:44:40Z</time>
      </trkpt>
      <trkpt lat="45.92659" lon="4.73693">
        <ele>173</ele>
        <time>2018-10-02T08:44:41Z</time>
      </trkpt>
      <trkpt lat="45.92663" lon="4.73697">
        <ele>173</ele>
        <time>2018-10-02T08:44:42Z</time>
      </trkpt>
      <trkpt lat="45.92666" lon="4.73701">
        <ele>173</ele>
        <time>2018-10-02T08:44:43Z</time>
      </trkpt>
      <trkpt lat="45.9267" lon="4.73704">
        <ele>174</ele>
        <time>2018-10-02T08:44:44Z</time>
      </trkpt>
      <trkpt lat="45.92676" lon="4.73706">
        <ele>173</ele>
        <time>2018-10-02T08:44:45Z</time>
      </trkpt>
      <trkpt lat="45.92681" lon="4.73706">
        <ele>173</ele>
        <time>2018-10-02T08:44:46Z</time>
      </trkpt>
      <trkpt lat="45.92686" lon="4.73708">
        <ele>173</ele>
        <time>2018-10-02T08:44:47Z</time>
      </trkpt>
      <trkpt lat="45.92691" lon="4.7371">
        <ele>173</ele>
        <time>2018-10-02T08:44:48Z</time>
      </trkpt>
      <trkpt lat="45.92696" lon="4.73712">
        <ele>173</ele>
        <time>2018-10-02T08:44:49Z</time>
      </trkpt>
      <trkpt lat="45.92701" lon="4.73713">
        <ele>173</ele>
        <time>2018-10-02T08:44:50Z</time>
      </trkpt>
      <trkpt lat="45.92706" lon="4.73713">
        <ele>173</ele>
        <time>2018-10-02T08:44:51Z</time>
      </trkpt>
      <trkpt lat="45.92711" lon="4.73714">
        <ele>173</ele>
        <time>2018-10-02T08:44:52Z</time>
      </trkpt>
      <trkpt lat="45.92717" lon="4.73715">
        <ele>173</ele>
        <time>2018-10-02T08:44:53Z</time>
      </trkpt>
      <trkpt lat="45.92722" lon="4.73716">
        <ele>173</ele>
        <time>2018-10-02T08:44:54Z</time>
      </trkpt>
      <trkpt lat="45.92728" lon="4.73717">
        <ele>173</ele>
        <time>2018-10-02T08:44:55Z</time>
      </trkpt>
      <trkpt lat="45.92733" lon="4.7372">
        <ele>173</ele>
        <time>2018-10-02T08:44:56Z</time>
      </trkpt>
      <trkpt lat="45.92738" lon="4.73719">
        <ele>173</ele>
        <time>2018-10-02T08:44:57Z</time>
      </trkpt>
      <trkpt lat="45.92744" lon="4.7372">
        <ele>173</ele>
        <time>2018-10-02T08:44:58Z</time>
      </trkpt>
      <trkpt lat="45.92748" lon="4.73722">
        <ele>173</ele>
        <time>2018-10-02T08:44:59Z</time>
      </trkpt>
      <trkpt lat="45.92754" lon="4.73722">
        <ele>172</ele>
        <time>2018-10-02T08:45:00Z</time>
      </trkpt>
      <trkpt lat="45.92757" lon="4.73723">
        <ele>172</ele>
        <time>2018-10-02T08:45:01Z</time>
      </trkpt>
      <trkpt lat="45.92765" lon="4.73726">
        <ele>172</ele>
        <time>2018-10-02T08:45:03Z</time>
      </trkpt>
      <trkpt lat="45.92769" lon="4.73728">
        <ele>172</ele>
        <time>2018-10-02T08:45:04Z</time>
      </trkpt>
      <trkpt lat="45.92776" lon="4.73732">
        <ele>172</ele>
        <time>2018-10-02T08:45:07Z</time>
      </trkpt>
      <trkpt lat="45.92777" lon="4.73734">
        <ele>172</ele>
        <time>2018-10-02T08:45:08Z</time>
      </trkpt>
      <trkpt lat="45.92778" lon="4.73736">
        <ele>172</ele>
        <time>2018-10-02T08:45:09Z</time>
      </trkpt>
      <trkpt lat="45.92781" lon="4.73746">
        <ele>172</ele>
        <time>2018-10-02T08:45:10Z</time>
      </trkpt>
      <trkpt lat="45.92786" lon="4.73753">
        <ele>173</ele>
        <time>2018-10-02T08:45:12Z</time>
      </trkpt>
      <trkpt lat="45.9279" lon="4.73756">
        <ele>173</ele>
        <time>2018-10-02T08:45:13Z</time>
      </trkpt>
      <trkpt lat="45.92794" lon="4.73758">
        <ele>173</ele>
        <time>2018-10-02T08:45:14Z</time>
      </trkpt>
      <trkpt lat="45.92799" lon="4.7376">
        <ele>173</ele>
        <time>2018-10-02T08:45:15Z</time>
      </trkpt>
      <trkpt lat="45.92804" lon="4.73763">
        <ele>173</ele>
        <time>2018-10-02T08:45:16Z</time>
      </trkpt>
      <trkpt lat="45.92809" lon="4.73765">
        <ele>173</ele>
        <time>2018-10-02T08:45:17Z</time>
      </trkpt>
      <trkpt lat="45.92813" lon="4.73767">
        <ele>173</ele>
        <time>2018-10-02T08:45:18Z</time>
      </trkpt>
      <trkpt lat="45.92818" lon="4.7377">
        <ele>173</ele>
        <time>2018-10-02T08:45:19Z</time>
      </trkpt>
      <trkpt lat="45.92823" lon="4.73774">
        <ele>173</ele>
        <time>2018-10-02T08:45:20Z</time>
      </trkpt>
      <trkpt lat="45.92829" lon="4.73777">
        <ele>173</ele>
        <time>2018-10-02T08:45:21Z</time>
      </trkpt>
      <trkpt lat="45.92833" lon="4.73782">
        <ele>173</ele>
        <time>2018-10-02T08:45:22Z</time>
      </trkpt>
      <trkpt lat="45.92838" lon="4.73786">
        <ele>173</ele>
        <time>2018-10-02T08:45:23Z</time>
      </trkpt>
      <trkpt lat="45.92843" lon="4.73789">
        <ele>173</ele>
        <time>2018-10-02T08:45:24Z</time>
      </trkpt>
      <trkpt lat="45.92848" lon="4.73793">
        <ele>173</ele>
        <time>2018-10-02T08:45:25Z</time>
      </trkpt>
      <trkpt lat="45.92852" lon="4.73797">
        <ele>173</ele>
        <time>2018-10-02T08:45:26Z</time>
      </trkpt>
      <trkpt lat="45.92855" lon="4.73803">
        <ele>173</ele>
        <time>2018-10-02T08:45:27Z</time>
      </trkpt>
      <trkpt lat="45.92858" lon="4.73809">
        <ele>173</ele>
        <time>2018-10-02T08:45:28Z</time>
      </trkpt>
      <trkpt lat="45.9286" lon="4.73815">
        <ele>173</ele>
        <time>2018-10-02T08:45:29Z</time>
      </trkpt>
      <trkpt lat="45.92862" lon="4.73823">
        <ele>173</ele>
        <time>2018-10-02T08:45:30Z</time>
      </trkpt>
      <trkpt lat="45.92864" lon="4.7383">
        <ele>173</ele>
        <time>2018-10-02T08:45:31Z</time>
      </trkpt>
      <trkpt lat="45.92866" lon="4.73837">
        <ele>173</ele>
        <time>2018-10-02T08:45:32Z</time>
      </trkpt>
      <trkpt lat="45.92868" lon="4.73845">
        <ele>173</ele>
        <time>2018-10-02T08:45:33Z</time>
      </trkpt>
      <trkpt lat="45.9287" lon="4.73852">
        <ele>173</ele>
        <time>2018-10-02T08:45:34Z</time>
      </trkpt>
      <trkpt lat="45.92872" lon="4.73859">
        <ele>173</ele>
        <time>2018-10-02T08:45:35Z</time>
      </trkpt>
      <trkpt lat="45.92874" lon="4.73865">
        <ele>173</ele>
        <time>2018-10-02T08:45:36Z</time>
      </trkpt>
      <trkpt lat="45.92876" lon="4.73874">
        <ele>173</ele>
        <time>2018-10-02T08:45:37Z</time>
      </trkpt>
      <trkpt lat="45.92879" lon="4.73883">
        <ele>173</ele>
        <time>2018-10-02T08:45:38Z</time>
      </trkpt>
      <trkpt lat="45.92879" lon="4.7389">
        <ele>173</ele>
        <time>2018-10-02T08:45:39Z</time>
      </trkpt>
      <trkpt lat="45.9288" lon="4.73897">
        <ele>173</ele>
        <time>2018-10-02T08:45:40Z</time>
      </trkpt>
      <trkpt lat="45.92882" lon="4.73906">
        <ele>173</ele>
        <time>2018-10-02T08:45:41Z</time>
      </trkpt>
      <trkpt lat="45.92883" lon="4.73914">
        <ele>173</ele>
        <time>2018-10-02T08:45:42Z</time>
      </trkpt>
      <trkpt lat="45.92883" lon="4.73923">
        <ele>172</ele>
        <time>2018-10-02T08:45:43Z</time>
      </trkpt>
      <trkpt lat="45.92884" lon="4.73931">
        <ele>172</ele>
        <time>2018-10-02T08:45:44Z</time>
      </trkpt>
      <trkpt lat="45.92884" lon="4.73938">
        <ele>172</ele>
        <time>2018-10-02T08:45:45Z</time>
      </trkpt>
      <trkpt lat="45.92884" lon="4.73945">
        <ele>172</ele>
        <time>2018-10-02T08:45:46Z</time>
      </trkpt>
      <trkpt lat="45.92885" lon="4.73952">
        <ele>172</ele>
        <time>2018-10-02T08:45:47Z</time>
      </trkpt>
      <trkpt lat="45.92885" lon="4.73964">
        <ele>172</ele>
        <time>2018-10-02T08:45:49Z</time>
      </trkpt>
      <trkpt lat="45.92885" lon="4.7397">
        <ele>172</ele>
        <time>2018-10-02T08:45:50Z</time>
      </trkpt>
      <trkpt lat="45.92886" lon="4.73981">
        <ele>172</ele>
        <time>2018-10-02T08:45:52Z</time>
      </trkpt>
      <trkpt lat="45.92885" lon="4.73987">
        <ele>172</ele>
        <time>2018-10-02T08:45:53Z</time>
      </trkpt>
      <trkpt lat="45.92881" lon="4.73998">
        <ele>172</ele>
        <time>2018-10-02T08:45:55Z</time>
      </trkpt>
      <trkpt lat="45.92879" lon="4.74005">
        <ele>172</ele>
        <time>2018-10-02T08:45:56Z</time>
      </trkpt>
      <trkpt lat="45.92878" lon="4.74011">
        <ele>172</ele>
        <time>2018-10-02T08:45:57Z</time>
      </trkpt>
      <trkpt lat="45.92876" lon="4.74017">
        <ele>172</ele>
        <time>2018-10-02T08:45:58Z</time>
      </trkpt>
      <trkpt lat="45.92875" lon="4.74024">
        <ele>172</ele>
        <time>2018-10-02T08:45:59Z</time>
      </trkpt>
      <trkpt lat="45.92873" lon="4.74032">
        <ele>172</ele>
        <time>2018-10-02T08:46:00Z</time>
      </trkpt>
      <trkpt lat="45.9287" lon="4.74037">
        <ele>172</ele>
        <time>2018-10-02T08:46:01Z</time>
      </trkpt>
      <trkpt lat="45.92868" lon="4.74044">
        <ele>172</ele>
        <time>2018-10-02T08:46:02Z</time>
      </trkpt>
      <trkpt lat="45.92864" lon="4.74051">
        <ele>172</ele>
        <time>2018-10-02T08:46:03Z</time>
      </trkpt>
      <trkpt lat="45.92859" lon="4.74056">
        <ele>172</ele>
        <time>2018-10-02T08:46:04Z</time>
      </trkpt>
      <trkpt lat="45.92856" lon="4.74062">
        <ele>172</ele>
        <time>2018-10-02T08:46:05Z</time>
      </trkpt>
      <trkpt lat="45.92851" lon="4.74066">
        <ele>172</ele>
        <time>2018-10-02T08:46:06Z</time>
      </trkpt>
      <trkpt lat="45.92847" lon="4.74071">
        <ele>172</ele>
        <time>2018-10-02T08:46:07Z</time>
      </trkpt>
      <trkpt lat="45.92843" lon="4.74076">
        <ele>172</ele>
        <time>2018-10-02T08:46:08Z</time>
      </trkpt>
      <trkpt lat="45.92838" lon="4.74081">
        <ele>171</ele>
        <time>2018-10-02T08:46:09Z</time>
      </trkpt>
      <trkpt lat="45.92834" lon="4.74086">
        <ele>171</ele>
        <time>2018-10-02T08:46:10Z</time>
      </trkpt>
      <trkpt lat="45.92829" lon="4.74091">
        <ele>171</ele>
        <time>2018-10-02T08:46:11Z</time>
      </trkpt>
      <trkpt lat="45.92825" lon="4.74095">
        <ele>171</ele>
        <time>2018-10-02T08:46:12Z</time>
      </trkpt>
      <trkpt lat="45.9282" lon="4.741">
        <ele>171</ele>
        <time>2018-10-02T08:46:13Z</time>
      </trkpt>
      <trkpt lat="45.92816" lon="4.74104">
        <ele>172</ele>
        <time>2018-10-02T08:46:14Z</time>
      </trkpt>
      <trkpt lat="45.92811" lon="4.74109">
        <ele>172</ele>
        <time>2018-10-02T08:46:15Z</time>
      </trkpt>
      <trkpt lat="45.92806" lon="4.74114">
        <ele>172</ele>
        <time>2018-10-02T08:46:16Z</time>
      </trkpt>
      <trkpt lat="45.92801" lon="4.74119">
        <ele>172</ele>
        <time>2018-10-02T08:46:17Z</time>
      </trkpt>
      <trkpt lat="45.92796" lon="4.74123">
        <ele>172</ele>
        <time>2018-10-02T08:46:18Z</time>
      </trkpt>
      <trkpt lat="45.92791" lon="4.74127">
        <ele>172</ele>
        <time>2018-10-02T08:46:19Z</time>
      </trkpt>
      <trkpt lat="45.92786" lon="4.74133">
        <ele>172</ele>
        <time>2018-10-02T08:46:20Z</time>
      </trkpt>
      <trkpt lat="45.92782" lon="4.74138">
        <ele>172</ele>
        <time>2018-10-02T08:46:21Z</time>
      </trkpt>
      <trkpt lat="45.92777" lon="4.74143">
        <ele>172</ele>
        <time>2018-10-02T08:46:22Z</time>
      </trkpt>
      <trkpt lat="45.92772" lon="4.74148">
        <ele>172</ele>
        <time>2018-10-02T08:46:23Z</time>
      </trkpt>
      <trkpt lat="45.92767" lon="4.74154">
        <ele>172</ele>
        <time>2018-10-02T08:46:24Z</time>
      </trkpt>
      <trkpt lat="45.92761" lon="4.74158">
        <ele>172</ele>
        <time>2018-10-02T08:46:25Z</time>
      </trkpt>
      <trkpt lat="45.92757" lon="4.74164">
        <ele>172</ele>
        <time>2018-10-02T08:46:26Z</time>
      </trkpt>
      <trkpt lat="45.92752" lon="4.74169">
        <ele>172</ele>
        <time>2018-10-02T08:46:27Z</time>
      </trkpt>
      <trkpt lat="45.92747" lon="4.74175">
        <ele>172</ele>
        <time>2018-10-02T08:46:28Z</time>
      </trkpt>
      <trkpt lat="45.92743" lon="4.74181">
        <ele>172</ele>
        <time>2018-10-02T08:46:29Z</time>
      </trkpt>
      <trkpt lat="45.92737" lon="4.74187">
        <ele>172</ele>
        <time>2018-10-02T08:46:30Z</time>
      </trkpt>
      <trkpt lat="45.92734" lon="4.74193">
        <ele>171</ele>
        <time>2018-10-02T08:46:31Z</time>
      </trkpt>
      <trkpt lat="45.9273" lon="4.74198">
        <ele>171</ele>
        <time>2018-10-02T08:46:32Z</time>
      </trkpt>
      <trkpt lat="45.92726" lon="4.74203">
        <ele>171</ele>
        <time>2018-10-02T08:46:33Z</time>
      </trkpt>
      <trkpt lat="45.92722" lon="4.74208">
        <ele>171</ele>
        <time>2018-10-02T08:46:34Z</time>
      </trkpt>
      <trkpt lat="45.92718" lon="4.74212">
        <ele>171</ele>
        <time>2018-10-02T08:46:35Z</time>
      </trkpt>
      <trkpt lat="45.92714" lon="4.74217">
        <ele>171</ele>
        <time>2018-10-02T08:46:36Z</time>
      </trkpt>
      <trkpt lat="45.9271" lon="4.74223">
        <ele>171</ele>
        <time>2018-10-02T08:46:37Z</time>
      </trkpt>
      <trkpt lat="45.92707" lon="4.74229">
        <ele>171</ele>
        <time>2018-10-02T08:46:38Z</time>
      </trkpt>
      <trkpt lat="45.92703" lon="4.74234">
        <ele>171</ele>
        <time>2018-10-02T08:46:39Z</time>
      </trkpt>
      <trkpt lat="45.92699" lon="4.7424">
        <ele>171</ele>
        <time>2018-10-02T08:46:40Z</time>
      </trkpt>
      <trkpt lat="45.92695" lon="4.74246">
        <ele>171</ele>
        <time>2018-10-02T08:46:41Z</time>
      </trkpt>
      <trkpt lat="45.92692" lon="4.74252">
        <ele>171</ele>
        <time>2018-10-02T08:46:42Z</time>
      </trkpt>
      <trkpt lat="45.92688" lon="4.74257">
        <ele>171</ele>
        <time>2018-10-02T08:46:43Z</time>
      </trkpt>
      <trkpt lat="45.92685" lon="4.74263">
        <ele>171</ele>
        <time>2018-10-02T08:46:44Z</time>
      </trkpt>
      <trkpt lat="45.92682" lon="4.7427">
        <ele>171</ele>
        <time>2018-10-02T08:46:45Z</time>
      </trkpt>
      <trkpt lat="45.92678" lon="4.74276">
        <ele>171</ele>
        <time>2018-10-02T08:46:46Z</time>
      </trkpt>
      <trkpt lat="45.92675" lon="4.74284">
        <ele>171</ele>
        <time>2018-10-02T08:46:47Z</time>
      </trkpt>
      <trkpt lat="45.92671" lon="4.74291">
        <ele>171</ele>
        <time>2018-10-02T08:46:48Z</time>
      </trkpt>
      <trkpt lat="45.92667" lon="4.74297">
        <ele>171</ele>
        <time>2018-10-02T08:46:49Z</time>
      </trkpt>
      <trkpt lat="45.92663" lon="4.74304">
        <ele>171</ele>
        <time>2018-10-02T08:46:50Z</time>
      </trkpt>
      <trkpt lat="45.92659" lon="4.74311">
        <ele>171</ele>
        <time>2018-10-02T08:46:51Z</time>
      </trkpt>
      <trkpt lat="45.92655" lon="4.74318">
        <ele>171</ele>
        <time>2018-10-02T08:46:52Z</time>
      </trkpt>
      <trkpt lat="45.92652" lon="4.74325">
        <ele>171</ele>
        <time>2018-10-02T08:46:53Z</time>
      </trkpt>
      <trkpt lat="45.92648" lon="4.74333">
        <ele>171</ele>
        <time>2018-10-02T08:46:54Z</time>
      </trkpt>
      <trkpt lat="45.92646" lon="4.74342">
        <ele>171</ele>
        <time>2018-10-02T08:46:55Z</time>
      </trkpt>
      <trkpt lat="45.92641" lon="4.74347">
        <ele>171</ele>
        <time>2018-10-02T08:46:56Z</time>
      </trkpt>
      <trkpt lat="45.92638" lon="4.74354">
        <ele>171</ele>
        <time>2018-10-02T08:46:57Z</time>
      </trkpt>
      <trkpt lat="45.92634" lon="4.7436">
        <ele>171</ele>
        <time>2018-10-02T08:46:58Z</time>
      </trkpt>
      <trkpt lat="45.92631" lon="4.74366">
        <ele>171</ele>
        <time>2018-10-02T08:46:59Z</time>
      </trkpt>
      <trkpt lat="45.92628" lon="4.74372">
        <ele>171</ele>
        <time>2018-10-02T08:47:00Z</time>
      </trkpt>
      <trkpt lat="45.92625" lon="4.74378">
        <ele>170</ele>
        <time>2018-10-02T08:47:01Z</time>
      </trkpt>
      <trkpt lat="45.92622" lon="4.74385">
        <ele>170</ele>
        <time>2018-10-02T08:47:02Z</time>
      </trkpt>
      <trkpt lat="45.92617" lon="4.74392">
        <ele>170</ele>
        <time>2018-10-02T08:47:03Z</time>
      </trkpt>
      <trkpt lat="45.92613" lon="4.74398">
        <ele>170</ele>
        <time>2018-10-02T08:47:04Z</time>
      </trkpt>
      <trkpt lat="45.9261" lon="4.74405">
        <ele>170</ele>
        <time>2018-10-02T08:47:05Z</time>
      </trkpt>
      <trkpt lat="45.92605" lon="4.74411">
        <ele>170</ele>
        <time>2018-10-02T08:47:06Z</time>
      </trkpt>
      <trkpt lat="45.92602" lon="4.74419">
        <ele>170</ele>
        <time>2018-10-02T08:47:07Z</time>
      </trkpt>
      <trkpt lat="45.92597" lon="4.74426">
        <ele>170</ele>
        <time>2018-10-02T08:47:08Z</time>
      </trkpt>
      <trkpt lat="45.92593" lon="4.74434">
        <ele>170</ele>
        <time>2018-10-02T08:47:09Z</time>
      </trkpt>
      <trkpt lat="45.92589" lon="4.74441">
        <ele>170</ele>
        <time>2018-10-02T08:47:10Z</time>
      </trkpt>
      <trkpt lat="45.92584" lon="4.74448">
        <ele>170</ele>
        <time>2018-10-02T08:47:11Z</time>
      </trkpt>
      <trkpt lat="45.92581" lon="4.74456">
        <ele>170</ele>
        <time>2018-10-02T08:47:12Z</time>
      </trkpt>
      <trkpt lat="45.92577" lon="4.74463">
        <ele>170</ele>
        <time>2018-10-02T08:47:13Z</time>
      </trkpt>
      <trkpt lat="45.92573" lon="4.7447">
        <ele>170</ele>
        <time>2018-10-02T08:47:14Z</time>
      </trkpt>
      <trkpt lat="45.92569" lon="4.74476">
        <ele>170</ele>
        <time>2018-10-02T08:47:15Z</time>
      </trkpt>
      <trkpt lat="45.92565" lon="4.74482">
        <ele>170</ele>
        <time>2018-10-02T08:47:16Z</time>
      </trkpt>
      <trkpt lat="45.92562" lon="4.74489">
        <ele>170</ele>
        <time>2018-10-02T08:47:17Z</time>
      </trkpt>
      <trkpt lat="45.92559" lon="4.74494">
        <ele>170</ele>
        <time>2018-10-02T08:47:18Z</time>
      </trkpt>
      <trkpt lat="45.92556" lon="4.745">
        <ele>170</ele>
        <time>2018-10-02T08:47:19Z</time>
      </trkpt>
      <trkpt lat="45.92553" lon="4.74507">
        <ele>170</ele>
        <time>2018-10-02T08:47:20Z</time>
      </trkpt>
      <trkpt lat="45.92549" lon="4.74513">
        <ele>170</ele>
        <time>2018-10-02T08:47:21Z</time>
      </trkpt>
      <trkpt lat="45.92545" lon="4.7452">
        <ele>170</ele>
        <time>2018-10-02T08:47:22Z</time>
      </trkpt>
      <trkpt lat="45.92542" lon="4.74527">
        <ele>171</ele>
        <time>2018-10-02T08:47:23Z</time>
      </trkpt>
      <trkpt lat="45.92538" lon="4.74535">
        <ele>171</ele>
        <time>2018-10-02T08:47:24Z</time>
      </trkpt>
      <trkpt lat="45.92535" lon="4.74542">
        <ele>171</ele>
        <time>2018-10-02T08:47:25Z</time>
      </trkpt>
      <trkpt lat="45.9253" lon="4.74548">
        <ele>171</ele>
        <time>2018-10-02T08:47:26Z</time>
      </trkpt>
      <trkpt lat="45.92526" lon="4.74554">
        <ele>171</ele>
        <time>2018-10-02T08:47:27Z</time>
      </trkpt>
      <trkpt lat="45.92522" lon="4.7456">
        <ele>171</ele>
        <time>2018-10-02T08:47:28Z</time>
      </trkpt>
      <trkpt lat="45.92517" lon="4.74566">
        <ele>171</ele>
        <time>2018-10-02T08:47:29Z</time>
      </trkpt>
      <trkpt lat="45.92512" lon="4.74573">
        <ele>171</ele>
        <time>2018-10-02T08:47:30Z</time>
      </trkpt>
      <trkpt lat="45.92509" lon="4.7458">
        <ele>171</ele>
        <time>2018-10-02T08:47:31Z</time>
      </trkpt>
      <trkpt lat="45.92504" lon="4.74585">
        <ele>171</ele>
        <time>2018-10-02T08:47:32Z</time>
      </trkpt>
      <trkpt lat="45.92501" lon="4.74591">
        <ele>171</ele>
        <time>2018-10-02T08:47:33Z</time>
      </trkpt>
      <trkpt lat="45.92496" lon="4.74596">
        <ele>171</ele>
        <time>2018-10-02T08:47:34Z</time>
      </trkpt>
      <trkpt lat="45.9249" lon="4.74602">
        <ele>171</ele>
        <time>2018-10-02T08:47:35Z</time>
      </trkpt>
      <trkpt lat="45.92486" lon="4.74608">
        <ele>171</ele>
        <time>2018-10-02T08:47:36Z</time>
      </trkpt>
      <trkpt lat="45.92481" lon="4.74613">
        <ele>171</ele>
        <time>2018-10-02T08:47:37Z</time>
      </trkpt>
      <trkpt lat="45.92476" lon="4.74618">
        <ele>171</ele>
        <time>2018-10-02T08:47:38Z</time>
      </trkpt>
      <trkpt lat="45.92473" lon="4.74625">
        <ele>171</ele>
        <time>2018-10-02T08:47:39Z</time>
      </trkpt>
      <trkpt lat="45.92469" lon="4.7463">
        <ele>171</ele>
        <time>2018-10-02T08:47:40Z</time>
      </trkpt>
      <trkpt lat="45.92466" lon="4.74637">
        <ele>171</ele>
        <time>2018-10-02T08:47:41Z</time>
      </trkpt>
      <trkpt lat="45.92463" lon="4.74643">
        <ele>171</ele>
        <time>2018-10-02T08:47:42Z</time>
      </trkpt>
      <trkpt lat="45.92459" lon="4.74649">
        <ele>171</ele>
        <time>2018-10-02T08:47:43Z</time>
      </trkpt>
      <trkpt lat="45.92457" lon="4.74655">
        <ele>171</ele>
        <time>2018-10-02T08:47:44Z</time>
      </trkpt>
      <trkpt lat="45.92455" lon="4.74661">
        <ele>171</ele>
        <time>2018-10-02T08:47:45Z</time>
      </trkpt>
      <trkpt lat="45.9245" lon="4.74666">
        <ele>171</ele>
        <time>2018-10-02T08:47:46Z</time>
      </trkpt>
      <trkpt lat="45.92447" lon="4.74672">
        <ele>171</ele>
        <time>2018-10-02T08:47:47Z</time>
      </trkpt>
      <trkpt lat="45.92445" lon="4.7468">
        <ele>171</ele>
        <time>2018-10-02T08:47:48Z</time>
      </trkpt>
      <trkpt lat="45.92442" lon="4.74686">
        <ele>171</ele>
        <time>2018-10-02T08:47:49Z</time>
      </trkpt>
      <trkpt lat="45.92438" lon="4.74693">
        <ele>171</ele>
        <time>2018-10-02T08:47:50Z</time>
      </trkpt>
      <trkpt lat="45.92435" lon="4.74699">
        <ele>171</ele>
        <time>2018-10-02T08:47:51Z</time>
      </trkpt>
      <trkpt lat="45.92431" lon="4.74706">
        <ele>171</ele>
        <time>2018-10-02T08:47:52Z</time>
      </trkpt>
      <trkpt lat="45.92428" lon="4.74712">
        <ele>171</ele>
        <time>2018-10-02T08:47:53Z</time>
      </trkpt>
      <trkpt lat="45.92425" lon="4.74721">
        <ele>171</ele>
        <time>2018-10-02T08:47:54Z</time>
      </trkpt>
      <trkpt lat="45.92423" lon="4.74728">
        <ele>171</ele>
        <time>2018-10-02T08:47:55Z</time>
      </trkpt>
      <trkpt lat="45.9242" lon="4.74735">
        <ele>171</ele>
        <time>2018-10-02T08:47:56Z</time>
      </trkpt>
      <trkpt lat="45.92418" lon="4.74744">
        <ele>172</ele>
        <time>2018-10-02T08:47:57Z</time>
      </trkpt>
      <trkpt lat="45.92415" lon="4.74752">
        <ele>172</ele>
        <time>2018-10-02T08:47:58Z</time>
      </trkpt>
      <trkpt lat="45.92414" lon="4.7476">
        <ele>172</ele>
        <time>2018-10-02T08:47:59Z</time>
      </trkpt>
      <trkpt lat="45.92411" lon="4.74768">
        <ele>172</ele>
        <time>2018-10-02T08:48:00Z</time>
      </trkpt>
      <trkpt lat="45.92409" lon="4.74775">
        <ele>171</ele>
        <time>2018-10-02T08:48:01Z</time>
      </trkpt>
      <trkpt lat="45.92407" lon="4.74783">
        <ele>171</ele>
        <time>2018-10-02T08:48:02Z</time>
      </trkpt>
      <trkpt lat="45.92405" lon="4.74791">
        <ele>171</ele>
        <time>2018-10-02T08:48:03Z</time>
      </trkpt>
      <trkpt lat="45.92403" lon="4.74799">
        <ele>171</ele>
        <time>2018-10-02T08:48:04Z</time>
      </trkpt>
      <trkpt lat="45.92401" lon="4.74808">
        <ele>171</ele>
        <time>2018-10-02T08:48:05Z</time>
      </trkpt>
      <trkpt lat="45.92399" lon="4.74816">
        <ele>171</ele>
        <time>2018-10-02T08:48:06Z</time>
      </trkpt>
      <trkpt lat="45.92397" lon="4.74825">
        <ele>171</ele>
        <time>2018-10-02T08:48:07Z</time>
      </trkpt>
      <trkpt lat="45.92395" lon="4.74833">
        <ele>171</ele>
        <time>2018-10-02T08:48:08Z</time>
      </trkpt>
      <trkpt lat="45.92392" lon="4.74841">
        <ele>171</ele>
        <time>2018-10-02T08:48:09Z</time>
      </trkpt>
      <trkpt lat="45.9239" lon="4.7485">
        <ele>171</ele>
        <time>2018-10-02T08:48:10Z</time>
      </trkpt>
      <trkpt lat="45.92387" lon="4.74858">
        <ele>171</ele>
        <time>2018-10-02T08:48:11Z</time>
      </trkpt>
      <trkpt lat="45.92385" lon="4.74866">
        <ele>171</ele>
        <time>2018-10-02T08:48:12Z</time>
      </trkpt>
      <trkpt lat="45.92382" lon="4.74873">
        <ele>171</ele>
        <time>2018-10-02T08:48:13Z</time>
      </trkpt>
      <trkpt lat="45.92379" lon="4.74881">
        <ele>171</ele>
        <time>2018-10-02T08:48:14Z</time>
      </trkpt>
      <trkpt lat="45.92376" lon="4.74889">
        <ele>171</ele>
        <time>2018-10-02T08:48:15Z</time>
      </trkpt>
      <trkpt lat="45.92374" lon="4.74898">
        <ele>171</ele>
        <time>2018-10-02T08:48:16Z</time>
      </trkpt>
      <trkpt lat="45.92371" lon="4.74905">
        <ele>171</ele>
        <time>2018-10-02T08:48:17Z</time>
      </trkpt>
      <trkpt lat="45.92369" lon="4.74912">
        <ele>171</ele>
        <time>2018-10-02T08:48:18Z</time>
      </trkpt>
      <trkpt lat="45.92366" lon="4.74919">
        <ele>170</ele>
        <time>2018-10-02T08:48:19Z</time>
      </trkpt>
      <trkpt lat="45.92363" lon="4.74925">
        <ele>170</ele>
        <time>2018-10-02T08:48:20Z</time>
      </trkpt>
      <trkpt lat="45.9236" lon="4.74932">
        <ele>170</ele>
        <time>2018-10-02T08:48:21Z</time>
      </trkpt>
      <trkpt lat="45.92357" lon="4.74938">
        <ele>170</ele>
        <time>2018-10-02T08:48:22Z</time>
      </trkpt>
      <trkpt lat="45.92354" lon="4.74945">
        <ele>170</ele>
        <time>2018-10-02T08:48:23Z</time>
      </trkpt>
      <trkpt lat="45.92352" lon="4.74952">
        <ele>170</ele>
        <time>2018-10-02T08:48:24Z</time>
      </trkpt>
      <trkpt lat="45.92349" lon="4.74958">
        <ele>170</ele>
        <time>2018-10-02T08:48:25Z</time>
      </trkpt>
      <trkpt lat="45.92345" lon="4.74965">
        <ele>170</ele>
        <time>2018-10-02T08:48:26Z</time>
      </trkpt>
      <trkpt lat="45.92343" lon="4.74973">
        <ele>170</ele>
        <time>2018-10-02T08:48:27Z</time>
      </trkpt>
      <trkpt lat="45.9234" lon="4.7498">
        <ele>170</ele>
        <time>2018-10-02T08:48:28Z</time>
      </trkpt>
      <trkpt lat="45.92338" lon="4.7499">
        <ele>170</ele>
        <time>2018-10-02T08:48:29Z</time>
      </trkpt>
      <trkpt lat="45.92335" lon="4.74997">
        <ele>170</ele>
        <time>2018-10-02T08:48:30Z</time>
      </trkpt>
      <trkpt lat="45.92332" lon="4.75005">
        <ele>170</ele>
        <time>2018-10-02T08:48:31Z</time>
      </trkpt>
      <trkpt lat="45.92329" lon="4.75013">
        <ele>171</ele>
        <time>2018-10-02T08:48:32Z</time>
      </trkpt>
      <trkpt lat="45.92325" lon="4.75019">
        <ele>171</ele>
        <time>2018-10-02T08:48:33Z</time>
      </trkpt>
      <trkpt lat="45.92323" lon="4.75025">
        <ele>171</ele>
        <time>2018-10-02T08:48:34Z</time>
      </trkpt>
      <trkpt lat="45.92319" lon="4.75032">
        <ele>171</ele>
        <time>2018-10-02T08:48:35Z</time>
      </trkpt>
      <trkpt lat="45.92315" lon="4.75038">
        <ele>172</ele>
        <time>2018-10-02T08:48:36Z</time>
      </trkpt>
      <trkpt lat="45.92311" lon="4.75044">
        <ele>172</ele>
        <time>2018-10-02T08:48:37Z</time>
      </trkpt>
      <trkpt lat="45.92307" lon="4.7505">
        <ele>172</ele>
        <time>2018-10-02T08:48:38Z</time>
      </trkpt>
      <trkpt lat="45.92303" lon="4.75055">
        <ele>172</ele>
        <time>2018-10-02T08:48:39Z</time>
      </trkpt>
      <trkpt lat="45.92299" lon="4.75061">
        <ele>172</ele>
        <time>2018-10-02T08:48:40Z</time>
      </trkpt>
      <trkpt lat="45.92294" lon="4.75066">
        <ele>172</ele>
        <time>2018-10-02T08:48:41Z</time>
      </trkpt>
      <trkpt lat="45.9229" lon="4.75071">
        <ele>172</ele>
        <time>2018-10-02T08:48:42Z</time>
      </trkpt>
      <trkpt lat="45.92286" lon="4.75077">
        <ele>172</ele>
        <time>2018-10-02T08:48:43Z</time>
      </trkpt>
      <trkpt lat="45.92282" lon="4.75081">
        <ele>172</ele>
        <time>2018-10-02T08:48:44Z</time>
      </trkpt>
      <trkpt lat="45.92278" lon="4.75086">
        <ele>173</ele>
        <time>2018-10-02T08:48:45Z</time>
      </trkpt>
      <trkpt lat="45.92273" lon="4.7509">
        <ele>173</ele>
        <time>2018-10-02T08:48:46Z</time>
      </trkpt>
      <trkpt lat="45.92269" lon="4.75095">
        <ele>173</ele>
        <time>2018-10-02T08:48:47Z</time>
      </trkpt>
      <trkpt lat="45.92265" lon="4.751">
        <ele>173</ele>
        <time>2018-10-02T08:48:48Z</time>
      </trkpt>
      <trkpt lat="45.92261" lon="4.75105">
        <ele>173</ele>
        <time>2018-10-02T08:48:49Z</time>
      </trkpt>
      <trkpt lat="45.92256" lon="4.7511">
        <ele>174</ele>
        <time>2018-10-02T08:48:50Z</time>
      </trkpt>
      <trkpt lat="45.92252" lon="4.75115">
        <ele>174</ele>
        <time>2018-10-02T08:48:51Z</time>
      </trkpt>
      <trkpt lat="45.92248" lon="4.7512">
        <ele>174</ele>
        <time>2018-10-02T08:48:52Z</time>
      </trkpt>
      <trkpt lat="45.92245" lon="4.75126">
        <ele>174</ele>
        <time>2018-10-02T08:48:53Z</time>
      </trkpt>
      <trkpt lat="45.92241" lon="4.75131">
        <ele>174</ele>
        <time>2018-10-02T08:48:54Z</time>
      </trkpt>
      <trkpt lat="45.92238" lon="4.75136">
        <ele>174</ele>
        <time>2018-10-02T08:48:55Z</time>
      </trkpt>
      <trkpt lat="45.92233" lon="4.75142">
        <ele>174</ele>
        <time>2018-10-02T08:48:56Z</time>
      </trkpt>
      <trkpt lat="45.9223" lon="4.75149">
        <ele>174</ele>
        <time>2018-10-02T08:48:57Z</time>
      </trkpt>
      <trkpt lat="45.92227" lon="4.75156">
        <ele>174</ele>
        <time>2018-10-02T08:48:58Z</time>
      </trkpt>
      <trkpt lat="45.92224" lon="4.75163">
        <ele>174</ele>
        <time>2018-10-02T08:48:59Z</time>
      </trkpt>
      <trkpt lat="45.92221" lon="4.75169">
        <ele>175</ele>
        <time>2018-10-02T08:49:00Z</time>
      </trkpt>
      <trkpt lat="45.92218" lon="4.75176">
        <ele>175</ele>
        <time>2018-10-02T08:49:01Z</time>
      </trkpt>
      <trkpt lat="45.92215" lon="4.75183">
        <ele>175</ele>
        <time>2018-10-02T08:49:02Z</time>
      </trkpt>
      <trkpt lat="45.92214" lon="4.75191">
        <ele>175</ele>
        <time>2018-10-02T08:49:03Z</time>
      </trkpt>
      <trkpt lat="45.92212" lon="4.75197">
        <ele>175</ele>
        <time>2018-10-02T08:49:04Z</time>
      </trkpt>
      <trkpt lat="45.92212" lon="4.75206">
        <ele>175</ele>
        <time>2018-10-02T08:49:05Z</time>
      </trkpt>
      <trkpt lat="45.92211" lon="4.75212">
        <ele>175</ele>
        <time>2018-10-02T08:49:06Z</time>
      </trkpt>
      <trkpt lat="45.92211" lon="4.75225">
        <ele>175</ele>
        <time>2018-10-02T08:49:08Z</time>
      </trkpt>
      <trkpt lat="45.92211" lon="4.75232">
        <ele>175</ele>
        <time>2018-10-02T08:49:09Z</time>
      </trkpt>
      <trkpt lat="45.92211" lon="4.75238">
        <ele>175</ele>
        <time>2018-10-02T08:49:10Z</time>
      </trkpt>
      <trkpt lat="45.9221" lon="4.75245">
        <ele>175</ele>
        <time>2018-10-02T08:49:11Z</time>
      </trkpt>
      <trkpt lat="45.92209" lon="4.75257">
        <ele>175</ele>
        <time>2018-10-02T08:49:13Z</time>
      </trkpt>
      <trkpt lat="45.9221" lon="4.75264">
        <ele>176</ele>
        <time>2018-10-02T08:49:14Z</time>
      </trkpt>
      <trkpt lat="45.9221" lon="4.75276">
        <ele>176</ele>
        <time>2018-10-02T08:49:16Z</time>
      </trkpt>
      <trkpt lat="45.9221" lon="4.75282">
        <ele>176</ele>
        <time>2018-10-02T08:49:17Z</time>
      </trkpt>
      <trkpt lat="45.92208" lon="4.75295">
        <ele>176</ele>
        <time>2018-10-02T08:49:19Z</time>
      </trkpt>
      <trkpt lat="45.92209" lon="4.75301">
        <ele>176</ele>
        <time>2018-10-02T08:49:20Z</time>
      </trkpt>
      <trkpt lat="45.92207" lon="4.75314">
        <ele>176</ele>
        <time>2018-10-02T08:49:22Z</time>
      </trkpt>
      <trkpt lat="45.92206" lon="4.75319">
        <ele>176</ele>
        <time>2018-10-02T08:49:23Z</time>
      </trkpt>
      <trkpt lat="45.92205" lon="4.75326">
        <ele>176</ele>
        <time>2018-10-02T08:49:24Z</time>
      </trkpt>
      <trkpt lat="45.92204" lon="4.75332">
        <ele>176</ele>
        <time>2018-10-02T08:49:25Z</time>
      </trkpt>
      <trkpt lat="45.92203" lon="4.75337">
        <ele>177</ele>
        <time>2018-10-02T08:49:26Z</time>
      </trkpt>
      <trkpt lat="45.922" lon="4.75344">
        <ele>177</ele>
        <time>2018-10-02T08:49:27Z</time>
      </trkpt>
      <trkpt lat="45.92198" lon="4.75351">
        <ele>177</ele>
        <time>2018-10-02T08:49:28Z</time>
      </trkpt>
      <trkpt lat="45.92197" lon="4.75356">
        <ele>177</ele>
        <time>2018-10-02T08:49:29Z</time>
      </trkpt>
      <trkpt lat="45.92195" lon="4.75363">
        <ele>177</ele>
        <time>2018-10-02T08:49:30Z</time>
      </trkpt>
      <trkpt lat="45.92193" lon="4.7537">
        <ele>177</ele>
        <time>2018-10-02T08:49:31Z</time>
      </trkpt>
      <trkpt lat="45.92191" lon="4.75377">
        <ele>177</ele>
        <time>2018-10-02T08:49:32Z</time>
      </trkpt>
      <trkpt lat="45.92188" lon="4.75384">
        <ele>177</ele>
        <time>2018-10-02T08:49:33Z</time>
      </trkpt>
      <trkpt lat="45.92186" lon="4.7539">
        <ele>177</ele>
        <time>2018-10-02T08:49:34Z</time>
      </trkpt>
      <trkpt lat="45.92183" lon="4.75396">
        <ele>177</ele>
        <time>2018-10-02T08:49:35Z</time>
      </trkpt>
      <trkpt lat="45.9218" lon="4.75403">
        <ele>177</ele>
        <time>2018-10-02T08:49:36Z</time>
      </trkpt>
      <trkpt lat="45.92177" lon="4.7541">
        <ele>177</ele>
        <time>2018-10-02T08:49:37Z</time>
      </trkpt>
      <trkpt lat="45.92175" lon="4.75417">
        <ele>177</ele>
        <time>2018-10-02T08:49:38Z</time>
      </trkpt>
      <trkpt lat="45.92173" lon="4.75423">
        <ele>177</ele>
        <time>2018-10-02T08:49:39Z</time>
      </trkpt>
      <trkpt lat="45.92171" lon="4.7543">
        <ele>177</ele>
        <time>2018-10-02T08:49:40Z</time>
      </trkpt>
      <trkpt lat="45.92168" lon="4.75435">
        <ele>177</ele>
        <time>2018-10-02T08:49:41Z</time>
      </trkpt>
      <trkpt lat="45.92167" lon="4.75441">
        <ele>177</ele>
        <time>2018-10-02T08:49:42Z</time>
      </trkpt>
      <trkpt lat="45.92166" lon="4.7545">
        <ele>176</ele>
        <time>2018-10-02T08:49:43Z</time>
      </trkpt>
      <trkpt lat="45.92162" lon="4.75454">
        <ele>176</ele>
        <time>2018-10-02T08:49:44Z</time>
      </trkpt>
      <trkpt lat="45.9216" lon="4.75461">
        <ele>176</ele>
        <time>2018-10-02T08:49:45Z</time>
      </trkpt>
      <trkpt lat="45.92157" lon="4.75467">
        <ele>176</ele>
        <time>2018-10-02T08:49:46Z</time>
      </trkpt>
      <trkpt lat="45.92153" lon="4.75473">
        <ele>176</ele>
        <time>2018-10-02T08:49:47Z</time>
      </trkpt>
      <trkpt lat="45.92151" lon="4.7548">
        <ele>176</ele>
        <time>2018-10-02T08:49:48Z</time>
      </trkpt>
      <trkpt lat="45.92148" lon="4.75489">
        <ele>176</ele>
        <time>2018-10-02T08:49:49Z</time>
      </trkpt>
      <trkpt lat="45.92145" lon="4.75497">
        <ele>175</ele>
        <time>2018-10-02T08:49:50Z</time>
      </trkpt>
      <trkpt lat="45.92142" lon="4.75504">
        <ele>175</ele>
        <time>2018-10-02T08:49:51Z</time>
      </trkpt>
      <trkpt lat="45.92139" lon="4.7551">
        <ele>174</ele>
        <time>2018-10-02T08:49:52Z</time>
      </trkpt>
      <trkpt lat="45.92135" lon="4.75516">
        <ele>174</ele>
        <time>2018-10-02T08:49:53Z</time>
      </trkpt>
      <trkpt lat="45.92132" lon="4.75523">
        <ele>174</ele>
        <time>2018-10-02T08:49:54Z</time>
      </trkpt>
      <trkpt lat="45.92128" lon="4.75529">
        <ele>174</ele>
        <time>2018-10-02T08:49:55Z</time>
      </trkpt>
      <trkpt lat="45.92126" lon="4.75535">
        <ele>174</ele>
        <time>2018-10-02T08:49:56Z</time>
      </trkpt>
      <trkpt lat="45.92124" lon="4.75542">
        <ele>174</ele>
        <time>2018-10-02T08:49:57Z</time>
      </trkpt>
      <trkpt lat="45.9212" lon="4.75548">
        <ele>174</ele>
        <time>2018-10-02T08:49:58Z</time>
      </trkpt>
      <trkpt lat="45.92118" lon="4.75554">
        <ele>174</ele>
        <time>2018-10-02T08:49:59Z</time>
      </trkpt>
      <trkpt lat="45.92114" lon="4.75559">
        <ele>174</ele>
        <time>2018-10-02T08:50:00Z</time>
      </trkpt>
      <trkpt lat="45.92111" lon="4.75565">
        <ele>174</ele>
        <time>2018-10-02T08:50:01Z</time>
      </trkpt>
      <trkpt lat="45.92107" lon="4.75575">
        <ele>174</ele>
        <time>2018-10-02T08:50:03Z</time>
      </trkpt>
      <trkpt lat="45.92106" lon="4.7558">
        <ele>174</ele>
        <time>2018-10-02T08:50:04Z</time>
      </trkpt>
      <trkpt lat="45.92111" lon="4.7559">
        <ele>174</ele>
        <time>2018-10-02T08:50:06Z</time>
      </trkpt>
      <trkpt lat="45.92115" lon="4.75593">
        <ele>174</ele>
        <time>2018-10-02T08:50:07Z</time>
      </trkpt>
      <trkpt lat="45.92123" lon="4.75597">
        <ele>174</ele>
        <time>2018-10-02T08:50:09Z</time>
      </trkpt>
      <trkpt lat="45.92128" lon="4.756">
        <ele>174</ele>
        <time>2018-10-02T08:50:10Z</time>
      </trkpt>
      <trkpt lat="45.92132" lon="4.75603">
        <ele>174</ele>
        <time>2018-10-02T08:50:11Z</time>
      </trkpt>
      <trkpt lat="45.92136" lon="4.75607">
        <ele>174</ele>
        <time>2018-10-02T08:50:12Z</time>
      </trkpt>
      <trkpt lat="45.92144" lon="4.75614">
        <ele>174</ele>
        <time>2018-10-02T08:50:14Z</time>
      </trkpt>
      <trkpt lat="45.92148" lon="4.75618">
        <ele>174</ele>
        <time>2018-10-02T08:50:15Z</time>
      </trkpt>
      <trkpt lat="45.92155" lon="4.75625">
        <ele>174</ele>
        <time>2018-10-02T08:50:17Z</time>
      </trkpt>
      <trkpt lat="45.92159" lon="4.75628">
        <ele>174</ele>
        <time>2018-10-02T08:50:18Z</time>
      </trkpt>
      <trkpt lat="45.92163" lon="4.75632">
        <ele>174</ele>
        <time>2018-10-02T08:50:19Z</time>
      </trkpt>
      <trkpt lat="45.92167" lon="4.75636">
        <ele>174</ele>
        <time>2018-10-02T08:50:20Z</time>
      </trkpt>
      <trkpt lat="45.92171" lon="4.75641">
        <ele>174</ele>
        <time>2018-10-02T08:50:21Z</time>
      </trkpt>
      <trkpt lat="45.92175" lon="4.75645">
        <ele>174</ele>
        <time>2018-10-02T08:50:22Z</time>
      </trkpt>
      <trkpt lat="45.92181" lon="4.75647">
        <ele>174</ele>
        <time>2018-10-02T08:50:23Z</time>
      </trkpt>
      <trkpt lat="45.92185" lon="4.7565">
        <ele>174</ele>
        <time>2018-10-02T08:50:24Z</time>
      </trkpt>
      <trkpt lat="45.92189" lon="4.75657">
        <ele>174</ele>
        <time>2018-10-02T08:50:25Z</time>
      </trkpt>
      <trkpt lat="45.92192" lon="4.75661">
        <ele>174</ele>
        <time>2018-10-02T08:50:26Z</time>
      </trkpt>
      <trkpt lat="45.92196" lon="4.75665">
        <ele>174</ele>
        <time>2018-10-02T08:50:27Z</time>
      </trkpt>
      <trkpt lat="45.922" lon="4.75669">
        <ele>174</ele>
        <time>2018-10-02T08:50:28Z</time>
      </trkpt>
      <trkpt lat="45.92204" lon="4.75673">
        <ele>174</ele>
        <time>2018-10-02T08:50:29Z</time>
      </trkpt>
      <trkpt lat="45.92207" lon="4.75678">
        <ele>174</ele>
        <time>2018-10-02T08:50:30Z</time>
      </trkpt>
      <trkpt lat="45.92215" lon="4.75685">
        <ele>174</ele>
        <time>2018-10-02T08:50:32Z</time>
      </trkpt>
      <trkpt lat="45.92218" lon="4.75687">
        <ele>174</ele>
        <time>2018-10-02T08:50:33Z</time>
      </trkpt>
      <trkpt lat="45.92225" lon="4.75694">
        <ele>174</ele>
        <time>2018-10-02T08:50:35Z</time>
      </trkpt>
      <trkpt lat="45.92228" lon="4.75697">
        <ele>174</ele>
        <time>2018-10-02T08:50:36Z</time>
      </trkpt>
      <trkpt lat="45.92231" lon="4.75702">
        <ele>174</ele>
        <time>2018-10-02T08:50:37Z</time>
      </trkpt>
      <trkpt lat="45.92235" lon="4.75706">
        <ele>174</ele>
        <time>2018-10-02T08:50:38Z</time>
      </trkpt>
      <trkpt lat="45.92237" lon="4.7571">
        <ele>174</ele>
        <time>2018-10-02T08:50:39Z</time>
      </trkpt>
      <trkpt lat="45.92241" lon="4.75716">
        <ele>174</ele>
        <time>2018-10-02T08:50:40Z</time>
      </trkpt>
      <trkpt lat="45.92243" lon="4.75721">
        <ele>174</ele>
        <time>2018-10-02T08:50:41Z</time>
      </trkpt>
      <trkpt lat="45.92245" lon="4.75727">
        <ele>174</ele>
        <time>2018-10-02T08:50:42Z</time>
      </trkpt>
      <trkpt lat="45.92246" lon="4.75733">
        <ele>174</ele>
        <time>2018-10-02T08:50:43Z</time>
      </trkpt>
      <trkpt lat="45.92248" lon="4.75739">
        <ele>174</ele>
        <time>2018-10-02T08:50:44Z</time>
      </trkpt>
      <trkpt lat="45.92249" lon="4.75745">
        <ele>174</ele>
        <time>2018-10-02T08:50:45Z</time>
      </trkpt>
      <trkpt lat="45.9225" lon="4.75752">
        <ele>174</ele>
        <time>2018-10-02T08:50:46Z</time>
      </trkpt>
      <trkpt lat="45.92252" lon="4.75764">
        <ele>174</ele>
        <time>2018-10-02T08:50:48Z</time>
      </trkpt>
      <trkpt lat="45.92254" lon="4.75769">
        <ele>174</ele>
        <time>2018-10-02T08:50:49Z</time>
      </trkpt>
      <trkpt lat="45.92255" lon="4.75775">
        <ele>174</ele>
        <time>2018-10-02T08:50:50Z</time>
      </trkpt>
      <trkpt lat="45.92256" lon="4.75782">
        <ele>174</ele>
        <time>2018-10-02T08:50:51Z</time>
      </trkpt>
      <trkpt lat="45.92259" lon="4.75794">
        <ele>174</ele>
        <time>2018-10-02T08:50:53Z</time>
      </trkpt>
      <trkpt lat="45.92261" lon="4.75799">
        <ele>174</ele>
        <time>2018-10-02T08:50:54Z</time>
      </trkpt>
      <trkpt lat="45.92263" lon="4.75805">
        <ele>174</ele>
        <time>2018-10-02T08:50:55Z</time>
      </trkpt>
      <trkpt lat="45.92265" lon="4.75811">
        <ele>174</ele>
        <time>2018-10-02T08:50:56Z</time>
      </trkpt>
      <trkpt lat="45.9227" lon="4.75821">
        <ele>174</ele>
        <time>2018-10-02T08:50:58Z</time>
      </trkpt>
      <trkpt lat="45.92274" lon="4.75826">
        <ele>174</ele>
        <time>2018-10-02T08:50:59Z</time>
      </trkpt>
      <trkpt lat="45.92277" lon="4.7583">
        <ele>174</ele>
        <time>2018-10-02T08:51:00Z</time>
      </trkpt>
      <trkpt lat="45.92281" lon="4.75833">
        <ele>173</ele>
        <time>2018-10-02T08:51:01Z</time>
      </trkpt>
      <trkpt lat="45.92285" lon="4.75837">
        <ele>173</ele>
        <time>2018-10-02T08:51:02Z</time>
      </trkpt>
      <trkpt lat="45.9229" lon="4.75839">
        <ele>173</ele>
        <time>2018-10-02T08:51:03Z</time>
      </trkpt>
      <trkpt lat="45.92294" lon="4.75842">
        <ele>173</ele>
        <time>2018-10-02T08:51:04Z</time>
      </trkpt>
      <trkpt lat="45.92298" lon="4.75845">
        <ele>173</ele>
        <time>2018-10-02T08:51:05Z</time>
      </trkpt>
      <trkpt lat="45.92302" lon="4.75847">
        <ele>173</ele>
        <time>2018-10-02T08:51:06Z</time>
      </trkpt>
      <trkpt lat="45.92307" lon="4.75851">
        <ele>173</ele>
        <time>2018-10-02T08:51:07Z</time>
      </trkpt>
      <trkpt lat="45.92312" lon="4.75853">
        <ele>173</ele>
        <time>2018-10-02T08:51:08Z</time>
      </trkpt>
      <trkpt lat="45.92317" lon="4.75857">
        <ele>173</ele>
        <time>2018-10-02T08:51:09Z</time>
      </trkpt>
      <trkpt lat="45.92322" lon="4.75862">
        <ele>173</ele>
        <time>2018-10-02T08:51:10Z</time>
      </trkpt>
      <trkpt lat="45.92328" lon="4.75866">
        <ele>173</ele>
        <time>2018-10-02T08:51:11Z</time>
      </trkpt>
      <trkpt lat="45.92333" lon="4.75869">
        <ele>173</ele>
        <time>2018-10-02T08:51:12Z</time>
      </trkpt>
      <trkpt lat="45.92339" lon="4.75872">
        <ele>173</ele>
        <time>2018-10-02T08:51:13Z</time>
      </trkpt>
      <trkpt lat="45.92345" lon="4.75876">
        <ele>173</ele>
        <time>2018-10-02T08:51:14Z</time>
      </trkpt>
      <trkpt lat="45.92349" lon="4.75879">
        <ele>173</ele>
        <time>2018-10-02T08:51:15Z</time>
      </trkpt>
      <trkpt lat="45.92354" lon="4.75882">
        <ele>173</ele>
        <time>2018-10-02T08:51:16Z</time>
      </trkpt>
      <trkpt lat="45.9236" lon="4.75884">
        <ele>173</ele>
        <time>2018-10-02T08:51:17Z</time>
      </trkpt>
      <trkpt lat="45.92365" lon="4.75887">
        <ele>173</ele>
        <time>2018-10-02T08:51:18Z</time>
      </trkpt>
      <trkpt lat="45.92369" lon="4.7589">
        <ele>173</ele>
        <time>2018-10-02T08:51:19Z</time>
      </trkpt>
      <trkpt lat="45.92373" lon="4.75893">
        <ele>173</ele>
        <time>2018-10-02T08:51:20Z</time>
      </trkpt>
      <trkpt lat="45.92377" lon="4.75896">
        <ele>173</ele>
        <time>2018-10-02T08:51:21Z</time>
      </trkpt>
      <trkpt lat="45.92386" lon="4.759">
        <ele>173</ele>
        <time>2018-10-02T08:51:23Z</time>
      </trkpt>
      <trkpt lat="45.92389" lon="4.75903">
        <ele>173</ele>
        <time>2018-10-02T08:51:24Z</time>
      </trkpt>
      <trkpt lat="45.92394" lon="4.75904">
        <ele>173</ele>
        <time>2018-10-02T08:51:25Z</time>
      </trkpt>
      <trkpt lat="45.92398" lon="4.75907">
        <ele>173</ele>
        <time>2018-10-02T08:51:26Z</time>
      </trkpt>
      <trkpt lat="45.92402" lon="4.7591">
        <ele>172</ele>
        <time>2018-10-02T08:51:27Z</time>
      </trkpt>
      <trkpt lat="45.92407" lon="4.75914">
        <ele>172</ele>
        <time>2018-10-02T08:51:28Z</time>
      </trkpt>
      <trkpt lat="45.92411" lon="4.75917">
        <ele>172</ele>
        <time>2018-10-02T08:51:29Z</time>
      </trkpt>
      <trkpt lat="45.92415" lon="4.75921">
        <ele>172</ele>
        <time>2018-10-02T08:51:30Z</time>
      </trkpt>
      <trkpt lat="45.92419" lon="4.75925">
        <ele>172</ele>
        <time>2018-10-02T08:51:31Z</time>
      </trkpt>
      <trkpt lat="45.92423" lon="4.75929">
        <ele>172</ele>
        <time>2018-10-02T08:51:32Z</time>
      </trkpt>
      <trkpt lat="45.92428" lon="4.75932">
        <ele>172</ele>
        <time>2018-10-02T08:51:33Z</time>
      </trkpt>
      <trkpt lat="45.92432" lon="4.75935">
        <ele>172</ele>
        <time>2018-10-02T08:51:34Z</time>
      </trkpt>
      <trkpt lat="45.92436" lon="4.75939">
        <ele>172</ele>
        <time>2018-10-02T08:51:35Z</time>
      </trkpt>
      <trkpt lat="45.9244" lon="4.75942">
        <ele>172</ele>
        <time>2018-10-02T08:51:36Z</time>
      </trkpt>
      <trkpt lat="45.92445" lon="4.75946">
        <ele>172</ele>
        <time>2018-10-02T08:51:37Z</time>
      </trkpt>
      <trkpt lat="45.92449" lon="4.75948">
        <ele>172</ele>
        <time>2018-10-02T08:51:38Z</time>
      </trkpt>
      <trkpt lat="45.92453" lon="4.75951">
        <ele>172</ele>
        <time>2018-10-02T08:51:39Z</time>
      </trkpt>
      <trkpt lat="45.92457" lon="4.75954">
        <ele>172</ele>
        <time>2018-10-02T08:51:40Z</time>
      </trkpt>
      <trkpt lat="45.92463" lon="4.75959">
        <ele>172</ele>
        <time>2018-10-02T08:51:42Z</time>
      </trkpt>
      <trkpt lat="45.92467" lon="4.75962">
        <ele>172</ele>
        <time>2018-10-02T08:51:43Z</time>
      </trkpt>
      <trkpt lat="45.92474" lon="4.75967">
        <ele>172</ele>
        <time>2018-10-02T08:51:45Z</time>
      </trkpt>
      <trkpt lat="45.92478" lon="4.75969">
        <ele>172</ele>
        <time>2018-10-02T08:51:46Z</time>
      </trkpt>
      <trkpt lat="45.92484" lon="4.75974">
        <ele>172</ele>
        <time>2018-10-02T08:51:48Z</time>
      </trkpt>
      <trkpt lat="45.92488" lon="4.75977">
        <ele>172</ele>
        <time>2018-10-02T08:51:49Z</time>
      </trkpt>
      <trkpt lat="45.92493" lon="4.75982">
        <ele>172</ele>
        <time>2018-10-02T08:51:51Z</time>
      </trkpt>
      <trkpt lat="45.92498" lon="4.75985">
        <ele>172</ele>
        <time>2018-10-02T08:51:52Z</time>
      </trkpt>
      <trkpt lat="45.92504" lon="4.7599">
        <ele>172</ele>
        <time>2018-10-02T08:51:54Z</time>
      </trkpt>
      <trkpt lat="45.92508" lon="4.75993">
        <ele>172</ele>
        <time>2018-10-02T08:51:55Z</time>
      </trkpt>
      <trkpt lat="45.92515" lon="4.75998">
        <ele>172</ele>
        <time>2018-10-02T08:51:57Z</time>
      </trkpt>
      <trkpt lat="45.92518" lon="4.76001">
        <ele>172</ele>
        <time>2018-10-02T08:51:58Z</time>
      </trkpt>
      <trkpt lat="45.92525" lon="4.76006">
        <ele>172</ele>
        <time>2018-10-02T08:52:01Z</time>
      </trkpt>
      <trkpt lat="45.92527" lon="4.76008">
        <ele>172</ele>
        <time>2018-10-02T08:52:02Z</time>
      </trkpt>
      <trkpt lat="45.92532" lon="4.76011">
        <ele>172</ele>
        <time>2018-10-02T08:52:04Z</time>
      </trkpt>
      <trkpt lat="45.9254" lon="4.76016">
        <ele>172</ele>
        <time>2018-10-02T08:52:05Z</time>
      </trkpt>
      <trkpt lat="45.92547" lon="4.76021">
        <ele>172</ele>
        <time>2018-10-02T08:52:07Z</time>
      </trkpt>
      <trkpt lat="45.9255" lon="4.76023">
        <ele>172</ele>
        <time>2018-10-02T08:52:08Z</time>
      </trkpt>
      <trkpt lat="45.92558" lon="4.76029">
        <ele>172</ele>
        <time>2018-10-02T08:52:10Z</time>
      </trkpt>
      <trkpt lat="45.92562" lon="4.76032">
        <ele>172</ele>
        <time>2018-10-02T08:52:11Z</time>
      </trkpt>
      <trkpt lat="45.92569" lon="4.76037">
        <ele>172</ele>
        <time>2018-10-02T08:52:13Z</time>
      </trkpt>
      <trkpt lat="45.92573" lon="4.7604">
        <ele>172</ele>
        <time>2018-10-02T08:52:14Z</time>
      </trkpt>
      <trkpt lat="45.9258" lon="4.76045">
        <ele>171</ele>
        <time>2018-10-02T08:52:16Z</time>
      </trkpt>
      <trkpt lat="45.92583" lon="4.76048">
        <ele>171</ele>
        <time>2018-10-02T08:52:17Z</time>
      </trkpt>
      <trkpt lat="45.92591" lon="4.76053">
        <ele>171</ele>
        <time>2018-10-02T08:52:19Z</time>
      </trkpt>
      <trkpt lat="45.92594" lon="4.76056">
        <ele>171</ele>
        <time>2018-10-02T08:52:20Z</time>
      </trkpt>
      <trkpt lat="45.92602" lon="4.76061">
        <ele>171</ele>
        <time>2018-10-02T08:52:22Z</time>
      </trkpt>
      <trkpt lat="45.92606" lon="4.76065">
        <ele>171</ele>
        <time>2018-10-02T08:52:23Z</time>
      </trkpt>
      <trkpt lat="45.92611" lon="4.76068">
        <ele>171</ele>
        <time>2018-10-02T08:52:24Z</time>
      </trkpt>
      <trkpt lat="45.92615" lon="4.76071">
        <ele>171</ele>
        <time>2018-10-02T08:52:25Z</time>
      </trkpt>
      <trkpt lat="45.9262" lon="4.76073">
        <ele>171</ele>
        <time>2018-10-02T08:52:26Z</time>
      </trkpt>
      <trkpt lat="45.92625" lon="4.76076">
        <ele>170</ele>
        <time>2018-10-02T08:52:27Z</time>
      </trkpt>
      <trkpt lat="45.92631" lon="4.7608">
        <ele>170</ele>
        <time>2018-10-02T08:52:28Z</time>
      </trkpt>
      <trkpt lat="45.92636" lon="4.76084">
        <ele>170</ele>
        <time>2018-10-02T08:52:29Z</time>
      </trkpt>
      <trkpt lat="45.92641" lon="4.76088">
        <ele>170</ele>
        <time>2018-10-02T08:52:30Z</time>
      </trkpt>
      <trkpt lat="45.92647" lon="4.76092">
        <ele>170</ele>
        <time>2018-10-02T08:52:31Z</time>
      </trkpt>
      <trkpt lat="45.92652" lon="4.76096">
        <ele>170</ele>
        <time>2018-10-02T08:52:32Z</time>
      </trkpt>
      <trkpt lat="45.92658" lon="4.761">
        <ele>170</ele>
        <time>2018-10-02T08:52:33Z</time>
      </trkpt>
      <trkpt lat="45.92663" lon="4.76104">
        <ele>170</ele>
        <time>2018-10-02T08:52:34Z</time>
      </trkpt>
      <trkpt lat="45.9267" lon="4.76107">
        <ele>169</ele>
        <time>2018-10-02T08:52:35Z</time>
      </trkpt>
      <trkpt lat="45.92676" lon="4.76112">
        <ele>169</ele>
        <time>2018-10-02T08:52:36Z</time>
      </trkpt>
      <trkpt lat="45.92683" lon="4.76117">
        <ele>169</ele>
        <time>2018-10-02T08:52:37Z</time>
      </trkpt>
      <trkpt lat="45.92689" lon="4.76121">
        <ele>169</ele>
        <time>2018-10-02T08:52:38Z</time>
      </trkpt>
      <trkpt lat="45.92695" lon="4.76125">
        <ele>169</ele>
        <time>2018-10-02T08:52:39Z</time>
      </trkpt>
      <trkpt lat="45.92702" lon="4.76129">
        <ele>169</ele>
        <time>2018-10-02T08:52:40Z</time>
      </trkpt>
      <trkpt lat="45.92709" lon="4.76133">
        <ele>168</ele>
        <time>2018-10-02T08:52:41Z</time>
      </trkpt>
      <trkpt lat="45.92716" lon="4.76138">
        <ele>168</ele>
        <time>2018-10-02T08:52:42Z</time>
      </trkpt>
      <trkpt lat="45.92723" lon="4.76143">
        <ele>168</ele>
        <time>2018-10-02T08:52:43Z</time>
      </trkpt>
      <trkpt lat="45.92731" lon="4.76147">
        <ele>168</ele>
        <time>2018-10-02T08:52:44Z</time>
      </trkpt>
      <trkpt lat="45.92736" lon="4.76152">
        <ele>168</ele>
        <time>2018-10-02T08:52:45Z</time>
      </trkpt>
      <trkpt lat="45.92743" lon="4.76157">
        <ele>168</ele>
        <time>2018-10-02T08:52:46Z</time>
      </trkpt>
      <trkpt lat="45.92749" lon="4.76162">
        <ele>167</ele>
        <time>2018-10-02T08:52:47Z</time>
      </trkpt>
      <trkpt lat="45.92755" lon="4.76167">
        <ele>167</ele>
        <time>2018-10-02T08:52:48Z</time>
      </trkpt>
      <trkpt lat="45.92761" lon="4.76172">
        <ele>167</ele>
        <time>2018-10-02T08:52:49Z</time>
      </trkpt>
      <trkpt lat="45.92766" lon="4.76177">
        <ele>167</ele>
        <time>2018-10-02T08:52:50Z</time>
      </trkpt>
      <trkpt lat="45.92772" lon="4.76181">
        <ele>167</ele>
        <time>2018-10-02T08:52:51Z</time>
      </trkpt>
      <trkpt lat="45.92778" lon="4.76184">
        <ele>168</ele>
        <time>2018-10-02T08:52:52Z</time>
      </trkpt>
      <trkpt lat="45.92782" lon="4.76189">
        <ele>168</ele>
        <time>2018-10-02T08:52:53Z</time>
      </trkpt>
      <trkpt lat="45.92788" lon="4.76194">
        <ele>168</ele>
        <time>2018-10-02T08:52:54Z</time>
      </trkpt>
      <trkpt lat="45.92792" lon="4.76198">
        <ele>168</ele>
        <time>2018-10-02T08:52:55Z</time>
      </trkpt>
      <trkpt lat="45.92796" lon="4.76204">
        <ele>168</ele>
        <time>2018-10-02T08:52:56Z</time>
      </trkpt>
      <trkpt lat="45.928" lon="4.76209">
        <ele>168</ele>
        <time>2018-10-02T08:52:57Z</time>
      </trkpt>
      <trkpt lat="45.92804" lon="4.76212">
        <ele>168</ele>
        <time>2018-10-02T08:52:58Z</time>
      </trkpt>
      <trkpt lat="45.92808" lon="4.76215">
        <ele>168</ele>
        <time>2018-10-02T08:52:59Z</time>
      </trkpt>
      <trkpt lat="45.92813" lon="4.7622">
        <ele>168</ele>
        <time>2018-10-02T08:53:00Z</time>
      </trkpt>
      <trkpt lat="45.92818" lon="4.76224">
        <ele>168</ele>
        <time>2018-10-02T08:53:01Z</time>
      </trkpt>
      <trkpt lat="45.92822" lon="4.76228">
        <ele>168</ele>
        <time>2018-10-02T08:53:02Z</time>
      </trkpt>
      <trkpt lat="45.92827" lon="4.76233">
        <ele>168</ele>
        <time>2018-10-02T08:53:03Z</time>
      </trkpt>
      <trkpt lat="45.92831" lon="4.76238">
        <ele>168</ele>
        <time>2018-10-02T08:53:04Z</time>
      </trkpt>
      <trkpt lat="45.92835" lon="4.76241">
        <ele>169</ele>
        <time>2018-10-02T08:53:05Z</time>
      </trkpt>
      <trkpt lat="45.9284" lon="4.76246">
        <ele>169</ele>
        <time>2018-10-02T08:53:06Z</time>
      </trkpt>
      <trkpt lat="45.92846" lon="4.76249">
        <ele>169</ele>
        <time>2018-10-02T08:53:07Z</time>
      </trkpt>
      <trkpt lat="45.9285" lon="4.76254">
        <ele>169</ele>
        <time>2018-10-02T08:53:08Z</time>
      </trkpt>
      <trkpt lat="45.92855" lon="4.76257">
        <ele>169</ele>
        <time>2018-10-02T08:53:09Z</time>
      </trkpt>
      <trkpt lat="45.9286" lon="4.76261">
        <ele>169</ele>
        <time>2018-10-02T08:53:10Z</time>
      </trkpt>
      <trkpt lat="45.92864" lon="4.76269">
        <ele>169</ele>
        <time>2018-10-02T08:53:11Z</time>
      </trkpt>
      <trkpt lat="45.92868" lon="4.76273">
        <ele>169</ele>
        <time>2018-10-02T08:53:12Z</time>
      </trkpt>
      <trkpt lat="45.92872" lon="4.76276">
        <ele>169</ele>
        <time>2018-10-02T08:53:13Z</time>
      </trkpt>
      <trkpt lat="45.92876" lon="4.7628">
        <ele>169</ele>
        <time>2018-10-02T08:53:14Z</time>
      </trkpt>
      <trkpt lat="45.9288" lon="4.76284">
        <ele>169</ele>
        <time>2018-10-02T08:53:15Z</time>
      </trkpt>
      <trkpt lat="45.92884" lon="4.76287">
        <ele>169</ele>
        <time>2018-10-02T08:53:16Z</time>
      </trkpt>
      <trkpt lat="45.92888" lon="4.76292">
        <ele>169</ele>
        <time>2018-10-02T08:53:17Z</time>
      </trkpt>
      <trkpt lat="45.92892" lon="4.76296">
        <ele>169</ele>
        <time>2018-10-02T08:53:18Z</time>
      </trkpt>
      <trkpt lat="45.92895" lon="4.76301">
        <ele>169</ele>
        <time>2018-10-02T08:53:19Z</time>
      </trkpt>
      <trkpt lat="45.929" lon="4.76307">
        <ele>169</ele>
        <time>2018-10-02T08:53:20Z</time>
      </trkpt>
      <trkpt lat="45.92905" lon="4.76311">
        <ele>169</ele>
        <time>2018-10-02T08:53:21Z</time>
      </trkpt>
      <trkpt lat="45.9291" lon="4.76316">
        <ele>169</ele>
        <time>2018-10-02T08:53:22Z</time>
      </trkpt>
      <trkpt lat="45.92913" lon="4.7632">
        <ele>169</ele>
        <time>2018-10-02T08:53:23Z</time>
      </trkpt>
      <trkpt lat="45.92916" lon="4.76323">
        <ele>169</ele>
        <time>2018-10-02T08:53:24Z</time>
      </trkpt>
      <trkpt lat="45.9292" lon="4.76328">
        <ele>169</ele>
        <time>2018-10-02T08:53:25Z</time>
      </trkpt>
      <trkpt lat="45.92924" lon="4.76332">
        <ele>169</ele>
        <time>2018-10-02T08:53:26Z</time>
      </trkpt>
      <trkpt lat="45.9293" lon="4.76335">
        <ele>169</ele>
        <time>2018-10-02T08:53:27Z</time>
      </trkpt>
      <trkpt lat="45.92936" lon="4.76342">
        <ele>169</ele>
        <time>2018-10-02T08:53:29Z</time>
      </trkpt>
      <trkpt lat="45.92939" lon="4.76345">
        <ele>169</ele>
        <time>2018-10-02T08:53:30Z</time>
      </trkpt>
      <trkpt lat="45.92942" lon="4.7635">
        <ele>169</ele>
        <time>2018-10-02T08:53:31Z</time>
      </trkpt>
      <trkpt lat="45.92946" lon="4.76354">
        <ele>169</ele>
        <time>2018-10-02T08:53:32Z</time>
      </trkpt>
      <trkpt lat="45.92948" lon="4.76358">
        <ele>169</ele>
        <time>2018-10-02T08:53:33Z</time>
      </trkpt>
      <trkpt lat="45.92953" lon="4.76363">
        <ele>169</ele>
        <time>2018-10-02T08:53:34Z</time>
      </trkpt>
      <trkpt lat="45.92958" lon="4.76367">
        <ele>169</ele>
        <time>2018-10-02T08:53:35Z</time>
      </trkpt>
      <trkpt lat="45.92961" lon="4.76371">
        <ele>169</ele>
        <time>2018-10-02T08:53:36Z</time>
      </trkpt>
      <trkpt lat="45.92965" lon="4.76375">
        <ele>169</ele>
        <time>2018-10-02T08:53:37Z</time>
      </trkpt>
      <trkpt lat="45.92969" lon="4.76379">
        <ele>169</ele>
        <time>2018-10-02T08:53:38Z</time>
      </trkpt>
      <trkpt lat="45.92973" lon="4.76383">
        <ele>169</ele>
        <time>2018-10-02T08:53:39Z</time>
      </trkpt>
      <trkpt lat="45.92976" lon="4.76386">
        <ele>169</ele>
        <time>2018-10-02T08:53:40Z</time>
      </trkpt>
      <trkpt lat="45.92981" lon="4.7639">
        <ele>169</ele>
        <time>2018-10-02T08:53:41Z</time>
      </trkpt>
      <trkpt lat="45.92985" lon="4.76393">
        <ele>169</ele>
        <time>2018-10-02T08:53:42Z</time>
      </trkpt>
      <trkpt lat="45.92991" lon="4.76401">
        <ele>169</ele>
        <time>2018-10-02T08:53:44Z</time>
      </trkpt>
      <trkpt lat="45.92995" lon="4.76405">
        <ele>169</ele>
        <time>2018-10-02T08:53:45Z</time>
      </trkpt>
      <trkpt lat="45.92999" lon="4.76409">
        <ele>169</ele>
        <time>2018-10-02T08:53:46Z</time>
      </trkpt>
      <trkpt lat="45.93003" lon="4.76413">
        <ele>169</ele>
        <time>2018-10-02T08:53:47Z</time>
      </trkpt>
      <trkpt lat="45.93008" lon="4.76416">
        <ele>169</ele>
        <time>2018-10-02T08:53:48Z</time>
      </trkpt>
      <trkpt lat="45.93013" lon="4.7642">
        <ele>169</ele>
        <time>2018-10-02T08:53:49Z</time>
      </trkpt>
      <trkpt lat="45.93017" lon="4.76424">
        <ele>169</ele>
        <time>2018-10-02T08:53:50Z</time>
      </trkpt>
      <trkpt lat="45.93021" lon="4.76426">
        <ele>169</ele>
        <time>2018-10-02T08:53:51Z</time>
      </trkpt>
      <trkpt lat="45.93025" lon="4.76428">
        <ele>169</ele>
        <time>2018-10-02T08:53:52Z</time>
      </trkpt>
      <trkpt lat="45.93029" lon="4.76433">
        <ele>169</ele>
        <time>2018-10-02T08:53:53Z</time>
      </trkpt>
      <trkpt lat="45.93034" lon="4.76438">
        <ele>169</ele>
        <time>2018-10-02T08:53:54Z</time>
      </trkpt>
      <trkpt lat="45.93039" lon="4.76443">
        <ele>169</ele>
        <time>2018-10-02T08:53:55Z</time>
      </trkpt>
      <trkpt lat="45.93044" lon="4.76449">
        <ele>169</ele>
        <time>2018-10-02T08:53:56Z</time>
      </trkpt>
      <trkpt lat="45.93049" lon="4.76453">
        <ele>169</ele>
        <time>2018-10-02T08:53:57Z</time>
      </trkpt>
      <trkpt lat="45.93053" lon="4.76457">
        <ele>169</ele>
        <time>2018-10-02T08:53:58Z</time>
      </trkpt>
      <trkpt lat="45.93057" lon="4.7646">
        <ele>169</ele>
        <time>2018-10-02T08:53:59Z</time>
      </trkpt>
      <trkpt lat="45.93063" lon="4.76465">
        <ele>169</ele>
        <time>2018-10-02T08:54:00Z</time>
      </trkpt>
      <trkpt lat="45.93067" lon="4.76469">
        <ele>169</ele>
        <time>2018-10-02T08:54:01Z</time>
      </trkpt>
      <trkpt lat="45.93073" lon="4.76476">
        <ele>169</ele>
        <time>2018-10-02T08:54:03Z</time>
      </trkpt>
      <trkpt lat="45.93076" lon="4.76478">
        <ele>169</ele>
        <time>2018-10-02T08:54:04Z</time>
      </trkpt>
      <trkpt lat="45.93084" lon="4.76485">
        <ele>170</ele>
        <time>2018-10-02T08:54:06Z</time>
      </trkpt>
      <trkpt lat="45.93088" lon="4.76489">
        <ele>170</ele>
        <time>2018-10-02T08:54:07Z</time>
      </trkpt>
      <trkpt lat="45.93091" lon="4.76493">
        <ele>170</ele>
        <time>2018-10-02T08:54:08Z</time>
      </trkpt>
      <trkpt lat="45.93096" lon="4.76497">
        <ele>170</ele>
        <time>2018-10-02T08:54:09Z</time>
      </trkpt>
      <trkpt lat="45.93102" lon="4.76501">
        <ele>170</ele>
        <time>2018-10-02T08:54:10Z</time>
      </trkpt>
      <trkpt lat="45.93105" lon="4.76505">
        <ele>170</ele>
        <time>2018-10-02T08:54:11Z</time>
      </trkpt>
      <trkpt lat="45.93109" lon="4.76509">
        <ele>170</ele>
        <time>2018-10-02T08:54:12Z</time>
      </trkpt>
      <trkpt lat="45.93114" lon="4.76513">
        <ele>170</ele>
        <time>2018-10-02T08:54:13Z</time>
      </trkpt>
      <trkpt lat="45.93117" lon="4.76517">
        <ele>170</ele>
        <time>2018-10-02T08:54:14Z</time>
      </trkpt>
      <trkpt lat="45.93122" lon="4.7652">
        <ele>170</ele>
        <time>2018-10-02T08:54:15Z</time>
      </trkpt>
      <trkpt lat="45.93126" lon="4.76524">
        <ele>170</ele>
        <time>2018-10-02T08:54:16Z</time>
      </trkpt>
      <trkpt lat="45.93131" lon="4.76528">
        <ele>170</ele>
        <time>2018-10-02T08:54:17Z</time>
      </trkpt>
      <trkpt lat="45.93135" lon="4.76532">
        <ele>170</ele>
        <time>2018-10-02T08:54:18Z</time>
      </trkpt>
      <trkpt lat="45.93139" lon="4.76537">
        <ele>170</ele>
        <time>2018-10-02T08:54:19Z</time>
      </trkpt>
      <trkpt lat="45.93143" lon="4.76541">
        <ele>170</ele>
        <time>2018-10-02T08:54:20Z</time>
      </trkpt>
      <trkpt lat="45.93146" lon="4.76545">
        <ele>170</ele>
        <time>2018-10-02T08:54:21Z</time>
      </trkpt>
      <trkpt lat="45.93153" lon="4.76551">
        <ele>170</ele>
        <time>2018-10-02T08:54:23Z</time>
      </trkpt>
      <trkpt lat="45.93157" lon="4.76554">
        <ele>170</ele>
        <time>2018-10-02T08:54:24Z</time>
      </trkpt>
      <trkpt lat="45.93163" lon="4.76563">
        <ele>170</ele>
        <time>2018-10-02T08:54:26Z</time>
      </trkpt>
      <trkpt lat="45.93168" lon="4.76567">
        <ele>170</ele>
        <time>2018-10-02T08:54:27Z</time>
      </trkpt>
      <trkpt lat="45.93171" lon="4.76572">
        <ele>170</ele>
        <time>2018-10-02T08:54:28Z</time>
      </trkpt>
      <trkpt lat="45.93175" lon="4.76576">
        <ele>170</ele>
        <time>2018-10-02T08:54:29Z</time>
      </trkpt>
      <trkpt lat="45.93179" lon="4.7658">
        <ele>170</ele>
        <time>2018-10-02T08:54:30Z</time>
      </trkpt>
      <trkpt lat="45.93184" lon="4.76585">
        <ele>171</ele>
        <time>2018-10-02T08:54:31Z</time>
      </trkpt>
      <trkpt lat="45.93188" lon="4.76589">
        <ele>171</ele>
        <time>2018-10-02T08:54:32Z</time>
      </trkpt>
      <trkpt lat="45.93191" lon="4.76593">
        <ele>170</ele>
        <time>2018-10-02T08:54:33Z</time>
      </trkpt>
      <trkpt lat="45.93194" lon="4.766">
        <ele>170</ele>
        <time>2018-10-02T08:54:34Z</time>
      </trkpt>
      <trkpt lat="45.93198" lon="4.76605">
        <ele>170</ele>
        <time>2018-10-02T08:54:35Z</time>
      </trkpt>
      <trkpt lat="45.93202" lon="4.7661">
        <ele>170</ele>
        <time>2018-10-02T08:54:36Z</time>
      </trkpt>
      <trkpt lat="45.93206" lon="4.76614">
        <ele>170</ele>
        <time>2018-10-02T08:54:37Z</time>
      </trkpt>
      <trkpt lat="45.9321" lon="4.76617">
        <ele>170</ele>
        <time>2018-10-02T08:54:38Z</time>
      </trkpt>
      <trkpt lat="45.93214" lon="4.7662">
        <ele>170</ele>
        <time>2018-10-02T08:54:39Z</time>
      </trkpt>
      <trkpt lat="45.93218" lon="4.76625">
        <ele>170</ele>
        <time>2018-10-02T08:54:40Z</time>
      </trkpt>
      <trkpt lat="45.93221" lon="4.76628">
        <ele>170</ele>
        <time>2018-10-02T08:54:41Z</time>
      </trkpt>
      <trkpt lat="45.93225" lon="4.76632">
        <ele>171</ele>
        <time>2018-10-02T08:54:42Z</time>
      </trkpt>
      <trkpt lat="45.93229" lon="4.76637">
        <ele>171</ele>
        <time>2018-10-02T08:54:43Z</time>
      </trkpt>
      <trkpt lat="45.93234" lon="4.7664">
        <ele>171</ele>
        <time>2018-10-02T08:54:44Z</time>
      </trkpt>
      <trkpt lat="45.93239" lon="4.76643">
        <ele>171</ele>
        <time>2018-10-02T08:54:45Z</time>
      </trkpt>
      <trkpt lat="45.93243" lon="4.76647">
        <ele>171</ele>
        <time>2018-10-02T08:54:46Z</time>
      </trkpt>
      <trkpt lat="45.93246" lon="4.76651">
        <ele>171</ele>
        <time>2018-10-02T08:54:47Z</time>
      </trkpt>
      <trkpt lat="45.93251" lon="4.76655">
        <ele>171</ele>
        <time>2018-10-02T08:54:48Z</time>
      </trkpt>
      <trkpt lat="45.93256" lon="4.7666">
        <ele>171</ele>
        <time>2018-10-02T08:54:49Z</time>
      </trkpt>
      <trkpt lat="45.93261" lon="4.76664">
        <ele>171</ele>
        <time>2018-10-02T08:54:50Z</time>
      </trkpt>
      <trkpt lat="45.93265" lon="4.76667">
        <ele>172</ele>
        <time>2018-10-02T08:54:51Z</time>
      </trkpt>
      <trkpt lat="45.93269" lon="4.76671">
        <ele>172</ele>
        <time>2018-10-02T08:54:52Z</time>
      </trkpt>
      <trkpt lat="45.93273" lon="4.76675">
        <ele>172</ele>
        <time>2018-10-02T08:54:53Z</time>
      </trkpt>
      <trkpt lat="45.9328" lon="4.76682">
        <ele>172</ele>
        <time>2018-10-02T08:54:55Z</time>
      </trkpt>
      <trkpt lat="45.93283" lon="4.76684">
        <ele>172</ele>
        <time>2018-10-02T08:54:56Z</time>
      </trkpt>
      <trkpt lat="45.93286" lon="4.76688">
        <ele>172</ele>
        <time>2018-10-02T08:54:57Z</time>
      </trkpt>
      <trkpt lat="45.93291" lon="4.76693">
        <ele>172</ele>
        <time>2018-10-02T08:54:58Z</time>
      </trkpt>
      <trkpt lat="45.93296" lon="4.76698">
        <ele>172</ele>
        <time>2018-10-02T08:55:00Z</time>
      </trkpt>
      <trkpt lat="45.93302" lon="4.76703">
        <ele>172</ele>
        <time>2018-10-02T08:55:01Z</time>
      </trkpt>
      <trkpt lat="45.93309" lon="4.76709">
        <ele>172</ele>
        <time>2018-10-02T08:55:03Z</time>
      </trkpt>
      <trkpt lat="45.93311" lon="4.7671">
        <ele>172</ele>
        <time>2018-10-02T08:55:04Z</time>
      </trkpt>
      <trkpt lat="45.93315" lon="4.76715">
        <ele>172</ele>
        <time>2018-10-02T08:55:05Z</time>
      </trkpt>
      <trkpt lat="45.93319" lon="4.76719">
        <ele>172</ele>
        <time>2018-10-02T08:55:06Z</time>
      </trkpt>
      <trkpt lat="45.93323" lon="4.76724">
        <ele>172</ele>
        <time>2018-10-02T08:55:07Z</time>
      </trkpt>
      <trkpt lat="45.93327" lon="4.76728">
        <ele>172</ele>
        <time>2018-10-02T08:55:08Z</time>
      </trkpt>
      <trkpt lat="45.93331" lon="4.76732">
        <ele>172</ele>
        <time>2018-10-02T08:55:09Z</time>
      </trkpt>
      <trkpt lat="45.93336" lon="4.76736">
        <ele>172</ele>
        <time>2018-10-02T08:55:10Z</time>
      </trkpt>
      <trkpt lat="45.93339" lon="4.76741">
        <ele>173</ele>
        <time>2018-10-02T08:55:11Z</time>
      </trkpt>
      <trkpt lat="45.93344" lon="4.76746">
        <ele>173</ele>
        <time>2018-10-02T08:55:12Z</time>
      </trkpt>
      <trkpt lat="45.93349" lon="4.76751">
        <ele>172</ele>
        <time>2018-10-02T08:55:13Z</time>
      </trkpt>
      <trkpt lat="45.93353" lon="4.76755">
        <ele>172</ele>
        <time>2018-10-02T08:55:14Z</time>
      </trkpt>
      <trkpt lat="45.93357" lon="4.76759">
        <ele>172</ele>
        <time>2018-10-02T08:55:15Z</time>
      </trkpt>
      <trkpt lat="45.93361" lon="4.76763">
        <ele>172</ele>
        <time>2018-10-02T08:55:16Z</time>
      </trkpt>
      <trkpt lat="45.93365" lon="4.76766">
        <ele>172</ele>
        <time>2018-10-02T08:55:17Z</time>
      </trkpt>
      <trkpt lat="45.93369" lon="4.76769">
        <ele>172</ele>
        <time>2018-10-02T08:55:18Z</time>
      </trkpt>
      <trkpt lat="45.93372" lon="4.76773">
        <ele>172</ele>
        <time>2018-10-02T08:55:19Z</time>
      </trkpt>
      <trkpt lat="45.93377" lon="4.76777">
        <ele>172</ele>
        <time>2018-10-02T08:55:20Z</time>
      </trkpt>
      <trkpt lat="45.93384" lon="4.76783">
        <ele>172</ele>
        <time>2018-10-02T08:55:22Z</time>
      </trkpt>
      <trkpt lat="45.93387" lon="4.76788">
        <ele>172</ele>
        <time>2018-10-02T08:55:23Z</time>
      </trkpt>
      <trkpt lat="45.93393" lon="4.76794">
        <ele>172</ele>
        <time>2018-10-02T08:55:24Z</time>
      </trkpt>
      <trkpt lat="45.93397" lon="4.76799">
        <ele>172</ele>
        <time>2018-10-02T08:55:25Z</time>
      </trkpt>
      <trkpt lat="45.934" lon="4.76804">
        <ele>172</ele>
        <time>2018-10-02T08:55:26Z</time>
      </trkpt>
      <trkpt lat="45.93404" lon="4.76809">
        <ele>172</ele>
        <time>2018-10-02T08:55:27Z</time>
      </trkpt>
      <trkpt lat="45.93408" lon="4.76815">
        <ele>172</ele>
        <time>2018-10-02T08:55:28Z</time>
      </trkpt>
      <trkpt lat="45.93411" lon="4.7682">
        <ele>172</ele>
        <time>2018-10-02T08:55:29Z</time>
      </trkpt>
      <trkpt lat="45.93414" lon="4.76827">
        <ele>172</ele>
        <time>2018-10-02T08:55:30Z</time>
      </trkpt>
      <trkpt lat="45.93417" lon="4.76833">
        <ele>172</ele>
        <time>2018-10-02T08:55:31Z</time>
      </trkpt>
      <trkpt lat="45.9342" lon="4.7684">
        <ele>172</ele>
        <time>2018-10-02T08:55:32Z</time>
      </trkpt>
      <trkpt lat="45.93424" lon="4.76847">
        <ele>171</ele>
        <time>2018-10-02T08:55:33Z</time>
      </trkpt>
      <trkpt lat="45.93426" lon="4.76853">
        <ele>171</ele>
        <time>2018-10-02T08:55:34Z</time>
      </trkpt>
      <trkpt lat="45.93429" lon="4.76858">
        <ele>171</ele>
        <time>2018-10-02T08:55:35Z</time>
      </trkpt>
      <trkpt lat="45.93431" lon="4.76865">
        <ele>171</ele>
        <time>2018-10-02T08:55:37Z</time>
      </trkpt>
      <trkpt lat="45.93434" lon="4.76874">
        <ele>171</ele>
        <time>2018-10-02T08:55:38Z</time>
      </trkpt>
      <trkpt lat="45.93437" lon="4.7688">
        <ele>171</ele>
        <time>2018-10-02T08:55:39Z</time>
      </trkpt>
      <trkpt lat="45.93439" lon="4.76886">
        <ele>170</ele>
        <time>2018-10-02T08:55:40Z</time>
      </trkpt>
      <trkpt lat="45.93442" lon="4.76891">
        <ele>170</ele>
        <time>2018-10-02T08:55:41Z</time>
      </trkpt>
      <trkpt lat="45.93443" lon="4.76897">
        <ele>170</ele>
        <time>2018-10-02T08:55:42Z</time>
      </trkpt>
      <trkpt lat="45.93445" lon="4.76904">
        <ele>170</ele>
        <time>2018-10-02T08:55:43Z</time>
      </trkpt>
      <trkpt lat="45.93447" lon="4.7691">
        <ele>170</ele>
        <time>2018-10-02T08:55:44Z</time>
      </trkpt>
      <trkpt lat="45.93449" lon="4.76917">
        <ele>170</ele>
        <time>2018-10-02T08:55:45Z</time>
      </trkpt>
      <trkpt lat="45.9345" lon="4.76924">
        <ele>170</ele>
        <time>2018-10-02T08:55:46Z</time>
      </trkpt>
      <trkpt lat="45.93451" lon="4.76931">
        <ele>170</ele>
        <time>2018-10-02T08:55:47Z</time>
      </trkpt>
      <trkpt lat="45.93453" lon="4.76939">
        <ele>170</ele>
        <time>2018-10-02T08:55:48Z</time>
      </trkpt>
      <trkpt lat="45.93455" lon="4.76946">
        <ele>170</ele>
        <time>2018-10-02T08:55:49Z</time>
      </trkpt>
      <trkpt lat="45.93456" lon="4.76952">
        <ele>170</ele>
        <time>2018-10-02T08:55:50Z</time>
      </trkpt>
      <trkpt lat="45.93457" lon="4.76958">
        <ele>170</ele>
        <time>2018-10-02T08:55:51Z</time>
      </trkpt>
      <trkpt lat="45.93458" lon="4.76965">
        <ele>170</ele>
        <time>2018-10-02T08:55:52Z</time>
      </trkpt>
      <trkpt lat="45.9346" lon="4.76977">
        <ele>170</ele>
        <time>2018-10-02T08:55:54Z</time>
      </trkpt>
      <trkpt lat="45.93461" lon="4.76982">
        <ele>170</ele>
        <time>2018-10-02T08:55:55Z</time>
      </trkpt>
      <trkpt lat="45.93462" lon="4.76994">
        <ele>170</ele>
        <time>2018-10-02T08:55:57Z</time>
      </trkpt>
      <trkpt lat="45.93463" lon="4.77001">
        <ele>170</ele>
        <time>2018-10-02T08:55:58Z</time>
      </trkpt>
      <trkpt lat="45.93464" lon="4.77007">
        <ele>170</ele>
        <time>2018-10-02T08:55:59Z</time>
      </trkpt>
      <trkpt lat="45.93465" lon="4.77016">
        <ele>170</ele>
        <time>2018-10-02T08:56:00Z</time>
      </trkpt>
      <trkpt lat="45.93467" lon="4.77024">
        <ele>170</ele>
        <time>2018-10-02T08:56:01Z</time>
      </trkpt>
      <trkpt lat="45.93468" lon="4.77031">
        <ele>170</ele>
        <time>2018-10-02T08:56:02Z</time>
      </trkpt>
      <trkpt lat="45.9347" lon="4.77038">
        <ele>170</ele>
        <time>2018-10-02T08:56:03Z</time>
      </trkpt>
      <trkpt lat="45.93471" lon="4.77044">
        <ele>170</ele>
        <time>2018-10-02T08:56:04Z</time>
      </trkpt>
      <trkpt lat="45.93472" lon="4.77052">
        <ele>170</ele>
        <time>2018-10-02T08:56:05Z</time>
      </trkpt>
      <trkpt lat="45.93473" lon="4.7706">
        <ele>170</ele>
        <time>2018-10-02T08:56:06Z</time>
      </trkpt>
      <trkpt lat="45.93476" lon="4.77067">
        <ele>170</ele>
        <time>2018-10-02T08:56:07Z</time>
      </trkpt>
      <trkpt lat="45.93477" lon="4.77074">
        <ele>170</ele>
        <time>2018-10-02T08:56:08Z</time>
      </trkpt>
      <trkpt lat="45.93478" lon="4.77081">
        <ele>170</ele>
        <time>2018-10-02T08:56:09Z</time>
      </trkpt>
      <trkpt lat="45.93479" lon="4.77088">
        <ele>169</ele>
        <time>2018-10-02T08:56:10Z</time>
      </trkpt>
      <trkpt lat="45.93481" lon="4.771">
        <ele>169</ele>
        <time>2018-10-02T08:56:12Z</time>
      </trkpt>
      <trkpt lat="45.93482" lon="4.77107">
        <ele>169</ele>
        <time>2018-10-02T08:56:13Z</time>
      </trkpt>
      <trkpt lat="45.93484" lon="4.7712">
        <ele>169</ele>
        <time>2018-10-02T08:56:15Z</time>
      </trkpt>
      <trkpt lat="45.93485" lon="4.77127">
        <ele>169</ele>
        <time>2018-10-02T08:56:16Z</time>
      </trkpt>
      <trkpt lat="45.93486" lon="4.77133">
        <ele>169</ele>
        <time>2018-10-02T08:56:17Z</time>
      </trkpt>
      <trkpt lat="45.93489" lon="4.77141">
        <ele>169</ele>
        <time>2018-10-02T08:56:18Z</time>
      </trkpt>
      <trkpt lat="45.9349" lon="4.77148">
        <ele>169</ele>
        <time>2018-10-02T08:56:19Z</time>
      </trkpt>
      <trkpt lat="45.93492" lon="4.77155">
        <ele>169</ele>
        <time>2018-10-02T08:56:20Z</time>
      </trkpt>
      <trkpt lat="45.93493" lon="4.77161">
        <ele>169</ele>
        <time>2018-10-02T08:56:21Z</time>
      </trkpt>
      <trkpt lat="45.93495" lon="4.77168">
        <ele>169</ele>
        <time>2018-10-02T08:56:22Z</time>
      </trkpt>
      <trkpt lat="45.93497" lon="4.77175">
        <ele>169</ele>
        <time>2018-10-02T08:56:23Z</time>
      </trkpt>
      <trkpt lat="45.93498" lon="4.77182">
        <ele>169</ele>
        <time>2018-10-02T08:56:24Z</time>
      </trkpt>
      <trkpt lat="45.935" lon="4.77189">
        <ele>169</ele>
        <time>2018-10-02T08:56:25Z</time>
      </trkpt>
      <trkpt lat="45.93502" lon="4.77195">
        <ele>169</ele>
        <time>2018-10-02T08:56:26Z</time>
      </trkpt>
      <trkpt lat="45.93503" lon="4.77202">
        <ele>169</ele>
        <time>2018-10-02T08:56:27Z</time>
      </trkpt>
      <trkpt lat="45.93505" lon="4.77209">
        <ele>169</ele>
        <time>2018-10-02T08:56:28Z</time>
      </trkpt>
      <trkpt lat="45.93507" lon="4.77221">
        <ele>169</ele>
        <time>2018-10-02T08:56:30Z</time>
      </trkpt>
      <trkpt lat="45.93508" lon="4.77227">
        <ele>169</ele>
        <time>2018-10-02T08:56:31Z</time>
      </trkpt>
      <trkpt lat="45.93509" lon="4.77233">
        <ele>169</ele>
        <time>2018-10-02T08:56:32Z</time>
      </trkpt>
      <trkpt lat="45.9351" lon="4.7724">
        <ele>169</ele>
        <time>2018-10-02T08:56:33Z</time>
      </trkpt>
      <trkpt lat="45.93511" lon="4.77247">
        <ele>169</ele>
        <time>2018-10-02T08:56:34Z</time>
      </trkpt>
      <trkpt lat="45.93513" lon="4.77253">
        <ele>170</ele>
        <time>2018-10-02T08:56:35Z</time>
      </trkpt>
      <trkpt lat="45.93515" lon="4.7726">
        <ele>170</ele>
        <time>2018-10-02T08:56:36Z</time>
      </trkpt>
      <trkpt lat="45.93517" lon="4.7727">
        <ele>170</ele>
        <time>2018-10-02T08:56:37Z</time>
      </trkpt>
      <trkpt lat="45.93518" lon="4.77276">
        <ele>170</ele>
        <time>2018-10-02T08:56:38Z</time>
      </trkpt>
      <trkpt lat="45.93521" lon="4.77284">
        <ele>170</ele>
        <time>2018-10-02T08:56:39Z</time>
      </trkpt>
      <trkpt lat="45.93522" lon="4.7729">
        <ele>170</ele>
        <time>2018-10-02T08:56:40Z</time>
      </trkpt>
      <trkpt lat="45.93523" lon="4.77296">
        <ele>170</ele>
        <time>2018-10-02T08:56:41Z</time>
      </trkpt>
      <trkpt lat="45.93524" lon="4.77304">
        <ele>170</ele>
        <time>2018-10-02T08:56:42Z</time>
      </trkpt>
      <trkpt lat="45.93526" lon="4.7731">
        <ele>170</ele>
        <time>2018-10-02T08:56:43Z</time>
      </trkpt>
      <trkpt lat="45.93528" lon="4.77318">
        <ele>170</ele>
        <time>2018-10-02T08:56:44Z</time>
      </trkpt>
      <trkpt lat="45.93529" lon="4.77325">
        <ele>170</ele>
        <time>2018-10-02T08:56:45Z</time>
      </trkpt>
      <trkpt lat="45.9353" lon="4.77332">
        <ele>170</ele>
        <time>2018-10-02T08:56:46Z</time>
      </trkpt>
      <trkpt lat="45.93532" lon="4.77339">
        <ele>170</ele>
        <time>2018-10-02T08:56:47Z</time>
      </trkpt>
      <trkpt lat="45.93534" lon="4.77346">
        <ele>170</ele>
        <time>2018-10-02T08:56:48Z</time>
      </trkpt>
      <trkpt lat="45.93535" lon="4.77353">
        <ele>170</ele>
        <time>2018-10-02T08:56:49Z</time>
      </trkpt>
      <trkpt lat="45.93537" lon="4.77359">
        <ele>170</ele>
        <time>2018-10-02T08:56:50Z</time>
      </trkpt>
      <trkpt lat="45.93539" lon="4.77366">
        <ele>170</ele>
        <time>2018-10-02T08:56:51Z</time>
      </trkpt>
      <trkpt lat="45.93539" lon="4.77371">
        <ele>170</ele>
        <time>2018-10-02T08:56:52Z</time>
      </trkpt>
      <trkpt lat="45.9354" lon="4.77378">
        <ele>170</ele>
        <time>2018-10-02T08:56:53Z</time>
      </trkpt>
      <trkpt lat="45.93542" lon="4.7739">
        <ele>170</ele>
        <time>2018-10-02T08:56:55Z</time>
      </trkpt>
      <trkpt lat="45.93543" lon="4.77396">
        <ele>170</ele>
        <time>2018-10-02T08:56:56Z</time>
      </trkpt>
      <trkpt lat="45.93546" lon="4.77404">
        <ele>170</ele>
        <time>2018-10-02T08:56:57Z</time>
      </trkpt>
      <trkpt lat="45.93547" lon="4.7741">
        <ele>170</ele>
        <time>2018-10-02T08:56:58Z</time>
      </trkpt>
      <trkpt lat="45.93549" lon="4.77417">
        <ele>170</ele>
        <time>2018-10-02T08:56:59Z</time>
      </trkpt>
      <trkpt lat="45.93551" lon="4.77424">
        <ele>170</ele>
        <time>2018-10-02T08:57:00Z</time>
      </trkpt>
      <trkpt lat="45.93552" lon="4.7743">
        <ele>170</ele>
        <time>2018-10-02T08:57:01Z</time>
      </trkpt>
      <trkpt lat="45.93553" lon="4.77437">
        <ele>169</ele>
        <time>2018-10-02T08:57:02Z</time>
      </trkpt>
      <trkpt lat="45.93556" lon="4.77449">
        <ele>169</ele>
        <time>2018-10-02T08:57:03Z</time>
      </trkpt>
      <trkpt lat="45.93557" lon="4.77455">
        <ele>169</ele>
        <time>2018-10-02T08:57:04Z</time>
      </trkpt>
      <trkpt lat="45.93559" lon="4.77463">
        <ele>169</ele>
        <time>2018-10-02T08:57:05Z</time>
      </trkpt>
      <trkpt lat="45.9356" lon="4.77469">
        <ele>169</ele>
        <time>2018-10-02T08:57:06Z</time>
      </trkpt>
      <trkpt lat="45.93562" lon="4.77477">
        <ele>169</ele>
        <time>2018-10-02T08:57:07Z</time>
      </trkpt>
      <trkpt lat="45.93564" lon="4.77484">
        <ele>169</ele>
        <time>2018-10-02T08:57:08Z</time>
      </trkpt>
      <trkpt lat="45.93565" lon="4.77492">
        <ele>169</ele>
        <time>2018-10-02T08:57:09Z</time>
      </trkpt>
      <trkpt lat="45.93567" lon="4.77501">
        <ele>169</ele>
        <time>2018-10-02T08:57:10Z</time>
      </trkpt>
      <trkpt lat="45.93569" lon="4.77509">
        <ele>169</ele>
        <time>2018-10-02T08:57:11Z</time>
      </trkpt>
      <trkpt lat="45.93572" lon="4.77516">
        <ele>169</ele>
        <time>2018-10-02T08:57:12Z</time>
      </trkpt>
      <trkpt lat="45.93573" lon="4.77524">
        <ele>169</ele>
        <time>2018-10-02T08:57:13Z</time>
      </trkpt>
      <trkpt lat="45.93574" lon="4.7753">
        <ele>169</ele>
        <time>2018-10-02T08:57:14Z</time>
      </trkpt>
      <trkpt lat="45.93575" lon="4.77536">
        <ele>169</ele>
        <time>2018-10-02T08:57:15Z</time>
      </trkpt>
      <trkpt lat="45.93577" lon="4.77543">
        <ele>169</ele>
        <time>2018-10-02T08:57:16Z</time>
      </trkpt>
      <trkpt lat="45.93578" lon="4.7755">
        <ele>169</ele>
        <time>2018-10-02T08:57:17Z</time>
      </trkpt>
      <trkpt lat="45.9358" lon="4.77555">
        <ele>169</ele>
        <time>2018-10-02T08:57:18Z</time>
      </trkpt>
      <trkpt lat="45.93582" lon="4.77564">
        <ele>169</ele>
        <time>2018-10-02T08:57:19Z</time>
      </trkpt>
      <trkpt lat="45.93584" lon="4.7757">
        <ele>170</ele>
        <time>2018-10-02T08:57:20Z</time>
      </trkpt>
      <trkpt lat="45.93586" lon="4.77577">
        <ele>170</ele>
        <time>2018-10-02T08:57:21Z</time>
      </trkpt>
      <trkpt lat="45.93588" lon="4.77584">
        <ele>170</ele>
        <time>2018-10-02T08:57:22Z</time>
      </trkpt>
      <trkpt lat="45.9359" lon="4.7759">
        <ele>170</ele>
        <time>2018-10-02T08:57:23Z</time>
      </trkpt>
      <trkpt lat="45.93592" lon="4.77598">
        <ele>170</ele>
        <time>2018-10-02T08:57:24Z</time>
      </trkpt>
      <trkpt lat="45.93595" lon="4.77605">
        <ele>170</ele>
        <time>2018-10-02T08:57:25Z</time>
      </trkpt>
      <trkpt lat="45.93597" lon="4.77612">
        <ele>170</ele>
        <time>2018-10-02T08:57:26Z</time>
      </trkpt>
      <trkpt lat="45.93599" lon="4.77619">
        <ele>170</ele>
        <time>2018-10-02T08:57:27Z</time>
      </trkpt>
      <trkpt lat="45.93601" lon="4.77626">
        <ele>169</ele>
        <time>2018-10-02T08:57:28Z</time>
      </trkpt>
      <trkpt lat="45.93603" lon="4.77633">
        <ele>169</ele>
        <time>2018-10-02T08:57:29Z</time>
      </trkpt>
      <trkpt lat="45.93605" lon="4.77639">
        <ele>169</ele>
        <time>2018-10-02T08:57:30Z</time>
      </trkpt>
      <trkpt lat="45.93608" lon="4.77645">
        <ele>169</ele>
        <time>2018-10-02T08:57:31Z</time>
      </trkpt>
      <trkpt lat="45.9361" lon="4.77651">
        <ele>169</ele>
        <time>2018-10-02T08:57:32Z</time>
      </trkpt>
      <trkpt lat="45.93613" lon="4.77657">
        <ele>169</ele>
        <time>2018-10-02T08:57:33Z</time>
      </trkpt>
      <trkpt lat="45.93616" lon="4.77664">
        <ele>169</ele>
        <time>2018-10-02T08:57:34Z</time>
      </trkpt>
      <trkpt lat="45.93619" lon="4.7767">
        <ele>169</ele>
        <time>2018-10-02T08:57:35Z</time>
      </trkpt>
      <trkpt lat="45.93621" lon="4.77675">
        <ele>169</ele>
        <time>2018-10-02T08:57:36Z</time>
      </trkpt>
      <trkpt lat="45.93626" lon="4.77684">
        <ele>169</ele>
        <time>2018-10-02T08:57:38Z</time>
      </trkpt>
      <trkpt lat="45.9363" lon="4.77691">
        <ele>169</ele>
        <time>2018-10-02T08:57:39Z</time>
      </trkpt>
      <trkpt lat="45.93633" lon="4.77699">
        <ele>169</ele>
        <time>2018-10-02T08:57:40Z</time>
      </trkpt>
      <trkpt lat="45.93636" lon="4.77704">
        <ele>170</ele>
        <time>2018-10-02T08:57:41Z</time>
      </trkpt>
      <trkpt lat="45.93639" lon="4.77708">
        <ele>170</ele>
        <time>2018-10-02T08:57:42Z</time>
      </trkpt>
      <trkpt lat="45.93643" lon="4.77713">
        <ele>170</ele>
        <time>2018-10-02T08:57:43Z</time>
      </trkpt>
      <trkpt lat="45.93649" lon="4.77721">
        <ele>170</ele>
        <time>2018-10-02T08:57:45Z</time>
      </trkpt>
      <trkpt lat="45.93652" lon="4.77725">
        <ele>170</ele>
        <time>2018-10-02T08:57:46Z</time>
      </trkpt>
      <trkpt lat="45.93658" lon="4.77735">
        <ele>170</ele>
        <time>2018-10-02T08:57:48Z</time>
      </trkpt>
      <trkpt lat="45.93661" lon="4.77739">
        <ele>170</ele>
        <time>2018-10-02T08:57:49Z</time>
      </trkpt>
      <trkpt lat="45.93665" lon="4.77746">
        <ele>171</ele>
        <time>2018-10-02T08:57:51Z</time>
      </trkpt>
      <trkpt lat="45.93668" lon="4.7775">
        <ele>171</ele>
        <time>2018-10-02T08:57:52Z</time>
      </trkpt>
      <trkpt lat="45.93674" lon="4.77759">
        <ele>170</ele>
        <time>2018-10-02T08:57:54Z</time>
      </trkpt>
      <trkpt lat="45.93677" lon="4.77763">
        <ele>170</ele>
        <time>2018-10-02T08:57:55Z</time>
      </trkpt>
      <trkpt lat="45.93683" lon="4.77773">
        <ele>170</ele>
        <time>2018-10-02T08:57:57Z</time>
      </trkpt>
      <trkpt lat="45.93686" lon="4.77778">
        <ele>170</ele>
        <time>2018-10-02T08:57:58Z</time>
      </trkpt>
      <trkpt lat="45.93689" lon="4.77782">
        <ele>170</ele>
        <time>2018-10-02T08:57:59Z</time>
      </trkpt>
      <trkpt lat="45.93692" lon="4.77787">
        <ele>170</ele>
        <time>2018-10-02T08:58:00Z</time>
      </trkpt>
      <trkpt lat="45.93695" lon="4.77792">
        <ele>169</ele>
        <time>2018-10-02T08:58:01Z</time>
      </trkpt>
      <trkpt lat="45.93699" lon="4.77798">
        <ele>169</ele>
        <time>2018-10-02T08:58:02Z</time>
      </trkpt>
      <trkpt lat="45.93705" lon="4.77806">
        <ele>169</ele>
        <time>2018-10-02T08:58:04Z</time>
      </trkpt>
      <trkpt lat="45.93708" lon="4.77809">
        <ele>169</ele>
        <time>2018-10-02T08:58:05Z</time>
      </trkpt>
      <trkpt lat="45.93714" lon="4.77817">
        <ele>169</ele>
        <time>2018-10-02T08:58:07Z</time>
      </trkpt>
      <trkpt lat="45.93716" lon="4.77822">
        <ele>169</ele>
        <time>2018-10-02T08:58:08Z</time>
      </trkpt>
      <trkpt lat="45.93723" lon="4.77828">
        <ele>168</ele>
        <time>2018-10-02T08:58:10Z</time>
      </trkpt>
      <trkpt lat="45.93725" lon="4.77832">
        <ele>168</ele>
        <time>2018-10-02T08:58:11Z</time>
      </trkpt>
      <trkpt lat="45.93731" lon="4.7784">
        <ele>167</ele>
        <time>2018-10-02T08:58:13Z</time>
      </trkpt>
      <trkpt lat="45.93734" lon="4.77845">
        <ele>167</ele>
        <time>2018-10-02T08:58:14Z</time>
      </trkpt>
      <trkpt lat="45.93741" lon="4.77853">
        <ele>167</ele>
        <time>2018-10-02T08:58:16Z</time>
      </trkpt>
      <trkpt lat="45.93744" lon="4.77857">
        <ele>167</ele>
        <time>2018-10-02T08:58:17Z</time>
      </trkpt>
      <trkpt lat="45.93749" lon="4.77861">
        <ele>167</ele>
        <time>2018-10-02T08:58:18Z</time>
      </trkpt>
      <trkpt lat="45.93753" lon="4.77865">
        <ele>166</ele>
        <time>2018-10-02T08:58:19Z</time>
      </trkpt>
      <trkpt lat="45.93758" lon="4.77871">
        <ele>166</ele>
        <time>2018-10-02T08:58:21Z</time>
      </trkpt>
      <trkpt lat="45.93761" lon="4.77874">
        <ele>166</ele>
        <time>2018-10-02T08:58:22Z</time>
      </trkpt>
      <trkpt lat="45.93768" lon="4.7788">
        <ele>166</ele>
        <time>2018-10-02T08:58:24Z</time>
      </trkpt>
      <trkpt lat="45.93771" lon="4.77884">
        <ele>166</ele>
        <time>2018-10-02T08:58:25Z</time>
      </trkpt>
      <trkpt lat="45.93774" lon="4.77889">
        <ele>166</ele>
        <time>2018-10-02T08:58:26Z</time>
      </trkpt>
      <trkpt lat="45.93777" lon="4.77894">
        <ele>166</ele>
        <time>2018-10-02T08:58:27Z</time>
      </trkpt>
      <trkpt lat="45.93783" lon="4.77902">
        <ele>166</ele>
        <time>2018-10-02T08:58:29Z</time>
      </trkpt>
      <trkpt lat="45.93787" lon="4.77906">
        <ele>166</ele>
        <time>2018-10-02T08:58:30Z</time>
      </trkpt>
      <trkpt lat="45.93793" lon="4.77914">
        <ele>166</ele>
        <time>2018-10-02T08:58:32Z</time>
      </trkpt>
      <trkpt lat="45.93796" lon="4.77918">
        <ele>168</ele>
        <time>2018-10-02T08:58:33Z</time>
      </trkpt>
      <trkpt lat="45.93802" lon="4.77927">
        <ele>168</ele>
        <time>2018-10-02T08:58:35Z</time>
      </trkpt>
      <trkpt lat="45.93805" lon="4.77931">
        <ele>168</ele>
        <time>2018-10-02T08:58:36Z</time>
      </trkpt>
      <trkpt lat="45.93811" lon="4.7794">
        <ele>169</ele>
        <time>2018-10-02T08:58:38Z</time>
      </trkpt>
      <trkpt lat="45.93814" lon="4.77944">
        <ele>169</ele>
        <time>2018-10-02T08:58:39Z</time>
      </trkpt>
      <trkpt lat="45.9382" lon="4.77953">
        <ele>170</ele>
        <time>2018-10-02T08:58:41Z</time>
      </trkpt>
      <trkpt lat="45.93823" lon="4.77957">
        <ele>170</ele>
        <time>2018-10-02T08:58:42Z</time>
      </trkpt>
      <trkpt lat="45.93829" lon="4.77966">
        <ele>171</ele>
        <time>2018-10-02T08:58:44Z</time>
      </trkpt>
      <trkpt lat="45.93833" lon="4.77973">
        <ele>172</ele>
        <time>2018-10-02T08:58:45Z</time>
      </trkpt>
      <trkpt lat="45.93837" lon="4.77977">
        <ele>178</ele>
        <time>2018-10-02T08:58:46Z</time>
      </trkpt>
      <trkpt lat="45.9384" lon="4.77981">
        <ele>178</ele>
        <time>2018-10-02T08:58:47Z</time>
      </trkpt>
      <trkpt lat="45.93843" lon="4.77986">
        <ele>179</ele>
        <time>2018-10-02T08:58:48Z</time>
      </trkpt>
      <trkpt lat="45.93846" lon="4.77992">
        <ele>179</ele>
        <time>2018-10-02T08:58:49Z</time>
      </trkpt>
      <trkpt lat="45.93849" lon="4.77999">
        <ele>179</ele>
        <time>2018-10-02T08:58:50Z</time>
      </trkpt>
      <trkpt lat="45.93849" lon="4.78006">
        <ele>181</ele>
        <time>2018-10-02T08:58:51Z</time>
      </trkpt>
      <trkpt lat="45.9385" lon="4.78014">
        <ele>182</ele>
        <time>2018-10-02T08:58:52Z</time>
      </trkpt>
      <trkpt lat="45.93851" lon="4.78022">
        <ele>182</ele>
        <time>2018-10-02T08:58:53Z</time>
      </trkpt>
      <trkpt lat="45.9385" lon="4.78029">
        <ele>182</ele>
        <time>2018-10-02T08:58:54Z</time>
      </trkpt>
      <trkpt lat="45.93851" lon="4.78034">
        <ele>183</ele>
        <time>2018-10-02T08:58:55Z</time>
      </trkpt>
      <trkpt lat="45.93852" lon="4.78045">
        <ele>183</ele>
        <time>2018-10-02T08:58:57Z</time>
      </trkpt>
      <trkpt lat="45.93851" lon="4.78051">
        <ele>183</ele>
        <time>2018-10-02T08:58:58Z</time>
      </trkpt>
      <trkpt lat="45.93849" lon="4.78063">
        <ele>182</ele>
        <time>2018-10-02T08:59:00Z</time>
      </trkpt>
      <trkpt lat="45.93848" lon="4.7807">
        <ele>182</ele>
        <time>2018-10-02T08:59:01Z</time>
      </trkpt>
      <trkpt lat="45.93847" lon="4.78081">
        <ele>182</ele>
        <time>2018-10-02T08:59:03Z</time>
      </trkpt>
      <trkpt lat="45.93846" lon="4.78087">
        <ele>183</ele>
        <time>2018-10-02T08:59:04Z</time>
      </trkpt>
      <trkpt lat="45.93845" lon="4.78094">
        <ele>183</ele>
        <time>2018-10-02T08:59:05Z</time>
      </trkpt>
      <trkpt lat="45.93843" lon="4.78101">
        <ele>183</ele>
        <time>2018-10-02T08:59:06Z</time>
      </trkpt>
      <trkpt lat="45.9384" lon="4.78108">
        <ele>184</ele>
        <time>2018-10-02T08:59:07Z</time>
      </trkpt>
      <trkpt lat="45.93838" lon="4.78114">
        <ele>184</ele>
        <time>2018-10-02T08:59:08Z</time>
      </trkpt>
      <trkpt lat="45.93837" lon="4.78121">
        <ele>184</ele>
        <time>2018-10-02T08:59:09Z</time>
      </trkpt>
      <trkpt lat="45.93835" lon="4.78127">
        <ele>184</ele>
        <time>2018-10-02T08:59:10Z</time>
      </trkpt>
      <trkpt lat="45.93831" lon="4.78139">
        <ele>180</ele>
        <time>2018-10-02T08:59:12Z</time>
      </trkpt>
      <trkpt lat="45.9383" lon="4.78144">
        <ele>180</ele>
        <time>2018-10-02T08:59:13Z</time>
      </trkpt>
      <trkpt lat="45.93827" lon="4.78156">
        <ele>181</ele>
        <time>2018-10-02T08:59:15Z</time>
      </trkpt>
      <trkpt lat="45.93827" lon="4.78159">
        <ele>181</ele>
        <time>2018-10-02T08:59:16Z</time>
      </trkpt>
      <trkpt lat="45.93824" lon="4.7817">
        <ele>182</ele>
        <time>2018-10-02T08:59:18Z</time>
      </trkpt>
      <trkpt lat="45.93822" lon="4.78176">
        <ele>182</ele>
        <time>2018-10-02T08:59:19Z</time>
      </trkpt>
      <trkpt lat="45.9382" lon="4.78187">
        <ele>182</ele>
        <time>2018-10-02T08:59:21Z</time>
      </trkpt>
      <trkpt lat="45.93819" lon="4.78193">
        <ele>182</ele>
        <time>2018-10-02T08:59:22Z</time>
      </trkpt>
      <trkpt lat="45.93817" lon="4.78199">
        <ele>182</ele>
        <time>2018-10-02T08:59:23Z</time>
      </trkpt>
      <trkpt lat="45.93815" lon="4.78206">
        <ele>182</ele>
        <time>2018-10-02T08:59:24Z</time>
      </trkpt>
      <trkpt lat="45.93813" lon="4.78211">
        <ele>182</ele>
        <time>2018-10-02T08:59:25Z</time>
      </trkpt>
      <trkpt lat="45.93812" lon="4.78218">
        <ele>182</ele>
        <time>2018-10-02T08:59:26Z</time>
      </trkpt>
      <trkpt lat="45.93807" lon="4.78226">
        <ele>182</ele>
        <time>2018-10-02T08:59:28Z</time>
      </trkpt>
      <trkpt lat="45.93804" lon="4.78231">
        <ele>182</ele>
        <time>2018-10-02T08:59:29Z</time>
      </trkpt>
      <trkpt lat="45.93801" lon="4.78236">
        <ele>182</ele>
        <time>2018-10-02T08:59:30Z</time>
      </trkpt>
      <trkpt lat="45.93799" lon="4.78243">
        <ele>182</ele>
        <time>2018-10-02T08:59:31Z</time>
      </trkpt>
      <trkpt lat="45.93798" lon="4.78251">
        <ele>183</ele>
        <time>2018-10-02T08:59:32Z</time>
      </trkpt>
      <trkpt lat="45.93797" lon="4.78258">
        <ele>183</ele>
        <time>2018-10-02T08:59:33Z</time>
      </trkpt>
      <trkpt lat="45.93796" lon="4.78266">
        <ele>183</ele>
        <time>2018-10-02T08:59:34Z</time>
      </trkpt>
      <trkpt lat="45.93795" lon="4.78272">
        <ele>183</ele>
        <time>2018-10-02T08:59:35Z</time>
      </trkpt>
      <trkpt lat="45.93794" lon="4.78278">
        <ele>183</ele>
        <time>2018-10-02T08:59:36Z</time>
      </trkpt>
      <trkpt lat="45.93792" lon="4.78285">
        <ele>183</ele>
        <time>2018-10-02T08:59:37Z</time>
      </trkpt>
      <trkpt lat="45.93789" lon="4.78297">
        <ele>183</ele>
        <time>2018-10-02T08:59:39Z</time>
      </trkpt>
      <trkpt lat="45.93787" lon="4.78302">
        <ele>183</ele>
        <time>2018-10-02T08:59:40Z</time>
      </trkpt>
      <trkpt lat="45.93785" lon="4.78308">
        <ele>183</ele>
        <time>2018-10-02T08:59:41Z</time>
      </trkpt>
      <trkpt lat="45.93782" lon="4.78316">
        <ele>183</ele>
        <time>2018-10-02T08:59:42Z</time>
      </trkpt>
      <trkpt lat="45.93781" lon="4.78322">
        <ele>183</ele>
        <time>2018-10-02T08:59:43Z</time>
      </trkpt>
      <trkpt lat="45.93779" lon="4.7833">
        <ele>183</ele>
        <time>2018-10-02T08:59:44Z</time>
      </trkpt>
      <trkpt lat="45.93776" lon="4.78337">
        <ele>183</ele>
        <time>2018-10-02T08:59:45Z</time>
      </trkpt>
      <trkpt lat="45.93774" lon="4.78345">
        <ele>183</ele>
        <time>2018-10-02T08:59:46Z</time>
      </trkpt>
      <trkpt lat="45.93773" lon="4.78352">
        <ele>183</ele>
        <time>2018-10-02T08:59:47Z</time>
      </trkpt>
      <trkpt lat="45.93772" lon="4.78358">
        <ele>183</ele>
        <time>2018-10-02T08:59:48Z</time>
      </trkpt>
      <trkpt lat="45.9377" lon="4.78365">
        <ele>183</ele>
        <time>2018-10-02T08:59:49Z</time>
      </trkpt>
      <trkpt lat="45.93769" lon="4.78372">
        <ele>183</ele>
        <time>2018-10-02T08:59:50Z</time>
      </trkpt>
      <trkpt lat="45.93768" lon="4.78379">
        <ele>183</ele>
        <time>2018-10-02T08:59:51Z</time>
      </trkpt>
      <trkpt lat="45.93766" lon="4.78385">
        <ele>183</ele>
        <time>2018-10-02T08:59:52Z</time>
      </trkpt>
      <trkpt lat="45.93765" lon="4.78392">
        <ele>183</ele>
        <time>2018-10-02T08:59:53Z</time>
      </trkpt>
      <trkpt lat="45.93763" lon="4.78398">
        <ele>183</ele>
        <time>2018-10-02T08:59:54Z</time>
      </trkpt>
      <trkpt lat="45.93762" lon="4.78404">
        <ele>183</ele>
        <time>2018-10-02T08:59:55Z</time>
      </trkpt>
      <trkpt lat="45.9376" lon="4.78411">
        <ele>182</ele>
        <time>2018-10-02T08:59:56Z</time>
      </trkpt>
      <trkpt lat="45.93757" lon="4.78418">
        <ele>182</ele>
        <time>2018-10-02T08:59:57Z</time>
      </trkpt>
      <trkpt lat="45.93754" lon="4.78425">
        <ele>182</ele>
        <time>2018-10-02T08:59:58Z</time>
      </trkpt>
      <trkpt lat="45.93753" lon="4.78432">
        <ele>183</ele>
        <time>2018-10-02T08:59:59Z</time>
      </trkpt>
      <trkpt lat="45.93751" lon="4.78439">
        <ele>183</ele>
        <time>2018-10-02T09:00:00Z</time>
      </trkpt>
      <trkpt lat="45.93748" lon="4.78458">
        <ele>180</ele>
        <time>2018-10-02T09:00:02Z</time>
      </trkpt>
      <trkpt lat="45.93746" lon="4.78466">
        <ele>180</ele>
        <time>2018-10-02T09:00:03Z</time>
      </trkpt>
      <trkpt lat="45.93744" lon="4.78474">
        <ele>180</ele>
        <time>2018-10-02T09:00:04Z</time>
      </trkpt>
      <trkpt lat="45.93742" lon="4.78482">
        <ele>180</ele>
        <time>2018-10-02T09:00:05Z</time>
      </trkpt>
      <trkpt lat="45.93739" lon="4.78489">
        <ele>180</ele>
        <time>2018-10-02T09:00:06Z</time>
      </trkpt>
      <trkpt lat="45.93737" lon="4.78497">
        <ele>180</ele>
        <time>2018-10-02T09:00:07Z</time>
      </trkpt>
      <trkpt lat="45.93735" lon="4.78506">
        <ele>179</ele>
        <time>2018-10-02T09:00:08Z</time>
      </trkpt>
      <trkpt lat="45.93733" lon="4.78514">
        <ele>179</ele>
        <time>2018-10-02T09:00:09Z</time>
      </trkpt>
      <trkpt lat="45.93731" lon="4.78523">
        <ele>179</ele>
        <time>2018-10-02T09:00:10Z</time>
      </trkpt>
      <trkpt lat="45.93729" lon="4.78532">
        <ele>178</ele>
        <time>2018-10-02T09:00:11Z</time>
      </trkpt>
      <trkpt lat="45.93727" lon="4.7854">
        <ele>178</ele>
        <time>2018-10-02T09:00:12Z</time>
      </trkpt>
      <trkpt lat="45.93725" lon="4.78549">
        <ele>178</ele>
        <time>2018-10-02T09:00:13Z</time>
      </trkpt>
      <trkpt lat="45.93723" lon="4.78558">
        <ele>178</ele>
        <time>2018-10-02T09:00:14Z</time>
      </trkpt>
      <trkpt lat="45.93721" lon="4.78568">
        <ele>178</ele>
        <time>2018-10-02T09:00:15Z</time>
      </trkpt>
      <trkpt lat="45.93719" lon="4.78577">
        <ele>178</ele>
        <time>2018-10-02T09:00:16Z</time>
      </trkpt>
      <trkpt lat="45.93717" lon="4.78585">
        <ele>177</ele>
        <time>2018-10-02T09:00:17Z</time>
      </trkpt>
      <trkpt lat="45.93716" lon="4.78592">
        <ele>177</ele>
        <time>2018-10-02T09:00:18Z</time>
      </trkpt>
      <trkpt lat="45.93715" lon="4.78599">
        <ele>177</ele>
        <time>2018-10-02T09:00:19Z</time>
      </trkpt>
      <trkpt lat="45.93712" lon="4.78606">
        <ele>176</ele>
        <time>2018-10-02T09:00:20Z</time>
      </trkpt>
      <trkpt lat="45.93708" lon="4.78616">
        <ele>176</ele>
        <time>2018-10-02T09:00:22Z</time>
      </trkpt>
      <trkpt lat="45.93707" lon="4.78621">
        <ele>176</ele>
        <time>2018-10-02T09:00:23Z</time>
      </trkpt>
      <trkpt lat="45.93711" lon="4.78632">
        <ele>176</ele>
        <time>2018-10-02T09:00:26Z</time>
      </trkpt>
      <trkpt lat="45.93716" lon="4.78633">
        <ele>176</ele>
        <time>2018-10-02T09:00:27Z</time>
      </trkpt>
      <trkpt lat="45.93724" lon="4.78632">
        <ele>177</ele>
        <time>2018-10-02T09:00:29Z</time>
      </trkpt>
      <trkpt lat="45.93725" lon="4.78631">
        <ele>177</ele>
        <time>2018-10-02T09:00:30Z</time>
      </trkpt>
      <trkpt lat="45.93733" lon="4.78627">
        <ele>177</ele>
        <time>2018-10-02T09:00:33Z</time>
      </trkpt>
      <trkpt lat="45.93735" lon="4.78626">
        <ele>177</ele>
        <time>2018-10-02T09:00:34Z</time>
      </trkpt>
      <trkpt lat="45.93742" lon="4.78625">
        <ele>177</ele>
        <time>2018-10-02T09:00:37Z</time>
      </trkpt>
      <trkpt lat="45.93745" lon="4.78624">
        <ele>177</ele>
        <time>2018-10-02T09:00:38Z</time>
      </trkpt>
      <trkpt lat="45.93753" lon="4.78622">
        <ele>181</ele>
        <time>2018-10-02T09:00:41Z</time>
      </trkpt>
      <trkpt lat="45.93756" lon="4.78621">
        <ele>181</ele>
        <time>2018-10-02T09:00:42Z</time>
      </trkpt>
      <trkpt lat="45.93765" lon="4.7862">
        <ele>181</ele>
        <time>2018-10-02T09:00:45Z</time>
      </trkpt>
      <trkpt lat="45.93767" lon="4.7862">
        <ele>181</ele>
        <time>2018-10-02T09:00:46Z</time>
      </trkpt>
      <trkpt lat="45.93774" lon="4.78618">
        <ele>181</ele>
        <time>2018-10-02T09:00:49Z</time>
      </trkpt>
      <trkpt lat="45.93776" lon="4.78617">
        <ele>181</ele>
        <time>2018-10-02T09:00:50Z</time>
      </trkpt>
      <trkpt lat="45.93784" lon="4.78616">
        <ele>182</ele>
        <time>2018-10-02T09:00:53Z</time>
      </trkpt>
      <trkpt lat="45.93787" lon="4.78615">
        <ele>182</ele>
        <time>2018-10-02T09:00:54Z</time>
      </trkpt>
      <trkpt lat="45.93793" lon="4.78614">
        <ele>182</ele>
        <time>2018-10-02T09:00:56Z</time>
      </trkpt>
      <trkpt lat="45.93797" lon="4.78613">
        <ele>182</ele>
        <time>2018-10-02T09:00:57Z</time>
      </trkpt>
      <trkpt lat="45.93803" lon="4.78612">
        <ele>182</ele>
        <time>2018-10-02T09:00:59Z</time>
      </trkpt>
      <trkpt lat="45.93806" lon="4.78611">
        <ele>183</ele>
        <time>2018-10-02T09:01:00Z</time>
      </trkpt>
      <trkpt lat="45.93812" lon="4.78609">
        <ele>183</ele>
        <time>2018-10-02T09:01:02Z</time>
      </trkpt>
      <trkpt lat="45.93815" lon="4.78608">
        <ele>183</ele>
        <time>2018-10-02T09:01:03Z</time>
      </trkpt>
      <trkpt lat="45.93821" lon="4.78606">
        <ele>184</ele>
        <time>2018-10-02T09:01:05Z</time>
      </trkpt>
      <trkpt lat="45.93824" lon="4.78605">
        <ele>184</ele>
        <time>2018-10-02T09:01:06Z</time>
      </trkpt>
      <trkpt lat="45.93832" lon="4.78603">
        <ele>184</ele>
        <time>2018-10-02T09:01:09Z</time>
      </trkpt>
      <trkpt lat="45.93834" lon="4.78603">
        <ele>187</ele>
        <time>2018-10-02T09:01:10Z</time>
      </trkpt>
      <trkpt lat="45.93841" lon="4.78602">
        <ele>188</ele>
        <time>2018-10-02T09:01:13Z</time>
      </trkpt>
      <trkpt lat="45.93844" lon="4.78601">
        <ele>188</ele>
        <time>2018-10-02T09:01:14Z</time>
      </trkpt>
      <trkpt lat="45.93851" lon="4.786">
        <ele>188</ele>
        <time>2018-10-02T09:01:17Z</time>
      </trkpt>
      <trkpt lat="45.93854" lon="4.786">
        <ele>188</ele>
        <time>2018-10-02T09:01:18Z</time>
      </trkpt>
      <trkpt lat="45.93861" lon="4.78599">
        <ele>188</ele>
        <time>2018-10-02T09:01:21Z</time>
      </trkpt>
      <trkpt lat="45.93864" lon="4.78599">
        <ele>188</ele>
        <time>2018-10-02T09:01:22Z</time>
      </trkpt>
      <trkpt lat="45.93871" lon="4.78598">
        <ele>189</ele>
        <time>2018-10-02T09:01:25Z</time>
      </trkpt>
      <trkpt lat="45.93873" lon="4.78597">
        <ele>189</ele>
        <time>2018-10-02T09:01:26Z</time>
      </trkpt>
      <trkpt lat="45.93882" lon="4.78595">
        <ele>189</ele>
        <time>2018-10-02T09:01:30Z</time>
      </trkpt>
      <trkpt lat="45.93884" lon="4.78594">
        <ele>189</ele>
        <time>2018-10-02T09:01:31Z</time>
      </trkpt>
      <trkpt lat="45.93891" lon="4.78591">
        <ele>190</ele>
        <time>2018-10-02T09:01:34Z</time>
      </trkpt>
      <trkpt lat="45.93893" lon="4.78591">
        <ele>190</ele>
        <time>2018-10-02T09:01:35Z</time>
      </trkpt>
      <trkpt lat="45.93901" lon="4.78588">
        <ele>191</ele>
        <time>2018-10-02T09:01:39Z</time>
      </trkpt>
      <trkpt lat="45.93902" lon="4.78587">
        <ele>191</ele>
        <time>2018-10-02T09:01:40Z</time>
      </trkpt>
      <trkpt lat="45.9391" lon="4.78584">
        <ele>192</ele>
        <time>2018-10-02T09:01:44Z</time>
      </trkpt>
      <trkpt lat="45.93912" lon="4.78583">
        <ele>193</ele>
        <time>2018-10-02T09:01:45Z</time>
      </trkpt>
      <trkpt lat="45.93919" lon="4.78579">
        <ele>194</ele>
        <time>2018-10-02T09:01:49Z</time>
      </trkpt>
      <trkpt lat="45.9392" lon="4.78577">
        <ele>194</ele>
        <time>2018-10-02T09:01:50Z</time>
      </trkpt>
      <trkpt lat="45.93927" lon="4.78572">
        <ele>196</ele>
        <time>2018-10-02T09:01:54Z</time>
      </trkpt>
      <trkpt lat="45.93929" lon="4.78571">
        <ele>196</ele>
        <time>2018-10-02T09:01:55Z</time>
      </trkpt>
      <trkpt lat="45.93937" lon="4.78578">
        <ele>196</ele>
        <time>2018-10-02T09:02:00Z</time>
      </trkpt>
      <trkpt lat="45.93937" lon="4.78581">
        <ele>196</ele>
        <time>2018-10-02T09:02:01Z</time>
      </trkpt>
      <trkpt lat="45.93937" lon="4.78585">
        <ele>195</ele>
        <time>2018-10-02T09:02:02Z</time>
      </trkpt>
      <trkpt lat="45.93939" lon="4.78597">
        <ele>196</ele>
        <time>2018-10-02T09:02:03Z</time>
      </trkpt>
      <trkpt lat="45.93939" lon="4.78607">
        <ele>196</ele>
        <time>2018-10-02T09:02:06Z</time>
      </trkpt>
      <trkpt lat="45.93939" lon="4.78611">
        <ele>196</ele>
        <time>2018-10-02T09:02:07Z</time>
      </trkpt>
      <trkpt lat="45.93939" lon="4.78616">
        <ele>196</ele>
        <time>2018-10-02T09:02:08Z</time>
      </trkpt>
      <trkpt lat="45.93939" lon="4.78627">
        <ele>196</ele>
        <time>2018-10-02T09:02:09Z</time>
      </trkpt>
      <trkpt lat="45.93939" lon="4.78636">
        <ele>195</ele>
        <time>2018-10-02T09:02:11Z</time>
      </trkpt>
      <trkpt lat="45.93939" lon="4.78643">
        <ele>195</ele>
        <time>2018-10-02T09:02:12Z</time>
      </trkpt>
      <trkpt lat="45.93939" lon="4.78653">
        <ele>195</ele>
        <time>2018-10-02T09:02:15Z</time>
      </trkpt>
      <trkpt lat="45.93939" lon="4.78656">
        <ele>194</ele>
        <time>2018-10-02T09:02:16Z</time>
      </trkpt>
      <trkpt lat="45.9394" lon="4.78668">
        <ele>193</ele>
        <time>2018-10-02T09:02:17Z</time>
      </trkpt>
      <trkpt lat="45.9394" lon="4.78673">
        <ele>194</ele>
        <time>2018-10-02T09:02:18Z</time>
      </trkpt>
      <trkpt lat="45.9394" lon="4.78684">
        <ele>194</ele>
        <time>2018-10-02T09:02:20Z</time>
      </trkpt>
      <trkpt lat="45.93941" lon="4.78692">
        <ele>194</ele>
        <time>2018-10-02T09:02:21Z</time>
      </trkpt>
      <trkpt lat="45.93941" lon="4.78698">
        <ele>194</ele>
        <time>2018-10-02T09:02:22Z</time>
      </trkpt>
      <trkpt lat="45.93942" lon="4.78705">
        <ele>194</ele>
        <time>2018-10-02T09:02:23Z</time>
      </trkpt>
      <trkpt lat="45.93943" lon="4.78717">
        <ele>194</ele>
        <time>2018-10-02T09:02:25Z</time>
      </trkpt>
      <trkpt lat="45.93943" lon="4.78723">
        <ele>194</ele>
        <time>2018-10-02T09:02:26Z</time>
      </trkpt>
      <trkpt lat="45.93943" lon="4.78732">
        <ele>194</ele>
        <time>2018-10-02T09:02:27Z</time>
      </trkpt>
      <trkpt lat="45.93945" lon="4.78737">
        <ele>194</ele>
        <time>2018-10-02T09:02:28Z</time>
      </trkpt>
      <trkpt lat="45.93944" lon="4.78749">
        <ele>194</ele>
        <time>2018-10-02T09:02:30Z</time>
      </trkpt>
      <trkpt lat="45.93943" lon="4.78756">
        <ele>194</ele>
        <time>2018-10-02T09:02:31Z</time>
      </trkpt>
      <trkpt lat="45.93943" lon="4.78767">
        <ele>194</ele>
        <time>2018-10-02T09:02:33Z</time>
      </trkpt>
      <trkpt lat="45.93943" lon="4.78773">
        <ele>194</ele>
        <time>2018-10-02T09:02:34Z</time>
      </trkpt>
      <trkpt lat="45.93943" lon="4.78785">
        <ele>194</ele>
        <time>2018-10-02T09:02:36Z</time>
      </trkpt>
      <trkpt lat="45.93943" lon="4.78791">
        <ele>194</ele>
        <time>2018-10-02T09:02:37Z</time>
      </trkpt>
      <trkpt lat="45.93942" lon="4.78802">
        <ele>194</ele>
        <time>2018-10-02T09:02:39Z</time>
      </trkpt>
      <trkpt lat="45.93943" lon="4.78809">
        <ele>194</ele>
        <time>2018-10-02T09:02:40Z</time>
      </trkpt>
      <trkpt lat="45.93943" lon="4.78816">
        <ele>194</ele>
        <time>2018-10-02T09:02:41Z</time>
      </trkpt>
      <trkpt lat="45.93944" lon="4.78822">
        <ele>194</ele>
        <time>2018-10-02T09:02:42Z</time>
      </trkpt>
      <trkpt lat="45.93945" lon="4.78829">
        <ele>194</ele>
        <time>2018-10-02T09:02:43Z</time>
      </trkpt>
      <trkpt lat="45.93945" lon="4.78835">
        <ele>194</ele>
        <time>2018-10-02T09:02:44Z</time>
      </trkpt>
      <trkpt lat="45.93946" lon="4.78846">
        <ele>194</ele>
        <time>2018-10-02T09:02:46Z</time>
      </trkpt>
      <trkpt lat="45.93945" lon="4.78852">
        <ele>194</ele>
        <time>2018-10-02T09:02:47Z</time>
      </trkpt>
      <trkpt lat="45.93945" lon="4.7886">
        <ele>194</ele>
        <time>2018-10-02T09:02:49Z</time>
      </trkpt>
      <trkpt lat="45.93945" lon="4.78869">
        <ele>194</ele>
        <time>2018-10-02T09:02:50Z</time>
      </trkpt>
      <trkpt lat="45.93945" lon="4.78881">
        <ele>194</ele>
        <time>2018-10-02T09:02:52Z</time>
      </trkpt>
      <trkpt lat="45.93945" lon="4.78888">
        <ele>194</ele>
        <time>2018-10-02T09:02:53Z</time>
      </trkpt>
      <trkpt lat="45.93945" lon="4.78894">
        <ele>194</ele>
        <time>2018-10-02T09:02:54Z</time>
      </trkpt>
      <trkpt lat="45.93944" lon="4.78901">
        <ele>193</ele>
        <time>2018-10-02T09:02:55Z</time>
      </trkpt>
      <trkpt lat="45.93946" lon="4.78912">
        <ele>193</ele>
        <time>2018-10-02T09:02:57Z</time>
      </trkpt>
      <trkpt lat="45.93946" lon="4.78917">
        <ele>193</ele>
        <time>2018-10-02T09:02:58Z</time>
      </trkpt>
      <trkpt lat="45.93947" lon="4.78928">
        <ele>194</ele>
        <time>2018-10-02T09:03:00Z</time>
      </trkpt>
      <trkpt lat="45.93948" lon="4.78935">
        <ele>194</ele>
        <time>2018-10-02T09:03:01Z</time>
      </trkpt>
      <trkpt lat="45.93949" lon="4.78945">
        <ele>194</ele>
        <time>2018-10-02T09:03:03Z</time>
      </trkpt>
      <trkpt lat="45.93949" lon="4.78951">
        <ele>194</ele>
        <time>2018-10-02T09:03:04Z</time>
      </trkpt>
      <trkpt lat="45.93948" lon="4.78962">
        <ele>194</ele>
        <time>2018-10-02T09:03:06Z</time>
      </trkpt>
      <trkpt lat="45.93948" lon="4.78967">
        <ele>194</ele>
        <time>2018-10-02T09:03:07Z</time>
      </trkpt>
      <trkpt lat="45.93948" lon="4.7898">
        <ele>194</ele>
        <time>2018-10-02T09:03:09Z</time>
      </trkpt>
      <trkpt lat="45.93948" lon="4.78982">
        <ele>194</ele>
        <time>2018-10-02T09:03:10Z</time>
      </trkpt>
      <trkpt lat="45.93949" lon="4.78994">
        <ele>194</ele>
        <time>2018-10-02T09:03:13Z</time>
      </trkpt>
      <trkpt lat="45.93949" lon="4.78997">
        <ele>194</ele>
        <time>2018-10-02T09:03:14Z</time>
      </trkpt>
      <trkpt lat="45.93949" lon="4.79001">
        <ele>195</ele>
        <time>2018-10-02T09:03:15Z</time>
      </trkpt>
      <trkpt lat="45.93948" lon="4.79012">
        <ele>195</ele>
        <time>2018-10-02T09:03:16Z</time>
      </trkpt>
      <trkpt lat="45.93949" lon="4.79024">
        <ele>195</ele>
        <time>2018-10-02T09:03:18Z</time>
      </trkpt>
      <trkpt lat="45.9395" lon="4.79029">
        <ele>196</ele>
        <time>2018-10-02T09:03:19Z</time>
      </trkpt>
      <trkpt lat="45.9395" lon="4.7904">
        <ele>196</ele>
        <time>2018-10-02T09:03:21Z</time>
      </trkpt>
      <trkpt lat="45.9395" lon="4.79043">
        <ele>196</ele>
        <time>2018-10-02T09:03:22Z</time>
      </trkpt>
      <trkpt lat="45.9395" lon="4.79052">
        <ele>196</ele>
        <time>2018-10-02T09:03:23Z</time>
      </trkpt>
      <trkpt lat="45.9395" lon="4.79057">
        <ele>196</ele>
        <time>2018-10-02T09:03:24Z</time>
      </trkpt>
      <trkpt lat="45.9395" lon="4.79063">
        <ele>196</ele>
        <time>2018-10-02T09:03:25Z</time>
      </trkpt>
      <trkpt lat="45.9395" lon="4.79071">
        <ele>196</ele>
        <time>2018-10-02T09:03:26Z</time>
      </trkpt>
      <trkpt lat="45.93951" lon="4.79078">
        <ele>196</ele>
        <time>2018-10-02T09:03:27Z</time>
      </trkpt>
      <trkpt lat="45.93951" lon="4.79084">
        <ele>197</ele>
        <time>2018-10-02T09:03:28Z</time>
      </trkpt>
      <trkpt lat="45.93952" lon="4.79097">
        <ele>197</ele>
        <time>2018-10-02T09:03:30Z</time>
      </trkpt>
      <trkpt lat="45.93952" lon="4.79102">
        <ele>197</ele>
        <time>2018-10-02T09:03:31Z</time>
      </trkpt>
      <trkpt lat="45.93952" lon="4.79114">
        <ele>197</ele>
        <time>2018-10-02T09:03:33Z</time>
      </trkpt>
      <trkpt lat="45.93953" lon="4.79119">
        <ele>197</ele>
        <time>2018-10-02T09:03:34Z</time>
      </trkpt>
      <trkpt lat="45.93953" lon="4.79131">
        <ele>197</ele>
        <time>2018-10-02T09:03:36Z</time>
      </trkpt>
      <trkpt lat="45.93952" lon="4.79137">
        <ele>197</ele>
        <time>2018-10-02T09:03:37Z</time>
      </trkpt>
      <trkpt lat="45.93952" lon="4.79149">
        <ele>197</ele>
        <time>2018-10-02T09:03:39Z</time>
      </trkpt>
      <trkpt lat="45.93952" lon="4.79156">
        <ele>197</ele>
        <time>2018-10-02T09:03:40Z</time>
      </trkpt>
      <trkpt lat="45.93952" lon="4.79167">
        <ele>197</ele>
        <time>2018-10-02T09:03:42Z</time>
      </trkpt>
      <trkpt lat="45.93952" lon="4.79173">
        <ele>197</ele>
        <time>2018-10-02T09:03:43Z</time>
      </trkpt>
      <trkpt lat="45.93952" lon="4.79183">
        <ele>197</ele>
        <time>2018-10-02T09:03:45Z</time>
      </trkpt>
      <trkpt lat="45.93952" lon="4.79189">
        <ele>197</ele>
        <time>2018-10-02T09:03:46Z</time>
      </trkpt>
      <trkpt lat="45.93951" lon="4.792">
        <ele>197</ele>
        <time>2018-10-02T09:03:48Z</time>
      </trkpt>
      <trkpt lat="45.93951" lon="4.79206">
        <ele>197</ele>
        <time>2018-10-02T09:03:49Z</time>
      </trkpt>
      <trkpt lat="45.93952" lon="4.79218">
        <ele>197</ele>
        <time>2018-10-02T09:03:51Z</time>
      </trkpt>
      <trkpt lat="45.93952" lon="4.79223">
        <ele>197</ele>
        <time>2018-10-02T09:03:52Z</time>
      </trkpt>
      <trkpt lat="45.93952" lon="4.79235">
        <ele>197</ele>
        <time>2018-10-02T09:03:54Z</time>
      </trkpt>
      <trkpt lat="45.93952" lon="4.79241">
        <ele>197</ele>
        <time>2018-10-02T09:03:55Z</time>
      </trkpt>
      <trkpt lat="45.93953" lon="4.79253">
        <ele>198</ele>
        <time>2018-10-02T09:03:57Z</time>
      </trkpt>
      <trkpt lat="45.93953" lon="4.79259">
        <ele>198</ele>
        <time>2018-10-02T09:03:58Z</time>
      </trkpt>
      <trkpt lat="45.93954" lon="4.79271">
        <ele>198</ele>
        <time>2018-10-02T09:04:00Z</time>
      </trkpt>
      <trkpt lat="45.93954" lon="4.79276">
        <ele>198</ele>
        <time>2018-10-02T09:04:01Z</time>
      </trkpt>
      <trkpt lat="45.93954" lon="4.79287">
        <ele>198</ele>
        <time>2018-10-02T09:04:03Z</time>
      </trkpt>
      <trkpt lat="45.93954" lon="4.79289">
        <ele>198</ele>
        <time>2018-10-02T09:04:04Z</time>
      </trkpt>
      <trkpt lat="45.93954" lon="4.79297">
        <ele>199</ele>
        <time>2018-10-02T09:04:05Z</time>
      </trkpt>
      <trkpt lat="45.93955" lon="4.79303">
        <ele>199</ele>
        <time>2018-10-02T09:04:06Z</time>
      </trkpt>
      <trkpt lat="45.93955" lon="4.79314">
        <ele>199</ele>
        <time>2018-10-02T09:04:08Z</time>
      </trkpt>
      <trkpt lat="45.93955" lon="4.7932">
        <ele>199</ele>
        <time>2018-10-02T09:04:09Z</time>
      </trkpt>
      <trkpt lat="45.93956" lon="4.79331">
        <ele>199</ele>
        <time>2018-10-02T09:04:11Z</time>
      </trkpt>
      <trkpt lat="45.93956" lon="4.79337">
        <ele>201</ele>
        <time>2018-10-02T09:04:12Z</time>
      </trkpt>
      <trkpt lat="45.93956" lon="4.79349">
        <ele>201</ele>
        <time>2018-10-02T09:04:14Z</time>
      </trkpt>
      <trkpt lat="45.93955" lon="4.79354">
        <ele>201</ele>
        <time>2018-10-02T09:04:15Z</time>
      </trkpt>
      <trkpt lat="45.93955" lon="4.79366">
        <ele>201</ele>
        <time>2018-10-02T09:04:17Z</time>
      </trkpt>
      <trkpt lat="45.93955" lon="4.79372">
        <ele>201</ele>
        <time>2018-10-02T09:04:18Z</time>
      </trkpt>
      <trkpt lat="45.93955" lon="4.79384">
        <ele>201</ele>
        <time>2018-10-02T09:04:20Z</time>
      </trkpt>
      <trkpt lat="45.93955" lon="4.79389">
        <ele>201</ele>
        <time>2018-10-02T09:04:21Z</time>
      </trkpt>
      <trkpt lat="45.93955" lon="4.794">
        <ele>201</ele>
        <time>2018-10-02T09:04:23Z</time>
      </trkpt>
      <trkpt lat="45.93956" lon="4.79406">
        <ele>201</ele>
        <time>2018-10-02T09:04:24Z</time>
      </trkpt>
      <trkpt lat="45.93955" lon="4.79417">
        <ele>202</ele>
        <time>2018-10-02T09:04:26Z</time>
      </trkpt>
      <trkpt lat="45.93955" lon="4.79423">
        <ele>202</ele>
        <time>2018-10-02T09:04:27Z</time>
      </trkpt>
      <trkpt lat="45.93956" lon="4.79434">
        <ele>203</ele>
        <time>2018-10-02T09:04:29Z</time>
      </trkpt>
      <trkpt lat="45.93956" lon="4.79439">
        <ele>203</ele>
        <time>2018-10-02T09:04:30Z</time>
      </trkpt>
      <trkpt lat="45.93955" lon="4.7945">
        <ele>203</ele>
        <time>2018-10-02T09:04:32Z</time>
      </trkpt>
      <trkpt lat="45.93954" lon="4.79455">
        <ele>203</ele>
        <time>2018-10-02T09:04:33Z</time>
      </trkpt>
      <trkpt lat="45.93953" lon="4.79466">
        <ele>203</ele>
        <time>2018-10-02T09:04:35Z</time>
      </trkpt>
      <trkpt lat="45.93953" lon="4.79471">
        <ele>203</ele>
        <time>2018-10-02T09:04:36Z</time>
      </trkpt>
      <trkpt lat="45.93954" lon="4.79482">
        <ele>203</ele>
        <time>2018-10-02T09:04:38Z</time>
      </trkpt>
      <trkpt lat="45.93954" lon="4.79484">
        <ele>203</ele>
        <time>2018-10-02T09:04:39Z</time>
      </trkpt>
      <trkpt lat="45.93954" lon="4.79497">
        <ele>203</ele>
        <time>2018-10-02T09:04:41Z</time>
      </trkpt>
      <trkpt lat="45.93955" lon="4.79502">
        <ele>204</ele>
        <time>2018-10-02T09:04:42Z</time>
      </trkpt>
      <trkpt lat="45.93956" lon="4.79512">
        <ele>204</ele>
        <time>2018-10-02T09:04:44Z</time>
      </trkpt>
      <trkpt lat="45.93957" lon="4.79517">
        <ele>204</ele>
        <time>2018-10-02T09:04:45Z</time>
      </trkpt>
      <trkpt lat="45.93958" lon="4.79528">
        <ele>205</ele>
        <time>2018-10-02T09:04:47Z</time>
      </trkpt>
      <trkpt lat="45.93959" lon="4.79533">
        <ele>205</ele>
        <time>2018-10-02T09:04:48Z</time>
      </trkpt>
      <trkpt lat="45.93959" lon="4.79544">
        <ele>205</ele>
        <time>2018-10-02T09:04:50Z</time>
      </trkpt>
      <trkpt lat="45.93959" lon="4.79546">
        <ele>205</ele>
        <time>2018-10-02T09:04:51Z</time>
      </trkpt>
      <trkpt lat="45.93959" lon="4.79559">
        <ele>205</ele>
        <time>2018-10-02T09:04:53Z</time>
      </trkpt>
      <trkpt lat="45.93959" lon="4.79562">
        <ele>205</ele>
        <time>2018-10-02T09:04:54Z</time>
      </trkpt>
      <trkpt lat="45.9396" lon="4.79575">
        <ele>206</ele>
        <time>2018-10-02T09:04:56Z</time>
      </trkpt>
      <trkpt lat="45.9396" lon="4.7958">
        <ele>206</ele>
        <time>2018-10-02T09:04:57Z</time>
      </trkpt>
      <trkpt lat="45.93961" lon="4.7959">
        <ele>207</ele>
        <time>2018-10-02T09:05:00Z</time>
      </trkpt>
      <trkpt lat="45.93961" lon="4.79593">
        <ele>207</ele>
        <time>2018-10-02T09:05:01Z</time>
      </trkpt>
      <trkpt lat="45.93961" lon="4.79598">
        <ele>207</ele>
        <time>2018-10-02T09:05:02Z</time>
      </trkpt>
      <trkpt lat="45.93962" lon="4.7961">
        <ele>207</ele>
        <time>2018-10-02T09:05:03Z</time>
      </trkpt>
      <trkpt lat="45.93962" lon="4.79621">
        <ele>207</ele>
        <time>2018-10-02T09:05:05Z</time>
      </trkpt>
      <trkpt lat="45.93963" lon="4.79626">
        <ele>207</ele>
        <time>2018-10-02T09:05:06Z</time>
      </trkpt>
      <trkpt lat="45.93964" lon="4.79638">
        <ele>207</ele>
        <time>2018-10-02T09:05:08Z</time>
      </trkpt>
      <trkpt lat="45.93965" lon="4.79643">
        <ele>207</ele>
        <time>2018-10-02T09:05:09Z</time>
      </trkpt>
      <trkpt lat="45.93966" lon="4.79654">
        <ele>207</ele>
        <time>2018-10-02T09:05:11Z</time>
      </trkpt>
      <trkpt lat="45.93967" lon="4.7966">
        <ele>208</ele>
        <time>2018-10-02T09:05:12Z</time>
      </trkpt>
      <trkpt lat="45.93968" lon="4.79672">
        <ele>207</ele>
        <time>2018-10-02T09:05:14Z</time>
      </trkpt>
      <trkpt lat="45.93968" lon="4.79678">
        <ele>207</ele>
        <time>2018-10-02T09:05:15Z</time>
      </trkpt>
      <trkpt lat="45.9397" lon="4.79691">
        <ele>207</ele>
        <time>2018-10-02T09:05:18Z</time>
      </trkpt>
      <trkpt lat="45.93971" lon="4.797">
        <ele>207</ele>
        <time>2018-10-02T09:05:19Z</time>
      </trkpt>
      <trkpt lat="45.93972" lon="4.79711">
        <ele>207</ele>
        <time>2018-10-02T09:05:21Z</time>
      </trkpt>
      <trkpt lat="45.93973" lon="4.79716">
        <ele>207</ele>
        <time>2018-10-02T09:05:22Z</time>
      </trkpt>
      <trkpt lat="45.93975" lon="4.79727">
        <ele>207</ele>
        <time>2018-10-02T09:05:24Z</time>
      </trkpt>
      <trkpt lat="45.93975" lon="4.7973">
        <ele>207</ele>
        <time>2018-10-02T09:05:25Z</time>
      </trkpt>
      <trkpt lat="45.93976" lon="4.79738">
        <ele>207</ele>
        <time>2018-10-02T09:05:26Z</time>
      </trkpt>
      <trkpt lat="45.93977" lon="4.79743">
        <ele>207</ele>
        <time>2018-10-02T09:05:27Z</time>
      </trkpt>
      <trkpt lat="45.93978" lon="4.79755">
        <ele>207</ele>
        <time>2018-10-02T09:05:29Z</time>
      </trkpt>
      <trkpt lat="45.93979" lon="4.79761">
        <ele>207</ele>
        <time>2018-10-02T09:05:30Z</time>
      </trkpt>
      <trkpt lat="45.93979" lon="4.79768">
        <ele>207</ele>
        <time>2018-10-02T09:05:31Z</time>
      </trkpt>
      <trkpt lat="45.9398" lon="4.79775">
        <ele>207</ele>
        <time>2018-10-02T09:05:32Z</time>
      </trkpt>
      <trkpt lat="45.9398" lon="4.79788">
        <ele>207</ele>
        <time>2018-10-02T09:05:34Z</time>
      </trkpt>
      <trkpt lat="45.93979" lon="4.79794">
        <ele>207</ele>
        <time>2018-10-02T09:05:35Z</time>
      </trkpt>
      <trkpt lat="45.93978" lon="4.79806">
        <ele>207</ele>
        <time>2018-10-02T09:05:37Z</time>
      </trkpt>
      <trkpt lat="45.93978" lon="4.79812">
        <ele>207</ele>
        <time>2018-10-02T09:05:38Z</time>
      </trkpt>
      <trkpt lat="45.93976" lon="4.79823">
        <ele>207</ele>
        <time>2018-10-02T09:05:40Z</time>
      </trkpt>
      <trkpt lat="45.93975" lon="4.79829">
        <ele>207</ele>
        <time>2018-10-02T09:05:41Z</time>
      </trkpt>
      <trkpt lat="45.93974" lon="4.79835">
        <ele>207</ele>
        <time>2018-10-02T09:05:42Z</time>
      </trkpt>
      <trkpt lat="45.93973" lon="4.79842">
        <ele>207</ele>
        <time>2018-10-02T09:05:43Z</time>
      </trkpt>
      <trkpt lat="45.93972" lon="4.79849">
        <ele>207</ele>
        <time>2018-10-02T09:05:44Z</time>
      </trkpt>
      <trkpt lat="45.93971" lon="4.79857">
        <ele>206</ele>
        <time>2018-10-02T09:05:45Z</time>
      </trkpt>
      <trkpt lat="45.93969" lon="4.79864">
        <ele>206</ele>
        <time>2018-10-02T09:05:46Z</time>
      </trkpt>
      <trkpt lat="45.93968" lon="4.7987">
        <ele>206</ele>
        <time>2018-10-02T09:05:47Z</time>
      </trkpt>
      <trkpt lat="45.93966" lon="4.79876">
        <ele>206</ele>
        <time>2018-10-02T09:05:48Z</time>
      </trkpt>
      <trkpt lat="45.93964" lon="4.79882">
        <ele>206</ele>
        <time>2018-10-02T09:05:49Z</time>
      </trkpt>
      <trkpt lat="45.93962" lon="4.79894">
        <ele>206</ele>
        <time>2018-10-02T09:05:51Z</time>
      </trkpt>
      <trkpt lat="45.93961" lon="4.79901">
        <ele>206</ele>
        <time>2018-10-02T09:05:52Z</time>
      </trkpt>
      <trkpt lat="45.93957" lon="4.79912">
        <ele>205</ele>
        <time>2018-10-02T09:05:54Z</time>
      </trkpt>
      <trkpt lat="45.93956" lon="4.79918">
        <ele>205</ele>
        <time>2018-10-02T09:05:55Z</time>
      </trkpt>
      <trkpt lat="45.93955" lon="4.79924">
        <ele>205</ele>
        <time>2018-10-02T09:05:56Z</time>
      </trkpt>
      <trkpt lat="45.93954" lon="4.79931">
        <ele>205</ele>
        <time>2018-10-02T09:05:57Z</time>
      </trkpt>
      <trkpt lat="45.93952" lon="4.79938">
        <ele>205</ele>
        <time>2018-10-02T09:05:58Z</time>
      </trkpt>
      <trkpt lat="45.93951" lon="4.79944">
        <ele>205</ele>
        <time>2018-10-02T09:05:59Z</time>
      </trkpt>
      <trkpt lat="45.93949" lon="4.79952">
        <ele>205</ele>
        <time>2018-10-02T09:06:00Z</time>
      </trkpt>
      <trkpt lat="45.93948" lon="4.79959">
        <ele>205</ele>
        <time>2018-10-02T09:06:01Z</time>
      </trkpt>
      <trkpt lat="45.93946" lon="4.7997">
        <ele>205</ele>
        <time>2018-10-02T09:06:03Z</time>
      </trkpt>
      <trkpt lat="45.93945" lon="4.79977">
        <ele>205</ele>
        <time>2018-10-02T09:06:04Z</time>
      </trkpt>
      <trkpt lat="45.93942" lon="4.79984">
        <ele>204</ele>
        <time>2018-10-02T09:06:05Z</time>
      </trkpt>
      <trkpt lat="45.93942" lon="4.79991">
        <ele>204</ele>
        <time>2018-10-02T09:06:06Z</time>
      </trkpt>
      <trkpt lat="45.93941" lon="4.79998">
        <ele>204</ele>
        <time>2018-10-02T09:06:07Z</time>
      </trkpt>
      <trkpt lat="45.9394" lon="4.80007">
        <ele>206</ele>
        <time>2018-10-02T09:06:08Z</time>
      </trkpt>
      <trkpt lat="45.93939" lon="4.80013">
        <ele>206</ele>
        <time>2018-10-02T09:06:09Z</time>
      </trkpt>
      <trkpt lat="45.93939" lon="4.80021">
        <ele>206</ele>
        <time>2018-10-02T09:06:10Z</time>
      </trkpt>
      <trkpt lat="45.93937" lon="4.80031">
        <ele>207</ele>
        <time>2018-10-02T09:06:12Z</time>
      </trkpt>
      <trkpt lat="45.93937" lon="4.80037">
        <ele>207</ele>
        <time>2018-10-02T09:06:13Z</time>
      </trkpt>
      <trkpt lat="45.93937" lon="4.80049">
        <ele>207</ele>
        <time>2018-10-02T09:06:15Z</time>
      </trkpt>
      <trkpt lat="45.93936" lon="4.80055">
        <ele>207</ele>
        <time>2018-10-02T09:06:16Z</time>
      </trkpt>
      <trkpt lat="45.93936" lon="4.80061">
        <ele>207</ele>
        <time>2018-10-02T09:06:17Z</time>
      </trkpt>
      <trkpt lat="45.93937" lon="4.80069">
        <ele>207</ele>
        <time>2018-10-02T09:06:18Z</time>
      </trkpt>
      <trkpt lat="45.93938" lon="4.80076">
        <ele>207</ele>
        <time>2018-10-02T09:06:19Z</time>
      </trkpt>
      <trkpt lat="45.93937" lon="4.80084">
        <ele>208</ele>
        <time>2018-10-02T09:06:20Z</time>
      </trkpt>
      <trkpt lat="45.93939" lon="4.8009">
        <ele>208</ele>
        <time>2018-10-02T09:06:21Z</time>
      </trkpt>
      <trkpt lat="45.9394" lon="4.80099">
        <ele>208</ele>
        <time>2018-10-02T09:06:22Z</time>
      </trkpt>
      <trkpt lat="45.9394" lon="4.80106">
        <ele>208</ele>
        <time>2018-10-02T09:06:23Z</time>
      </trkpt>
      <trkpt lat="45.93941" lon="4.80114">
        <ele>209</ele>
        <time>2018-10-02T09:06:24Z</time>
      </trkpt>
      <trkpt lat="45.93943" lon="4.80122">
        <ele>209</ele>
        <time>2018-10-02T09:06:25Z</time>
      </trkpt>
      <trkpt lat="45.93944" lon="4.80129">
        <ele>209</ele>
        <time>2018-10-02T09:06:26Z</time>
      </trkpt>
      <trkpt lat="45.93945" lon="4.80136">
        <ele>209</ele>
        <time>2018-10-02T09:06:27Z</time>
      </trkpt>
      <trkpt lat="45.93945" lon="4.80143">
        <ele>208</ele>
        <time>2018-10-02T09:06:28Z</time>
      </trkpt>
      <trkpt lat="45.93946" lon="4.8015">
        <ele>208</ele>
        <time>2018-10-02T09:06:29Z</time>
      </trkpt>
      <trkpt lat="45.93948" lon="4.80156">
        <ele>208</ele>
        <time>2018-10-02T09:06:30Z</time>
      </trkpt>
      <trkpt lat="45.9395" lon="4.80167">
        <ele>206</ele>
        <time>2018-10-02T09:06:32Z</time>
      </trkpt>
      <trkpt lat="45.9395" lon="4.80173">
        <ele>206</ele>
        <time>2018-10-02T09:06:33Z</time>
      </trkpt>
      <trkpt lat="45.93952" lon="4.80179">
        <ele>206</ele>
        <time>2018-10-02T09:06:34Z</time>
      </trkpt>
      <trkpt lat="45.93952" lon="4.80187">
        <ele>206</ele>
        <time>2018-10-02T09:06:35Z</time>
      </trkpt>
      <trkpt lat="45.93954" lon="4.80193">
        <ele>206</ele>
        <time>2018-10-02T09:06:36Z</time>
      </trkpt>
      <trkpt lat="45.93955" lon="4.80201">
        <ele>205</ele>
        <time>2018-10-02T09:06:37Z</time>
      </trkpt>
      <trkpt lat="45.93957" lon="4.80208">
        <ele>205</ele>
        <time>2018-10-02T09:06:38Z</time>
      </trkpt>
      <trkpt lat="45.93958" lon="4.80215">
        <ele>205</ele>
        <time>2018-10-02T09:06:39Z</time>
      </trkpt>
      <trkpt lat="45.9396" lon="4.80221">
        <ele>205</ele>
        <time>2018-10-02T09:06:40Z</time>
      </trkpt>
      <trkpt lat="45.93963" lon="4.80228">
        <ele>205</ele>
        <time>2018-10-02T09:06:41Z</time>
      </trkpt>
      <trkpt lat="45.93965" lon="4.80235">
        <ele>205</ele>
        <time>2018-10-02T09:06:42Z</time>
      </trkpt>
      <trkpt lat="45.93967" lon="4.80241">
        <ele>204</ele>
        <time>2018-10-02T09:06:43Z</time>
      </trkpt>
      <trkpt lat="45.93971" lon="4.80252">
        <ele>202</ele>
        <time>2018-10-02T09:06:45Z</time>
      </trkpt>
      <trkpt lat="45.93971" lon="4.80255">
        <ele>202</ele>
        <time>2018-10-02T09:06:46Z</time>
      </trkpt>
      <trkpt lat="45.93973" lon="4.80266">
        <ele>203</ele>
        <time>2018-10-02T09:06:48Z</time>
      </trkpt>
      <trkpt lat="45.93974" lon="4.80272">
        <ele>203</ele>
        <time>2018-10-02T09:06:49Z</time>
      </trkpt>
      <trkpt lat="45.93976" lon="4.80284">
        <ele>203</ele>
        <time>2018-10-02T09:06:51Z</time>
      </trkpt>
      <trkpt lat="45.93978" lon="4.80289">
        <ele>203</ele>
        <time>2018-10-02T09:06:52Z</time>
      </trkpt>
      <trkpt lat="45.93981" lon="4.803">
        <ele>203</ele>
        <time>2018-10-02T09:06:55Z</time>
      </trkpt>
      <trkpt lat="45.93982" lon="4.80303">
        <ele>203</ele>
        <time>2018-10-02T09:06:56Z</time>
      </trkpt>
      <trkpt lat="45.93985" lon="4.80313">
        <ele>203</ele>
        <time>2018-10-02T09:06:59Z</time>
      </trkpt>
      <trkpt lat="45.93986" lon="4.80317">
        <ele>204</ele>
        <time>2018-10-02T09:07:00Z</time>
      </trkpt>
      <trkpt lat="45.93989" lon="4.80328">
        <ele>204</ele>
        <time>2018-10-02T09:07:03Z</time>
      </trkpt>
      <trkpt lat="45.93989" lon="4.80332">
        <ele>205</ele>
        <time>2018-10-02T09:07:04Z</time>
      </trkpt>
      <trkpt lat="45.93992" lon="4.80344">
        <ele>206</ele>
        <time>2018-10-02T09:07:07Z</time>
      </trkpt>
      <trkpt lat="45.93993" lon="4.80347">
        <ele>206</ele>
        <time>2018-10-02T09:07:08Z</time>
      </trkpt>
      <trkpt lat="45.93995" lon="4.80358">
        <ele>207</ele>
        <time>2018-10-02T09:07:11Z</time>
      </trkpt>
      <trkpt lat="45.93996" lon="4.80362">
        <ele>207</ele>
        <time>2018-10-02T09:07:12Z</time>
      </trkpt>
      <trkpt lat="45.93998" lon="4.80372">
        <ele>207</ele>
        <time>2018-10-02T09:07:15Z</time>
      </trkpt>
      <trkpt lat="45.93999" lon="4.80375">
        <ele>208</ele>
        <time>2018-10-02T09:07:16Z</time>
      </trkpt>
      <trkpt lat="45.94002" lon="4.80386">
        <ele>217</ele>
        <time>2018-10-02T09:07:19Z</time>
      </trkpt>
      <trkpt lat="45.94003" lon="4.80389">
        <ele>217</ele>
        <time>2018-10-02T09:07:20Z</time>
      </trkpt>
      <trkpt lat="45.94006" lon="4.80401">
        <ele>217</ele>
        <time>2018-10-02T09:07:23Z</time>
      </trkpt>
      <trkpt lat="45.94007" lon="4.80404">
        <ele>217</ele>
        <time>2018-10-02T09:07:24Z</time>
      </trkpt>
      <trkpt lat="45.9401" lon="4.80415">
        <ele>217</ele>
        <time>2018-10-02T09:07:27Z</time>
      </trkpt>
      <trkpt lat="45.94011" lon="4.80418">
        <ele>219</ele>
        <time>2018-10-02T09:07:28Z</time>
      </trkpt>
      <trkpt lat="45.94015" lon="4.80429">
        <ele>221</ele>
        <time>2018-10-02T09:07:32Z</time>
      </trkpt>
      <trkpt lat="45.94016" lon="4.80433">
        <ele>221</ele>
        <time>2018-10-02T09:07:33Z</time>
      </trkpt>
      <trkpt lat="45.94018" lon="4.80443">
        <ele>222</ele>
        <time>2018-10-02T09:07:36Z</time>
      </trkpt>
      <trkpt lat="45.94019" lon="4.80446">
        <ele>223</ele>
        <time>2018-10-02T09:07:37Z</time>
      </trkpt>
      <trkpt lat="45.94021" lon="4.80457">
        <ele>223</ele>
        <time>2018-10-02T09:07:40Z</time>
      </trkpt>
      <trkpt lat="45.94022" lon="4.8046">
        <ele>223</ele>
        <time>2018-10-02T09:07:41Z</time>
      </trkpt>
      <trkpt lat="45.94022" lon="4.80473">
        <ele>223</ele>
        <time>2018-10-02T09:07:45Z</time>
      </trkpt>
      <trkpt lat="45.94022" lon="4.80476">
        <ele>223</ele>
        <time>2018-10-02T09:07:46Z</time>
      </trkpt>
      <trkpt lat="45.94022" lon="4.80487">
        <ele>223</ele>
        <time>2018-10-02T09:07:49Z</time>
      </trkpt>
      <trkpt lat="45.94022" lon="4.8049">
        <ele>223</ele>
        <time>2018-10-02T09:07:50Z</time>
      </trkpt>
      <trkpt lat="45.94023" lon="4.80503">
        <ele>224</ele>
        <time>2018-10-02T09:07:54Z</time>
      </trkpt>
      <trkpt lat="45.94023" lon="4.80506">
        <ele>224</ele>
        <time>2018-10-02T09:07:55Z</time>
      </trkpt>
      <trkpt lat="45.94022" lon="4.80516">
        <ele>224</ele>
        <time>2018-10-02T09:07:58Z</time>
      </trkpt>
      <trkpt lat="45.94022" lon="4.80519">
        <ele>224</ele>
        <time>2018-10-02T09:07:59Z</time>
      </trkpt>
      <trkpt lat="45.94021" lon="4.80529">
        <ele>225</ele>
        <time>2018-10-02T09:08:02Z</time>
      </trkpt>
      <trkpt lat="45.94021" lon="4.80533">
        <ele>225</ele>
        <time>2018-10-02T09:08:03Z</time>
      </trkpt>
      <trkpt lat="45.94021" lon="4.80543">
        <ele>225</ele>
        <time>2018-10-02T09:08:06Z</time>
      </trkpt>
      <trkpt lat="45.94022" lon="4.80547">
        <ele>225</ele>
        <time>2018-10-02T09:08:07Z</time>
      </trkpt>
      <trkpt lat="45.94023" lon="4.80559">
        <ele>225</ele>
        <time>2018-10-02T09:08:10Z</time>
      </trkpt>
      <trkpt lat="45.94023" lon="4.80562">
        <ele>224</ele>
        <time>2018-10-02T09:08:11Z</time>
      </trkpt>
      <trkpt lat="45.94024" lon="4.80572">
        <ele>224</ele>
        <time>2018-10-02T09:08:14Z</time>
      </trkpt>
      <trkpt lat="45.94024" lon="4.80575">
        <ele>224</ele>
        <time>2018-10-02T09:08:15Z</time>
      </trkpt>
      <trkpt lat="45.94025" lon="4.80585">
        <ele>224</ele>
        <time>2018-10-02T09:08:18Z</time>
      </trkpt>
      <trkpt lat="45.94025" lon="4.80588">
        <ele>224</ele>
        <time>2018-10-02T09:08:19Z</time>
      </trkpt>
      <trkpt lat="45.94026" lon="4.80598">
        <ele>224</ele>
        <time>2018-10-02T09:08:22Z</time>
      </trkpt>
      <trkpt lat="45.94026" lon="4.80602">
        <ele>225</ele>
        <time>2018-10-02T09:08:23Z</time>
      </trkpt>
      <trkpt lat="45.94026" lon="4.80614">
        <ele>225</ele>
        <time>2018-10-02T09:08:27Z</time>
      </trkpt>
      <trkpt lat="45.94026" lon="4.80618">
        <ele>225</ele>
        <time>2018-10-02T09:08:28Z</time>
      </trkpt>
      <trkpt lat="45.94027" lon="4.80628">
        <ele>225</ele>
        <time>2018-10-02T09:08:31Z</time>
      </trkpt>
      <trkpt lat="45.94027" lon="4.80631">
        <ele>225</ele>
        <time>2018-10-02T09:08:32Z</time>
      </trkpt>
      <trkpt lat="45.94029" lon="4.80643">
        <ele>225</ele>
        <time>2018-10-02T09:08:36Z</time>
      </trkpt>
      <trkpt lat="45.94029" lon="4.80646">
        <ele>225</ele>
        <time>2018-10-02T09:08:37Z</time>
      </trkpt>
      <trkpt lat="45.9403" lon="4.80657">
        <ele>224</ele>
        <time>2018-10-02T09:08:40Z</time>
      </trkpt>
      <trkpt lat="45.9403" lon="4.80661">
        <ele>224</ele>
        <time>2018-10-02T09:08:41Z</time>
      </trkpt>
      <trkpt lat="45.94032" lon="4.80672">
        <ele>225</ele>
        <time>2018-10-02T09:08:44Z</time>
      </trkpt>
      <trkpt lat="45.94032" lon="4.80675">
        <ele>225</ele>
        <time>2018-10-02T09:08:45Z</time>
      </trkpt>
      <trkpt lat="45.94034" lon="4.80687">
        <ele>225</ele>
        <time>2018-10-02T09:08:48Z</time>
      </trkpt>
      <trkpt lat="45.94034" lon="4.8069">
        <ele>226</ele>
        <time>2018-10-02T09:08:49Z</time>
      </trkpt>
      <trkpt lat="45.94035" lon="4.80701">
        <ele>226</ele>
        <time>2018-10-02T09:08:52Z</time>
      </trkpt>
      <trkpt lat="45.94036" lon="4.80704">
        <ele>226</ele>
        <time>2018-10-02T09:08:53Z</time>
      </trkpt>
      <trkpt lat="45.94038" lon="4.80714">
        <ele>226</ele>
        <time>2018-10-02T09:08:56Z</time>
      </trkpt>
      <trkpt lat="45.94039" lon="4.80717">
        <ele>226</ele>
        <time>2018-10-02T09:08:57Z</time>
      </trkpt>
      <trkpt lat="45.9404" lon="4.80728">
        <ele>227</ele>
        <time>2018-10-02T09:09:00Z</time>
      </trkpt>
      <trkpt lat="45.94041" lon="4.80731">
        <ele>227</ele>
        <time>2018-10-02T09:09:01Z</time>
      </trkpt>
      <trkpt lat="45.94042" lon="4.80742">
        <ele>227</ele>
        <time>2018-10-02T09:09:04Z</time>
      </trkpt>
      <trkpt lat="45.94042" lon="4.80745">
        <ele>227</ele>
        <time>2018-10-02T09:09:05Z</time>
      </trkpt>
      <trkpt lat="45.94043" lon="4.80756">
        <ele>228</ele>
        <time>2018-10-02T09:09:08Z</time>
      </trkpt>
      <trkpt lat="45.94043" lon="4.80759">
        <ele>228</ele>
        <time>2018-10-02T09:09:09Z</time>
      </trkpt>
      <trkpt lat="45.94044" lon="4.8077">
        <ele>228</ele>
        <time>2018-10-02T09:09:12Z</time>
      </trkpt>
      <trkpt lat="45.94045" lon="4.80773">
        <ele>228</ele>
        <time>2018-10-02T09:09:13Z</time>
      </trkpt>
      <trkpt lat="45.94047" lon="4.80783">
        <ele>229</ele>
        <time>2018-10-02T09:09:16Z</time>
      </trkpt>
      <trkpt lat="45.94048" lon="4.80787">
        <ele>229</ele>
        <time>2018-10-02T09:09:17Z</time>
      </trkpt>
      <trkpt lat="45.94049" lon="4.80798">
        <ele>229</ele>
        <time>2018-10-02T09:09:20Z</time>
      </trkpt>
      <trkpt lat="45.94049" lon="4.80802">
        <ele>229</ele>
        <time>2018-10-02T09:09:21Z</time>
      </trkpt>
      <trkpt lat="45.9405" lon="4.80813">
        <ele>230</ele>
        <time>2018-10-02T09:09:24Z</time>
      </trkpt>
      <trkpt lat="45.94051" lon="4.80817">
        <ele>230</ele>
        <time>2018-10-02T09:09:25Z</time>
      </trkpt>
      <trkpt lat="45.94052" lon="4.80828">
        <ele>230</ele>
        <time>2018-10-02T09:09:28Z</time>
      </trkpt>
      <trkpt lat="45.94053" lon="4.80832">
        <ele>231</ele>
        <time>2018-10-02T09:09:29Z</time>
      </trkpt>
      <trkpt lat="45.94054" lon="4.80843">
        <ele>231</ele>
        <time>2018-10-02T09:09:32Z</time>
      </trkpt>
      <trkpt lat="45.94055" lon="4.80847">
        <ele>231</ele>
        <time>2018-10-02T09:09:33Z</time>
      </trkpt>
      <trkpt lat="45.94056" lon="4.80857">
        <ele>231</ele>
        <time>2018-10-02T09:09:36Z</time>
      </trkpt>
      <trkpt lat="45.94057" lon="4.80861">
        <ele>231</ele>
        <time>2018-10-02T09:09:37Z</time>
      </trkpt>
      <trkpt lat="45.94058" lon="4.80871">
        <ele>231</ele>
        <time>2018-10-02T09:09:40Z</time>
      </trkpt>
      <trkpt lat="45.94058" lon="4.80874">
        <ele>231</ele>
        <time>2018-10-02T09:09:41Z</time>
      </trkpt>
      <trkpt lat="45.94059" lon="4.80884">
        <ele>231</ele>
        <time>2018-10-02T09:09:44Z</time>
      </trkpt>
      <trkpt lat="45.9406" lon="4.80887">
        <ele>231</ele>
        <time>2018-10-02T09:09:45Z</time>
      </trkpt>
      <trkpt lat="45.94062" lon="4.80899">
        <ele>232</ele>
        <time>2018-10-02T09:09:49Z</time>
      </trkpt>
      <trkpt lat="45.94062" lon="4.80903">
        <ele>232</ele>
        <time>2018-10-02T09:09:50Z</time>
      </trkpt>
      <trkpt lat="45.94063" lon="4.80913">
        <ele>233</ele>
        <time>2018-10-02T09:09:53Z</time>
      </trkpt>
      <trkpt lat="45.94063" lon="4.80917">
        <ele>233</ele>
        <time>2018-10-02T09:09:54Z</time>
      </trkpt>
      <trkpt lat="45.94064" lon="4.80927">
        <ele>233</ele>
        <time>2018-10-02T09:09:57Z</time>
      </trkpt>
      <trkpt lat="45.94065" lon="4.80931">
        <ele>233</ele>
        <time>2018-10-02T09:09:58Z</time>
      </trkpt>
      <trkpt lat="45.94066" lon="4.80941">
        <ele>233</ele>
        <time>2018-10-02T09:10:01Z</time>
      </trkpt>
      <trkpt lat="45.94067" lon="4.80944">
        <ele>232</ele>
        <time>2018-10-02T09:10:02Z</time>
      </trkpt>
      <trkpt lat="45.94068" lon="4.80954">
        <ele>232</ele>
        <time>2018-10-02T09:10:05Z</time>
      </trkpt>
      <trkpt lat="45.94069" lon="4.80957">
        <ele>232</ele>
        <time>2018-10-02T09:10:06Z</time>
      </trkpt>
      <trkpt lat="45.94071" lon="4.80967">
        <ele>233</ele>
        <time>2018-10-02T09:10:09Z</time>
      </trkpt>
      <trkpt lat="45.94071" lon="4.8097">
        <ele>233</ele>
        <time>2018-10-02T09:10:10Z</time>
      </trkpt>
      <trkpt lat="45.94072" lon="4.8098">
        <ele>234</ele>
        <time>2018-10-02T09:10:13Z</time>
      </trkpt>
      <trkpt lat="45.94073" lon="4.80984">
        <ele>235</ele>
        <time>2018-10-02T09:10:14Z</time>
      </trkpt>
      <trkpt lat="45.94074" lon="4.80994">
        <ele>236</ele>
        <time>2018-10-02T09:10:17Z</time>
      </trkpt>
      <trkpt lat="45.94075" lon="4.80998">
        <ele>237</ele>
        <time>2018-10-02T09:10:18Z</time>
      </trkpt>
      <trkpt lat="45.94076" lon="4.8101">
        <ele>236</ele>
        <time>2018-10-02T09:10:22Z</time>
      </trkpt>
      <trkpt lat="45.94077" lon="4.81013">
        <ele>236</ele>
        <time>2018-10-02T09:10:23Z</time>
      </trkpt>
      <trkpt lat="45.94079" lon="4.81024">
        <ele>234</ele>
        <time>2018-10-02T09:10:27Z</time>
      </trkpt>
      <trkpt lat="45.9408" lon="4.81027">
        <ele>234</ele>
        <time>2018-10-02T09:10:28Z</time>
      </trkpt>
      <trkpt lat="45.94083" lon="4.81037">
        <ele>234</ele>
        <time>2018-10-02T09:10:31Z</time>
      </trkpt>
      <trkpt lat="45.94084" lon="4.8104">
        <ele>243</ele>
        <time>2018-10-02T09:10:32Z</time>
      </trkpt>
      <trkpt lat="45.94087" lon="4.81049">
        <ele>243</ele>
        <time>2018-10-02T09:10:35Z</time>
      </trkpt>
      <trkpt lat="45.94087" lon="4.81052">
        <ele>243</ele>
        <time>2018-10-02T09:10:36Z</time>
      </trkpt>
      <trkpt lat="45.94092" lon="4.81063">
        <ele>242</ele>
        <time>2018-10-02T09:10:40Z</time>
      </trkpt>
      <trkpt lat="45.94093" lon="4.81065">
        <ele>242</ele>
        <time>2018-10-02T09:10:41Z</time>
      </trkpt>
      <trkpt lat="45.94097" lon="4.81075">
        <ele>242</ele>
        <time>2018-10-02T09:10:45Z</time>
      </trkpt>
      <trkpt lat="45.94098" lon="4.81077">
        <ele>242</ele>
        <time>2018-10-02T09:10:46Z</time>
      </trkpt>
      <trkpt lat="45.94103" lon="4.81085">
        <ele>241</ele>
        <time>2018-10-02T09:10:50Z</time>
      </trkpt>
      <trkpt lat="45.94104" lon="4.81087">
        <ele>241</ele>
        <time>2018-10-02T09:10:51Z</time>
      </trkpt>
      <trkpt lat="45.9411" lon="4.81095">
        <ele>242</ele>
        <time>2018-10-02T09:10:55Z</time>
      </trkpt>
      <trkpt lat="45.94111" lon="4.81098">
        <ele>242</ele>
        <time>2018-10-02T09:10:56Z</time>
      </trkpt>
      <trkpt lat="45.94117" lon="4.81107">
        <ele>243</ele>
        <time>2018-10-02T09:11:00Z</time>
      </trkpt>
      <trkpt lat="45.94118" lon="4.8111">
        <ele>243</ele>
        <time>2018-10-02T09:11:01Z</time>
      </trkpt>
      <trkpt lat="45.94123" lon="4.81119">
        <ele>243</ele>
        <time>2018-10-02T09:11:05Z</time>
      </trkpt>
      <trkpt lat="45.94124" lon="4.81121">
        <ele>243</ele>
        <time>2018-10-02T09:11:06Z</time>
      </trkpt>
      <trkpt lat="45.94128" lon="4.81129">
        <ele>243</ele>
        <time>2018-10-02T09:11:09Z</time>
      </trkpt>
      <trkpt lat="45.94129" lon="4.81132">
        <ele>243</ele>
        <time>2018-10-02T09:11:10Z</time>
      </trkpt>
      <trkpt lat="45.94133" lon="4.8114">
        <ele>244</ele>
        <time>2018-10-02T09:11:13Z</time>
      </trkpt>
      <trkpt lat="45.94134" lon="4.81143">
        <ele>244</ele>
        <time>2018-10-02T09:11:14Z</time>
      </trkpt>
      <trkpt lat="45.94138" lon="4.81152">
        <ele>244</ele>
        <time>2018-10-02T09:11:17Z</time>
      </trkpt>
      <trkpt lat="45.94139" lon="4.81155">
        <ele>244</ele>
        <time>2018-10-02T09:11:18Z</time>
      </trkpt>
      <trkpt lat="45.94141" lon="4.81164">
        <ele>244</ele>
        <time>2018-10-02T09:11:21Z</time>
      </trkpt>
      <trkpt lat="45.94142" lon="4.81167">
        <ele>244</ele>
        <time>2018-10-02T09:11:22Z</time>
      </trkpt>
      <trkpt lat="45.94144" lon="4.81177">
        <ele>244</ele>
        <time>2018-10-02T09:11:25Z</time>
      </trkpt>
      <trkpt lat="45.94145" lon="4.8118">
        <ele>244</ele>
        <time>2018-10-02T09:11:26Z</time>
      </trkpt>
      <trkpt lat="45.94147" lon="4.81189">
        <ele>244</ele>
        <time>2018-10-02T09:11:29Z</time>
      </trkpt>
      <trkpt lat="45.94148" lon="4.81192">
        <ele>244</ele>
        <time>2018-10-02T09:11:30Z</time>
      </trkpt>
      <trkpt lat="45.94151" lon="4.81201">
        <ele>244</ele>
        <time>2018-10-02T09:11:33Z</time>
      </trkpt>
      <trkpt lat="45.94152" lon="4.81204">
        <ele>244</ele>
        <time>2018-10-02T09:11:34Z</time>
      </trkpt>
      <trkpt lat="45.94155" lon="4.81215">
        <ele>245</ele>
        <time>2018-10-02T09:11:38Z</time>
      </trkpt>
      <trkpt lat="45.94156" lon="4.81218">
        <ele>245</ele>
        <time>2018-10-02T09:11:39Z</time>
      </trkpt>
      <trkpt lat="45.94158" lon="4.8123">
        <ele>246</ele>
        <time>2018-10-02T09:11:43Z</time>
      </trkpt>
      <trkpt lat="45.94159" lon="4.81233">
        <ele>246</ele>
        <time>2018-10-02T09:11:44Z</time>
      </trkpt>
      <trkpt lat="45.94161" lon="4.81243">
        <ele>248</ele>
        <time>2018-10-02T09:11:47Z</time>
      </trkpt>
      <trkpt lat="45.94161" lon="4.81246">
        <ele>248</ele>
        <time>2018-10-02T09:11:48Z</time>
      </trkpt>
      <trkpt lat="45.94163" lon="4.81256">
        <ele>249</ele>
        <time>2018-10-02T09:11:51Z</time>
      </trkpt>
      <trkpt lat="45.94164" lon="4.8126">
        <ele>248</ele>
        <time>2018-10-02T09:11:52Z</time>
      </trkpt>
      <trkpt lat="45.94166" lon="4.81271">
        <ele>248</ele>
        <time>2018-10-02T09:11:55Z</time>
      </trkpt>
      <trkpt lat="45.94166" lon="4.81275">
        <ele>247</ele>
        <time>2018-10-02T09:11:56Z</time>
      </trkpt>
      <trkpt lat="45.94168" lon="4.81286">
        <ele>255</ele>
        <time>2018-10-02T09:11:59Z</time>
      </trkpt>
      <trkpt lat="45.94168" lon="4.8129">
        <ele>255</ele>
        <time>2018-10-02T09:12:00Z</time>
      </trkpt>
      <trkpt lat="45.94169" lon="4.813">
        <ele>255</ele>
        <time>2018-10-02T09:12:03Z</time>
      </trkpt>
      <trkpt lat="45.94169" lon="4.81303">
        <ele>255</ele>
        <time>2018-10-02T09:12:04Z</time>
      </trkpt>
      <trkpt lat="45.94169" lon="4.81314">
        <ele>255</ele>
        <time>2018-10-02T09:12:08Z</time>
      </trkpt>
      <trkpt lat="45.94168" lon="4.81317">
        <ele>255</ele>
        <time>2018-10-02T09:12:09Z</time>
      </trkpt>
      <trkpt lat="45.94168" lon="4.81329">
        <ele>253</ele>
        <time>2018-10-02T09:12:13Z</time>
      </trkpt>
      <trkpt lat="45.94168" lon="4.81331">
        <ele>252</ele>
        <time>2018-10-02T09:12:14Z</time>
      </trkpt>
      <trkpt lat="45.94167" lon="4.81342">
        <ele>254</ele>
        <time>2018-10-02T09:12:18Z</time>
      </trkpt>
      <trkpt lat="45.94167" lon="4.81345">
        <ele>255</ele>
        <time>2018-10-02T09:12:19Z</time>
      </trkpt>
      <trkpt lat="45.94166" lon="4.81357">
        <ele>251</ele>
        <time>2018-10-02T09:12:23Z</time>
      </trkpt>
      <trkpt lat="45.94165" lon="4.8136">
        <ele>251</ele>
        <time>2018-10-02T09:12:24Z</time>
      </trkpt>
      <trkpt lat="45.94163" lon="4.8137">
        <ele>251</ele>
        <time>2018-10-02T09:12:28Z</time>
      </trkpt>
      <trkpt lat="45.94163" lon="4.81373">
        <ele>251</ele>
        <time>2018-10-02T09:12:29Z</time>
      </trkpt>
      <trkpt lat="45.9416" lon="4.81384">
        <ele>251</ele>
        <time>2018-10-02T09:12:33Z</time>
      </trkpt>
      <trkpt lat="45.9416" lon="4.81387">
        <ele>251</ele>
        <time>2018-10-02T09:12:34Z</time>
      </trkpt>
      <trkpt lat="45.94158" lon="4.81397">
        <ele>252</ele>
        <time>2018-10-02T09:12:37Z</time>
      </trkpt>
      <trkpt lat="45.94158" lon="4.81401">
        <ele>252</ele>
        <time>2018-10-02T09:12:38Z</time>
      </trkpt>
      <trkpt lat="45.94157" lon="4.81412">
        <ele>254</ele>
        <time>2018-10-02T09:12:41Z</time>
      </trkpt>
      <trkpt lat="45.94156" lon="4.81416">
        <ele>254</ele>
        <time>2018-10-02T09:12:42Z</time>
      </trkpt>
      <trkpt lat="45.94155" lon="4.81426">
        <ele>256</ele>
        <time>2018-10-02T09:12:45Z</time>
      </trkpt>
      <trkpt lat="45.94154" lon="4.81429">
        <ele>256</ele>
        <time>2018-10-02T09:12:46Z</time>
      </trkpt>
      <trkpt lat="45.94153" lon="4.81439">
        <ele>256</ele>
        <time>2018-10-02T09:12:49Z</time>
      </trkpt>
      <trkpt lat="45.94153" lon="4.81442">
        <ele>256</ele>
        <time>2018-10-02T09:12:50Z</time>
      </trkpt>
      <trkpt lat="45.94152" lon="4.81455">
        <ele>257</ele>
        <time>2018-10-02T09:12:54Z</time>
      </trkpt>
      <trkpt lat="45.94151" lon="4.81458">
        <ele>257</ele>
        <time>2018-10-02T09:12:55Z</time>
      </trkpt>
      <trkpt lat="45.9415" lon="4.81471">
        <ele>258</ele>
        <time>2018-10-02T09:12:59Z</time>
      </trkpt>
      <trkpt lat="45.94149" lon="4.81474">
        <ele>258</ele>
        <time>2018-10-02T09:13:00Z</time>
      </trkpt>
      <trkpt lat="45.94148" lon="4.81486">
        <ele>259</ele>
        <time>2018-10-02T09:13:04Z</time>
      </trkpt>
      <trkpt lat="45.94148" lon="4.81489">
        <ele>259</ele>
        <time>2018-10-02T09:13:05Z</time>
      </trkpt>
      <trkpt lat="45.94149" lon="4.81502">
        <ele>263</ele>
        <time>2018-10-02T09:13:09Z</time>
      </trkpt>
      <trkpt lat="45.94148" lon="4.81505">
        <ele>263</ele>
        <time>2018-10-02T09:13:10Z</time>
      </trkpt>
      <trkpt lat="45.94148" lon="4.81515">
        <ele>263</ele>
        <time>2018-10-02T09:13:13Z</time>
      </trkpt>
      <trkpt lat="45.94147" lon="4.81518">
        <ele>263</ele>
        <time>2018-10-02T09:13:14Z</time>
      </trkpt>
      <trkpt lat="45.94147" lon="4.81529">
        <ele>263</ele>
        <time>2018-10-02T09:13:17Z</time>
      </trkpt>
      <trkpt lat="45.94146" lon="4.81532">
        <ele>264</ele>
        <time>2018-10-02T09:13:18Z</time>
      </trkpt>
      <trkpt lat="45.94146" lon="4.81544">
        <ele>264</ele>
        <time>2018-10-02T09:13:21Z</time>
      </trkpt>
      <trkpt lat="45.94146" lon="4.81547">
        <ele>264</ele>
        <time>2018-10-02T09:13:22Z</time>
      </trkpt>
      <trkpt lat="45.94146" lon="4.81557">
        <ele>264</ele>
        <time>2018-10-02T09:13:25Z</time>
      </trkpt>
      <trkpt lat="45.94146" lon="4.81561">
        <ele>265</ele>
        <time>2018-10-02T09:13:26Z</time>
      </trkpt>
      <trkpt lat="45.94148" lon="4.81572">
        <ele>265</ele>
        <time>2018-10-02T09:13:29Z</time>
      </trkpt>
      <trkpt lat="45.94149" lon="4.81576">
        <ele>265</ele>
        <time>2018-10-02T09:13:30Z</time>
      </trkpt>
      <trkpt lat="45.94151" lon="4.81586">
        <ele>267</ele>
        <time>2018-10-02T09:13:33Z</time>
      </trkpt>
      <trkpt lat="45.94152" lon="4.8159">
        <ele>267</ele>
        <time>2018-10-02T09:13:34Z</time>
      </trkpt>
      <trkpt lat="45.94153" lon="4.81598">
        <ele>267</ele>
        <time>2018-10-02T09:13:36Z</time>
      </trkpt>
      <trkpt lat="45.94154" lon="4.81602">
        <ele>267</ele>
        <time>2018-10-02T09:13:37Z</time>
      </trkpt>
      <trkpt lat="45.94156" lon="4.81614">
        <ele>267</ele>
        <time>2018-10-02T09:13:40Z</time>
      </trkpt>
      <trkpt lat="45.94157" lon="4.81619">
        <ele>268</ele>
        <time>2018-10-02T09:13:41Z</time>
      </trkpt>
      <trkpt lat="45.94159" lon="4.81629">
        <ele>268</ele>
        <time>2018-10-02T09:13:43Z</time>
      </trkpt>
      <trkpt lat="45.9416" lon="4.81633">
        <ele>268</ele>
        <time>2018-10-02T09:13:44Z</time>
      </trkpt>
      <trkpt lat="45.94163" lon="4.81644">
        <ele>268</ele>
        <time>2018-10-02T09:13:47Z</time>
      </trkpt>
      <trkpt lat="45.94164" lon="4.81647">
        <ele>268</ele>
        <time>2018-10-02T09:13:48Z</time>
      </trkpt>
      <trkpt lat="45.94167" lon="4.81658">
        <ele>269</ele>
        <time>2018-10-02T09:13:51Z</time>
      </trkpt>
      <trkpt lat="45.94167" lon="4.81661">
        <ele>269</ele>
        <time>2018-10-02T09:13:52Z</time>
      </trkpt>
      <trkpt lat="45.9417" lon="4.81672">
        <ele>268</ele>
        <time>2018-10-02T09:13:55Z</time>
      </trkpt>
      <trkpt lat="45.94171" lon="4.81676">
        <ele>268</ele>
        <time>2018-10-02T09:13:56Z</time>
      </trkpt>
      <trkpt lat="45.94173" lon="4.81683">
        <ele>268</ele>
        <time>2018-10-02T09:13:58Z</time>
      </trkpt>
      <trkpt lat="45.94175" lon="4.81687">
        <ele>268</ele>
        <time>2018-10-02T09:13:59Z</time>
      </trkpt>
      <trkpt lat="45.94178" lon="4.81695">
        <ele>267</ele>
        <time>2018-10-02T09:14:01Z</time>
      </trkpt>
      <trkpt lat="45.9418" lon="4.81699">
        <ele>267</ele>
        <time>2018-10-02T09:14:02Z</time>
      </trkpt>
      <trkpt lat="45.94184" lon="4.8171">
        <ele>267</ele>
        <time>2018-10-02T09:14:05Z</time>
      </trkpt>
      <trkpt lat="45.94185" lon="4.81713">
        <ele>267</ele>
        <time>2018-10-02T09:14:06Z</time>
      </trkpt>
      <trkpt lat="45.94187" lon="4.81726">
        <ele>267</ele>
        <time>2018-10-02T09:14:09Z</time>
      </trkpt>
      <trkpt lat="45.94187" lon="4.81731">
        <ele>267</ele>
        <time>2018-10-02T09:14:10Z</time>
      </trkpt>
      <trkpt lat="45.94187" lon="4.8174">
        <ele>267</ele>
        <time>2018-10-02T09:14:12Z</time>
      </trkpt>
      <trkpt lat="45.94188" lon="4.81744">
        <ele>267</ele>
        <time>2018-10-02T09:14:13Z</time>
      </trkpt>
      <trkpt lat="45.9419" lon="4.81756">
        <ele>266</ele>
        <time>2018-10-02T09:14:16Z</time>
      </trkpt>
      <trkpt lat="45.94191" lon="4.8176">
        <ele>266</ele>
        <time>2018-10-02T09:14:17Z</time>
      </trkpt>
      <trkpt lat="45.94194" lon="4.81768">
        <ele>266</ele>
        <time>2018-10-02T09:14:19Z</time>
      </trkpt>
      <trkpt lat="45.94195" lon="4.81773">
        <ele>266</ele>
        <time>2018-10-02T09:14:20Z</time>
      </trkpt>
      <trkpt lat="45.94197" lon="4.81785">
        <ele>266</ele>
        <time>2018-10-02T09:14:23Z</time>
      </trkpt>
      <trkpt lat="45.94197" lon="4.81789">
        <ele>266</ele>
        <time>2018-10-02T09:14:24Z</time>
      </trkpt>
      <trkpt lat="45.94197" lon="4.81801">
        <ele>266</ele>
        <time>2018-10-02T09:14:27Z</time>
      </trkpt>
      <trkpt lat="45.94197" lon="4.81806">
        <ele>266</ele>
        <time>2018-10-02T09:14:28Z</time>
      </trkpt>
      <trkpt lat="45.94198" lon="4.81815">
        <ele>266</ele>
        <time>2018-10-02T09:14:30Z</time>
      </trkpt>
      <trkpt lat="45.94199" lon="4.81819">
        <ele>266</ele>
        <time>2018-10-02T09:14:31Z</time>
      </trkpt>
      <trkpt lat="45.94201" lon="4.81828">
        <ele>266</ele>
        <time>2018-10-02T09:14:33Z</time>
      </trkpt>
      <trkpt lat="45.94201" lon="4.81833">
        <ele>266</ele>
        <time>2018-10-02T09:14:34Z</time>
      </trkpt>
      <trkpt lat="45.94203" lon="4.81842">
        <ele>266</ele>
        <time>2018-10-02T09:14:36Z</time>
      </trkpt>
      <trkpt lat="45.94204" lon="4.81847">
        <ele>266</ele>
        <time>2018-10-02T09:14:37Z</time>
      </trkpt>
      <trkpt lat="45.94206" lon="4.81857">
        <ele>265</ele>
        <time>2018-10-02T09:14:39Z</time>
      </trkpt>
      <trkpt lat="45.94207" lon="4.81862">
        <ele>265</ele>
        <time>2018-10-02T09:14:40Z</time>
      </trkpt>
      <trkpt lat="45.94209" lon="4.81872">
        <ele>265</ele>
        <time>2018-10-02T09:14:42Z</time>
      </trkpt>
      <trkpt lat="45.9421" lon="4.81876">
        <ele>265</ele>
        <time>2018-10-02T09:14:43Z</time>
      </trkpt>
      <trkpt lat="45.94212" lon="4.81885">
        <ele>265</ele>
        <time>2018-10-02T09:14:45Z</time>
      </trkpt>
      <trkpt lat="45.94213" lon="4.8189">
        <ele>265</ele>
        <time>2018-10-02T09:14:46Z</time>
      </trkpt>
      <trkpt lat="45.94215" lon="4.81899">
        <ele>265</ele>
        <time>2018-10-02T09:14:48Z</time>
      </trkpt>
      <trkpt lat="45.94217" lon="4.81904">
        <ele>265</ele>
        <time>2018-10-02T09:14:49Z</time>
      </trkpt>
      <trkpt lat="45.94219" lon="4.81912">
        <ele>264</ele>
        <time>2018-10-02T09:14:51Z</time>
      </trkpt>
      <trkpt lat="45.94221" lon="4.81924">
        <ele>264</ele>
        <time>2018-10-02T09:14:52Z</time>
      </trkpt>
      <trkpt lat="45.94223" lon="4.81935">
        <ele>264</ele>
        <time>2018-10-02T09:14:54Z</time>
      </trkpt>
      <trkpt lat="45.94224" lon="4.81941">
        <ele>264</ele>
        <time>2018-10-02T09:14:55Z</time>
      </trkpt>
      <trkpt lat="45.94226" lon="4.81953">
        <ele>264</ele>
        <time>2018-10-02T09:14:57Z</time>
      </trkpt>
      <trkpt lat="45.94227" lon="4.81959">
        <ele>264</ele>
        <time>2018-10-02T09:14:58Z</time>
      </trkpt>
      <trkpt lat="45.94229" lon="4.81965">
        <ele>264</ele>
        <time>2018-10-02T09:14:59Z</time>
      </trkpt>
      <trkpt lat="45.94231" lon="4.81972">
        <ele>264</ele>
        <time>2018-10-02T09:15:00Z</time>
      </trkpt>
      <trkpt lat="45.94233" lon="4.81985">
        <ele>263</ele>
        <time>2018-10-02T09:15:02Z</time>
      </trkpt>
      <trkpt lat="45.94234" lon="4.8199">
        <ele>263</ele>
        <time>2018-10-02T09:15:03Z</time>
      </trkpt>
      <trkpt lat="45.94237" lon="4.82">
        <ele>263</ele>
        <time>2018-10-02T09:15:05Z</time>
      </trkpt>
      <trkpt lat="45.94238" lon="4.82006">
        <ele>263</ele>
        <time>2018-10-02T09:15:06Z</time>
      </trkpt>
      <trkpt lat="45.94241" lon="4.82018">
        <ele>263</ele>
        <time>2018-10-02T09:15:08Z</time>
      </trkpt>
      <trkpt lat="45.94242" lon="4.82023">
        <ele>263</ele>
        <time>2018-10-02T09:15:09Z</time>
      </trkpt>
      <trkpt lat="45.94244" lon="4.82036">
        <ele>263</ele>
        <time>2018-10-02T09:15:11Z</time>
      </trkpt>
      <trkpt lat="45.94246" lon="4.82042">
        <ele>263</ele>
        <time>2018-10-02T09:15:12Z</time>
      </trkpt>
      <trkpt lat="45.94247" lon="4.82048">
        <ele>263</ele>
        <time>2018-10-02T09:15:13Z</time>
      </trkpt>
      <trkpt lat="45.9425" lon="4.82055">
        <ele>263</ele>
        <time>2018-10-02T09:15:14Z</time>
      </trkpt>
      <trkpt lat="45.9425" lon="4.82062">
        <ele>262</ele>
        <time>2018-10-02T09:15:15Z</time>
      </trkpt>
      <trkpt lat="45.94252" lon="4.82071">
        <ele>262</ele>
        <time>2018-10-02T09:15:16Z</time>
      </trkpt>
      <trkpt lat="45.94254" lon="4.82083">
        <ele>262</ele>
        <time>2018-10-02T09:15:18Z</time>
      </trkpt>
      <trkpt lat="45.94256" lon="4.8209">
        <ele>262</ele>
        <time>2018-10-02T09:15:19Z</time>
      </trkpt>
      <trkpt lat="45.94257" lon="4.82096">
        <ele>262</ele>
        <time>2018-10-02T09:15:20Z</time>
      </trkpt>
      <trkpt lat="45.94258" lon="4.82102">
        <ele>262</ele>
        <time>2018-10-02T09:15:21Z</time>
      </trkpt>
      <trkpt lat="45.94261" lon="4.82113">
        <ele>263</ele>
        <time>2018-10-02T09:15:23Z</time>
      </trkpt>
      <trkpt lat="45.94263" lon="4.8212">
        <ele>263</ele>
        <time>2018-10-02T09:15:24Z</time>
      </trkpt>
      <trkpt lat="45.94265" lon="4.8213">
        <ele>263</ele>
        <time>2018-10-02T09:15:26Z</time>
      </trkpt>
      <trkpt lat="45.94267" lon="4.82137">
        <ele>263</ele>
        <time>2018-10-02T09:15:27Z</time>
      </trkpt>
      <trkpt lat="45.94269" lon="4.82148">
        <ele>263</ele>
        <time>2018-10-02T09:15:29Z</time>
      </trkpt>
      <trkpt lat="45.9427" lon="4.82156">
        <ele>263</ele>
        <time>2018-10-02T09:15:30Z</time>
      </trkpt>
      <trkpt lat="45.94271" lon="4.82162">
        <ele>263</ele>
        <time>2018-10-02T09:15:31Z</time>
      </trkpt>
      <trkpt lat="45.94273" lon="4.82169">
        <ele>264</ele>
        <time>2018-10-02T09:15:32Z</time>
      </trkpt>
      <trkpt lat="45.94274" lon="4.82175">
        <ele>264</ele>
        <time>2018-10-02T09:15:33Z</time>
      </trkpt>
      <trkpt lat="45.94275" lon="4.82182">
        <ele>264</ele>
        <time>2018-10-02T09:15:34Z</time>
      </trkpt>
      <trkpt lat="45.94276" lon="4.82189">
        <ele>264</ele>
        <time>2018-10-02T09:15:35Z</time>
      </trkpt>
      <trkpt lat="45.94277" lon="4.82196">
        <ele>264</ele>
        <time>2018-10-02T09:15:36Z</time>
      </trkpt>
      <trkpt lat="45.94278" lon="4.82202">
        <ele>264</ele>
        <time>2018-10-02T09:15:37Z</time>
      </trkpt>
      <trkpt lat="45.94279" lon="4.82209">
        <ele>264</ele>
        <time>2018-10-02T09:15:38Z</time>
      </trkpt>
      <trkpt lat="45.94279" lon="4.8222">
        <ele>264</ele>
        <time>2018-10-02T09:15:40Z</time>
      </trkpt>
      <trkpt lat="45.9428" lon="4.82226">
        <ele>264</ele>
        <time>2018-10-02T09:15:41Z</time>
      </trkpt>
      <trkpt lat="45.94281" lon="4.82237">
        <ele>264</ele>
        <time>2018-10-02T09:15:43Z</time>
      </trkpt>
      <trkpt lat="45.94281" lon="4.82243">
        <ele>264</ele>
        <time>2018-10-02T09:15:44Z</time>
      </trkpt>
      <trkpt lat="45.94283" lon="4.82256">
        <ele>265</ele>
        <time>2018-10-02T09:15:46Z</time>
      </trkpt>
      <trkpt lat="45.94283" lon="4.82262">
        <ele>265</ele>
        <time>2018-10-02T09:15:47Z</time>
      </trkpt>
      <trkpt lat="45.94283" lon="4.82269">
        <ele>265</ele>
        <time>2018-10-02T09:15:48Z</time>
      </trkpt>
      <trkpt lat="45.94283" lon="4.82277">
        <ele>265</ele>
        <time>2018-10-02T09:15:49Z</time>
      </trkpt>
      <trkpt lat="45.94283" lon="4.82288">
        <ele>265</ele>
        <time>2018-10-02T09:15:51Z</time>
      </trkpt>
      <trkpt lat="45.94284" lon="4.82294">
        <ele>265</ele>
        <time>2018-10-02T09:15:52Z</time>
      </trkpt>
      <trkpt lat="45.94286" lon="4.82305">
        <ele>265</ele>
        <time>2018-10-02T09:15:54Z</time>
      </trkpt>
      <trkpt lat="45.94285" lon="4.82312">
        <ele>265</ele>
        <time>2018-10-02T09:15:55Z</time>
      </trkpt>
      <trkpt lat="45.94285" lon="4.82318">
        <ele>265</ele>
        <time>2018-10-02T09:15:56Z</time>
      </trkpt>
      <trkpt lat="45.94285" lon="4.82325">
        <ele>265</ele>
        <time>2018-10-02T09:15:57Z</time>
      </trkpt>
      <trkpt lat="45.94286" lon="4.82332">
        <ele>265</ele>
        <time>2018-10-02T09:15:58Z</time>
      </trkpt>
      <trkpt lat="45.94286" lon="4.82338">
        <ele>264</ele>
        <time>2018-10-02T09:15:59Z</time>
      </trkpt>
      <trkpt lat="45.94287" lon="4.8235">
        <ele>264</ele>
        <time>2018-10-02T09:16:01Z</time>
      </trkpt>
      <trkpt lat="45.94287" lon="4.82357">
        <ele>264</ele>
        <time>2018-10-02T09:16:02Z</time>
      </trkpt>
      <trkpt lat="45.94289" lon="4.82368">
        <ele>264</ele>
        <time>2018-10-02T09:16:04Z</time>
      </trkpt>
      <trkpt lat="45.94289" lon="4.82375">
        <ele>264</ele>
        <time>2018-10-02T09:16:05Z</time>
      </trkpt>
      <trkpt lat="45.94291" lon="4.82387">
        <ele>264</ele>
        <time>2018-10-02T09:16:07Z</time>
      </trkpt>
      <trkpt lat="45.9429" lon="4.8239">
        <ele>264</ele>
        <time>2018-10-02T09:16:08Z</time>
      </trkpt>
      <trkpt lat="45.94291" lon="4.82398">
        <ele>264</ele>
        <time>2018-10-02T09:16:10Z</time>
      </trkpt>
      <trkpt lat="45.94292" lon="4.82409">
        <ele>264</ele>
        <time>2018-10-02T09:16:11Z</time>
      </trkpt>
      <trkpt lat="45.94291" lon="4.82418">
        <ele>264</ele>
        <time>2018-10-02T09:16:13Z</time>
      </trkpt>
      <trkpt lat="45.94291" lon="4.82424">
        <ele>264</ele>
        <time>2018-10-02T09:16:14Z</time>
      </trkpt>
      <trkpt lat="45.94292" lon="4.82436">
        <ele>264</ele>
        <time>2018-10-02T09:16:16Z</time>
      </trkpt>
      <trkpt lat="45.94292" lon="4.82442">
        <ele>264</ele>
        <time>2018-10-02T09:16:17Z</time>
      </trkpt>
      <trkpt lat="45.94292" lon="4.82452">
        <ele>264</ele>
        <time>2018-10-02T09:16:19Z</time>
      </trkpt>
      <trkpt lat="45.94292" lon="4.82457">
        <ele>264</ele>
        <time>2018-10-02T09:16:20Z</time>
      </trkpt>
      <trkpt lat="45.94293" lon="4.82469">
        <ele>264</ele>
        <time>2018-10-02T09:16:22Z</time>
      </trkpt>
      <trkpt lat="45.94293" lon="4.82475">
        <ele>264</ele>
        <time>2018-10-02T09:16:23Z</time>
      </trkpt>
      <trkpt lat="45.94293" lon="4.82487">
        <ele>264</ele>
        <time>2018-10-02T09:16:25Z</time>
      </trkpt>
      <trkpt lat="45.94293" lon="4.82493">
        <ele>264</ele>
        <time>2018-10-02T09:16:26Z</time>
      </trkpt>
      <trkpt lat="45.94293" lon="4.82505">
        <ele>264</ele>
        <time>2018-10-02T09:16:28Z</time>
      </trkpt>
      <trkpt lat="45.94294" lon="4.82512">
        <ele>264</ele>
        <time>2018-10-02T09:16:29Z</time>
      </trkpt>
      <trkpt lat="45.94295" lon="4.82524">
        <ele>264</ele>
        <time>2018-10-02T09:16:31Z</time>
      </trkpt>
      <trkpt lat="45.94295" lon="4.82529">
        <ele>264</ele>
        <time>2018-10-02T09:16:32Z</time>
      </trkpt>
      <trkpt lat="45.94295" lon="4.82539">
        <ele>264</ele>
        <time>2018-10-02T09:16:35Z</time>
      </trkpt>
      <trkpt lat="45.94295" lon="4.82542">
        <ele>264</ele>
        <time>2018-10-02T09:16:36Z</time>
      </trkpt>
      <trkpt lat="45.94295" lon="4.82547">
        <ele>264</ele>
        <time>2018-10-02T09:16:37Z</time>
      </trkpt>
      <trkpt lat="45.94294" lon="4.82559">
        <ele>264</ele>
        <time>2018-10-02T09:16:38Z</time>
      </trkpt>
      <trkpt lat="45.94295" lon="4.8257">
        <ele>264</ele>
        <time>2018-10-02T09:16:40Z</time>
      </trkpt>
      <trkpt lat="45.94295" lon="4.82577">
        <ele>264</ele>
        <time>2018-10-02T09:16:41Z</time>
      </trkpt>
      <trkpt lat="45.94294" lon="4.82583">
        <ele>265</ele>
        <time>2018-10-02T09:16:42Z</time>
      </trkpt>
      <trkpt lat="45.94295" lon="4.8259">
        <ele>265</ele>
        <time>2018-10-02T09:16:43Z</time>
      </trkpt>
      <trkpt lat="45.94295" lon="4.82602">
        <ele>265</ele>
        <time>2018-10-02T09:16:45Z</time>
      </trkpt>
      <trkpt lat="45.94295" lon="4.82607">
        <ele>265</ele>
        <time>2018-10-02T09:16:46Z</time>
      </trkpt>
      <trkpt lat="45.94295" lon="4.82618">
        <ele>265</ele>
        <time>2018-10-02T09:16:48Z</time>
      </trkpt>
      <trkpt lat="45.94295" lon="4.82624">
        <ele>265</ele>
        <time>2018-10-02T09:16:49Z</time>
      </trkpt>
      <trkpt lat="45.94295" lon="4.82636">
        <ele>265</ele>
        <time>2018-10-02T09:16:51Z</time>
      </trkpt>
      <trkpt lat="45.94294" lon="4.82642">
        <ele>265</ele>
        <time>2018-10-02T09:16:52Z</time>
      </trkpt>
      <trkpt lat="45.94295" lon="4.8265">
        <ele>265</ele>
        <time>2018-10-02T09:16:53Z</time>
      </trkpt>
      <trkpt lat="45.94295" lon="4.82656">
        <ele>265</ele>
        <time>2018-10-02T09:16:54Z</time>
      </trkpt>
      <trkpt lat="45.94295" lon="4.82664">
        <ele>265</ele>
        <time>2018-10-02T09:16:55Z</time>
      </trkpt>
      <trkpt lat="45.94295" lon="4.82671">
        <ele>265</ele>
        <time>2018-10-02T09:16:56Z</time>
      </trkpt>
      <trkpt lat="45.94295" lon="4.82679">
        <ele>265</ele>
        <time>2018-10-02T09:16:57Z</time>
      </trkpt>
      <trkpt lat="45.94295" lon="4.82686">
        <ele>265</ele>
        <time>2018-10-02T09:16:58Z</time>
      </trkpt>
      <trkpt lat="45.94294" lon="4.82693">
        <ele>265</ele>
        <time>2018-10-02T09:16:59Z</time>
      </trkpt>
      <trkpt lat="45.94294" lon="4.82699">
        <ele>265</ele>
        <time>2018-10-02T09:17:00Z</time>
      </trkpt>
      <trkpt lat="45.94294" lon="4.82712">
        <ele>265</ele>
        <time>2018-10-02T09:17:02Z</time>
      </trkpt>
      <trkpt lat="45.94294" lon="4.82718">
        <ele>265</ele>
        <time>2018-10-02T09:17:03Z</time>
      </trkpt>
      <trkpt lat="45.94294" lon="4.82724">
        <ele>265</ele>
        <time>2018-10-02T09:17:04Z</time>
      </trkpt>
      <trkpt lat="45.94293" lon="4.82731">
        <ele>265</ele>
        <time>2018-10-02T09:17:05Z</time>
      </trkpt>
      <trkpt lat="45.94294" lon="4.82743">
        <ele>265</ele>
        <time>2018-10-02T09:17:07Z</time>
      </trkpt>
      <trkpt lat="45.94293" lon="4.8275">
        <ele>265</ele>
        <time>2018-10-02T09:17:08Z</time>
      </trkpt>
      <trkpt lat="45.94292" lon="4.82758">
        <ele>265</ele>
        <time>2018-10-02T09:17:09Z</time>
      </trkpt>
      <trkpt lat="45.94292" lon="4.82765">
        <ele>265</ele>
        <time>2018-10-02T09:17:10Z</time>
      </trkpt>
      <trkpt lat="45.94293" lon="4.82771">
        <ele>265</ele>
        <time>2018-10-02T09:17:11Z</time>
      </trkpt>
      <trkpt lat="45.94292" lon="4.82778">
        <ele>265</ele>
        <time>2018-10-02T09:17:12Z</time>
      </trkpt>
      <trkpt lat="45.94293" lon="4.8279">
        <ele>265</ele>
        <time>2018-10-02T09:17:14Z</time>
      </trkpt>
      <trkpt lat="45.94292" lon="4.82796">
        <ele>265</ele>
        <time>2018-10-02T09:17:15Z</time>
      </trkpt>
      <trkpt lat="45.94294" lon="4.82807">
        <ele>265</ele>
        <time>2018-10-02T09:17:17Z</time>
      </trkpt>
      <trkpt lat="45.94294" lon="4.82814">
        <ele>265</ele>
        <time>2018-10-02T09:17:18Z</time>
      </trkpt>
      <trkpt lat="45.94293" lon="4.82826">
        <ele>265</ele>
        <time>2018-10-02T09:17:20Z</time>
      </trkpt>
      <trkpt lat="45.94292" lon="4.82832">
        <ele>265</ele>
        <time>2018-10-02T09:17:21Z</time>
      </trkpt>
      <trkpt lat="45.94292" lon="4.82844">
        <ele>265</ele>
        <time>2018-10-02T09:17:23Z</time>
      </trkpt>
      <trkpt lat="45.94291" lon="4.82846">
        <ele>265</ele>
        <time>2018-10-02T09:17:24Z</time>
      </trkpt>
      <trkpt lat="45.94291" lon="4.82852">
        <ele>265</ele>
        <time>2018-10-02T09:17:26Z</time>
      </trkpt>
      <trkpt lat="45.94291" lon="4.82863">
        <ele>265</ele>
        <time>2018-10-02T09:17:27Z</time>
      </trkpt>
      <trkpt lat="45.94289" lon="4.82875">
        <ele>265</ele>
        <time>2018-10-02T09:17:29Z</time>
      </trkpt>
      <trkpt lat="45.9429" lon="4.8288">
        <ele>265</ele>
        <time>2018-10-02T09:17:30Z</time>
      </trkpt>
      <trkpt lat="45.94289" lon="4.82892">
        <ele>265</ele>
        <time>2018-10-02T09:17:32Z</time>
      </trkpt>
      <trkpt lat="45.94289" lon="4.82898">
        <ele>265</ele>
        <time>2018-10-02T09:17:33Z</time>
      </trkpt>
      <trkpt lat="45.94288" lon="4.82909">
        <ele>265</ele>
        <time>2018-10-02T09:17:35Z</time>
      </trkpt>
      <trkpt lat="45.94287" lon="4.82915">
        <ele>265</ele>
        <time>2018-10-02T09:17:36Z</time>
      </trkpt>
      <trkpt lat="45.94286" lon="4.82926">
        <ele>265</ele>
        <time>2018-10-02T09:17:38Z</time>
      </trkpt>
      <trkpt lat="45.94286" lon="4.82931">
        <ele>265</ele>
        <time>2018-10-02T09:17:39Z</time>
      </trkpt>
      <trkpt lat="45.94284" lon="4.82942">
        <ele>265</ele>
        <time>2018-10-02T09:17:41Z</time>
      </trkpt>
      <trkpt lat="45.94282" lon="4.82947">
        <ele>265</ele>
        <time>2018-10-02T09:17:42Z</time>
      </trkpt>
      <trkpt lat="45.9428" lon="4.82959">
        <ele>265</ele>
        <time>2018-10-02T09:17:44Z</time>
      </trkpt>
      <trkpt lat="45.9428" lon="4.82965">
        <ele>265</ele>
        <time>2018-10-02T09:17:45Z</time>
      </trkpt>
      <trkpt lat="45.94286" lon="4.82974">
        <ele>265</ele>
        <time>2018-10-02T09:17:47Z</time>
      </trkpt>
      <trkpt lat="45.94289" lon="4.82979">
        <ele>265</ele>
        <time>2018-10-02T09:17:48Z</time>
      </trkpt>
      <trkpt lat="45.94292" lon="4.82984">
        <ele>265</ele>
        <time>2018-10-02T09:17:49Z</time>
      </trkpt>
      <trkpt lat="45.94294" lon="4.8299">
        <ele>265</ele>
        <time>2018-10-02T09:17:50Z</time>
      </trkpt>
      <trkpt lat="45.94296" lon="4.82997">
        <ele>265</ele>
        <time>2018-10-02T09:17:51Z</time>
      </trkpt>
      <trkpt lat="45.94297" lon="4.83003">
        <ele>266</ele>
        <time>2018-10-02T09:17:52Z</time>
      </trkpt>
      <trkpt lat="45.94299" lon="4.83009">
        <ele>266</ele>
        <time>2018-10-02T09:17:53Z</time>
      </trkpt>
      <trkpt lat="45.943" lon="4.83015">
        <ele>266</ele>
        <time>2018-10-02T09:17:54Z</time>
      </trkpt>
      <trkpt lat="45.94301" lon="4.83026">
        <ele>266</ele>
        <time>2018-10-02T09:17:56Z</time>
      </trkpt>
      <trkpt lat="45.94302" lon="4.83031">
        <ele>266</ele>
        <time>2018-10-02T09:17:57Z</time>
      </trkpt>
      <trkpt lat="45.94303" lon="4.83042">
        <ele>266</ele>
        <time>2018-10-02T09:17:59Z</time>
      </trkpt>
      <trkpt lat="45.94304" lon="4.83048">
        <ele>266</ele>
        <time>2018-10-02T09:18:00Z</time>
      </trkpt>
      <trkpt lat="45.94306" lon="4.83054">
        <ele>266</ele>
        <time>2018-10-02T09:18:01Z</time>
      </trkpt>
      <trkpt lat="45.94307" lon="4.83061">
        <ele>266</ele>
        <time>2018-10-02T09:18:02Z</time>
      </trkpt>
      <trkpt lat="45.9431" lon="4.83074">
        <ele>266</ele>
        <time>2018-10-02T09:18:04Z</time>
      </trkpt>
      <trkpt lat="45.94311" lon="4.83079">
        <ele>266</ele>
        <time>2018-10-02T09:18:05Z</time>
      </trkpt>
      <trkpt lat="45.94314" lon="4.8309">
        <ele>266</ele>
        <time>2018-10-02T09:18:07Z</time>
      </trkpt>
      <trkpt lat="45.94316" lon="4.83096">
        <ele>266</ele>
        <time>2018-10-02T09:18:08Z</time>
      </trkpt>
      <trkpt lat="45.94319" lon="4.83106">
        <ele>266</ele>
        <time>2018-10-02T09:18:10Z</time>
      </trkpt>
      <trkpt lat="45.94321" lon="4.83112">
        <ele>266</ele>
        <time>2018-10-02T09:18:11Z</time>
      </trkpt>
      <trkpt lat="45.94324" lon="4.83124">
        <ele>266</ele>
        <time>2018-10-02T09:18:13Z</time>
      </trkpt>
      <trkpt lat="45.94326" lon="4.8313">
        <ele>266</ele>
        <time>2018-10-02T09:18:14Z</time>
      </trkpt>
      <trkpt lat="45.94328" lon="4.83136">
        <ele>266</ele>
        <time>2018-10-02T09:18:15Z</time>
      </trkpt>
      <trkpt lat="45.9433" lon="4.83142">
        <ele>266</ele>
        <time>2018-10-02T09:18:16Z</time>
      </trkpt>
      <trkpt lat="45.94335" lon="4.83152">
        <ele>266</ele>
        <time>2018-10-02T09:18:18Z</time>
      </trkpt>
      <trkpt lat="45.94337" lon="4.83157">
        <ele>266</ele>
        <time>2018-10-02T09:18:19Z</time>
      </trkpt>
      <trkpt lat="45.94341" lon="4.83168">
        <ele>266</ele>
        <time>2018-10-02T09:18:21Z</time>
      </trkpt>
      <trkpt lat="45.94343" lon="4.83174">
        <ele>266</ele>
        <time>2018-10-02T09:18:22Z</time>
      </trkpt>
      <trkpt lat="45.94346" lon="4.83185">
        <ele>266</ele>
        <time>2018-10-02T09:18:24Z</time>
      </trkpt>
      <trkpt lat="45.94349" lon="4.83191">
        <ele>266</ele>
        <time>2018-10-02T09:18:25Z</time>
      </trkpt>
      <trkpt lat="45.94351" lon="4.83198">
        <ele>266</ele>
        <time>2018-10-02T09:18:26Z</time>
      </trkpt>
      <trkpt lat="45.94353" lon="4.83204">
        <ele>266</ele>
        <time>2018-10-02T09:18:27Z</time>
      </trkpt>
      <trkpt lat="45.94354" lon="4.83211">
        <ele>266</ele>
        <time>2018-10-02T09:18:28Z</time>
      </trkpt>
      <trkpt lat="45.94357" lon="4.83218">
        <ele>266</ele>
        <time>2018-10-02T09:18:29Z</time>
      </trkpt>
      <trkpt lat="45.9436" lon="4.83229">
        <ele>266</ele>
        <time>2018-10-02T09:18:31Z</time>
      </trkpt>
      <trkpt lat="45.94362" lon="4.83235">
        <ele>265</ele>
        <time>2018-10-02T09:18:32Z</time>
      </trkpt>
      <trkpt lat="45.94364" lon="4.83241">
        <ele>265</ele>
        <time>2018-10-02T09:18:33Z</time>
      </trkpt>
      <trkpt lat="45.94366" lon="4.83248">
        <ele>265</ele>
        <time>2018-10-02T09:18:34Z</time>
      </trkpt>
      <trkpt lat="45.94369" lon="4.83254">
        <ele>265</ele>
        <time>2018-10-02T09:18:35Z</time>
      </trkpt>
      <trkpt lat="45.94371" lon="4.83261">
        <ele>264</ele>
        <time>2018-10-02T09:18:36Z</time>
      </trkpt>
      <trkpt lat="45.94373" lon="4.83267">
        <ele>264</ele>
        <time>2018-10-02T09:18:37Z</time>
      </trkpt>
      <trkpt lat="45.94376" lon="4.83273">
        <ele>264</ele>
        <time>2018-10-02T09:18:38Z</time>
      </trkpt>
      <trkpt lat="45.94377" lon="4.8328">
        <ele>264</ele>
        <time>2018-10-02T09:18:39Z</time>
      </trkpt>
      <trkpt lat="45.9438" lon="4.83286">
        <ele>264</ele>
        <time>2018-10-02T09:18:40Z</time>
      </trkpt>
      <trkpt lat="45.94381" lon="4.83292">
        <ele>264</ele>
        <time>2018-10-02T09:18:41Z</time>
      </trkpt>
      <trkpt lat="45.94384" lon="4.83298">
        <ele>264</ele>
        <time>2018-10-02T09:18:42Z</time>
      </trkpt>
      <trkpt lat="45.94388" lon="4.83303">
        <ele>264</ele>
        <time>2018-10-02T09:18:43Z</time>
      </trkpt>
      <trkpt lat="45.9439" lon="4.83309">
        <ele>264</ele>
        <time>2018-10-02T09:18:44Z</time>
      </trkpt>
      <trkpt lat="45.94395" lon="4.83314">
        <ele>264</ele>
        <time>2018-10-02T09:18:45Z</time>
      </trkpt>
      <trkpt lat="45.94397" lon="4.8332">
        <ele>264</ele>
        <time>2018-10-02T09:18:46Z</time>
      </trkpt>
      <trkpt lat="45.94399" lon="4.83326">
        <ele>264</ele>
        <time>2018-10-02T09:18:47Z</time>
      </trkpt>
      <trkpt lat="45.94401" lon="4.83332">
        <ele>264</ele>
        <time>2018-10-02T09:18:48Z</time>
      </trkpt>
      <trkpt lat="45.94404" lon="4.83339">
        <ele>263</ele>
        <time>2018-10-02T09:18:49Z</time>
      </trkpt>
      <trkpt lat="45.94407" lon="4.83346">
        <ele>263</ele>
        <time>2018-10-02T09:18:50Z</time>
      </trkpt>
      <trkpt lat="45.94409" lon="4.83352">
        <ele>263</ele>
        <time>2018-10-02T09:18:51Z</time>
      </trkpt>
      <trkpt lat="45.94411" lon="4.83358">
        <ele>263</ele>
        <time>2018-10-02T09:18:52Z</time>
      </trkpt>
      <trkpt lat="45.94413" lon="4.83364">
        <ele>264</ele>
        <time>2018-10-02T09:18:53Z</time>
      </trkpt>
      <trkpt lat="45.94416" lon="4.83371">
        <ele>264</ele>
        <time>2018-10-02T09:18:54Z</time>
      </trkpt>
      <trkpt lat="45.94418" lon="4.83377">
        <ele>264</ele>
        <time>2018-10-02T09:18:55Z</time>
      </trkpt>
      <trkpt lat="45.9442" lon="4.83382">
        <ele>264</ele>
        <time>2018-10-02T09:18:56Z</time>
      </trkpt>
      <trkpt lat="45.94422" lon="4.83388">
        <ele>264</ele>
        <time>2018-10-02T09:18:57Z</time>
      </trkpt>
      <trkpt lat="45.94425" lon="4.83393">
        <ele>264</ele>
        <time>2018-10-02T09:18:58Z</time>
      </trkpt>
      <trkpt lat="45.94428" lon="4.83399">
        <ele>264</ele>
        <time>2018-10-02T09:18:59Z</time>
      </trkpt>
      <trkpt lat="45.9443" lon="4.83405">
        <ele>264</ele>
        <time>2018-10-02T09:19:00Z</time>
      </trkpt>
      <trkpt lat="45.94433" lon="4.83411">
        <ele>264</ele>
        <time>2018-10-02T09:19:01Z</time>
      </trkpt>
      <trkpt lat="45.94436" lon="4.83417">
        <ele>264</ele>
        <time>2018-10-02T09:19:02Z</time>
      </trkpt>
      <trkpt lat="45.9444" lon="4.83424">
        <ele>264</ele>
        <time>2018-10-02T09:19:03Z</time>
      </trkpt>
      <trkpt lat="45.94442" lon="4.8343">
        <ele>264</ele>
        <time>2018-10-02T09:19:04Z</time>
      </trkpt>
      <trkpt lat="45.94445" lon="4.83436">
        <ele>263</ele>
        <time>2018-10-02T09:19:05Z</time>
      </trkpt>
      <trkpt lat="45.94447" lon="4.83443">
        <ele>263</ele>
        <time>2018-10-02T09:19:06Z</time>
      </trkpt>
      <trkpt lat="45.9445" lon="4.8345">
        <ele>263</ele>
        <time>2018-10-02T09:19:07Z</time>
      </trkpt>
      <trkpt lat="45.94453" lon="4.83455">
        <ele>263</ele>
        <time>2018-10-02T09:19:08Z</time>
      </trkpt>
      <trkpt lat="45.94456" lon="4.83461">
        <ele>263</ele>
        <time>2018-10-02T09:19:09Z</time>
      </trkpt>
      <trkpt lat="45.94459" lon="4.83467">
        <ele>263</ele>
        <time>2018-10-02T09:19:10Z</time>
      </trkpt>
      <trkpt lat="45.94462" lon="4.83473">
        <ele>263</ele>
        <time>2018-10-02T09:19:11Z</time>
      </trkpt>
      <trkpt lat="45.94465" lon="4.83478">
        <ele>263</ele>
        <time>2018-10-02T09:19:12Z</time>
      </trkpt>
      <trkpt lat="45.94468" lon="4.83485">
        <ele>263</ele>
        <time>2018-10-02T09:19:13Z</time>
      </trkpt>
      <trkpt lat="45.94471" lon="4.8349">
        <ele>263</ele>
        <time>2018-10-02T09:19:14Z</time>
      </trkpt>
      <trkpt lat="45.94474" lon="4.83494">
        <ele>263</ele>
        <time>2018-10-02T09:19:15Z</time>
      </trkpt>
      <trkpt lat="45.94477" lon="4.835">
        <ele>263</ele>
        <time>2018-10-02T09:19:16Z</time>
      </trkpt>
      <trkpt lat="45.9448" lon="4.83505">
        <ele>262</ele>
        <time>2018-10-02T09:19:17Z</time>
      </trkpt>
      <trkpt lat="45.94483" lon="4.8351">
        <ele>262</ele>
        <time>2018-10-02T09:19:18Z</time>
      </trkpt>
      <trkpt lat="45.94486" lon="4.83517">
        <ele>262</ele>
        <time>2018-10-02T09:19:19Z</time>
      </trkpt>
      <trkpt lat="45.94489" lon="4.83522">
        <ele>262</ele>
        <time>2018-10-02T09:19:20Z</time>
      </trkpt>
      <trkpt lat="45.94496" lon="4.83528">
        <ele>262</ele>
        <time>2018-10-02T09:19:22Z</time>
      </trkpt>
      <trkpt lat="45.94499" lon="4.83532">
        <ele>262</ele>
        <time>2018-10-02T09:19:23Z</time>
      </trkpt>
      <trkpt lat="45.94506" lon="4.8354">
        <ele>262</ele>
        <time>2018-10-02T09:19:25Z</time>
      </trkpt>
      <trkpt lat="45.94509" lon="4.83545">
        <ele>261</ele>
        <time>2018-10-02T09:19:26Z</time>
      </trkpt>
      <trkpt lat="45.94512" lon="4.8355">
        <ele>261</ele>
        <time>2018-10-02T09:19:27Z</time>
      </trkpt>
      <trkpt lat="45.94515" lon="4.83557">
        <ele>261</ele>
        <time>2018-10-02T09:19:28Z</time>
      </trkpt>
      <trkpt lat="45.94518" lon="4.83562">
        <ele>261</ele>
        <time>2018-10-02T09:19:29Z</time>
      </trkpt>
      <trkpt lat="45.9452" lon="4.83568">
        <ele>261</ele>
        <time>2018-10-02T09:19:30Z</time>
      </trkpt>
      <trkpt lat="45.94524" lon="4.83572">
        <ele>261</ele>
        <time>2018-10-02T09:19:31Z</time>
      </trkpt>
      <trkpt lat="45.94527" lon="4.83577">
        <ele>261</ele>
        <time>2018-10-02T09:19:32Z</time>
      </trkpt>
      <trkpt lat="45.94531" lon="4.83581">
        <ele>261</ele>
        <time>2018-10-02T09:19:33Z</time>
      </trkpt>
      <trkpt lat="45.94534" lon="4.83587">
        <ele>261</ele>
        <time>2018-10-02T09:19:34Z</time>
      </trkpt>
      <trkpt lat="45.9454" lon="4.83595">
        <ele>261</ele>
        <time>2018-10-02T09:19:36Z</time>
      </trkpt>
      <trkpt lat="45.94544" lon="4.83599">
        <ele>261</ele>
        <time>2018-10-02T09:19:37Z</time>
      </trkpt>
      <trkpt lat="45.94551" lon="4.83607">
        <ele>261</ele>
        <time>2018-10-02T09:19:39Z</time>
      </trkpt>
      <trkpt lat="45.94555" lon="4.83611">
        <ele>261</ele>
        <time>2018-10-02T09:19:40Z</time>
      </trkpt>
      <trkpt lat="45.94558" lon="4.83615">
        <ele>261</ele>
        <time>2018-10-02T09:19:41Z</time>
      </trkpt>
      <trkpt lat="45.94563" lon="4.83621">
        <ele>261</ele>
        <time>2018-10-02T09:19:42Z</time>
      </trkpt>
      <trkpt lat="45.94566" lon="4.83625">
        <ele>261</ele>
        <time>2018-10-02T09:19:43Z</time>
      </trkpt>
      <trkpt lat="45.9457" lon="4.83629">
        <ele>261</ele>
        <time>2018-10-02T09:19:44Z</time>
      </trkpt>
      <trkpt lat="45.94574" lon="4.83634">
        <ele>261</ele>
        <time>2018-10-02T09:19:45Z</time>
      </trkpt>
      <trkpt lat="45.94578" lon="4.83636">
        <ele>261</ele>
        <time>2018-10-02T09:19:46Z</time>
      </trkpt>
      <trkpt lat="45.94585" lon="4.83644">
        <ele>260</ele>
        <time>2018-10-02T09:19:48Z</time>
      </trkpt>
      <trkpt lat="45.94589" lon="4.83647">
        <ele>260</ele>
        <time>2018-10-02T09:19:49Z</time>
      </trkpt>
      <trkpt lat="45.94595" lon="4.83654">
        <ele>261</ele>
        <time>2018-10-02T09:19:51Z</time>
      </trkpt>
      <trkpt lat="45.94599" lon="4.83658">
        <ele>260</ele>
        <time>2018-10-02T09:19:52Z</time>
      </trkpt>
      <trkpt lat="45.94606" lon="4.83665">
        <ele>260</ele>
        <time>2018-10-02T09:19:54Z</time>
      </trkpt>
      <trkpt lat="45.9461" lon="4.83668">
        <ele>261</ele>
        <time>2018-10-02T09:19:55Z</time>
      </trkpt>
      <trkpt lat="45.94617" lon="4.83675">
        <ele>261</ele>
        <time>2018-10-02T09:19:57Z</time>
      </trkpt>
      <trkpt lat="45.9462" lon="4.83678">
        <ele>261</ele>
        <time>2018-10-02T09:19:58Z</time>
      </trkpt>
      <trkpt lat="45.94624" lon="4.83681">
        <ele>261</ele>
        <time>2018-10-02T09:19:59Z</time>
      </trkpt>
      <trkpt lat="45.94628" lon="4.83686">
        <ele>261</ele>
        <time>2018-10-02T09:20:00Z</time>
      </trkpt>
      <trkpt lat="45.94635" lon="4.83691">
        <ele>261</ele>
        <time>2018-10-02T09:20:02Z</time>
      </trkpt>
      <trkpt lat="45.94641" lon="4.83695">
        <ele>261</ele>
        <time>2018-10-02T09:20:03Z</time>
      </trkpt>
      <trkpt lat="45.94644" lon="4.83699">
        <ele>261</ele>
        <time>2018-10-02T09:20:04Z</time>
      </trkpt>
      <trkpt lat="45.94648" lon="4.83704">
        <ele>261</ele>
        <time>2018-10-02T09:20:05Z</time>
      </trkpt>
      <trkpt lat="45.94652" lon="4.83708">
        <ele>261</ele>
        <time>2018-10-02T09:20:06Z</time>
      </trkpt>
      <trkpt lat="45.94656" lon="4.83712">
        <ele>261</ele>
        <time>2018-10-02T09:20:07Z</time>
      </trkpt>
      <trkpt lat="45.9466" lon="4.83716">
        <ele>261</ele>
        <time>2018-10-02T09:20:08Z</time>
      </trkpt>
      <trkpt lat="45.94664" lon="4.8372">
        <ele>261</ele>
        <time>2018-10-02T09:20:09Z</time>
      </trkpt>
      <trkpt lat="45.94668" lon="4.83725">
        <ele>261</ele>
        <time>2018-10-02T09:20:10Z</time>
      </trkpt>
      <trkpt lat="45.94673" lon="4.83729">
        <ele>261</ele>
        <time>2018-10-02T09:20:11Z</time>
      </trkpt>
      <trkpt lat="45.9468" lon="4.83736">
        <ele>262</ele>
        <time>2018-10-02T09:20:13Z</time>
      </trkpt>
      <trkpt lat="45.94681" lon="4.83738">
        <ele>262</ele>
        <time>2018-10-02T09:20:14Z</time>
      </trkpt>
      <trkpt lat="45.94686" lon="4.83742">
        <ele>262</ele>
        <time>2018-10-02T09:20:15Z</time>
      </trkpt>
      <trkpt lat="45.9469" lon="4.83745">
        <ele>262</ele>
        <time>2018-10-02T09:20:16Z</time>
      </trkpt>
      <trkpt lat="45.94695" lon="4.83752">
        <ele>263</ele>
        <time>2018-10-02T09:20:18Z</time>
      </trkpt>
      <trkpt lat="45.94698" lon="4.83756">
        <ele>263</ele>
        <time>2018-10-02T09:20:19Z</time>
      </trkpt>
      <trkpt lat="45.94704" lon="4.83763">
        <ele>263</ele>
        <time>2018-10-02T09:20:21Z</time>
      </trkpt>
      <trkpt lat="45.94707" lon="4.83767">
        <ele>263</ele>
        <time>2018-10-02T09:20:22Z</time>
      </trkpt>
      <trkpt lat="45.94714" lon="4.83774">
        <ele>263</ele>
        <time>2018-10-02T09:20:24Z</time>
      </trkpt>
      <trkpt lat="45.94717" lon="4.83778">
        <ele>263</ele>
        <time>2018-10-02T09:20:25Z</time>
      </trkpt>
      <trkpt lat="45.94721" lon="4.83783">
        <ele>263</ele>
        <time>2018-10-02T09:20:27Z</time>
      </trkpt>
      <trkpt lat="45.94725" lon="4.83789">
        <ele>263</ele>
        <time>2018-10-02T09:20:28Z</time>
      </trkpt>
      <trkpt lat="45.94731" lon="4.83797">
        <ele>264</ele>
        <time>2018-10-02T09:20:30Z</time>
      </trkpt>
      <trkpt lat="45.94734" lon="4.83801">
        <ele>264</ele>
        <time>2018-10-02T09:20:31Z</time>
      </trkpt>
      <trkpt lat="45.94739" lon="4.83808">
        <ele>264</ele>
        <time>2018-10-02T09:20:33Z</time>
      </trkpt>
      <trkpt lat="45.94741" lon="4.8381">
        <ele>264</ele>
        <time>2018-10-02T09:20:34Z</time>
      </trkpt>
      <trkpt lat="45.94747" lon="4.83818">
        <ele>264</ele>
        <time>2018-10-02T09:20:36Z</time>
      </trkpt>
      <trkpt lat="45.94749" lon="4.8382">
        <ele>264</ele>
        <time>2018-10-02T09:20:37Z</time>
      </trkpt>
      <trkpt lat="45.94754" lon="4.83825">
        <ele>265</ele>
        <time>2018-10-02T09:20:40Z</time>
      </trkpt>
      <trkpt lat="45.94761" lon="4.83832">
        <ele>265</ele>
        <time>2018-10-02T09:20:41Z</time>
      </trkpt>
      <trkpt lat="45.94767" lon="4.8384">
        <ele>265</ele>
        <time>2018-10-02T09:20:43Z</time>
      </trkpt>
      <trkpt lat="45.9477" lon="4.83843">
        <ele>265</ele>
        <time>2018-10-02T09:20:44Z</time>
      </trkpt>
      <trkpt lat="45.94775" lon="4.83851">
        <ele>265</ele>
        <time>2018-10-02T09:20:46Z</time>
      </trkpt>
      <trkpt lat="45.94778" lon="4.83854">
        <ele>265</ele>
        <time>2018-10-02T09:20:47Z</time>
      </trkpt>
      <trkpt lat="45.94784" lon="4.83862">
        <ele>265</ele>
        <time>2018-10-02T09:20:49Z</time>
      </trkpt>
      <trkpt lat="45.94787" lon="4.83866">
        <ele>265</ele>
        <time>2018-10-02T09:20:50Z</time>
      </trkpt>
      <trkpt lat="45.94792" lon="4.83875">
        <ele>266</ele>
        <time>2018-10-02T09:20:52Z</time>
      </trkpt>
      <trkpt lat="45.94793" lon="4.83877">
        <ele>266</ele>
        <time>2018-10-02T09:20:53Z</time>
      </trkpt>
      <trkpt lat="45.94797" lon="4.83886">
        <ele>266</ele>
        <time>2018-10-02T09:20:56Z</time>
      </trkpt>
      <trkpt lat="45.94802" lon="4.83895">
        <ele>266</ele>
        <time>2018-10-02T09:20:57Z</time>
      </trkpt>
      <trkpt lat="45.94807" lon="4.83904">
        <ele>265</ele>
        <time>2018-10-02T09:20:59Z</time>
      </trkpt>
      <trkpt lat="45.94809" lon="4.83909">
        <ele>265</ele>
        <time>2018-10-02T09:21:00Z</time>
      </trkpt>
      <trkpt lat="45.94814" lon="4.83919">
        <ele>266</ele>
        <time>2018-10-02T09:21:02Z</time>
      </trkpt>
      <trkpt lat="45.94816" lon="4.83923">
        <ele>266</ele>
        <time>2018-10-02T09:21:03Z</time>
      </trkpt>
      <trkpt lat="45.94821" lon="4.83932">
        <ele>266</ele>
        <time>2018-10-02T09:21:06Z</time>
      </trkpt>
      <trkpt lat="45.94824" lon="4.83939">
        <ele>266</ele>
        <time>2018-10-02T09:21:07Z</time>
      </trkpt>
      <trkpt lat="45.94829" lon="4.83947">
        <ele>266</ele>
        <time>2018-10-02T09:21:10Z</time>
      </trkpt>
      <trkpt lat="45.9483" lon="4.8395">
        <ele>266</ele>
        <time>2018-10-02T09:21:11Z</time>
      </trkpt>
      <trkpt lat="45.94832" lon="4.83953">
        <ele>266</ele>
        <time>2018-10-02T09:21:12Z</time>
      </trkpt>
      <trkpt lat="45.94837" lon="4.83962">
        <ele>265</ele>
        <time>2018-10-02T09:21:13Z</time>
      </trkpt>
      <trkpt lat="45.94841" lon="4.83972">
        <ele>265</ele>
        <time>2018-10-02T09:21:15Z</time>
      </trkpt>
      <trkpt lat="45.94843" lon="4.83977">
        <ele>265</ele>
        <time>2018-10-02T09:21:16Z</time>
      </trkpt>
      <trkpt lat="45.94847" lon="4.83988">
        <ele>265</ele>
        <time>2018-10-02T09:21:18Z</time>
      </trkpt>
      <trkpt lat="45.94849" lon="4.83994">
        <ele>265</ele>
        <time>2018-10-02T09:21:19Z</time>
      </trkpt>
      <trkpt lat="45.94851" lon="4.84">
        <ele>265</ele>
        <time>2018-10-02T09:21:20Z</time>
      </trkpt>
      <trkpt lat="45.94853" lon="4.84006">
        <ele>266</ele>
        <time>2018-10-02T09:21:21Z</time>
      </trkpt>
      <trkpt lat="45.94856" lon="4.84012">
        <ele>266</ele>
        <time>2018-10-02T09:21:22Z</time>
      </trkpt>
      <trkpt lat="45.94858" lon="4.84018">
        <ele>266</ele>
        <time>2018-10-02T09:21:23Z</time>
      </trkpt>
      <trkpt lat="45.9486" lon="4.84023">
        <ele>266</ele>
        <time>2018-10-02T09:21:24Z</time>
      </trkpt>
      <trkpt lat="45.94862" lon="4.84029">
        <ele>266</ele>
        <time>2018-10-02T09:21:25Z</time>
      </trkpt>
      <trkpt lat="45.94864" lon="4.84035">
        <ele>266</ele>
        <time>2018-10-02T09:21:26Z</time>
      </trkpt>
      <trkpt lat="45.94867" lon="4.84041">
        <ele>266</ele>
        <time>2018-10-02T09:21:27Z</time>
      </trkpt>
      <trkpt lat="45.94871" lon="4.84052">
        <ele>267</ele>
        <time>2018-10-02T09:21:29Z</time>
      </trkpt>
      <trkpt lat="45.94872" lon="4.84057">
        <ele>267</ele>
        <time>2018-10-02T09:21:30Z</time>
      </trkpt>
      <trkpt lat="45.94874" lon="4.84062">
        <ele>267</ele>
        <time>2018-10-02T09:21:31Z</time>
      </trkpt>
      <trkpt lat="45.94878" lon="4.84067">
        <ele>267</ele>
        <time>2018-10-02T09:21:32Z</time>
      </trkpt>
      <trkpt lat="45.9488" lon="4.84072">
        <ele>267</ele>
        <time>2018-10-02T09:21:33Z</time>
      </trkpt>
      <trkpt lat="45.94882" lon="4.84079">
        <ele>267</ele>
        <time>2018-10-02T09:21:34Z</time>
      </trkpt>
      <trkpt lat="45.94885" lon="4.84084">
        <ele>267</ele>
        <time>2018-10-02T09:21:35Z</time>
      </trkpt>
      <trkpt lat="45.94887" lon="4.8409">
        <ele>267</ele>
        <time>2018-10-02T09:21:36Z</time>
      </trkpt>
      <trkpt lat="45.94889" lon="4.84096">
        <ele>267</ele>
        <time>2018-10-02T09:21:37Z</time>
      </trkpt>
      <trkpt lat="45.94892" lon="4.84103">
        <ele>267</ele>
        <time>2018-10-02T09:21:38Z</time>
      </trkpt>
      <trkpt lat="45.94895" lon="4.84108">
        <ele>267</ele>
        <time>2018-10-02T09:21:39Z</time>
      </trkpt>
      <trkpt lat="45.94898" lon="4.84113">
        <ele>267</ele>
        <time>2018-10-02T09:21:40Z</time>
      </trkpt>
      <trkpt lat="45.94901" lon="4.8412">
        <ele>267</ele>
        <time>2018-10-02T09:21:41Z</time>
      </trkpt>
      <trkpt lat="45.94904" lon="4.84125">
        <ele>267</ele>
        <time>2018-10-02T09:21:42Z</time>
      </trkpt>
      <trkpt lat="45.94909" lon="4.84135">
        <ele>268</ele>
        <time>2018-10-02T09:21:44Z</time>
      </trkpt>
      <trkpt lat="45.94912" lon="4.84139">
        <ele>268</ele>
        <time>2018-10-02T09:21:45Z</time>
      </trkpt>
      <trkpt lat="45.94917" lon="4.84149">
        <ele>268</ele>
        <time>2018-10-02T09:21:47Z</time>
      </trkpt>
      <trkpt lat="45.94919" lon="4.84154">
        <ele>268</ele>
        <time>2018-10-02T09:21:48Z</time>
      </trkpt>
      <trkpt lat="45.94923" lon="4.84159">
        <ele>268</ele>
        <time>2018-10-02T09:21:49Z</time>
      </trkpt>
      <trkpt lat="45.94926" lon="4.84164">
        <ele>268</ele>
        <time>2018-10-02T09:21:50Z</time>
      </trkpt>
      <trkpt lat="45.94932" lon="4.84173">
        <ele>267</ele>
        <time>2018-10-02T09:21:52Z</time>
      </trkpt>
      <trkpt lat="45.94935" lon="4.84178">
        <ele>267</ele>
        <time>2018-10-02T09:21:53Z</time>
      </trkpt>
      <trkpt lat="45.94939" lon="4.84183">
        <ele>267</ele>
        <time>2018-10-02T09:21:54Z</time>
      </trkpt>
      <trkpt lat="45.94942" lon="4.84188">
        <ele>267</ele>
        <time>2018-10-02T09:21:55Z</time>
      </trkpt>
      <trkpt lat="45.94946" lon="4.84193">
        <ele>267</ele>
        <time>2018-10-02T09:21:56Z</time>
      </trkpt>
      <trkpt lat="45.94949" lon="4.84198">
        <ele>267</ele>
        <time>2018-10-02T09:21:57Z</time>
      </trkpt>
      <trkpt lat="45.94956" lon="4.84207">
        <ele>267</ele>
        <time>2018-10-02T09:21:59Z</time>
      </trkpt>
      <trkpt lat="45.94959" lon="4.84211">
        <ele>267</ele>
        <time>2018-10-02T09:22:00Z</time>
      </trkpt>
      <trkpt lat="45.94963" lon="4.8422">
        <ele>267</ele>
        <time>2018-10-02T09:22:02Z</time>
      </trkpt>
      <trkpt lat="45.94966" lon="4.84225">
        <ele>267</ele>
        <time>2018-10-02T09:22:03Z</time>
      </trkpt>
      <trkpt lat="45.94972" lon="4.84233">
        <ele>267</ele>
        <time>2018-10-02T09:22:05Z</time>
      </trkpt>
      <trkpt lat="45.94975" lon="4.84237">
        <ele>267</ele>
        <time>2018-10-02T09:22:06Z</time>
      </trkpt>
      <trkpt lat="45.94978" lon="4.84243">
        <ele>267</ele>
        <time>2018-10-02T09:22:07Z</time>
      </trkpt>
      <trkpt lat="45.94981" lon="4.84247">
        <ele>267</ele>
        <time>2018-10-02T09:22:08Z</time>
      </trkpt>
      <trkpt lat="45.94986" lon="4.84256">
        <ele>267</ele>
        <time>2018-10-02T09:22:10Z</time>
      </trkpt>
      <trkpt lat="45.94989" lon="4.8426">
        <ele>267</ele>
        <time>2018-10-02T09:22:11Z</time>
      </trkpt>
      <trkpt lat="45.94994" lon="4.84269">
        <ele>267</ele>
        <time>2018-10-02T09:22:13Z</time>
      </trkpt>
      <trkpt lat="45.94996" lon="4.84273">
        <ele>267</ele>
        <time>2018-10-02T09:22:14Z</time>
      </trkpt>
      <trkpt lat="45.95002" lon="4.84281">
        <ele>267</ele>
        <time>2018-10-02T09:22:16Z</time>
      </trkpt>
      <trkpt lat="45.95005" lon="4.84285">
        <ele>267</ele>
        <time>2018-10-02T09:22:17Z</time>
      </trkpt>
      <trkpt lat="45.95009" lon="4.84292">
        <ele>267</ele>
        <time>2018-10-02T09:22:19Z</time>
      </trkpt>
      <trkpt lat="45.95012" lon="4.84296">
        <ele>267</ele>
        <time>2018-10-02T09:22:20Z</time>
      </trkpt>
      <trkpt lat="45.95014" lon="4.84301">
        <ele>267</ele>
        <time>2018-10-02T09:22:22Z</time>
      </trkpt>
      <trkpt lat="45.95018" lon="4.84308">
        <ele>267</ele>
        <time>2018-10-02T09:22:23Z</time>
      </trkpt>
      <trkpt lat="45.95023" lon="4.84316">
        <ele>267</ele>
        <time>2018-10-02T09:22:25Z</time>
      </trkpt>
      <trkpt lat="45.95024" lon="4.84318">
        <ele>267</ele>
        <time>2018-10-02T09:22:26Z</time>
      </trkpt>
      <trkpt lat="45.95027" lon="4.84324">
        <ele>267</ele>
        <time>2018-10-02T09:22:27Z</time>
      </trkpt>
      <trkpt lat="45.9503" lon="4.84329">
        <ele>267</ele>
        <time>2018-10-02T09:22:28Z</time>
      </trkpt>
      <trkpt lat="45.95035" lon="4.84338">
        <ele>267</ele>
        <time>2018-10-02T09:22:30Z</time>
      </trkpt>
      <trkpt lat="45.95037" lon="4.84343">
        <ele>267</ele>
        <time>2018-10-02T09:22:31Z</time>
      </trkpt>
      <trkpt lat="45.95043" lon="4.84353">
        <ele>267</ele>
        <time>2018-10-02T09:22:33Z</time>
      </trkpt>
      <trkpt lat="45.95046" lon="4.84358">
        <ele>267</ele>
        <time>2018-10-02T09:22:34Z</time>
      </trkpt>
      <trkpt lat="45.95049" lon="4.84364">
        <ele>267</ele>
        <time>2018-10-02T09:22:35Z</time>
      </trkpt>
      <trkpt lat="45.95052" lon="4.84369">
        <ele>267</ele>
        <time>2018-10-02T09:22:36Z</time>
      </trkpt>
      <trkpt lat="45.95057" lon="4.84377">
        <ele>267</ele>
        <time>2018-10-02T09:22:38Z</time>
      </trkpt>
      <trkpt lat="45.9506" lon="4.84382">
        <ele>267</ele>
        <time>2018-10-02T09:22:39Z</time>
      </trkpt>
      <trkpt lat="45.95066" lon="4.84389">
        <ele>267</ele>
        <time>2018-10-02T09:22:41Z</time>
      </trkpt>
      <trkpt lat="45.95069" lon="4.84392">
        <ele>267</ele>
        <time>2018-10-02T09:22:42Z</time>
      </trkpt>
      <trkpt lat="45.95076" lon="4.84399">
        <ele>267</ele>
        <time>2018-10-02T09:22:44Z</time>
      </trkpt>
      <trkpt lat="45.95079" lon="4.84402">
        <ele>267</ele>
        <time>2018-10-02T09:22:45Z</time>
      </trkpt>
      <trkpt lat="45.95085" lon="4.84408">
        <ele>267</ele>
        <time>2018-10-02T09:22:48Z</time>
      </trkpt>
      <trkpt lat="45.95087" lon="4.8441">
        <ele>267</ele>
        <time>2018-10-02T09:22:49Z</time>
      </trkpt>
      <trkpt lat="45.95089" lon="4.84412">
        <ele>267</ele>
        <time>2018-10-02T09:22:50Z</time>
      </trkpt>
      <trkpt lat="45.95096" lon="4.84419">
        <ele>267</ele>
        <time>2018-10-02T09:22:51Z</time>
      </trkpt>
      <trkpt lat="45.95102" lon="4.84425">
        <ele>267</ele>
        <time>2018-10-02T09:22:53Z</time>
      </trkpt>
      <trkpt lat="45.95106" lon="4.84429">
        <ele>267</ele>
        <time>2018-10-02T09:22:54Z</time>
      </trkpt>
      <trkpt lat="45.95109" lon="4.84432">
        <ele>267</ele>
        <time>2018-10-02T09:22:55Z</time>
      </trkpt>
      <trkpt lat="45.95113" lon="4.84435">
        <ele>267</ele>
        <time>2018-10-02T09:22:56Z</time>
      </trkpt>
      <trkpt lat="45.9512" lon="4.84442">
        <ele>267</ele>
        <time>2018-10-02T09:22:58Z</time>
      </trkpt>
      <trkpt lat="45.95124" lon="4.84445">
        <ele>267</ele>
        <time>2018-10-02T09:22:59Z</time>
      </trkpt>
      <trkpt lat="45.9513" lon="4.84452">
        <ele>267</ele>
        <time>2018-10-02T09:23:01Z</time>
      </trkpt>
      <trkpt lat="45.95134" lon="4.84456">
        <ele>267</ele>
        <time>2018-10-02T09:23:02Z</time>
      </trkpt>
      <trkpt lat="45.95137" lon="4.8446">
        <ele>266</ele>
        <time>2018-10-02T09:23:03Z</time>
      </trkpt>
      <trkpt lat="45.95141" lon="4.84464">
        <ele>266</ele>
        <time>2018-10-02T09:23:04Z</time>
      </trkpt>
      <trkpt lat="45.95144" lon="4.84468">
        <ele>266</ele>
        <time>2018-10-02T09:23:05Z</time>
      </trkpt>
      <trkpt lat="45.95148" lon="4.84473">
        <ele>266</ele>
        <time>2018-10-02T09:23:06Z</time>
      </trkpt>
      <trkpt lat="45.95151" lon="4.84477">
        <ele>266</ele>
        <time>2018-10-02T09:23:07Z</time>
      </trkpt>
      <trkpt lat="45.95155" lon="4.84481">
        <ele>266</ele>
        <time>2018-10-02T09:23:08Z</time>
      </trkpt>
      <trkpt lat="45.95162" lon="4.84489">
        <ele>266</ele>
        <time>2018-10-02T09:23:10Z</time>
      </trkpt>
      <trkpt lat="45.95165" lon="4.84494">
        <ele>266</ele>
        <time>2018-10-02T09:23:11Z</time>
      </trkpt>
      <trkpt lat="45.9517" lon="4.84499">
        <ele>266</ele>
        <time>2018-10-02T09:23:12Z</time>
      </trkpt>
      <trkpt lat="45.95173" lon="4.84503">
        <ele>266</ele>
        <time>2018-10-02T09:23:13Z</time>
      </trkpt>
      <trkpt lat="45.95177" lon="4.84508">
        <ele>265</ele>
        <time>2018-10-02T09:23:14Z</time>
      </trkpt>
      <trkpt lat="45.95181" lon="4.84513">
        <ele>265</ele>
        <time>2018-10-02T09:23:15Z</time>
      </trkpt>
      <trkpt lat="45.95185" lon="4.84517">
        <ele>265</ele>
        <time>2018-10-02T09:23:16Z</time>
      </trkpt>
      <trkpt lat="45.95189" lon="4.84521">
        <ele>265</ele>
        <time>2018-10-02T09:23:17Z</time>
      </trkpt>
      <trkpt lat="45.95192" lon="4.84526">
        <ele>265</ele>
        <time>2018-10-02T09:23:18Z</time>
      </trkpt>
      <trkpt lat="45.95196" lon="4.84531">
        <ele>265</ele>
        <time>2018-10-02T09:23:19Z</time>
      </trkpt>
      <trkpt lat="45.95202" lon="4.84539">
        <ele>265</ele>
        <time>2018-10-02T09:23:21Z</time>
      </trkpt>
      <trkpt lat="45.95206" lon="4.84544">
        <ele>265</ele>
        <time>2018-10-02T09:23:22Z</time>
      </trkpt>
      <trkpt lat="45.9521" lon="4.84548">
        <ele>264</ele>
        <time>2018-10-02T09:23:23Z</time>
      </trkpt>
      <trkpt lat="45.95214" lon="4.84551">
        <ele>264</ele>
        <time>2018-10-02T09:23:24Z</time>
      </trkpt>
      <trkpt lat="45.95221" lon="4.84559">
        <ele>264</ele>
        <time>2018-10-02T09:23:26Z</time>
      </trkpt>
      <trkpt lat="45.95223" lon="4.84563">
        <ele>264</ele>
        <time>2018-10-02T09:23:27Z</time>
      </trkpt>
      <trkpt lat="45.95229" lon="4.8457">
        <ele>264</ele>
        <time>2018-10-02T09:23:29Z</time>
      </trkpt>
      <trkpt lat="45.95232" lon="4.84574">
        <ele>264</ele>
        <time>2018-10-02T09:23:30Z</time>
      </trkpt>
      <trkpt lat="45.95239" lon="4.84582">
        <ele>264</ele>
        <time>2018-10-02T09:23:32Z</time>
      </trkpt>
      <trkpt lat="45.95243" lon="4.84586">
        <ele>264</ele>
        <time>2018-10-02T09:23:33Z</time>
      </trkpt>
      <trkpt lat="45.95246" lon="4.8459">
        <ele>264</ele>
        <time>2018-10-02T09:23:34Z</time>
      </trkpt>
      <trkpt lat="45.95249" lon="4.84595">
        <ele>264</ele>
        <time>2018-10-02T09:23:35Z</time>
      </trkpt>
      <trkpt lat="45.95253" lon="4.846">
        <ele>264</ele>
        <time>2018-10-02T09:23:36Z</time>
      </trkpt>
      <trkpt lat="45.95256" lon="4.84605">
        <ele>264</ele>
        <time>2018-10-02T09:23:37Z</time>
      </trkpt>
      <trkpt lat="45.95263" lon="4.84611">
        <ele>264</ele>
        <time>2018-10-02T09:23:39Z</time>
      </trkpt>
      <trkpt lat="45.95266" lon="4.84615">
        <ele>264</ele>
        <time>2018-10-02T09:23:40Z</time>
      </trkpt>
      <trkpt lat="45.9527" lon="4.84619">
        <ele>264</ele>
        <time>2018-10-02T09:23:41Z</time>
      </trkpt>
      <trkpt lat="45.95273" lon="4.84623">
        <ele>264</ele>
        <time>2018-10-02T09:23:42Z</time>
      </trkpt>
      <trkpt lat="45.95277" lon="4.84628">
        <ele>264</ele>
        <time>2018-10-02T09:23:43Z</time>
      </trkpt>
      <trkpt lat="45.9528" lon="4.84634">
        <ele>264</ele>
        <time>2018-10-02T09:23:44Z</time>
      </trkpt>
      <trkpt lat="45.95286" lon="4.84639">
        <ele>264</ele>
        <time>2018-10-02T09:23:46Z</time>
      </trkpt>
      <trkpt lat="45.9529" lon="4.84641">
        <ele>264</ele>
        <time>2018-10-02T09:23:47Z</time>
      </trkpt>
      <trkpt lat="45.95297" lon="4.84648">
        <ele>264</ele>
        <time>2018-10-02T09:23:49Z</time>
      </trkpt>
      <trkpt lat="45.953" lon="4.84652">
        <ele>264</ele>
        <time>2018-10-02T09:23:50Z</time>
      </trkpt>
      <trkpt lat="45.95304" lon="4.84655">
        <ele>264</ele>
        <time>2018-10-02T09:23:51Z</time>
      </trkpt>
      <trkpt lat="45.95308" lon="4.84659">
        <ele>265</ele>
        <time>2018-10-02T09:23:52Z</time>
      </trkpt>
      <trkpt lat="45.95315" lon="4.84665">
        <ele>265</ele>
        <time>2018-10-02T09:23:54Z</time>
      </trkpt>
      <trkpt lat="45.95319" lon="4.84668">
        <ele>265</ele>
        <time>2018-10-02T09:23:55Z</time>
      </trkpt>
      <trkpt lat="45.95326" lon="4.84674">
        <ele>265</ele>
        <time>2018-10-02T09:23:59Z</time>
      </trkpt>
      <trkpt lat="45.95328" lon="4.84676">
        <ele>265</ele>
        <time>2018-10-02T09:24:00Z</time>
      </trkpt>
      <trkpt lat="45.95334" lon="4.8468">
        <ele>265</ele>
        <time>2018-10-02T09:24:02Z</time>
      </trkpt>
      <trkpt lat="45.95342" lon="4.84686">
        <ele>266</ele>
        <time>2018-10-02T09:24:03Z</time>
      </trkpt>
      <trkpt lat="45.95348" lon="4.84692">
        <ele>266</ele>
        <time>2018-10-02T09:24:05Z</time>
      </trkpt>
      <trkpt lat="45.95351" lon="4.84695">
        <ele>266</ele>
        <time>2018-10-02T09:24:06Z</time>
      </trkpt>
      <trkpt lat="45.95357" lon="4.847">
        <ele>266</ele>
        <time>2018-10-02T09:24:08Z</time>
      </trkpt>
      <trkpt lat="45.95361" lon="4.84702">
        <ele>266</ele>
        <time>2018-10-02T09:24:09Z</time>
      </trkpt>
      <trkpt lat="45.95367" lon="4.84707">
        <ele>266</ele>
        <time>2018-10-02T09:24:11Z</time>
      </trkpt>
      <trkpt lat="45.95371" lon="4.84709">
        <ele>266</ele>
        <time>2018-10-02T09:24:12Z</time>
      </trkpt>
      <trkpt lat="45.95377" lon="4.84714">
        <ele>266</ele>
        <time>2018-10-02T09:24:14Z</time>
      </trkpt>
      <trkpt lat="45.9538" lon="4.84717">
        <ele>266</ele>
        <time>2018-10-02T09:24:15Z</time>
      </trkpt>
      <trkpt lat="45.95387" lon="4.84723">
        <ele>266</ele>
        <time>2018-10-02T09:24:17Z</time>
      </trkpt>
      <trkpt lat="45.95389" lon="4.84725">
        <ele>266</ele>
        <time>2018-10-02T09:24:18Z</time>
      </trkpt>
      <trkpt lat="45.95394" lon="4.8473">
        <ele>266</ele>
        <time>2018-10-02T09:24:21Z</time>
      </trkpt>
      <trkpt lat="45.95397" lon="4.84732">
        <ele>266</ele>
        <time>2018-10-02T09:24:22Z</time>
      </trkpt>
      <trkpt lat="45.95404" lon="4.84738">
        <ele>266</ele>
        <time>2018-10-02T09:24:25Z</time>
      </trkpt>
      <trkpt lat="45.95406" lon="4.8474">
        <ele>267</ele>
        <time>2018-10-02T09:24:26Z</time>
      </trkpt>
      <trkpt lat="45.95411" lon="4.84745">
        <ele>267</ele>
        <time>2018-10-02T09:24:28Z</time>
      </trkpt>
      <trkpt lat="45.95414" lon="4.84747">
        <ele>267</ele>
        <time>2018-10-02T09:24:29Z</time>
      </trkpt>
      <trkpt lat="45.95419" lon="4.84752">
        <ele>267</ele>
        <time>2018-10-02T09:24:31Z</time>
      </trkpt>
      <trkpt lat="45.95422" lon="4.84755">
        <ele>267</ele>
        <time>2018-10-02T09:24:32Z</time>
      </trkpt>
      <trkpt lat="45.95427" lon="4.84761">
        <ele>267</ele>
        <time>2018-10-02T09:24:34Z</time>
      </trkpt>
      <trkpt lat="45.95429" lon="4.84763">
        <ele>267</ele>
        <time>2018-10-02T09:24:35Z</time>
      </trkpt>
      <trkpt lat="45.95434" lon="4.84769">
        <ele>267</ele>
        <time>2018-10-02T09:24:37Z</time>
      </trkpt>
      <trkpt lat="45.95437" lon="4.84771">
        <ele>267</ele>
        <time>2018-10-02T09:24:38Z</time>
      </trkpt>
      <trkpt lat="45.95442" lon="4.84776">
        <ele>267</ele>
        <time>2018-10-02T09:24:40Z</time>
      </trkpt>
      <trkpt lat="45.95445" lon="4.84779">
        <ele>267</ele>
        <time>2018-10-02T09:24:41Z</time>
      </trkpt>
      <trkpt lat="45.95451" lon="4.84785">
        <ele>267</ele>
        <time>2018-10-02T09:24:43Z</time>
      </trkpt>
      <trkpt lat="45.95459" lon="4.84793">
        <ele>267</ele>
        <time>2018-10-02T09:24:44Z</time>
      </trkpt>
      <trkpt lat="45.95466" lon="4.84801">
        <ele>267</ele>
        <time>2018-10-02T09:24:46Z</time>
      </trkpt>
      <trkpt lat="45.9547" lon="4.84804">
        <ele>267</ele>
        <time>2018-10-02T09:24:47Z</time>
      </trkpt>
      <trkpt lat="45.95473" lon="4.84808">
        <ele>267</ele>
        <time>2018-10-02T09:24:48Z</time>
      </trkpt>
      <trkpt lat="45.95477" lon="4.84812">
        <ele>267</ele>
        <time>2018-10-02T09:24:49Z</time>
      </trkpt>
      <trkpt lat="45.95483" lon="4.8482">
        <ele>267</ele>
        <time>2018-10-02T09:24:52Z</time>
      </trkpt>
      <trkpt lat="45.95485" lon="4.84822">
        <ele>267</ele>
        <time>2018-10-02T09:24:53Z</time>
      </trkpt>
      <trkpt lat="45.95489" lon="4.84827">
        <ele>267</ele>
        <time>2018-10-02T09:24:55Z</time>
      </trkpt>
      <trkpt lat="45.95497" lon="4.84836">
        <ele>267</ele>
        <time>2018-10-02T09:24:56Z</time>
      </trkpt>
      <trkpt lat="45.95502" lon="4.84843">
        <ele>267</ele>
        <time>2018-10-02T09:24:58Z</time>
      </trkpt>
      <trkpt lat="45.95505" lon="4.84846">
        <ele>267</ele>
        <time>2018-10-02T09:24:59Z</time>
      </trkpt>
      <trkpt lat="45.95512" lon="4.84854">
        <ele>268</ele>
        <time>2018-10-02T09:25:01Z</time>
      </trkpt>
      <trkpt lat="45.95515" lon="4.84857">
        <ele>268</ele>
        <time>2018-10-02T09:25:02Z</time>
      </trkpt>
      <trkpt lat="45.95521" lon="4.84864">
        <ele>268</ele>
        <time>2018-10-02T09:25:04Z</time>
      </trkpt>
      <trkpt lat="45.95524" lon="4.84868">
        <ele>268</ele>
        <time>2018-10-02T09:25:05Z</time>
      </trkpt>
      <trkpt lat="45.9553" lon="4.84875">
        <ele>268</ele>
        <time>2018-10-02T09:25:07Z</time>
      </trkpt>
      <trkpt lat="45.95533" lon="4.84878">
        <ele>268</ele>
        <time>2018-10-02T09:25:08Z</time>
      </trkpt>
      <trkpt lat="45.95539" lon="4.84884">
        <ele>268</ele>
        <time>2018-10-02T09:25:11Z</time>
      </trkpt>
      <trkpt lat="45.95541" lon="4.84886">
        <ele>268</ele>
        <time>2018-10-02T09:25:12Z</time>
      </trkpt>
      <trkpt lat="45.95548" lon="4.84893">
        <ele>268</ele>
        <time>2018-10-02T09:25:15Z</time>
      </trkpt>
      <trkpt lat="45.9555" lon="4.84895">
        <ele>268</ele>
        <time>2018-10-02T09:25:16Z</time>
      </trkpt>
      <trkpt lat="45.95558" lon="4.84901">
        <ele>268</ele>
        <time>2018-10-02T09:25:17Z</time>
      </trkpt>
      <trkpt lat="45.9556" lon="4.84902">
        <ele>268</ele>
        <time>2018-10-02T09:25:18Z</time>
      </trkpt>
      <trkpt lat="45.95566" lon="4.84907">
        <ele>268</ele>
        <time>2018-10-02T09:25:20Z</time>
      </trkpt>
      <trkpt lat="45.95568" lon="4.84908">
        <ele>269</ele>
        <time>2018-10-02T09:25:21Z</time>
      </trkpt>
      <trkpt lat="45.95575" lon="4.84913">
        <ele>269</ele>
        <time>2018-10-02T09:25:24Z</time>
      </trkpt>
      <trkpt lat="45.95577" lon="4.84915">
        <ele>269</ele>
        <time>2018-10-02T09:25:25Z</time>
      </trkpt>
      <trkpt lat="45.95585" lon="4.84921">
        <ele>269</ele>
        <time>2018-10-02T09:25:28Z</time>
      </trkpt>
      <trkpt lat="45.95593" lon="4.84927">
        <ele>270</ele>
        <time>2018-10-02T09:25:29Z</time>
      </trkpt>
      <trkpt lat="45.95599" lon="4.84931">
        <ele>270</ele>
        <time>2018-10-02T09:25:31Z</time>
      </trkpt>
      <trkpt lat="45.95603" lon="4.84933">
        <ele>270</ele>
        <time>2018-10-02T09:25:32Z</time>
      </trkpt>
      <trkpt lat="45.9561" lon="4.84938">
        <ele>270</ele>
        <time>2018-10-02T09:25:34Z</time>
      </trkpt>
      <trkpt lat="45.95614" lon="4.84941">
        <ele>270</ele>
        <time>2018-10-02T09:25:35Z</time>
      </trkpt>
      <trkpt lat="45.9562" lon="4.84946">
        <ele>271</ele>
        <time>2018-10-02T09:25:37Z</time>
      </trkpt>
      <trkpt lat="45.95624" lon="4.84949">
        <ele>271</ele>
        <time>2018-10-02T09:25:38Z</time>
      </trkpt>
      <trkpt lat="45.95631" lon="4.84955">
        <ele>271</ele>
        <time>2018-10-02T09:25:40Z</time>
      </trkpt>
      <trkpt lat="45.95635" lon="4.84958">
        <ele>271</ele>
        <time>2018-10-02T09:25:41Z</time>
      </trkpt>
      <trkpt lat="45.95642" lon="4.84966">
        <ele>271</ele>
        <time>2018-10-02T09:25:43Z</time>
      </trkpt>
      <trkpt lat="45.95645" lon="4.8497">
        <ele>271</ele>
        <time>2018-10-02T09:25:44Z</time>
      </trkpt>
      <trkpt lat="45.95651" lon="4.84978">
        <ele>271</ele>
        <time>2018-10-02T09:25:46Z</time>
      </trkpt>
      <trkpt lat="45.95654" lon="4.84981">
        <ele>272</ele>
        <time>2018-10-02T09:25:47Z</time>
      </trkpt>
      <trkpt lat="45.95661" lon="4.84988">
        <ele>272</ele>
        <time>2018-10-02T09:25:49Z</time>
      </trkpt>
      <trkpt lat="45.95664" lon="4.84991">
        <ele>272</ele>
        <time>2018-10-02T09:25:50Z</time>
      </trkpt>
      <trkpt lat="45.95669" lon="4.84998">
        <ele>273</ele>
        <time>2018-10-02T09:25:52Z</time>
      </trkpt>
      <trkpt lat="45.95672" lon="4.85002">
        <ele>274</ele>
        <time>2018-10-02T09:25:53Z</time>
      </trkpt>
      <trkpt lat="45.95678" lon="4.8501">
        <ele>275</ele>
        <time>2018-10-02T09:25:55Z</time>
      </trkpt>
      <trkpt lat="45.9568" lon="4.85014">
        <ele>275</ele>
        <time>2018-10-02T09:25:56Z</time>
      </trkpt>
      <trkpt lat="45.95686" lon="4.85023">
        <ele>275</ele>
        <time>2018-10-02T09:25:58Z</time>
      </trkpt>
      <trkpt lat="45.95689" lon="4.85028">
        <ele>276</ele>
        <time>2018-10-02T09:25:59Z</time>
      </trkpt>
      <trkpt lat="45.95695" lon="4.85036">
        <ele>276</ele>
        <time>2018-10-02T09:26:01Z</time>
      </trkpt>
      <trkpt lat="45.95698" lon="4.8504">
        <ele>276</ele>
        <time>2018-10-02T09:26:02Z</time>
      </trkpt>
      <trkpt lat="45.95703" lon="4.85049">
        <ele>276</ele>
        <time>2018-10-02T09:26:04Z</time>
      </trkpt>
      <trkpt lat="45.95704" lon="4.85051">
        <ele>276</ele>
        <time>2018-10-02T09:26:05Z</time>
      </trkpt>
      <trkpt lat="45.95708" lon="4.85059">
        <ele>277</ele>
        <time>2018-10-02T09:26:08Z</time>
      </trkpt>
      <trkpt lat="45.9571" lon="4.85063">
        <ele>277</ele>
        <time>2018-10-02T09:26:09Z</time>
      </trkpt>
      <trkpt lat="45.95714" lon="4.85073">
        <ele>277</ele>
        <time>2018-10-02T09:26:10Z</time>
      </trkpt>
      <trkpt lat="45.95717" lon="4.85077">
        <ele>277</ele>
        <time>2018-10-02T09:26:11Z</time>
      </trkpt>
      <trkpt lat="45.95722" lon="4.85087">
        <ele>279</ele>
        <time>2018-10-02T09:26:13Z</time>
      </trkpt>
      <trkpt lat="45.95725" lon="4.85092">
        <ele>279</ele>
        <time>2018-10-02T09:26:14Z</time>
      </trkpt>
      <trkpt lat="45.95727" lon="4.85097">
        <ele>279</ele>
        <time>2018-10-02T09:26:16Z</time>
      </trkpt>
      <trkpt lat="45.95731" lon="4.85107">
        <ele>279</ele>
        <time>2018-10-02T09:26:17Z</time>
      </trkpt>
      <trkpt lat="45.95735" lon="4.85117">
        <ele>279</ele>
        <time>2018-10-02T09:26:19Z</time>
      </trkpt>
      <trkpt lat="45.95738" lon="4.85122">
        <ele>279</ele>
        <time>2018-10-02T09:26:20Z</time>
      </trkpt>
      <trkpt lat="45.95741" lon="4.85127">
        <ele>279</ele>
        <time>2018-10-02T09:26:21Z</time>
      </trkpt>
      <trkpt lat="45.95744" lon="4.85132">
        <ele>279</ele>
        <time>2018-10-02T09:26:22Z</time>
      </trkpt>
      <trkpt lat="45.95748" lon="4.85139">
        <ele>279</ele>
        <time>2018-10-02T09:26:24Z</time>
      </trkpt>
      <trkpt lat="45.95751" lon="4.85144">
        <ele>277</ele>
        <time>2018-10-02T09:26:25Z</time>
      </trkpt>
      <trkpt lat="45.95757" lon="4.85153">
        <ele>277</ele>
        <time>2018-10-02T09:26:27Z</time>
      </trkpt>
      <trkpt lat="45.95758" lon="4.85155">
        <ele>277</ele>
        <time>2018-10-02T09:26:28Z</time>
      </trkpt>
      <trkpt lat="45.95762" lon="4.85159">
        <ele>277</ele>
        <time>2018-10-02T09:26:29Z</time>
      </trkpt>
      <trkpt lat="45.95767" lon="4.85165">
        <ele>277</ele>
        <time>2018-10-02T09:26:30Z</time>
      </trkpt>
      <trkpt lat="45.95772" lon="4.8517">
        <ele>277</ele>
        <time>2018-10-02T09:26:31Z</time>
      </trkpt>
      <trkpt lat="45.95775" lon="4.85174">
        <ele>277</ele>
        <time>2018-10-02T09:26:32Z</time>
      </trkpt>
      <trkpt lat="45.95779" lon="4.8518">
        <ele>277</ele>
        <time>2018-10-02T09:26:34Z</time>
      </trkpt>
      <trkpt lat="45.95786" lon="4.85185">
        <ele>276</ele>
        <time>2018-10-02T09:26:35Z</time>
      </trkpt>
      <trkpt lat="45.95788" lon="4.85187">
        <ele>276</ele>
        <time>2018-10-02T09:26:36Z</time>
      </trkpt>
      <trkpt lat="45.95794" lon="4.85195">
        <ele>276</ele>
        <time>2018-10-02T09:26:37Z</time>
      </trkpt>
      <trkpt lat="45.95798" lon="4.852">
        <ele>276</ele>
        <time>2018-10-02T09:26:38Z</time>
      </trkpt>
      <trkpt lat="45.95802" lon="4.85204">
        <ele>276</ele>
        <time>2018-10-02T09:26:39Z</time>
      </trkpt>
      <trkpt lat="45.95804" lon="4.85208">
        <ele>275</ele>
        <time>2018-10-02T09:26:40Z</time>
      </trkpt>
      <trkpt lat="45.95809" lon="4.85214">
        <ele>275</ele>
        <time>2018-10-02T09:26:41Z</time>
      </trkpt>
      <trkpt lat="45.95814" lon="4.85218">
        <ele>275</ele>
        <time>2018-10-02T09:26:42Z</time>
      </trkpt>
      <trkpt lat="45.95818" lon="4.85222">
        <ele>275</ele>
        <time>2018-10-02T09:26:43Z</time>
      </trkpt>
      <trkpt lat="45.95822" lon="4.85227">
        <ele>275</ele>
        <time>2018-10-02T09:26:44Z</time>
      </trkpt>
      <trkpt lat="45.95827" lon="4.85232">
        <ele>274</ele>
        <time>2018-10-02T09:26:45Z</time>
      </trkpt>
      <trkpt lat="45.95832" lon="4.85235">
        <ele>274</ele>
        <time>2018-10-02T09:26:46Z</time>
      </trkpt>
      <trkpt lat="45.95834" lon="4.85242">
        <ele>271</ele>
        <time>2018-10-02T09:26:47Z</time>
      </trkpt>
      <trkpt lat="45.95839" lon="4.85248">
        <ele>271</ele>
        <time>2018-10-02T09:26:48Z</time>
      </trkpt>
      <trkpt lat="45.95842" lon="4.85253">
        <ele>271</ele>
        <time>2018-10-02T09:26:49Z</time>
      </trkpt>
      <trkpt lat="45.95848" lon="4.8526">
        <ele>271</ele>
        <time>2018-10-02T09:26:50Z</time>
      </trkpt>
      <trkpt lat="45.95851" lon="4.85266">
        <ele>270</ele>
        <time>2018-10-02T09:26:51Z</time>
      </trkpt>
      <trkpt lat="45.95854" lon="4.85273">
        <ele>270</ele>
        <time>2018-10-02T09:26:52Z</time>
      </trkpt>
      <trkpt lat="45.95858" lon="4.8528">
        <ele>270</ele>
        <time>2018-10-02T09:26:53Z</time>
      </trkpt>
      <trkpt lat="45.95861" lon="4.85287">
        <ele>270</ele>
        <time>2018-10-02T09:26:54Z</time>
      </trkpt>
      <trkpt lat="45.95865" lon="4.85293">
        <ele>270</ele>
        <time>2018-10-02T09:26:55Z</time>
      </trkpt>
      <trkpt lat="45.95869" lon="4.85299">
        <ele>269</ele>
        <time>2018-10-02T09:26:56Z</time>
      </trkpt>
      <trkpt lat="45.95872" lon="4.85305">
        <ele>269</ele>
        <time>2018-10-02T09:26:57Z</time>
      </trkpt>
      <trkpt lat="45.95877" lon="4.85311">
        <ele>269</ele>
        <time>2018-10-02T09:26:58Z</time>
      </trkpt>
      <trkpt lat="45.95885" lon="4.85317">
        <ele>269</ele>
        <time>2018-10-02T09:26:59Z</time>
      </trkpt>
      <trkpt lat="45.95889" lon="4.85323">
        <ele>269</ele>
        <time>2018-10-02T09:27:00Z</time>
      </trkpt>
      <trkpt lat="45.95896" lon="4.85328">
        <ele>268</ele>
        <time>2018-10-02T09:27:01Z</time>
      </trkpt>
      <trkpt lat="45.95901" lon="4.85332">
        <ele>268</ele>
        <time>2018-10-02T09:27:02Z</time>
      </trkpt>
      <trkpt lat="45.95905" lon="4.85336">
        <ele>267</ele>
        <time>2018-10-02T09:27:03Z</time>
      </trkpt>
      <trkpt lat="45.95909" lon="4.85339">
        <ele>267</ele>
        <time>2018-10-02T09:27:04Z</time>
      </trkpt>
      <trkpt lat="45.95914" lon="4.85342">
        <ele>267</ele>
        <time>2018-10-02T09:27:05Z</time>
      </trkpt>
      <trkpt lat="45.95918" lon="4.85345">
        <ele>266</ele>
        <time>2018-10-02T09:27:06Z</time>
      </trkpt>
      <trkpt lat="45.95923" lon="4.85348">
        <ele>266</ele>
        <time>2018-10-02T09:27:07Z</time>
      </trkpt>
      <trkpt lat="45.95929" lon="4.85349">
        <ele>266</ele>
        <time>2018-10-02T09:27:08Z</time>
      </trkpt>
      <trkpt lat="45.95934" lon="4.85351">
        <ele>266</ele>
        <time>2018-10-02T09:27:09Z</time>
      </trkpt>
      <trkpt lat="45.95939" lon="4.85352">
        <ele>266</ele>
        <time>2018-10-02T09:27:10Z</time>
      </trkpt>
      <trkpt lat="45.95945" lon="4.85352">
        <ele>266</ele>
        <time>2018-10-02T09:27:11Z</time>
      </trkpt>
      <trkpt lat="45.95949" lon="4.85352">
        <ele>266</ele>
        <time>2018-10-02T09:27:12Z</time>
      </trkpt>
      <trkpt lat="45.95954" lon="4.85351">
        <ele>266</ele>
        <time>2018-10-02T09:27:13Z</time>
      </trkpt>
      <trkpt lat="45.9596" lon="4.85352">
        <ele>265</ele>
        <time>2018-10-02T09:27:14Z</time>
      </trkpt>
      <trkpt lat="45.95964" lon="4.85353">
        <ele>265</ele>
        <time>2018-10-02T09:27:15Z</time>
      </trkpt>
      <trkpt lat="45.95971" lon="4.85352">
        <ele>265</ele>
        <time>2018-10-02T09:27:16Z</time>
      </trkpt>
      <trkpt lat="45.95977" lon="4.85352">
        <ele>265</ele>
        <time>2018-10-02T09:27:17Z</time>
      </trkpt>
      <trkpt lat="45.95983" lon="4.85351">
        <ele>265</ele>
        <time>2018-10-02T09:27:18Z</time>
      </trkpt>
      <trkpt lat="45.9599" lon="4.85354">
        <ele>265</ele>
        <time>2018-10-02T09:27:19Z</time>
      </trkpt>
      <trkpt lat="45.95997" lon="4.85356">
        <ele>265</ele>
        <time>2018-10-02T09:27:20Z</time>
      </trkpt>
      <trkpt lat="45.96002" lon="4.85353">
        <ele>264</ele>
        <time>2018-10-02T09:27:21Z</time>
      </trkpt>
      <trkpt lat="45.96009" lon="4.85352">
        <ele>264</ele>
        <time>2018-10-02T09:27:22Z</time>
      </trkpt>
      <trkpt lat="45.96015" lon="4.85352">
        <ele>263</ele>
        <time>2018-10-02T09:27:23Z</time>
      </trkpt>
      <trkpt lat="45.96021" lon="4.85352">
        <ele>263</ele>
        <time>2018-10-02T09:27:24Z</time>
      </trkpt>
      <trkpt lat="45.96027" lon="4.85352">
        <ele>263</ele>
        <time>2018-10-02T09:27:25Z</time>
      </trkpt>
      <trkpt lat="45.96034" lon="4.85351">
        <ele>263</ele>
        <time>2018-10-02T09:27:26Z</time>
      </trkpt>
      <trkpt lat="45.9604" lon="4.85351">
        <ele>262</ele>
        <time>2018-10-02T09:27:27Z</time>
      </trkpt>
      <trkpt lat="45.96046" lon="4.85351">
        <ele>262</ele>
        <time>2018-10-02T09:27:28Z</time>
      </trkpt>
      <trkpt lat="45.96053" lon="4.85351">
        <ele>262</ele>
        <time>2018-10-02T09:27:29Z</time>
      </trkpt>
      <trkpt lat="45.9606" lon="4.85352">
        <ele>262</ele>
        <time>2018-10-02T09:27:30Z</time>
      </trkpt>
      <trkpt lat="45.96069" lon="4.85352">
        <ele>262</ele>
        <time>2018-10-02T09:27:31Z</time>
      </trkpt>
      <trkpt lat="45.96077" lon="4.85353">
        <ele>262</ele>
        <time>2018-10-02T09:27:32Z</time>
      </trkpt>
      <trkpt lat="45.96084" lon="4.85356">
        <ele>259</ele>
        <time>2018-10-02T09:27:33Z</time>
      </trkpt>
      <trkpt lat="45.96092" lon="4.85358">
        <ele>259</ele>
        <time>2018-10-02T09:27:34Z</time>
      </trkpt>
      <trkpt lat="45.96099" lon="4.85361">
        <ele>259</ele>
        <time>2018-10-02T09:27:35Z</time>
      </trkpt>
      <trkpt lat="45.96107" lon="4.85364">
        <ele>259</ele>
        <time>2018-10-02T09:27:36Z</time>
      </trkpt>
      <trkpt lat="45.96115" lon="4.85367">
        <ele>258</ele>
        <time>2018-10-02T09:27:37Z</time>
      </trkpt>
      <trkpt lat="45.96123" lon="4.85368">
        <ele>258</ele>
        <time>2018-10-02T09:27:38Z</time>
      </trkpt>
      <trkpt lat="45.9613" lon="4.85371">
        <ele>258</ele>
        <time>2018-10-02T09:27:39Z</time>
      </trkpt>
      <trkpt lat="45.96137" lon="4.85375">
        <ele>258</ele>
        <time>2018-10-02T09:27:40Z</time>
      </trkpt>
      <trkpt lat="45.96145" lon="4.85379">
        <ele>258</ele>
        <time>2018-10-02T09:27:41Z</time>
      </trkpt>
      <trkpt lat="45.96151" lon="4.85382">
        <ele>258</ele>
        <time>2018-10-02T09:27:42Z</time>
      </trkpt>
      <trkpt lat="45.96157" lon="4.85385">
        <ele>258</ele>
        <time>2018-10-02T09:27:43Z</time>
      </trkpt>
      <trkpt lat="45.96163" lon="4.85389">
        <ele>258</ele>
        <time>2018-10-02T09:27:44Z</time>
      </trkpt>
      <trkpt lat="45.96168" lon="4.85392">
        <ele>258</ele>
        <time>2018-10-02T09:27:45Z</time>
      </trkpt>
      <trkpt lat="45.96173" lon="4.85395">
        <ele>258</ele>
        <time>2018-10-02T09:27:46Z</time>
      </trkpt>
      <trkpt lat="45.96178" lon="4.854">
        <ele>258</ele>
        <time>2018-10-02T09:27:47Z</time>
      </trkpt>
      <trkpt lat="45.96182" lon="4.85404">
        <ele>258</ele>
        <time>2018-10-02T09:27:48Z</time>
      </trkpt>
      <trkpt lat="45.96186" lon="4.85406">
        <ele>258</ele>
        <time>2018-10-02T09:27:49Z</time>
      </trkpt>
      <trkpt lat="45.96193" lon="4.85412">
        <ele>258</ele>
        <time>2018-10-02T09:27:51Z</time>
      </trkpt>
      <trkpt lat="45.96197" lon="4.85414">
        <ele>258</ele>
        <time>2018-10-02T09:27:52Z</time>
      </trkpt>
      <trkpt lat="45.96202" lon="4.85421">
        <ele>260</ele>
        <time>2018-10-02T09:27:55Z</time>
      </trkpt>
      <trkpt lat="45.96204" lon="4.85422">
        <ele>260</ele>
        <time>2018-10-02T09:27:56Z</time>
      </trkpt>
      <trkpt lat="45.9621" lon="4.85429">
        <ele>261</ele>
        <time>2018-10-02T09:27:59Z</time>
      </trkpt>
      <trkpt lat="45.96212" lon="4.85431">
        <ele>261</ele>
        <time>2018-10-02T09:28:00Z</time>
      </trkpt>
      <trkpt lat="45.9622" lon="4.85437">
        <ele>261</ele>
        <time>2018-10-02T09:28:03Z</time>
      </trkpt>
      <trkpt lat="45.96223" lon="4.85439">
        <ele>261</ele>
        <time>2018-10-02T09:28:04Z</time>
      </trkpt>
      <trkpt lat="45.96228" lon="4.85442">
        <ele>261</ele>
        <time>2018-10-02T09:28:06Z</time>
      </trkpt>
      <trkpt lat="45.96231" lon="4.85443">
        <ele>261</ele>
        <time>2018-10-02T09:28:07Z</time>
      </trkpt>
      <trkpt lat="45.96237" lon="4.85445">
        <ele>261</ele>
        <time>2018-10-02T09:28:09Z</time>
      </trkpt>
      <trkpt lat="45.9624" lon="4.85446">
        <ele>261</ele>
        <time>2018-10-02T09:28:10Z</time>
      </trkpt>
      <trkpt lat="45.96249" lon="4.85449">
        <ele>261</ele>
        <time>2018-10-02T09:28:13Z</time>
      </trkpt>
      <trkpt lat="45.96252" lon="4.8545">
        <ele>264</ele>
        <time>2018-10-02T09:28:14Z</time>
      </trkpt>
      <trkpt lat="45.9626" lon="4.85453">
        <ele>264</ele>
        <time>2018-10-02T09:28:17Z</time>
      </trkpt>
      <trkpt lat="45.96263" lon="4.85455">
        <ele>264</ele>
        <time>2018-10-02T09:28:18Z</time>
      </trkpt>
      <trkpt lat="45.96269" lon="4.85457">
        <ele>264</ele>
        <time>2018-10-02T09:28:20Z</time>
      </trkpt>
      <trkpt lat="45.96272" lon="4.85458">
        <ele>264</ele>
        <time>2018-10-02T09:28:21Z</time>
      </trkpt>
      <trkpt lat="45.96281" lon="4.8546">
        <ele>265</ele>
        <time>2018-10-02T09:28:24Z</time>
      </trkpt>
      <trkpt lat="45.96284" lon="4.85461">
        <ele>265</ele>
        <time>2018-10-02T09:28:25Z</time>
      </trkpt>
      <trkpt lat="45.9629" lon="4.85461">
        <ele>265</ele>
        <time>2018-10-02T09:28:27Z</time>
      </trkpt>
      <trkpt lat="45.96293" lon="4.85461">
        <ele>265</ele>
        <time>2018-10-02T09:28:28Z</time>
      </trkpt>
      <trkpt lat="45.963" lon="4.85463">
        <ele>265</ele>
        <time>2018-10-02T09:28:30Z</time>
      </trkpt>
      <trkpt lat="45.96303" lon="4.85464">
        <ele>265</ele>
        <time>2018-10-02T09:28:31Z</time>
      </trkpt>
      <trkpt lat="45.96309" lon="4.85464">
        <ele>265</ele>
        <time>2018-10-02T09:28:33Z</time>
      </trkpt>
      <trkpt lat="45.96312" lon="4.85465">
        <ele>265</ele>
        <time>2018-10-02T09:28:34Z</time>
      </trkpt>
      <trkpt lat="45.96321" lon="4.85465">
        <ele>265</ele>
        <time>2018-10-02T09:28:37Z</time>
      </trkpt>
      <trkpt lat="45.9633" lon="4.85467">
        <ele>266</ele>
        <time>2018-10-02T09:28:38Z</time>
      </trkpt>
      <trkpt lat="45.96339" lon="4.85469">
        <ele>268</ele>
        <time>2018-10-02T09:28:42Z</time>
      </trkpt>
      <trkpt lat="45.96341" lon="4.8547">
        <ele>268</ele>
        <time>2018-10-02T09:28:43Z</time>
      </trkpt>
      <trkpt lat="45.96349" lon="4.8547">
        <ele>268</ele>
        <time>2018-10-02T09:28:46Z</time>
      </trkpt>
      <trkpt lat="45.96352" lon="4.85471">
        <ele>268</ele>
        <time>2018-10-02T09:28:47Z</time>
      </trkpt>
      <trkpt lat="45.96359" lon="4.85471">
        <ele>268</ele>
        <time>2018-10-02T09:28:50Z</time>
      </trkpt>
      <trkpt lat="45.96362" lon="4.85471">
        <ele>268</ele>
        <time>2018-10-02T09:28:51Z</time>
      </trkpt>
      <trkpt lat="45.96369" lon="4.85471">
        <ele>268</ele>
        <time>2018-10-02T09:28:54Z</time>
      </trkpt>
      <trkpt lat="45.96372" lon="4.85472">
        <ele>268</ele>
        <time>2018-10-02T09:28:55Z</time>
      </trkpt>
      <trkpt lat="45.96378" lon="4.85472">
        <ele>268</ele>
        <time>2018-10-02T09:28:57Z</time>
      </trkpt>
      <trkpt lat="45.96382" lon="4.85472">
        <ele>268</ele>
        <time>2018-10-02T09:28:58Z</time>
      </trkpt>
      <trkpt lat="45.96388" lon="4.85473">
        <ele>269</ele>
        <time>2018-10-02T09:29:00Z</time>
      </trkpt>
      <trkpt lat="45.96391" lon="4.85473">
        <ele>269</ele>
        <time>2018-10-02T09:29:01Z</time>
      </trkpt>
      <trkpt lat="45.964" lon="4.85475">
        <ele>269</ele>
        <time>2018-10-02T09:29:04Z</time>
      </trkpt>
      <trkpt lat="45.96403" lon="4.85476">
        <ele>269</ele>
        <time>2018-10-02T09:29:05Z</time>
      </trkpt>
      <trkpt lat="45.96411" lon="4.85478">
        <ele>269</ele>
        <time>2018-10-02T09:29:08Z</time>
      </trkpt>
      <trkpt lat="45.96414" lon="4.85478">
        <ele>269</ele>
        <time>2018-10-02T09:29:09Z</time>
      </trkpt>
      <trkpt lat="45.96423" lon="4.85479">
        <ele>271</ele>
        <time>2018-10-02T09:29:12Z</time>
      </trkpt>
      <trkpt lat="45.96426" lon="4.85479">
        <ele>271</ele>
        <time>2018-10-02T09:29:13Z</time>
      </trkpt>
      <trkpt lat="45.96432" lon="4.85481">
        <ele>271</ele>
        <time>2018-10-02T09:29:15Z</time>
      </trkpt>
      <trkpt lat="45.96436" lon="4.85481">
        <ele>271</ele>
        <time>2018-10-02T09:29:16Z</time>
      </trkpt>
      <trkpt lat="45.96442" lon="4.85483">
        <ele>271</ele>
        <time>2018-10-02T09:29:18Z</time>
      </trkpt>
      <trkpt lat="45.96445" lon="4.85483">
        <ele>272</ele>
        <time>2018-10-02T09:29:19Z</time>
      </trkpt>
      <trkpt lat="45.96453" lon="4.85482">
        <ele>272</ele>
        <time>2018-10-02T09:29:22Z</time>
      </trkpt>
      <trkpt lat="45.96456" lon="4.85482">
        <ele>272</ele>
        <time>2018-10-02T09:29:23Z</time>
      </trkpt>
      <trkpt lat="45.96463" lon="4.85482">
        <ele>272</ele>
        <time>2018-10-02T09:29:26Z</time>
      </trkpt>
      <trkpt lat="45.96465" lon="4.85482">
        <ele>272</ele>
        <time>2018-10-02T09:29:27Z</time>
      </trkpt>
      <trkpt lat="45.96471" lon="4.85483">
        <ele>272</ele>
        <time>2018-10-02T09:29:30Z</time>
      </trkpt>
      <trkpt lat="45.96474" lon="4.85483">
        <ele>272</ele>
        <time>2018-10-02T09:29:31Z</time>
      </trkpt>
      <trkpt lat="45.96482" lon="4.85483">
        <ele>273</ele>
        <time>2018-10-02T09:29:34Z</time>
      </trkpt>
      <trkpt lat="45.96485" lon="4.85482">
        <ele>273</ele>
        <time>2018-10-02T09:29:35Z</time>
      </trkpt>
      <trkpt lat="45.96491" lon="4.85481">
        <ele>273</ele>
        <time>2018-10-02T09:29:37Z</time>
      </trkpt>
      <trkpt lat="45.96494" lon="4.85481">
        <ele>273</ele>
        <time>2018-10-02T09:29:38Z</time>
      </trkpt>
      <trkpt lat="45.96503" lon="4.85479">
        <ele>275</ele>
        <time>2018-10-02T09:29:41Z</time>
      </trkpt>
      <trkpt lat="45.96505" lon="4.85478">
        <ele>275</ele>
        <time>2018-10-02T09:29:42Z</time>
      </trkpt>
      <trkpt lat="45.96514" lon="4.85476">
        <ele>275</ele>
        <time>2018-10-02T09:29:45Z</time>
      </trkpt>
      <trkpt lat="45.96516" lon="4.85475">
        <ele>275</ele>
        <time>2018-10-02T09:29:46Z</time>
      </trkpt>
      <trkpt lat="45.96523" lon="4.85473">
        <ele>275</ele>
        <time>2018-10-02T09:29:49Z</time>
      </trkpt>
      <trkpt lat="45.96526" lon="4.85473">
        <ele>275</ele>
        <time>2018-10-02T09:29:50Z</time>
      </trkpt>
      <trkpt lat="45.96532" lon="4.85471">
        <ele>275</ele>
        <time>2018-10-02T09:29:53Z</time>
      </trkpt>
      <trkpt lat="45.96535" lon="4.8547">
        <ele>275</ele>
        <time>2018-10-02T09:29:54Z</time>
      </trkpt>
      <trkpt lat="45.96544" lon="4.85468">
        <ele>275</ele>
        <time>2018-10-02T09:29:57Z</time>
      </trkpt>
      <trkpt lat="45.96546" lon="4.85467">
        <ele>275</ele>
        <time>2018-10-02T09:29:58Z</time>
      </trkpt>
      <trkpt lat="45.96555" lon="4.85465">
        <ele>275</ele>
        <time>2018-10-02T09:30:01Z</time>
      </trkpt>
      <trkpt lat="45.96558" lon="4.85463">
        <ele>275</ele>
        <time>2018-10-02T09:30:02Z</time>
      </trkpt>
      <trkpt lat="45.96565" lon="4.8546">
        <ele>275</ele>
        <time>2018-10-02T09:30:05Z</time>
      </trkpt>
      <trkpt lat="45.96568" lon="4.8546">
        <ele>275</ele>
        <time>2018-10-02T09:30:06Z</time>
      </trkpt>
      <trkpt lat="45.96576" lon="4.85458">
        <ele>275</ele>
        <time>2018-10-02T09:30:10Z</time>
      </trkpt>
      <trkpt lat="45.96578" lon="4.85458">
        <ele>275</ele>
        <time>2018-10-02T09:30:11Z</time>
      </trkpt>
      <trkpt lat="45.96586" lon="4.85457">
        <ele>276</ele>
        <time>2018-10-02T09:30:14Z</time>
      </trkpt>
      <trkpt lat="45.96589" lon="4.85456">
        <ele>276</ele>
        <time>2018-10-02T09:30:15Z</time>
      </trkpt>
      <trkpt lat="45.96597" lon="4.85454">
        <ele>276</ele>
        <time>2018-10-02T09:30:18Z</time>
      </trkpt>
      <trkpt lat="45.966" lon="4.85453">
        <ele>276</ele>
        <time>2018-10-02T09:30:19Z</time>
      </trkpt>
      <trkpt lat="45.96605" lon="4.8545">
        <ele>276</ele>
        <time>2018-10-02T09:30:21Z</time>
      </trkpt>
      <trkpt lat="45.96608" lon="4.85449">
        <ele>276</ele>
        <time>2018-10-02T09:30:22Z</time>
      </trkpt>
      <trkpt lat="45.96616" lon="4.85446">
        <ele>276</ele>
        <time>2018-10-02T09:30:25Z</time>
      </trkpt>
      <trkpt lat="45.96619" lon="4.85446">
        <ele>276</ele>
        <time>2018-10-02T09:30:26Z</time>
      </trkpt>
      <trkpt lat="45.96627" lon="4.85443">
        <ele>276</ele>
        <time>2018-10-02T09:30:29Z</time>
      </trkpt>
      <trkpt lat="45.9663" lon="4.85442">
        <ele>276</ele>
        <time>2018-10-02T09:30:30Z</time>
      </trkpt>
      <trkpt lat="45.96636" lon="4.8544">
        <ele>276</ele>
        <time>2018-10-02T09:30:32Z</time>
      </trkpt>
      <trkpt lat="45.96639" lon="4.8544">
        <ele>276</ele>
        <time>2018-10-02T09:30:33Z</time>
      </trkpt>
      <trkpt lat="45.96645" lon="4.85438">
        <ele>276</ele>
        <time>2018-10-02T09:30:35Z</time>
      </trkpt>
      <trkpt lat="45.96648" lon="4.85437">
        <ele>276</ele>
        <time>2018-10-02T09:30:36Z</time>
      </trkpt>
      <trkpt lat="45.96654" lon="4.85435">
        <ele>276</ele>
        <time>2018-10-02T09:30:38Z</time>
      </trkpt>
      <trkpt lat="45.96657" lon="4.85435">
        <ele>276</ele>
        <time>2018-10-02T09:30:39Z</time>
      </trkpt>
      <trkpt lat="45.96663" lon="4.85433">
        <ele>276</ele>
        <time>2018-10-02T09:30:41Z</time>
      </trkpt>
      <trkpt lat="45.96666" lon="4.85432">
        <ele>276</ele>
        <time>2018-10-02T09:30:42Z</time>
      </trkpt>
      <trkpt lat="45.96676" lon="4.85429">
        <ele>276</ele>
        <time>2018-10-02T09:30:43Z</time>
      </trkpt>
      <trkpt lat="45.96685" lon="4.85427">
        <ele>276</ele>
        <time>2018-10-02T09:30:47Z</time>
      </trkpt>
      <trkpt lat="45.96688" lon="4.85427">
        <ele>276</ele>
        <time>2018-10-02T09:30:48Z</time>
      </trkpt>
      <trkpt lat="45.96691" lon="4.85426">
        <ele>276</ele>
        <time>2018-10-02T09:30:49Z</time>
      </trkpt>
      <trkpt lat="45.967" lon="4.85423">
        <ele>276</ele>
        <time>2018-10-02T09:30:50Z</time>
      </trkpt>
      <trkpt lat="45.96706" lon="4.8542">
        <ele>276</ele>
        <time>2018-10-02T09:30:53Z</time>
      </trkpt>
      <trkpt lat="45.96708" lon="4.85418">
        <ele>276</ele>
        <time>2018-10-02T09:30:54Z</time>
      </trkpt>
      <trkpt lat="45.96716" lon="4.85413">
        <ele>276</ele>
        <time>2018-10-02T09:30:57Z</time>
      </trkpt>
      <trkpt lat="45.96719" lon="4.85411">
        <ele>276</ele>
        <time>2018-10-02T09:30:58Z</time>
      </trkpt>
      <trkpt lat="45.96726" lon="4.85406">
        <ele>277</ele>
        <time>2018-10-02T09:31:01Z</time>
      </trkpt>
      <trkpt lat="45.96729" lon="4.85404">
        <ele>277</ele>
        <time>2018-10-02T09:31:02Z</time>
      </trkpt>
      <trkpt lat="45.96736" lon="4.85397">
        <ele>277</ele>
        <time>2018-10-02T09:31:05Z</time>
      </trkpt>
      <trkpt lat="45.96739" lon="4.85395">
        <ele>277</ele>
        <time>2018-10-02T09:31:06Z</time>
      </trkpt>
      <trkpt lat="45.96746" lon="4.85389">
        <ele>277</ele>
        <time>2018-10-02T09:31:09Z</time>
      </trkpt>
      <trkpt lat="45.96749" lon="4.85387">
        <ele>277</ele>
        <time>2018-10-02T09:31:10Z</time>
      </trkpt>
      <trkpt lat="45.96755" lon="4.85383">
        <ele>278</ele>
        <time>2018-10-02T09:31:12Z</time>
      </trkpt>
      <trkpt lat="45.96757" lon="4.85381">
        <ele>278</ele>
        <time>2018-10-02T09:31:13Z</time>
      </trkpt>
      <trkpt lat="45.96765" lon="4.85375">
        <ele>278</ele>
        <time>2018-10-02T09:31:16Z</time>
      </trkpt>
      <trkpt lat="45.96767" lon="4.85373">
        <ele>278</ele>
        <time>2018-10-02T09:31:17Z</time>
      </trkpt>
      <trkpt lat="45.96775" lon="4.85368">
        <ele>278</ele>
        <time>2018-10-02T09:31:20Z</time>
      </trkpt>
      <trkpt lat="45.96777" lon="4.85366">
        <ele>278</ele>
        <time>2018-10-02T09:31:21Z</time>
      </trkpt>
      <trkpt lat="45.96784" lon="4.85359">
        <ele>278</ele>
        <time>2018-10-02T09:31:24Z</time>
      </trkpt>
      <trkpt lat="45.96786" lon="4.85357">
        <ele>278</ele>
        <time>2018-10-02T09:31:25Z</time>
      </trkpt>
      <trkpt lat="45.96791" lon="4.85352">
        <ele>278</ele>
        <time>2018-10-02T09:31:28Z</time>
      </trkpt>
      <trkpt lat="45.96794" lon="4.8535">
        <ele>279</ele>
        <time>2018-10-02T09:31:29Z</time>
      </trkpt>
      <trkpt lat="45.96801" lon="4.85345">
        <ele>279</ele>
        <time>2018-10-02T09:31:32Z</time>
      </trkpt>
      <trkpt lat="45.96803" lon="4.85343">
        <ele>279</ele>
        <time>2018-10-02T09:31:33Z</time>
      </trkpt>
      <trkpt lat="45.96812" lon="4.85339">
        <ele>279</ele>
        <time>2018-10-02T09:31:36Z</time>
      </trkpt>
      <trkpt lat="45.96815" lon="4.85337">
        <ele>279</ele>
        <time>2018-10-02T09:31:37Z</time>
      </trkpt>
      <trkpt lat="45.96821" lon="4.85334">
        <ele>279</ele>
        <time>2018-10-02T09:31:39Z</time>
      </trkpt>
      <trkpt lat="45.96824" lon="4.85332">
        <ele>279</ele>
        <time>2018-10-02T09:31:40Z</time>
      </trkpt>
      <trkpt lat="45.9683" lon="4.85329">
        <ele>280</ele>
        <time>2018-10-02T09:31:42Z</time>
      </trkpt>
      <trkpt lat="45.96834" lon="4.85328">
        <ele>281</ele>
        <time>2018-10-02T09:31:43Z</time>
      </trkpt>
      <trkpt lat="45.96842" lon="4.85326">
        <ele>281</ele>
        <time>2018-10-02T09:31:46Z</time>
      </trkpt>
      <trkpt lat="45.96845" lon="4.85325">
        <ele>281</ele>
        <time>2018-10-02T09:31:47Z</time>
      </trkpt>
      <trkpt lat="45.96853" lon="4.85323">
        <ele>282</ele>
        <time>2018-10-02T09:31:50Z</time>
      </trkpt>
      <trkpt lat="45.96856" lon="4.85322">
        <ele>282</ele>
        <time>2018-10-02T09:31:51Z</time>
      </trkpt>
      <trkpt lat="45.96865" lon="4.8532">
        <ele>282</ele>
        <time>2018-10-02T09:31:54Z</time>
      </trkpt>
      <trkpt lat="45.96868" lon="4.85319">
        <ele>282</ele>
        <time>2018-10-02T09:31:55Z</time>
      </trkpt>
      <trkpt lat="45.96874" lon="4.85318">
        <ele>283</ele>
        <time>2018-10-02T09:31:57Z</time>
      </trkpt>
      <trkpt lat="45.96877" lon="4.85317">
        <ele>283</ele>
        <time>2018-10-02T09:31:58Z</time>
      </trkpt>
      <trkpt lat="45.96885" lon="4.85314">
        <ele>283</ele>
        <time>2018-10-02T09:32:01Z</time>
      </trkpt>
      <trkpt lat="45.96888" lon="4.85313">
        <ele>283</ele>
        <time>2018-10-02T09:32:02Z</time>
      </trkpt>
      <trkpt lat="45.96896" lon="4.85311">
        <ele>283</ele>
        <time>2018-10-02T09:32:05Z</time>
      </trkpt>
      <trkpt lat="45.96899" lon="4.8531">
        <ele>284</ele>
        <time>2018-10-02T09:32:06Z</time>
      </trkpt>
      <trkpt lat="45.96905" lon="4.85308">
        <ele>284</ele>
        <time>2018-10-02T09:32:09Z</time>
      </trkpt>
      <trkpt lat="45.96908" lon="4.85308">
        <ele>284</ele>
        <time>2018-10-02T09:32:10Z</time>
      </trkpt>
      <trkpt lat="45.96914" lon="4.85307">
        <ele>284</ele>
        <time>2018-10-02T09:32:13Z</time>
      </trkpt>
      <trkpt lat="45.96917" lon="4.85307">
        <ele>284</ele>
        <time>2018-10-02T09:32:14Z</time>
      </trkpt>
      <trkpt lat="45.96924" lon="4.85304">
        <ele>284</ele>
        <time>2018-10-02T09:32:18Z</time>
      </trkpt>
      <trkpt lat="45.96926" lon="4.85304">
        <ele>284</ele>
        <time>2018-10-02T09:32:19Z</time>
      </trkpt>
      <trkpt lat="45.96933" lon="4.85301">
        <ele>284</ele>
        <time>2018-10-02T09:32:22Z</time>
      </trkpt>
      <trkpt lat="45.96935" lon="4.853">
        <ele>284</ele>
        <time>2018-10-02T09:32:23Z</time>
      </trkpt>
      <trkpt lat="45.96942" lon="4.85299">
        <ele>284</ele>
        <time>2018-10-02T09:32:26Z</time>
      </trkpt>
      <trkpt lat="45.96945" lon="4.85298">
        <ele>284</ele>
        <time>2018-10-02T09:32:27Z</time>
      </trkpt>
      <trkpt lat="45.96954" lon="4.85297">
        <ele>284</ele>
        <time>2018-10-02T09:32:30Z</time>
      </trkpt>
      <trkpt lat="45.96957" lon="4.85297">
        <ele>284</ele>
        <time>2018-10-02T09:32:31Z</time>
      </trkpt>
      <trkpt lat="45.96963" lon="4.85297">
        <ele>284</ele>
        <time>2018-10-02T09:32:33Z</time>
      </trkpt>
      <trkpt lat="45.96972" lon="4.85296">
        <ele>284</ele>
        <time>2018-10-02T09:32:34Z</time>
      </trkpt>
      <trkpt lat="45.96979" lon="4.85296">
        <ele>284</ele>
        <time>2018-10-02T09:32:36Z</time>
      </trkpt>
      <trkpt lat="45.96983" lon="4.85295">
        <ele>284</ele>
        <time>2018-10-02T09:32:37Z</time>
      </trkpt>
      <trkpt lat="45.96991" lon="4.85294">
        <ele>283</ele>
        <time>2018-10-02T09:32:39Z</time>
      </trkpt>
      <trkpt lat="45.96995" lon="4.85294">
        <ele>283</ele>
        <time>2018-10-02T09:32:40Z</time>
      </trkpt>
      <trkpt lat="45.97004" lon="4.85293">
        <ele>282</ele>
        <time>2018-10-02T09:32:42Z</time>
      </trkpt>
      <trkpt lat="45.97008" lon="4.85292">
        <ele>282</ele>
        <time>2018-10-02T09:32:43Z</time>
      </trkpt>
      <trkpt lat="45.97016" lon="4.85291">
        <ele>282</ele>
        <time>2018-10-02T09:32:45Z</time>
      </trkpt>
      <trkpt lat="45.97021" lon="4.85291">
        <ele>282</ele>
        <time>2018-10-02T09:32:46Z</time>
      </trkpt>
      <trkpt lat="45.9703" lon="4.85291">
        <ele>282</ele>
        <time>2018-10-02T09:32:48Z</time>
      </trkpt>
      <trkpt lat="45.97035" lon="4.8529">
        <ele>282</ele>
        <time>2018-10-02T09:32:49Z</time>
      </trkpt>
      <trkpt lat="45.97039" lon="4.85289">
        <ele>282</ele>
        <time>2018-10-02T09:32:50Z</time>
      </trkpt>
      <trkpt lat="45.97044" lon="4.85288">
        <ele>282</ele>
        <time>2018-10-02T09:32:51Z</time>
      </trkpt>
      <trkpt lat="45.97049" lon="4.85287">
        <ele>282</ele>
        <time>2018-10-02T09:32:52Z</time>
      </trkpt>
      <trkpt lat="45.97054" lon="4.85286">
        <ele>282</ele>
        <time>2018-10-02T09:32:53Z</time>
      </trkpt>
      <trkpt lat="45.97059" lon="4.85286">
        <ele>282</ele>
        <time>2018-10-02T09:32:54Z</time>
      </trkpt>
      <trkpt lat="45.97064" lon="4.85286">
        <ele>282</ele>
        <time>2018-10-02T09:32:55Z</time>
      </trkpt>
      <trkpt lat="45.97068" lon="4.85285">
        <ele>282</ele>
        <time>2018-10-02T09:32:56Z</time>
      </trkpt>
      <trkpt lat="45.97073" lon="4.85284">
        <ele>282</ele>
        <time>2018-10-02T09:32:57Z</time>
      </trkpt>
      <trkpt lat="45.97078" lon="4.85284">
        <ele>281</ele>
        <time>2018-10-02T09:32:58Z</time>
      </trkpt>
      <trkpt lat="45.97083" lon="4.85282">
        <ele>281</ele>
        <time>2018-10-02T09:32:59Z</time>
      </trkpt>
      <trkpt lat="45.97088" lon="4.85281">
        <ele>280</ele>
        <time>2018-10-02T09:33:00Z</time>
      </trkpt>
      <trkpt lat="45.97093" lon="4.85281">
        <ele>280</ele>
        <time>2018-10-02T09:33:01Z</time>
      </trkpt>
      <trkpt lat="45.97098" lon="4.85281">
        <ele>280</ele>
        <time>2018-10-02T09:33:02Z</time>
      </trkpt>
      <trkpt lat="45.97104" lon="4.8528">
        <ele>280</ele>
        <time>2018-10-02T09:33:03Z</time>
      </trkpt>
      <trkpt lat="45.97108" lon="4.85279">
        <ele>280</ele>
        <time>2018-10-02T09:33:04Z</time>
      </trkpt>
      <trkpt lat="45.97114" lon="4.8528">
        <ele>280</ele>
        <time>2018-10-02T09:33:05Z</time>
      </trkpt>
      <trkpt lat="45.97118" lon="4.8528">
        <ele>280</ele>
        <time>2018-10-02T09:33:06Z</time>
      </trkpt>
      <trkpt lat="45.97123" lon="4.8528">
        <ele>280</ele>
        <time>2018-10-02T09:33:07Z</time>
      </trkpt>
      <trkpt lat="45.97131" lon="4.85281">
        <ele>279</ele>
        <time>2018-10-02T09:33:09Z</time>
      </trkpt>
      <trkpt lat="45.97135" lon="4.8528">
        <ele>279</ele>
        <time>2018-10-02T09:33:10Z</time>
      </trkpt>
      <trkpt lat="45.97143" lon="4.85281">
        <ele>279</ele>
        <time>2018-10-02T09:33:12Z</time>
      </trkpt>
      <trkpt lat="45.97148" lon="4.85281">
        <ele>279</ele>
        <time>2018-10-02T09:33:13Z</time>
      </trkpt>
      <trkpt lat="45.97157" lon="4.85281">
        <ele>279</ele>
        <time>2018-10-02T09:33:15Z</time>
      </trkpt>
      <trkpt lat="45.97161" lon="4.85281">
        <ele>279</ele>
        <time>2018-10-02T09:33:16Z</time>
      </trkpt>
      <trkpt lat="45.97165" lon="4.85279">
        <ele>279</ele>
        <time>2018-10-02T09:33:17Z</time>
      </trkpt>
      <trkpt lat="45.9717" lon="4.85279">
        <ele>279</ele>
        <time>2018-10-02T09:33:18Z</time>
      </trkpt>
      <trkpt lat="45.97177" lon="4.85279">
        <ele>279</ele>
        <time>2018-10-02T09:33:20Z</time>
      </trkpt>
      <trkpt lat="45.97182" lon="4.85278">
        <ele>279</ele>
        <time>2018-10-02T09:33:21Z</time>
      </trkpt>
      <trkpt lat="45.97187" lon="4.85279">
        <ele>279</ele>
        <time>2018-10-02T09:33:22Z</time>
      </trkpt>
      <trkpt lat="45.97192" lon="4.85278">
        <ele>279</ele>
        <time>2018-10-02T09:33:23Z</time>
      </trkpt>
      <trkpt lat="45.97196" lon="4.85278">
        <ele>279</ele>
        <time>2018-10-02T09:33:24Z</time>
      </trkpt>
      <trkpt lat="45.97201" lon="4.85279">
        <ele>279</ele>
        <time>2018-10-02T09:33:25Z</time>
      </trkpt>
      <trkpt lat="45.97206" lon="4.85278">
        <ele>279</ele>
        <time>2018-10-02T09:33:26Z</time>
      </trkpt>
      <trkpt lat="45.97211" lon="4.85278">
        <ele>279</ele>
        <time>2018-10-02T09:33:27Z</time>
      </trkpt>
      <trkpt lat="45.97216" lon="4.85277">
        <ele>279</ele>
        <time>2018-10-02T09:33:28Z</time>
      </trkpt>
      <trkpt lat="45.9722" lon="4.85276">
        <ele>279</ele>
        <time>2018-10-02T09:33:29Z</time>
      </trkpt>
      <trkpt lat="45.97228" lon="4.85275">
        <ele>279</ele>
        <time>2018-10-02T09:33:31Z</time>
      </trkpt>
      <trkpt lat="45.97233" lon="4.85275">
        <ele>279</ele>
        <time>2018-10-02T09:33:32Z</time>
      </trkpt>
      <trkpt lat="45.97242" lon="4.85275">
        <ele>279</ele>
        <time>2018-10-02T09:33:34Z</time>
      </trkpt>
      <trkpt lat="45.97247" lon="4.85275">
        <ele>279</ele>
        <time>2018-10-02T09:33:35Z</time>
      </trkpt>
      <trkpt lat="45.97252" lon="4.85274">
        <ele>281</ele>
        <time>2018-10-02T09:33:36Z</time>
      </trkpt>
      <trkpt lat="45.97257" lon="4.85274">
        <ele>281</ele>
        <time>2018-10-02T09:33:37Z</time>
      </trkpt>
      <trkpt lat="45.97262" lon="4.85274">
        <ele>281</ele>
        <time>2018-10-02T09:33:38Z</time>
      </trkpt>
      <trkpt lat="45.97267" lon="4.85273">
        <ele>281</ele>
        <time>2018-10-02T09:33:39Z</time>
      </trkpt>
      <trkpt lat="45.97271" lon="4.85273">
        <ele>281</ele>
        <time>2018-10-02T09:33:40Z</time>
      </trkpt>
      <trkpt lat="45.97277" lon="4.85274">
        <ele>281</ele>
        <time>2018-10-02T09:33:41Z</time>
      </trkpt>
      <trkpt lat="45.97281" lon="4.85274">
        <ele>281</ele>
        <time>2018-10-02T09:33:42Z</time>
      </trkpt>
      <trkpt lat="45.97286" lon="4.85274">
        <ele>281</ele>
        <time>2018-10-02T09:33:43Z</time>
      </trkpt>
      <trkpt lat="45.97294" lon="4.85274">
        <ele>282</ele>
        <time>2018-10-02T09:33:45Z</time>
      </trkpt>
      <trkpt lat="45.97298" lon="4.85274">
        <ele>282</ele>
        <time>2018-10-02T09:33:46Z</time>
      </trkpt>
      <trkpt lat="45.97307" lon="4.85272">
        <ele>282</ele>
        <time>2018-10-02T09:33:48Z</time>
      </trkpt>
      <trkpt lat="45.97308" lon="4.85273">
        <ele>282</ele>
        <time>2018-10-02T09:33:49Z</time>
      </trkpt>
      <trkpt lat="45.97313" lon="4.85273">
        <ele>282</ele>
        <time>2018-10-02T09:33:50Z</time>
      </trkpt>
      <trkpt lat="45.97317" lon="4.85274">
        <ele>282</ele>
        <time>2018-10-02T09:33:51Z</time>
      </trkpt>
      <trkpt lat="45.97326" lon="4.85273">
        <ele>282</ele>
        <time>2018-10-02T09:33:53Z</time>
      </trkpt>
      <trkpt lat="45.9733" lon="4.85273">
        <ele>282</ele>
        <time>2018-10-02T09:33:54Z</time>
      </trkpt>
      <trkpt lat="45.97338" lon="4.85271">
        <ele>284</ele>
        <time>2018-10-02T09:33:56Z</time>
      </trkpt>
      <trkpt lat="45.97342" lon="4.85272">
        <ele>284</ele>
        <time>2018-10-02T09:33:57Z</time>
      </trkpt>
      <trkpt lat="45.9735" lon="4.85273">
        <ele>284</ele>
        <time>2018-10-02T09:33:59Z</time>
      </trkpt>
      <trkpt lat="45.97355" lon="4.85274">
        <ele>284</ele>
        <time>2018-10-02T09:34:00Z</time>
      </trkpt>
      <trkpt lat="45.97359" lon="4.85273">
        <ele>285</ele>
        <time>2018-10-02T09:34:01Z</time>
      </trkpt>
      <trkpt lat="45.97364" lon="4.85273">
        <ele>285</ele>
        <time>2018-10-02T09:34:02Z</time>
      </trkpt>
      <trkpt lat="45.97368" lon="4.85274">
        <ele>285</ele>
        <time>2018-10-02T09:34:03Z</time>
      </trkpt>
      <trkpt lat="45.97374" lon="4.85273">
        <ele>285</ele>
        <time>2018-10-02T09:34:04Z</time>
      </trkpt>
      <trkpt lat="45.97378" lon="4.85272">
        <ele>285</ele>
        <time>2018-10-02T09:34:05Z</time>
      </trkpt>
      <trkpt lat="45.97383" lon="4.85271">
        <ele>285</ele>
        <time>2018-10-02T09:34:06Z</time>
      </trkpt>
      <trkpt lat="45.97391" lon="4.85272">
        <ele>286</ele>
        <time>2018-10-02T09:34:08Z</time>
      </trkpt>
      <trkpt lat="45.97396" lon="4.85272">
        <ele>286</ele>
        <time>2018-10-02T09:34:09Z</time>
      </trkpt>
      <trkpt lat="45.97401" lon="4.85272">
        <ele>286</ele>
        <time>2018-10-02T09:34:10Z</time>
      </trkpt>
      <trkpt lat="45.97406" lon="4.85273">
        <ele>286</ele>
        <time>2018-10-02T09:34:11Z</time>
      </trkpt>
      <trkpt lat="45.9741" lon="4.85272">
        <ele>286</ele>
        <time>2018-10-02T09:34:12Z</time>
      </trkpt>
      <trkpt lat="45.97415" lon="4.85272">
        <ele>286</ele>
        <time>2018-10-02T09:34:13Z</time>
      </trkpt>
      <trkpt lat="45.9742" lon="4.85272">
        <ele>285</ele>
        <time>2018-10-02T09:34:14Z</time>
      </trkpt>
      <trkpt lat="45.97425" lon="4.85272">
        <ele>285</ele>
        <time>2018-10-02T09:34:15Z</time>
      </trkpt>
      <trkpt lat="45.9743" lon="4.85272">
        <ele>285</ele>
        <time>2018-10-02T09:34:16Z</time>
      </trkpt>
      <trkpt lat="45.97435" lon="4.85276">
        <ele>285</ele>
        <time>2018-10-02T09:34:17Z</time>
      </trkpt>
      <trkpt lat="45.9744" lon="4.85276">
        <ele>285</ele>
        <time>2018-10-02T09:34:18Z</time>
      </trkpt>
      <trkpt lat="45.97445" lon="4.85276">
        <ele>285</ele>
        <time>2018-10-02T09:34:19Z</time>
      </trkpt>
      <trkpt lat="45.9745" lon="4.85276">
        <ele>285</ele>
        <time>2018-10-02T09:34:20Z</time>
      </trkpt>
      <trkpt lat="45.97455" lon="4.85277">
        <ele>284</ele>
        <time>2018-10-02T09:34:21Z</time>
      </trkpt>
      <trkpt lat="45.9746" lon="4.85275">
        <ele>284</ele>
        <time>2018-10-02T09:34:22Z</time>
      </trkpt>
      <trkpt lat="45.97465" lon="4.85276">
        <ele>284</ele>
        <time>2018-10-02T09:34:23Z</time>
      </trkpt>
      <trkpt lat="45.97471" lon="4.85276">
        <ele>284</ele>
        <time>2018-10-02T09:34:24Z</time>
      </trkpt>
      <trkpt lat="45.97476" lon="4.85276">
        <ele>284</ele>
        <time>2018-10-02T09:34:25Z</time>
      </trkpt>
      <trkpt lat="45.97481" lon="4.85276">
        <ele>284</ele>
        <time>2018-10-02T09:34:26Z</time>
      </trkpt>
      <trkpt lat="45.97487" lon="4.85276">
        <ele>284</ele>
        <time>2018-10-02T09:34:27Z</time>
      </trkpt>
      <trkpt lat="45.97492" lon="4.85275">
        <ele>283</ele>
        <time>2018-10-02T09:34:28Z</time>
      </trkpt>
      <trkpt lat="45.97498" lon="4.85274">
        <ele>283</ele>
        <time>2018-10-02T09:34:29Z</time>
      </trkpt>
      <trkpt lat="45.97502" lon="4.85275">
        <ele>281</ele>
        <time>2018-10-02T09:34:30Z</time>
      </trkpt>
      <trkpt lat="45.97507" lon="4.85275">
        <ele>281</ele>
        <time>2018-10-02T09:34:31Z</time>
      </trkpt>
      <trkpt lat="45.97512" lon="4.85276">
        <ele>281</ele>
        <time>2018-10-02T09:34:32Z</time>
      </trkpt>
      <trkpt lat="45.97517" lon="4.85274">
        <ele>281</ele>
        <time>2018-10-02T09:34:33Z</time>
      </trkpt>
      <trkpt lat="45.97522" lon="4.85273">
        <ele>281</ele>
        <time>2018-10-02T09:34:34Z</time>
      </trkpt>
      <trkpt lat="45.97527" lon="4.85273">
        <ele>281</ele>
        <time>2018-10-02T09:34:35Z</time>
      </trkpt>
      <trkpt lat="45.97532" lon="4.85272">
        <ele>281</ele>
        <time>2018-10-02T09:34:36Z</time>
      </trkpt>
      <trkpt lat="45.97537" lon="4.8527">
        <ele>281</ele>
        <time>2018-10-02T09:34:37Z</time>
      </trkpt>
      <trkpt lat="45.97541" lon="4.8527">
        <ele>281</ele>
        <time>2018-10-02T09:34:38Z</time>
      </trkpt>
      <trkpt lat="45.97547" lon="4.85268">
        <ele>281</ele>
        <time>2018-10-02T09:34:39Z</time>
      </trkpt>
      <trkpt lat="45.97552" lon="4.85268">
        <ele>281</ele>
        <time>2018-10-02T09:34:40Z</time>
      </trkpt>
      <trkpt lat="45.97559" lon="4.85267">
        <ele>281</ele>
        <time>2018-10-02T09:34:41Z</time>
      </trkpt>
      <trkpt lat="45.97564" lon="4.85267">
        <ele>281</ele>
        <time>2018-10-02T09:34:42Z</time>
      </trkpt>
      <trkpt lat="45.9757" lon="4.85267">
        <ele>281</ele>
        <time>2018-10-02T09:34:43Z</time>
      </trkpt>
      <trkpt lat="45.97575" lon="4.85266">
        <ele>281</ele>
        <time>2018-10-02T09:34:44Z</time>
      </trkpt>
      <trkpt lat="45.97581" lon="4.85267">
        <ele>281</ele>
        <time>2018-10-02T09:34:45Z</time>
      </trkpt>
      <trkpt lat="45.97587" lon="4.85267">
        <ele>280</ele>
        <time>2018-10-02T09:34:46Z</time>
      </trkpt>
      <trkpt lat="45.97593" lon="4.85267">
        <ele>280</ele>
        <time>2018-10-02T09:34:47Z</time>
      </trkpt>
      <trkpt lat="45.97599" lon="4.85267">
        <ele>279</ele>
        <time>2018-10-02T09:34:48Z</time>
      </trkpt>
      <trkpt lat="45.97605" lon="4.85265">
        <ele>279</ele>
        <time>2018-10-02T09:34:49Z</time>
      </trkpt>
      <trkpt lat="45.9761" lon="4.85264">
        <ele>279</ele>
        <time>2018-10-02T09:34:50Z</time>
      </trkpt>
      <trkpt lat="45.97616" lon="4.85263">
        <ele>279</ele>
        <time>2018-10-02T09:34:51Z</time>
      </trkpt>
      <trkpt lat="45.97621" lon="4.85263">
        <ele>278</ele>
        <time>2018-10-02T09:34:52Z</time>
      </trkpt>
      <trkpt lat="45.97626" lon="4.85263">
        <ele>278</ele>
        <time>2018-10-02T09:34:53Z</time>
      </trkpt>
      <trkpt lat="45.97631" lon="4.85264">
        <ele>278</ele>
        <time>2018-10-02T09:34:54Z</time>
      </trkpt>
      <trkpt lat="45.97637" lon="4.85262">
        <ele>278</ele>
        <time>2018-10-02T09:34:55Z</time>
      </trkpt>
      <trkpt lat="45.97643" lon="4.85262">
        <ele>278</ele>
        <time>2018-10-02T09:34:56Z</time>
      </trkpt>
      <trkpt lat="45.97649" lon="4.85261">
        <ele>277</ele>
        <time>2018-10-02T09:34:57Z</time>
      </trkpt>
      <trkpt lat="45.97654" lon="4.8526">
        <ele>277</ele>
        <time>2018-10-02T09:34:58Z</time>
      </trkpt>
      <trkpt lat="45.97659" lon="4.85261">
        <ele>277</ele>
        <time>2018-10-02T09:34:59Z</time>
      </trkpt>
      <trkpt lat="45.97664" lon="4.85259">
        <ele>277</ele>
        <time>2018-10-02T09:35:00Z</time>
      </trkpt>
      <trkpt lat="45.97669" lon="4.85259">
        <ele>276</ele>
        <time>2018-10-02T09:35:01Z</time>
      </trkpt>
      <trkpt lat="45.97675" lon="4.85258">
        <ele>276</ele>
        <time>2018-10-02T09:35:02Z</time>
      </trkpt>
      <trkpt lat="45.9768" lon="4.85257">
        <ele>276</ele>
        <time>2018-10-02T09:35:03Z</time>
      </trkpt>
      <trkpt lat="45.97686" lon="4.85255">
        <ele>276</ele>
        <time>2018-10-02T09:35:04Z</time>
      </trkpt>
      <trkpt lat="45.97691" lon="4.85253">
        <ele>276</ele>
        <time>2018-10-02T09:35:05Z</time>
      </trkpt>
      <trkpt lat="45.97696" lon="4.85253">
        <ele>276</ele>
        <time>2018-10-02T09:35:06Z</time>
      </trkpt>
      <trkpt lat="45.97701" lon="4.85253">
        <ele>276</ele>
        <time>2018-10-02T09:35:07Z</time>
      </trkpt>
      <trkpt lat="45.97706" lon="4.85251">
        <ele>276</ele>
        <time>2018-10-02T09:35:08Z</time>
      </trkpt>
      <trkpt lat="45.97711" lon="4.8525">
        <ele>275</ele>
        <time>2018-10-02T09:35:09Z</time>
      </trkpt>
      <trkpt lat="45.9772" lon="4.85249">
        <ele>275</ele>
        <time>2018-10-02T09:35:11Z</time>
      </trkpt>
      <trkpt lat="45.97724" lon="4.85249">
        <ele>275</ele>
        <time>2018-10-02T09:35:12Z</time>
      </trkpt>
      <trkpt lat="45.97729" lon="4.85249">
        <ele>275</ele>
        <time>2018-10-02T09:35:13Z</time>
      </trkpt>
      <trkpt lat="45.97734" lon="4.85247">
        <ele>275</ele>
        <time>2018-10-02T09:35:14Z</time>
      </trkpt>
      <trkpt lat="45.97738" lon="4.85247">
        <ele>274</ele>
        <time>2018-10-02T09:35:15Z</time>
      </trkpt>
      <trkpt lat="45.97743" lon="4.85247">
        <ele>274</ele>
        <time>2018-10-02T09:35:16Z</time>
      </trkpt>
      <trkpt lat="45.97748" lon="4.85246">
        <ele>274</ele>
        <time>2018-10-02T09:35:17Z</time>
      </trkpt>
      <trkpt lat="45.97753" lon="4.85246">
        <ele>274</ele>
        <time>2018-10-02T09:35:18Z</time>
      </trkpt>
      <trkpt lat="45.97758" lon="4.85246">
        <ele>274</ele>
        <time>2018-10-02T09:35:19Z</time>
      </trkpt>
      <trkpt lat="45.97763" lon="4.85247">
        <ele>274</ele>
        <time>2018-10-02T09:35:20Z</time>
      </trkpt>
      <trkpt lat="45.97767" lon="4.85246">
        <ele>274</ele>
        <time>2018-10-02T09:35:21Z</time>
      </trkpt>
      <trkpt lat="45.97772" lon="4.85245">
        <ele>274</ele>
        <time>2018-10-02T09:35:22Z</time>
      </trkpt>
      <trkpt lat="45.97776" lon="4.85243">
        <ele>274</ele>
        <time>2018-10-02T09:35:23Z</time>
      </trkpt>
      <trkpt lat="45.97781" lon="4.85241">
        <ele>274</ele>
        <time>2018-10-02T09:35:24Z</time>
      </trkpt>
      <trkpt lat="45.97789" lon="4.8524">
        <ele>274</ele>
        <time>2018-10-02T09:35:26Z</time>
      </trkpt>
      <trkpt lat="45.97793" lon="4.85239">
        <ele>274</ele>
        <time>2018-10-02T09:35:27Z</time>
      </trkpt>
      <trkpt lat="45.97802" lon="4.85237">
        <ele>274</ele>
        <time>2018-10-02T09:35:29Z</time>
      </trkpt>
      <trkpt lat="45.97806" lon="4.85237">
        <ele>274</ele>
        <time>2018-10-02T09:35:30Z</time>
      </trkpt>
      <trkpt lat="45.97814" lon="4.85236">
        <ele>275</ele>
        <time>2018-10-02T09:35:32Z</time>
      </trkpt>
      <trkpt lat="45.97818" lon="4.85235">
        <ele>275</ele>
        <time>2018-10-02T09:35:33Z</time>
      </trkpt>
      <trkpt lat="45.97826" lon="4.85235">
        <ele>275</ele>
        <time>2018-10-02T09:35:35Z</time>
      </trkpt>
      <trkpt lat="45.97831" lon="4.85234">
        <ele>275</ele>
        <time>2018-10-02T09:35:36Z</time>
      </trkpt>
      <trkpt lat="45.97836" lon="4.85235">
        <ele>275</ele>
        <time>2018-10-02T09:35:37Z</time>
      </trkpt>
      <trkpt lat="45.97841" lon="4.85235">
        <ele>275</ele>
        <time>2018-10-02T09:35:38Z</time>
      </trkpt>
      <trkpt lat="45.97846" lon="4.85235">
        <ele>275</ele>
        <time>2018-10-02T09:35:39Z</time>
      </trkpt>
      <trkpt lat="45.97851" lon="4.85234">
        <ele>275</ele>
        <time>2018-10-02T09:35:40Z</time>
      </trkpt>
      <trkpt lat="45.97855" lon="4.85233">
        <ele>275</ele>
        <time>2018-10-02T09:35:41Z</time>
      </trkpt>
      <trkpt lat="45.9786" lon="4.85232">
        <ele>275</ele>
        <time>2018-10-02T09:35:42Z</time>
      </trkpt>
      <trkpt lat="45.97868" lon="4.85232">
        <ele>275</ele>
        <time>2018-10-02T09:35:44Z</time>
      </trkpt>
      <trkpt lat="45.97872" lon="4.85232">
        <ele>275</ele>
        <time>2018-10-02T09:35:45Z</time>
      </trkpt>
      <trkpt lat="45.9788" lon="4.8523">
        <ele>275</ele>
        <time>2018-10-02T09:35:47Z</time>
      </trkpt>
      <trkpt lat="45.97885" lon="4.8523">
        <ele>275</ele>
        <time>2018-10-02T09:35:48Z</time>
      </trkpt>
      <trkpt lat="45.97893" lon="4.85227">
        <ele>275</ele>
        <time>2018-10-02T09:35:50Z</time>
      </trkpt>
      <trkpt lat="45.97897" lon="4.85228">
        <ele>275</ele>
        <time>2018-10-02T09:35:51Z</time>
      </trkpt>
      <trkpt lat="45.97906" lon="4.85228">
        <ele>275</ele>
        <time>2018-10-02T09:35:53Z</time>
      </trkpt>
      <trkpt lat="45.9791" lon="4.85229">
        <ele>275</ele>
        <time>2018-10-02T09:35:54Z</time>
      </trkpt>
      <trkpt lat="45.97918" lon="4.85227">
        <ele>276</ele>
        <time>2018-10-02T09:35:56Z</time>
      </trkpt>
      <trkpt lat="45.97923" lon="4.85227">
        <ele>276</ele>
        <time>2018-10-02T09:35:57Z</time>
      </trkpt>
      <trkpt lat="45.97927" lon="4.85226">
        <ele>276</ele>
        <time>2018-10-02T09:35:58Z</time>
      </trkpt>
      <trkpt lat="45.97932" lon="4.85226">
        <ele>276</ele>
        <time>2018-10-02T09:35:59Z</time>
      </trkpt>
      <trkpt lat="45.97937" lon="4.85227">
        <ele>276</ele>
        <time>2018-10-02T09:36:00Z</time>
      </trkpt>
      <trkpt lat="45.97942" lon="4.85227">
        <ele>276</ele>
        <time>2018-10-02T09:36:01Z</time>
      </trkpt>
      <trkpt lat="45.9795" lon="4.85225">
        <ele>276</ele>
        <time>2018-10-02T09:36:03Z</time>
      </trkpt>
      <trkpt lat="45.97954" lon="4.85224">
        <ele>276</ele>
        <time>2018-10-02T09:36:04Z</time>
      </trkpt>
      <trkpt lat="45.97959" lon="4.85223">
        <ele>276</ele>
        <time>2018-10-02T09:36:05Z</time>
      </trkpt>
      <trkpt lat="45.97963" lon="4.85222">
        <ele>276</ele>
        <time>2018-10-02T09:36:06Z</time>
      </trkpt>
      <trkpt lat="45.97972" lon="4.85221">
        <ele>276</ele>
        <time>2018-10-02T09:36:08Z</time>
      </trkpt>
      <trkpt lat="45.97976" lon="4.8522">
        <ele>276</ele>
        <time>2018-10-02T09:36:09Z</time>
      </trkpt>
      <trkpt lat="45.97983" lon="4.85219">
        <ele>276</ele>
        <time>2018-10-02T09:36:11Z</time>
      </trkpt>
      <trkpt lat="45.97988" lon="4.85218">
        <ele>276</ele>
        <time>2018-10-02T09:36:12Z</time>
      </trkpt>
      <trkpt lat="45.97996" lon="4.85219">
        <ele>276</ele>
        <time>2018-10-02T09:36:14Z</time>
      </trkpt>
      <trkpt lat="45.98" lon="4.85219">
        <ele>276</ele>
        <time>2018-10-02T09:36:15Z</time>
      </trkpt>
      <trkpt lat="45.98007" lon="4.85218">
        <ele>276</ele>
        <time>2018-10-02T09:36:17Z</time>
      </trkpt>
      <trkpt lat="45.98011" lon="4.85218">
        <ele>276</ele>
        <time>2018-10-02T09:36:18Z</time>
      </trkpt>
      <trkpt lat="45.98019" lon="4.85218">
        <ele>276</ele>
        <time>2018-10-02T09:36:20Z</time>
      </trkpt>
      <trkpt lat="45.98023" lon="4.85217">
        <ele>276</ele>
        <time>2018-10-02T09:36:21Z</time>
      </trkpt>
      <trkpt lat="45.9803" lon="4.85217">
        <ele>276</ele>
        <time>2018-10-02T09:36:23Z</time>
      </trkpt>
      <trkpt lat="45.98034" lon="4.85217">
        <ele>276</ele>
        <time>2018-10-02T09:36:24Z</time>
      </trkpt>
      <trkpt lat="45.98042" lon="4.85216">
        <ele>276</ele>
        <time>2018-10-02T09:36:27Z</time>
      </trkpt>
      <trkpt lat="45.98048" lon="4.85216">
        <ele>276</ele>
        <time>2018-10-02T09:36:28Z</time>
      </trkpt>
      <trkpt lat="45.98056" lon="4.85216">
        <ele>276</ele>
        <time>2018-10-02T09:36:30Z</time>
      </trkpt>
      <trkpt lat="45.9806" lon="4.85215">
        <ele>276</ele>
        <time>2018-10-02T09:36:31Z</time>
      </trkpt>
      <trkpt lat="45.98068" lon="4.85214">
        <ele>276</ele>
        <time>2018-10-02T09:36:33Z</time>
      </trkpt>
      <trkpt lat="45.98073" lon="4.85214">
        <ele>276</ele>
        <time>2018-10-02T09:36:34Z</time>
      </trkpt>
      <trkpt lat="45.98081" lon="4.85214">
        <ele>276</ele>
        <time>2018-10-02T09:36:36Z</time>
      </trkpt>
      <trkpt lat="45.98085" lon="4.85213">
        <ele>275</ele>
        <time>2018-10-02T09:36:37Z</time>
      </trkpt>
      <trkpt lat="45.98093" lon="4.85212">
        <ele>275</ele>
        <time>2018-10-02T09:36:40Z</time>
      </trkpt>
      <trkpt lat="45.98099" lon="4.85211">
        <ele>275</ele>
        <time>2018-10-02T09:36:41Z</time>
      </trkpt>
      <trkpt lat="45.98108" lon="4.8521">
        <ele>275</ele>
        <time>2018-10-02T09:36:43Z</time>
      </trkpt>
      <trkpt lat="45.98112" lon="4.8521">
        <ele>275</ele>
        <time>2018-10-02T09:36:44Z</time>
      </trkpt>
      <trkpt lat="45.98117" lon="4.85209">
        <ele>275</ele>
        <time>2018-10-02T09:36:45Z</time>
      </trkpt>
      <trkpt lat="45.98122" lon="4.85209">
        <ele>275</ele>
        <time>2018-10-02T09:36:46Z</time>
      </trkpt>
      <trkpt lat="45.98127" lon="4.85207">
        <ele>275</ele>
        <time>2018-10-02T09:36:47Z</time>
      </trkpt>
      <trkpt lat="45.98132" lon="4.85206">
        <ele>275</ele>
        <time>2018-10-02T09:36:48Z</time>
      </trkpt>
      <trkpt lat="45.98137" lon="4.85206">
        <ele>275</ele>
        <time>2018-10-02T09:36:49Z</time>
      </trkpt>
      <trkpt lat="45.98141" lon="4.85206">
        <ele>275</ele>
        <time>2018-10-02T09:36:50Z</time>
      </trkpt>
      <trkpt lat="45.98146" lon="4.85205">
        <ele>275</ele>
        <time>2018-10-02T09:36:51Z</time>
      </trkpt>
      <trkpt lat="45.98151" lon="4.85205">
        <ele>275</ele>
        <time>2018-10-02T09:36:52Z</time>
      </trkpt>
      <trkpt lat="45.98158" lon="4.85205">
        <ele>274</ele>
        <time>2018-10-02T09:36:54Z</time>
      </trkpt>
      <trkpt lat="45.98162" lon="4.85204">
        <ele>274</ele>
        <time>2018-10-02T09:36:55Z</time>
      </trkpt>
      <trkpt lat="45.9817" lon="4.85203">
        <ele>274</ele>
        <time>2018-10-02T09:36:57Z</time>
      </trkpt>
      <trkpt lat="45.98175" lon="4.85203">
        <ele>274</ele>
        <time>2018-10-02T09:36:58Z</time>
      </trkpt>
      <trkpt lat="45.98179" lon="4.85204">
        <ele>274</ele>
        <time>2018-10-02T09:36:59Z</time>
      </trkpt>
      <trkpt lat="45.98185" lon="4.85203">
        <ele>274</ele>
        <time>2018-10-02T09:37:00Z</time>
      </trkpt>
      <trkpt lat="45.98191" lon="4.85199">
        <ele>274</ele>
        <time>2018-10-02T09:37:01Z</time>
      </trkpt>
      <trkpt lat="45.98195" lon="4.85199">
        <ele>274</ele>
        <time>2018-10-02T09:37:02Z</time>
      </trkpt>
      <trkpt lat="45.982" lon="4.85198">
        <ele>274</ele>
        <time>2018-10-02T09:37:03Z</time>
      </trkpt>
      <trkpt lat="45.98205" lon="4.85198">
        <ele>274</ele>
        <time>2018-10-02T09:37:04Z</time>
      </trkpt>
      <trkpt lat="45.98211" lon="4.85198">
        <ele>274</ele>
        <time>2018-10-02T09:37:05Z</time>
      </trkpt>
      <trkpt lat="45.98217" lon="4.85198">
        <ele>274</ele>
        <time>2018-10-02T09:37:06Z</time>
      </trkpt>
      <trkpt lat="45.98226" lon="4.85198">
        <ele>274</ele>
        <time>2018-10-02T09:37:08Z</time>
      </trkpt>
      <trkpt lat="45.98232" lon="4.85198">
        <ele>274</ele>
        <time>2018-10-02T09:37:09Z</time>
      </trkpt>
      <trkpt lat="45.98237" lon="4.85197">
        <ele>274</ele>
        <time>2018-10-02T09:37:10Z</time>
      </trkpt>
      <trkpt lat="45.98241" lon="4.85197">
        <ele>274</ele>
        <time>2018-10-02T09:37:11Z</time>
      </trkpt>
      <trkpt lat="45.98249" lon="4.85196">
        <ele>274</ele>
        <time>2018-10-02T09:37:13Z</time>
      </trkpt>
      <trkpt lat="45.98253" lon="4.85197">
        <ele>274</ele>
        <time>2018-10-02T09:37:14Z</time>
      </trkpt>
      <trkpt lat="45.98258" lon="4.85196">
        <ele>274</ele>
        <time>2018-10-02T09:37:15Z</time>
      </trkpt>
      <trkpt lat="45.98263" lon="4.85196">
        <ele>274</ele>
        <time>2018-10-02T09:37:16Z</time>
      </trkpt>
      <trkpt lat="45.98271" lon="4.85195">
        <ele>274</ele>
        <time>2018-10-02T09:37:18Z</time>
      </trkpt>
      <trkpt lat="45.98276" lon="4.85196">
        <ele>274</ele>
        <time>2018-10-02T09:37:19Z</time>
      </trkpt>
      <trkpt lat="45.98284" lon="4.85195">
        <ele>274</ele>
        <time>2018-10-02T09:37:21Z</time>
      </trkpt>
      <trkpt lat="45.98289" lon="4.85195">
        <ele>274</ele>
        <time>2018-10-02T09:37:22Z</time>
      </trkpt>
      <trkpt lat="45.98297" lon="4.85195">
        <ele>274</ele>
        <time>2018-10-02T09:37:24Z</time>
      </trkpt>
      <trkpt lat="45.98301" lon="4.85195">
        <ele>274</ele>
        <time>2018-10-02T09:37:25Z</time>
      </trkpt>
      <trkpt lat="45.98309" lon="4.85194">
        <ele>274</ele>
        <time>2018-10-02T09:37:27Z</time>
      </trkpt>
      <trkpt lat="45.98313" lon="4.85192">
        <ele>274</ele>
        <time>2018-10-02T09:37:28Z</time>
      </trkpt>
      <trkpt lat="45.98318" lon="4.85192">
        <ele>274</ele>
        <time>2018-10-02T09:37:29Z</time>
      </trkpt>
      <trkpt lat="45.98323" lon="4.8519">
        <ele>274</ele>
        <time>2018-10-02T09:37:30Z</time>
      </trkpt>
      <trkpt lat="45.98328" lon="4.85189">
        <ele>274</ele>
        <time>2018-10-02T09:37:31Z</time>
      </trkpt>
      <trkpt lat="45.98333" lon="4.85188">
        <ele>274</ele>
        <time>2018-10-02T09:37:32Z</time>
      </trkpt>
      <trkpt lat="45.98338" lon="4.85188">
        <ele>275</ele>
        <time>2018-10-02T09:37:33Z</time>
      </trkpt>
      <trkpt lat="45.98344" lon="4.85187">
        <ele>275</ele>
        <time>2018-10-02T09:37:34Z</time>
      </trkpt>
      <trkpt lat="45.98349" lon="4.85186">
        <ele>275</ele>
        <time>2018-10-02T09:37:35Z</time>
      </trkpt>
      <trkpt lat="45.98354" lon="4.85186">
        <ele>275</ele>
        <time>2018-10-02T09:37:36Z</time>
      </trkpt>
      <trkpt lat="45.9836" lon="4.85186">
        <ele>275</ele>
        <time>2018-10-02T09:37:37Z</time>
      </trkpt>
      <trkpt lat="45.98365" lon="4.85186">
        <ele>275</ele>
        <time>2018-10-02T09:37:38Z</time>
      </trkpt>
      <trkpt lat="45.98371" lon="4.85185">
        <ele>275</ele>
        <time>2018-10-02T09:37:39Z</time>
      </trkpt>
      <trkpt lat="45.98376" lon="4.85185">
        <ele>275</ele>
        <time>2018-10-02T09:37:40Z</time>
      </trkpt>
      <trkpt lat="45.98382" lon="4.85184">
        <ele>275</ele>
        <time>2018-10-02T09:37:41Z</time>
      </trkpt>
      <trkpt lat="45.98387" lon="4.85185">
        <ele>275</ele>
        <time>2018-10-02T09:37:42Z</time>
      </trkpt>
      <trkpt lat="45.98392" lon="4.85183">
        <ele>275</ele>
        <time>2018-10-02T09:37:43Z</time>
      </trkpt>
      <trkpt lat="45.98397" lon="4.85183">
        <ele>275</ele>
        <time>2018-10-02T09:37:44Z</time>
      </trkpt>
      <trkpt lat="45.98406" lon="4.85181">
        <ele>275</ele>
        <time>2018-10-02T09:37:46Z</time>
      </trkpt>
      <trkpt lat="45.98411" lon="4.85181">
        <ele>276</ele>
        <time>2018-10-02T09:37:47Z</time>
      </trkpt>
      <trkpt lat="45.98419" lon="4.8518">
        <ele>275</ele>
        <time>2018-10-02T09:37:49Z</time>
      </trkpt>
      <trkpt lat="45.98424" lon="4.85179">
        <ele>275</ele>
        <time>2018-10-02T09:37:50Z</time>
      </trkpt>
      <trkpt lat="45.98433" lon="4.85179">
        <ele>275</ele>
        <time>2018-10-02T09:37:52Z</time>
      </trkpt>
      <trkpt lat="45.98437" lon="4.85177">
        <ele>275</ele>
        <time>2018-10-02T09:37:53Z</time>
      </trkpt>
      <trkpt lat="45.98442" lon="4.85177">
        <ele>275</ele>
        <time>2018-10-02T09:37:54Z</time>
      </trkpt>
      <trkpt lat="45.98447" lon="4.85176">
        <ele>275</ele>
        <time>2018-10-02T09:37:55Z</time>
      </trkpt>
      <trkpt lat="45.98452" lon="4.85177">
        <ele>275</ele>
        <time>2018-10-02T09:37:56Z</time>
      </trkpt>
      <trkpt lat="45.98457" lon="4.85177">
        <ele>275</ele>
        <time>2018-10-02T09:37:57Z</time>
      </trkpt>
      <trkpt lat="45.98463" lon="4.85177">
        <ele>275</ele>
        <time>2018-10-02T09:37:58Z</time>
      </trkpt>
      <trkpt lat="45.98468" lon="4.85177">
        <ele>275</ele>
        <time>2018-10-02T09:37:59Z</time>
      </trkpt>
      <trkpt lat="45.98477" lon="4.85175">
        <ele>275</ele>
        <time>2018-10-02T09:38:01Z</time>
      </trkpt>
      <trkpt lat="45.98481" lon="4.85175">
        <ele>275</ele>
        <time>2018-10-02T09:38:02Z</time>
      </trkpt>
      <trkpt lat="45.98489" lon="4.85173">
        <ele>275</ele>
        <time>2018-10-02T09:38:04Z</time>
      </trkpt>
      <trkpt lat="45.98495" lon="4.85171">
        <ele>275</ele>
        <time>2018-10-02T09:38:05Z</time>
      </trkpt>
      <trkpt lat="45.98503" lon="4.85169">
        <ele>275</ele>
        <time>2018-10-02T09:38:07Z</time>
      </trkpt>
      <trkpt lat="45.98506" lon="4.85169">
        <ele>274</ele>
        <time>2018-10-02T09:38:08Z</time>
      </trkpt>
      <trkpt lat="45.98514" lon="4.85169">
        <ele>274</ele>
        <time>2018-10-02T09:38:10Z</time>
      </trkpt>
      <trkpt lat="45.98518" lon="4.85168">
        <ele>274</ele>
        <time>2018-10-02T09:38:11Z</time>
      </trkpt>
      <trkpt lat="45.98526" lon="4.85167">
        <ele>273</ele>
        <time>2018-10-02T09:38:13Z</time>
      </trkpt>
      <trkpt lat="45.9853" lon="4.85166">
        <ele>274</ele>
        <time>2018-10-02T09:38:14Z</time>
      </trkpt>
      <trkpt lat="45.98538" lon="4.85163">
        <ele>274</ele>
        <time>2018-10-02T09:38:16Z</time>
      </trkpt>
      <trkpt lat="45.98543" lon="4.85159">
        <ele>274</ele>
        <time>2018-10-02T09:38:17Z</time>
      </trkpt>
      <trkpt lat="45.98548" lon="4.85158">
        <ele>274</ele>
        <time>2018-10-02T09:38:18Z</time>
      </trkpt>
      <trkpt lat="45.98553" lon="4.85156">
        <ele>274</ele>
        <time>2018-10-02T09:38:19Z</time>
      </trkpt>
      <trkpt lat="45.98557" lon="4.85155">
        <ele>274</ele>
        <time>2018-10-02T09:38:20Z</time>
      </trkpt>
      <trkpt lat="45.98562" lon="4.85154">
        <ele>274</ele>
        <time>2018-10-02T09:38:21Z</time>
      </trkpt>
      <trkpt lat="45.98568" lon="4.85151">
        <ele>273</ele>
        <time>2018-10-02T09:38:22Z</time>
      </trkpt>
      <trkpt lat="45.98572" lon="4.85148">
        <ele>273</ele>
        <time>2018-10-02T09:38:23Z</time>
      </trkpt>
      <trkpt lat="45.98578" lon="4.85147">
        <ele>273</ele>
        <time>2018-10-02T09:38:24Z</time>
      </trkpt>
      <trkpt lat="45.98583" lon="4.85144">
        <ele>272</ele>
        <time>2018-10-02T09:38:25Z</time>
      </trkpt>
      <trkpt lat="45.98589" lon="4.85142">
        <ele>272</ele>
        <time>2018-10-02T09:38:26Z</time>
      </trkpt>
      <trkpt lat="45.98595" lon="4.8514">
        <ele>272</ele>
        <time>2018-10-02T09:38:27Z</time>
      </trkpt>
      <trkpt lat="45.986" lon="4.85138">
        <ele>272</ele>
        <time>2018-10-02T09:38:28Z</time>
      </trkpt>
      <trkpt lat="45.98606" lon="4.85135">
        <ele>272</ele>
        <time>2018-10-02T09:38:29Z</time>
      </trkpt>
      <trkpt lat="45.98611" lon="4.85131">
        <ele>272</ele>
        <time>2018-10-02T09:38:30Z</time>
      </trkpt>
      <trkpt lat="45.98617" lon="4.85129">
        <ele>272</ele>
        <time>2018-10-02T09:38:31Z</time>
      </trkpt>
      <trkpt lat="45.98621" lon="4.85127">
        <ele>272</ele>
        <time>2018-10-02T09:38:32Z</time>
      </trkpt>
      <trkpt lat="45.98627" lon="4.85125">
        <ele>272</ele>
        <time>2018-10-02T09:38:33Z</time>
      </trkpt>
      <trkpt lat="45.98633" lon="4.85123">
        <ele>272</ele>
        <time>2018-10-02T09:38:34Z</time>
      </trkpt>
      <trkpt lat="45.98638" lon="4.85119">
        <ele>272</ele>
        <time>2018-10-02T09:38:35Z</time>
      </trkpt>
      <trkpt lat="45.98642" lon="4.85117">
        <ele>272</ele>
        <time>2018-10-02T09:38:36Z</time>
      </trkpt>
      <trkpt lat="45.98647" lon="4.85115">
        <ele>272</ele>
        <time>2018-10-02T09:38:37Z</time>
      </trkpt>
      <trkpt lat="45.98653" lon="4.85112">
        <ele>271</ele>
        <time>2018-10-02T09:38:38Z</time>
      </trkpt>
      <trkpt lat="45.98657" lon="4.8511">
        <ele>271</ele>
        <time>2018-10-02T09:38:39Z</time>
      </trkpt>
      <trkpt lat="45.98662" lon="4.85108">
        <ele>271</ele>
        <time>2018-10-02T09:38:40Z</time>
      </trkpt>
      <trkpt lat="45.98667" lon="4.85106">
        <ele>270</ele>
        <time>2018-10-02T09:38:41Z</time>
      </trkpt>
      <trkpt lat="45.98671" lon="4.85103">
        <ele>270</ele>
        <time>2018-10-02T09:38:42Z</time>
      </trkpt>
      <trkpt lat="45.98677" lon="4.851">
        <ele>270</ele>
        <time>2018-10-02T09:38:43Z</time>
      </trkpt>
      <trkpt lat="45.98681" lon="4.85098">
        <ele>270</ele>
        <time>2018-10-02T09:38:44Z</time>
      </trkpt>
      <trkpt lat="45.98686" lon="4.85095">
        <ele>270</ele>
        <time>2018-10-02T09:38:45Z</time>
      </trkpt>
      <trkpt lat="45.98691" lon="4.85093">
        <ele>270</ele>
        <time>2018-10-02T09:38:46Z</time>
      </trkpt>
      <trkpt lat="45.98696" lon="4.8509">
        <ele>270</ele>
        <time>2018-10-02T09:38:47Z</time>
      </trkpt>
      <trkpt lat="45.98701" lon="4.85088">
        <ele>270</ele>
        <time>2018-10-02T09:38:48Z</time>
      </trkpt>
      <trkpt lat="45.98706" lon="4.85085">
        <ele>270</ele>
        <time>2018-10-02T09:38:49Z</time>
      </trkpt>
      <trkpt lat="45.98711" lon="4.85083">
        <ele>270</ele>
        <time>2018-10-02T09:38:50Z</time>
      </trkpt>
      <trkpt lat="45.98716" lon="4.85081">
        <ele>270</ele>
        <time>2018-10-02T09:38:51Z</time>
      </trkpt>
      <trkpt lat="45.98722" lon="4.85077">
        <ele>270</ele>
        <time>2018-10-02T09:38:52Z</time>
      </trkpt>
      <trkpt lat="45.98727" lon="4.85074">
        <ele>270</ele>
        <time>2018-10-02T09:38:53Z</time>
      </trkpt>
      <trkpt lat="45.98733" lon="4.85071">
        <ele>269</ele>
        <time>2018-10-02T09:38:54Z</time>
      </trkpt>
      <trkpt lat="45.98738" lon="4.85068">
        <ele>269</ele>
        <time>2018-10-02T09:38:55Z</time>
      </trkpt>
      <trkpt lat="45.98743" lon="4.85067">
        <ele>269</ele>
        <time>2018-10-02T09:38:56Z</time>
      </trkpt>
      <trkpt lat="45.98748" lon="4.85064">
        <ele>269</ele>
        <time>2018-10-02T09:38:57Z</time>
      </trkpt>
      <trkpt lat="45.98753" lon="4.85062">
        <ele>268</ele>
        <time>2018-10-02T09:38:58Z</time>
      </trkpt>
      <trkpt lat="45.98758" lon="4.85059">
        <ele>268</ele>
        <time>2018-10-02T09:38:59Z</time>
      </trkpt>
      <trkpt lat="45.98762" lon="4.85056">
        <ele>268</ele>
        <time>2018-10-02T09:39:00Z</time>
      </trkpt>
      <trkpt lat="45.98766" lon="4.85053">
        <ele>268</ele>
        <time>2018-10-02T09:39:01Z</time>
      </trkpt>
      <trkpt lat="45.98774" lon="4.8505">
        <ele>268</ele>
        <time>2018-10-02T09:39:03Z</time>
      </trkpt>
      <trkpt lat="45.9878" lon="4.85047">
        <ele>267</ele>
        <time>2018-10-02T09:39:04Z</time>
      </trkpt>
      <trkpt lat="45.98783" lon="4.85044">
        <ele>267</ele>
        <time>2018-10-02T09:39:05Z</time>
      </trkpt>
      <trkpt lat="45.98789" lon="4.85042">
        <ele>267</ele>
        <time>2018-10-02T09:39:06Z</time>
      </trkpt>
      <trkpt lat="45.98796" lon="4.85039">
        <ele>267</ele>
        <time>2018-10-02T09:39:07Z</time>
      </trkpt>
      <trkpt lat="45.98801" lon="4.85036">
        <ele>267</ele>
        <time>2018-10-02T09:39:08Z</time>
      </trkpt>
      <trkpt lat="45.98807" lon="4.85033">
        <ele>267</ele>
        <time>2018-10-02T09:39:09Z</time>
      </trkpt>
      <trkpt lat="45.98812" lon="4.8503">
        <ele>267</ele>
        <time>2018-10-02T09:39:10Z</time>
      </trkpt>
      <trkpt lat="45.98816" lon="4.85029">
        <ele>267</ele>
        <time>2018-10-02T09:39:11Z</time>
      </trkpt>
      <trkpt lat="45.98821" lon="4.85027">
        <ele>267</ele>
        <time>2018-10-02T09:39:12Z</time>
      </trkpt>
      <trkpt lat="45.98827" lon="4.85025">
        <ele>267</ele>
        <time>2018-10-02T09:39:13Z</time>
      </trkpt>
      <trkpt lat="45.98831" lon="4.85021">
        <ele>267</ele>
        <time>2018-10-02T09:39:14Z</time>
      </trkpt>
      <trkpt lat="45.98839" lon="4.85015">
        <ele>267</ele>
        <time>2018-10-02T09:39:16Z</time>
      </trkpt>
      <trkpt lat="45.98843" lon="4.85013">
        <ele>267</ele>
        <time>2018-10-02T09:39:17Z</time>
      </trkpt>
      <trkpt lat="45.98852" lon="4.8501">
        <ele>267</ele>
        <time>2018-10-02T09:39:19Z</time>
      </trkpt>
      <trkpt lat="45.98856" lon="4.85005">
        <ele>267</ele>
        <time>2018-10-02T09:39:20Z</time>
      </trkpt>
      <trkpt lat="45.98861" lon="4.85003">
        <ele>267</ele>
        <time>2018-10-02T09:39:21Z</time>
      </trkpt>
      <trkpt lat="45.98867" lon="4.85001">
        <ele>267</ele>
        <time>2018-10-02T09:39:22Z</time>
      </trkpt>
      <trkpt lat="45.98872" lon="4.84997">
        <ele>267</ele>
        <time>2018-10-02T09:39:23Z</time>
      </trkpt>
      <trkpt lat="45.98878" lon="4.84995">
        <ele>267</ele>
        <time>2018-10-02T09:39:24Z</time>
      </trkpt>
      <trkpt lat="45.98884" lon="4.84993">
        <ele>267</ele>
        <time>2018-10-02T09:39:25Z</time>
      </trkpt>
      <trkpt lat="45.98889" lon="4.84991">
        <ele>267</ele>
        <time>2018-10-02T09:39:26Z</time>
      </trkpt>
      <trkpt lat="45.98895" lon="4.84986">
        <ele>267</ele>
        <time>2018-10-02T09:39:27Z</time>
      </trkpt>
      <trkpt lat="45.989" lon="4.84983">
        <ele>267</ele>
        <time>2018-10-02T09:39:28Z</time>
      </trkpt>
      <trkpt lat="45.98905" lon="4.84981">
        <ele>267</ele>
        <time>2018-10-02T09:39:29Z</time>
      </trkpt>
      <trkpt lat="45.9891" lon="4.8498">
        <ele>267</ele>
        <time>2018-10-02T09:39:30Z</time>
      </trkpt>
      <trkpt lat="45.98915" lon="4.84977">
        <ele>267</ele>
        <time>2018-10-02T09:39:31Z</time>
      </trkpt>
      <trkpt lat="45.98919" lon="4.84975">
        <ele>267</ele>
        <time>2018-10-02T09:39:32Z</time>
      </trkpt>
      <trkpt lat="45.98923" lon="4.84972">
        <ele>267</ele>
        <time>2018-10-02T09:39:33Z</time>
      </trkpt>
      <trkpt lat="45.98929" lon="4.84969">
        <ele>266</ele>
        <time>2018-10-02T09:39:34Z</time>
      </trkpt>
      <trkpt lat="45.98933" lon="4.84967">
        <ele>266</ele>
        <time>2018-10-02T09:39:35Z</time>
      </trkpt>
      <trkpt lat="45.98937" lon="4.84965">
        <ele>266</ele>
        <time>2018-10-02T09:39:36Z</time>
      </trkpt>
      <trkpt lat="45.98945" lon="4.8496">
        <ele>266</ele>
        <time>2018-10-02T09:39:38Z</time>
      </trkpt>
      <trkpt lat="45.9895" lon="4.84958">
        <ele>266</ele>
        <time>2018-10-02T09:39:39Z</time>
      </trkpt>
      <trkpt lat="45.98954" lon="4.84956">
        <ele>266</ele>
        <time>2018-10-02T09:39:40Z</time>
      </trkpt>
      <trkpt lat="45.98958" lon="4.84953">
        <ele>266</ele>
        <time>2018-10-02T09:39:41Z</time>
      </trkpt>
      <trkpt lat="45.98963" lon="4.84951">
        <ele>266</ele>
        <time>2018-10-02T09:39:42Z</time>
      </trkpt>
      <trkpt lat="45.98967" lon="4.84948">
        <ele>266</ele>
        <time>2018-10-02T09:39:43Z</time>
      </trkpt>
      <trkpt lat="45.98976" lon="4.84944">
        <ele>266</ele>
        <time>2018-10-02T09:39:45Z</time>
      </trkpt>
      <trkpt lat="45.98981" lon="4.84942">
        <ele>266</ele>
        <time>2018-10-02T09:39:46Z</time>
      </trkpt>
      <trkpt lat="45.98986" lon="4.84939">
        <ele>266</ele>
        <time>2018-10-02T09:39:47Z</time>
      </trkpt>
      <trkpt lat="45.98991" lon="4.84936">
        <ele>266</ele>
        <time>2018-10-02T09:39:48Z</time>
      </trkpt>
      <trkpt lat="45.98997" lon="4.84932">
        <ele>266</ele>
        <time>2018-10-02T09:39:49Z</time>
      </trkpt>
      <trkpt lat="45.99002" lon="4.8493">
        <ele>265</ele>
        <time>2018-10-02T09:39:50Z</time>
      </trkpt>
      <trkpt lat="45.99007" lon="4.84927">
        <ele>265</ele>
        <time>2018-10-02T09:39:51Z</time>
      </trkpt>
      <trkpt lat="45.99011" lon="4.84925">
        <ele>265</ele>
        <time>2018-10-02T09:39:52Z</time>
      </trkpt>
      <trkpt lat="45.99016" lon="4.84923">
        <ele>265</ele>
        <time>2018-10-02T09:39:53Z</time>
      </trkpt>
      <trkpt lat="45.99021" lon="4.8492">
        <ele>265</ele>
        <time>2018-10-02T09:39:54Z</time>
      </trkpt>
      <trkpt lat="45.99026" lon="4.84918">
        <ele>264</ele>
        <time>2018-10-02T09:39:55Z</time>
      </trkpt>
      <trkpt lat="45.99032" lon="4.84916">
        <ele>264</ele>
        <time>2018-10-02T09:39:56Z</time>
      </trkpt>
      <trkpt lat="45.99037" lon="4.84912">
        <ele>264</ele>
        <time>2018-10-02T09:39:57Z</time>
      </trkpt>
      <trkpt lat="45.99042" lon="4.84911">
        <ele>264</ele>
        <time>2018-10-02T09:39:58Z</time>
      </trkpt>
      <trkpt lat="45.99048" lon="4.84909">
        <ele>264</ele>
        <time>2018-10-02T09:39:59Z</time>
      </trkpt>
      <trkpt lat="45.99053" lon="4.84906">
        <ele>263</ele>
        <time>2018-10-02T09:40:00Z</time>
      </trkpt>
      <trkpt lat="45.99058" lon="4.84903">
        <ele>263</ele>
        <time>2018-10-02T09:40:01Z</time>
      </trkpt>
      <trkpt lat="45.99063" lon="4.849">
        <ele>263</ele>
        <time>2018-10-02T09:40:02Z</time>
      </trkpt>
      <trkpt lat="45.99068" lon="4.84897">
        <ele>263</ele>
        <time>2018-10-02T09:40:03Z</time>
      </trkpt>
      <trkpt lat="45.99073" lon="4.84894">
        <ele>263</ele>
        <time>2018-10-02T09:40:04Z</time>
      </trkpt>
      <trkpt lat="45.99077" lon="4.84891">
        <ele>263</ele>
        <time>2018-10-02T09:40:05Z</time>
      </trkpt>
      <trkpt lat="45.99082" lon="4.84888">
        <ele>263</ele>
        <time>2018-10-02T09:40:06Z</time>
      </trkpt>
      <trkpt lat="45.99088" lon="4.84886">
        <ele>261</ele>
        <time>2018-10-02T09:40:07Z</time>
      </trkpt>
      <trkpt lat="45.99093" lon="4.84883">
        <ele>261</ele>
        <time>2018-10-02T09:40:08Z</time>
      </trkpt>
      <trkpt lat="45.99097" lon="4.84881">
        <ele>261</ele>
        <time>2018-10-02T09:40:09Z</time>
      </trkpt>
      <trkpt lat="45.99103" lon="4.84878">
        <ele>261</ele>
        <time>2018-10-02T09:40:10Z</time>
      </trkpt>
      <trkpt lat="45.99108" lon="4.84875">
        <ele>260</ele>
        <time>2018-10-02T09:40:11Z</time>
      </trkpt>
      <trkpt lat="45.99113" lon="4.84872">
        <ele>260</ele>
        <time>2018-10-02T09:40:12Z</time>
      </trkpt>
      <trkpt lat="45.99119" lon="4.8487">
        <ele>260</ele>
        <time>2018-10-02T09:40:13Z</time>
      </trkpt>
      <trkpt lat="45.99124" lon="4.84868">
        <ele>260</ele>
        <time>2018-10-02T09:40:14Z</time>
      </trkpt>
      <trkpt lat="45.9913" lon="4.84863">
        <ele>260</ele>
        <time>2018-10-02T09:40:15Z</time>
      </trkpt>
      <trkpt lat="45.99137" lon="4.8486">
        <ele>260</ele>
        <time>2018-10-02T09:40:16Z</time>
      </trkpt>
      <trkpt lat="45.99142" lon="4.84857">
        <ele>260</ele>
        <time>2018-10-02T09:40:17Z</time>
      </trkpt>
      <trkpt lat="45.99147" lon="4.84854">
        <ele>260</ele>
        <time>2018-10-02T09:40:18Z</time>
      </trkpt>
      <trkpt lat="45.99152" lon="4.8485">
        <ele>260</ele>
        <time>2018-10-02T09:40:19Z</time>
      </trkpt>
      <trkpt lat="45.99158" lon="4.84848">
        <ele>259</ele>
        <time>2018-10-02T09:40:20Z</time>
      </trkpt>
      <trkpt lat="45.99163" lon="4.84845">
        <ele>259</ele>
        <time>2018-10-02T09:40:21Z</time>
      </trkpt>
      <trkpt lat="45.99169" lon="4.84843">
        <ele>258</ele>
        <time>2018-10-02T09:40:22Z</time>
      </trkpt>
      <trkpt lat="45.99176" lon="4.84839">
        <ele>258</ele>
        <time>2018-10-02T09:40:23Z</time>
      </trkpt>
      <trkpt lat="45.99181" lon="4.84837">
        <ele>258</ele>
        <time>2018-10-02T09:40:24Z</time>
      </trkpt>
      <trkpt lat="45.99186" lon="4.84834">
        <ele>257</ele>
        <time>2018-10-02T09:40:25Z</time>
      </trkpt>
      <trkpt lat="45.99192" lon="4.84832">
        <ele>258</ele>
        <time>2018-10-02T09:40:26Z</time>
      </trkpt>
      <trkpt lat="45.99197" lon="4.84828">
        <ele>258</ele>
        <time>2018-10-02T09:40:27Z</time>
      </trkpt>
      <trkpt lat="45.99203" lon="4.84825">
        <ele>257</ele>
        <time>2018-10-02T09:40:28Z</time>
      </trkpt>
      <trkpt lat="45.9921" lon="4.84822">
        <ele>257</ele>
        <time>2018-10-02T09:40:29Z</time>
      </trkpt>
      <trkpt lat="45.99215" lon="4.84819">
        <ele>257</ele>
        <time>2018-10-02T09:40:30Z</time>
      </trkpt>
      <trkpt lat="45.99222" lon="4.84813">
        <ele>257</ele>
        <time>2018-10-02T09:40:31Z</time>
      </trkpt>
      <trkpt lat="45.99227" lon="4.84811">
        <ele>257</ele>
        <time>2018-10-02T09:40:32Z</time>
      </trkpt>
      <trkpt lat="45.99233" lon="4.84807">
        <ele>256</ele>
        <time>2018-10-02T09:40:33Z</time>
      </trkpt>
      <trkpt lat="45.99239" lon="4.84803">
        <ele>256</ele>
        <time>2018-10-02T09:40:34Z</time>
      </trkpt>
      <trkpt lat="45.99245" lon="4.848">
        <ele>256</ele>
        <time>2018-10-02T09:40:35Z</time>
      </trkpt>
      <trkpt lat="45.99251" lon="4.84798">
        <ele>254</ele>
        <time>2018-10-02T09:40:36Z</time>
      </trkpt>
      <trkpt lat="45.99258" lon="4.84794">
        <ele>253</ele>
        <time>2018-10-02T09:40:37Z</time>
      </trkpt>
      <trkpt lat="45.99264" lon="4.84791">
        <ele>253</ele>
        <time>2018-10-02T09:40:38Z</time>
      </trkpt>
      <trkpt lat="45.9927" lon="4.84788">
        <ele>253</ele>
        <time>2018-10-02T09:40:39Z</time>
      </trkpt>
      <trkpt lat="45.99277" lon="4.84785">
        <ele>253</ele>
        <time>2018-10-02T09:40:40Z</time>
      </trkpt>
      <trkpt lat="45.99283" lon="4.84782">
        <ele>253</ele>
        <time>2018-10-02T09:40:41Z</time>
      </trkpt>
      <trkpt lat="45.99289" lon="4.84778">
        <ele>253</ele>
        <time>2018-10-02T09:40:42Z</time>
      </trkpt>
      <trkpt lat="45.99295" lon="4.84774">
        <ele>253</ele>
        <time>2018-10-02T09:40:43Z</time>
      </trkpt>
      <trkpt lat="45.99301" lon="4.84772">
        <ele>253</ele>
        <time>2018-10-02T09:40:44Z</time>
      </trkpt>
      <trkpt lat="45.99307" lon="4.8477">
        <ele>253</ele>
        <time>2018-10-02T09:40:45Z</time>
      </trkpt>
      <trkpt lat="45.99314" lon="4.84767">
        <ele>252</ele>
        <time>2018-10-02T09:40:46Z</time>
      </trkpt>
      <trkpt lat="45.99319" lon="4.84764">
        <ele>252</ele>
        <time>2018-10-02T09:40:47Z</time>
      </trkpt>
      <trkpt lat="45.99325" lon="4.84761">
        <ele>252</ele>
        <time>2018-10-02T09:40:48Z</time>
      </trkpt>
      <trkpt lat="45.99331" lon="4.84757">
        <ele>252</ele>
        <time>2018-10-02T09:40:49Z</time>
      </trkpt>
      <trkpt lat="45.99337" lon="4.84754">
        <ele>251</ele>
        <time>2018-10-02T09:40:50Z</time>
      </trkpt>
      <trkpt lat="45.99342" lon="4.84751">
        <ele>251</ele>
        <time>2018-10-02T09:40:51Z</time>
      </trkpt>
      <trkpt lat="45.99347" lon="4.84749">
        <ele>250</ele>
        <time>2018-10-02T09:40:52Z</time>
      </trkpt>
      <trkpt lat="45.99353" lon="4.84746">
        <ele>250</ele>
        <time>2018-10-02T09:40:53Z</time>
      </trkpt>
      <trkpt lat="45.99358" lon="4.84744">
        <ele>250</ele>
        <time>2018-10-02T09:40:54Z</time>
      </trkpt>
      <trkpt lat="45.99364" lon="4.84741">
        <ele>250</ele>
        <time>2018-10-02T09:40:55Z</time>
      </trkpt>
      <trkpt lat="45.99369" lon="4.84739">
        <ele>250</ele>
        <time>2018-10-02T09:40:56Z</time>
      </trkpt>
      <trkpt lat="45.99373" lon="4.84736">
        <ele>250</ele>
        <time>2018-10-02T09:40:57Z</time>
      </trkpt>
      <trkpt lat="45.99378" lon="4.84733">
        <ele>250</ele>
        <time>2018-10-02T09:40:58Z</time>
      </trkpt>
      <trkpt lat="45.99384" lon="4.8473">
        <ele>250</ele>
        <time>2018-10-02T09:40:59Z</time>
      </trkpt>
      <trkpt lat="45.99389" lon="4.84726">
        <ele>249</ele>
        <time>2018-10-02T09:41:00Z</time>
      </trkpt>
      <trkpt lat="45.99395" lon="4.84723">
        <ele>249</ele>
        <time>2018-10-02T09:41:01Z</time>
      </trkpt>
      <trkpt lat="45.99401" lon="4.84721">
        <ele>249</ele>
        <time>2018-10-02T09:41:02Z</time>
      </trkpt>
      <trkpt lat="45.99406" lon="4.84718">
        <ele>249</ele>
        <time>2018-10-02T09:41:03Z</time>
      </trkpt>
      <trkpt lat="45.99412" lon="4.84715">
        <ele>249</ele>
        <time>2018-10-02T09:41:04Z</time>
      </trkpt>
      <trkpt lat="45.99417" lon="4.84712">
        <ele>249</ele>
        <time>2018-10-02T09:41:05Z</time>
      </trkpt>
      <trkpt lat="45.99422" lon="4.8471">
        <ele>249</ele>
        <time>2018-10-02T09:41:06Z</time>
      </trkpt>
      <trkpt lat="45.99427" lon="4.84706">
        <ele>249</ele>
        <time>2018-10-02T09:41:07Z</time>
      </trkpt>
      <trkpt lat="45.99432" lon="4.84703">
        <ele>249</ele>
        <time>2018-10-02T09:41:08Z</time>
      </trkpt>
      <trkpt lat="45.99437" lon="4.84701">
        <ele>249</ele>
        <time>2018-10-02T09:41:09Z</time>
      </trkpt>
      <trkpt lat="45.99442" lon="4.84698">
        <ele>249</ele>
        <time>2018-10-02T09:41:10Z</time>
      </trkpt>
      <trkpt lat="45.99447" lon="4.84698">
        <ele>250</ele>
        <time>2018-10-02T09:41:11Z</time>
      </trkpt>
      <trkpt lat="45.99451" lon="4.84695">
        <ele>250</ele>
        <time>2018-10-02T09:41:12Z</time>
      </trkpt>
      <trkpt lat="45.99456" lon="4.84693">
        <ele>250</ele>
        <time>2018-10-02T09:41:13Z</time>
      </trkpt>
      <trkpt lat="45.99461" lon="4.84691">
        <ele>250</ele>
        <time>2018-10-02T09:41:14Z</time>
      </trkpt>
      <trkpt lat="45.99464" lon="4.8469">
        <ele>250</ele>
        <time>2018-10-02T09:41:16Z</time>
      </trkpt>
      <trkpt lat="45.99471" lon="4.84687">
        <ele>250</ele>
        <time>2018-10-02T09:41:17Z</time>
      </trkpt>
      <trkpt lat="45.99479" lon="4.84685">
        <ele>250</ele>
        <time>2018-10-02T09:41:19Z</time>
      </trkpt>
      <trkpt lat="45.99484" lon="4.84683">
        <ele>250</ele>
        <time>2018-10-02T09:41:20Z</time>
      </trkpt>
      <trkpt lat="45.9949" lon="4.8468">
        <ele>250</ele>
        <time>2018-10-02T09:41:21Z</time>
      </trkpt>
      <trkpt lat="45.99495" lon="4.84678">
        <ele>251</ele>
        <time>2018-10-02T09:41:22Z</time>
      </trkpt>
      <trkpt lat="45.99499" lon="4.84676">
        <ele>251</ele>
        <time>2018-10-02T09:41:23Z</time>
      </trkpt>
      <trkpt lat="45.99504" lon="4.84674">
        <ele>251</ele>
        <time>2018-10-02T09:41:24Z</time>
      </trkpt>
      <trkpt lat="45.99509" lon="4.84673">
        <ele>251</ele>
        <time>2018-10-02T09:41:25Z</time>
      </trkpt>
      <trkpt lat="45.99515" lon="4.84672">
        <ele>251</ele>
        <time>2018-10-02T09:41:26Z</time>
      </trkpt>
      <trkpt lat="45.99524" lon="4.8467">
        <ele>251</ele>
        <time>2018-10-02T09:41:28Z</time>
      </trkpt>
      <trkpt lat="45.99528" lon="4.84668">
        <ele>251</ele>
        <time>2018-10-02T09:41:29Z</time>
      </trkpt>
      <trkpt lat="45.99533" lon="4.84668">
        <ele>251</ele>
        <time>2018-10-02T09:41:30Z</time>
      </trkpt>
      <trkpt lat="45.99538" lon="4.84666">
        <ele>250</ele>
        <time>2018-10-02T09:41:31Z</time>
      </trkpt>
      <trkpt lat="45.99542" lon="4.84666">
        <ele>250</ele>
        <time>2018-10-02T09:41:32Z</time>
      </trkpt>
      <trkpt lat="45.99547" lon="4.84665">
        <ele>250</ele>
        <time>2018-10-02T09:41:33Z</time>
      </trkpt>
      <trkpt lat="45.99555" lon="4.84663">
        <ele>250</ele>
        <time>2018-10-02T09:41:35Z</time>
      </trkpt>
      <trkpt lat="45.99559" lon="4.84662">
        <ele>250</ele>
        <time>2018-10-02T09:41:36Z</time>
      </trkpt>
      <trkpt lat="45.99564" lon="4.84662">
        <ele>250</ele>
        <time>2018-10-02T09:41:37Z</time>
      </trkpt>
      <trkpt lat="45.99568" lon="4.84661">
        <ele>250</ele>
        <time>2018-10-02T09:41:38Z</time>
      </trkpt>
      <trkpt lat="45.99574" lon="4.84661">
        <ele>250</ele>
        <time>2018-10-02T09:41:39Z</time>
      </trkpt>
      <trkpt lat="45.9958" lon="4.8466">
        <ele>250</ele>
        <time>2018-10-02T09:41:40Z</time>
      </trkpt>
      <trkpt lat="45.99585" lon="4.84658">
        <ele>250</ele>
        <time>2018-10-02T09:41:41Z</time>
      </trkpt>
      <trkpt lat="45.9959" lon="4.84657">
        <ele>250</ele>
        <time>2018-10-02T09:41:42Z</time>
      </trkpt>
      <trkpt lat="45.99595" lon="4.84656">
        <ele>250</ele>
        <time>2018-10-02T09:41:43Z</time>
      </trkpt>
      <trkpt lat="45.99599" lon="4.84655">
        <ele>250</ele>
        <time>2018-10-02T09:41:44Z</time>
      </trkpt>
      <trkpt lat="45.99607" lon="4.84653">
        <ele>250</ele>
        <time>2018-10-02T09:41:46Z</time>
      </trkpt>
      <trkpt lat="45.99611" lon="4.84653">
        <ele>250</ele>
        <time>2018-10-02T09:41:47Z</time>
      </trkpt>
      <trkpt lat="45.99619" lon="4.84652">
        <ele>250</ele>
        <time>2018-10-02T09:41:49Z</time>
      </trkpt>
      <trkpt lat="45.99623" lon="4.84651">
        <ele>250</ele>
        <time>2018-10-02T09:41:50Z</time>
      </trkpt>
      <trkpt lat="45.99627" lon="4.8465">
        <ele>250</ele>
        <time>2018-10-02T09:41:51Z</time>
      </trkpt>
      <trkpt lat="45.99633" lon="4.8465">
        <ele>250</ele>
        <time>2018-10-02T09:41:52Z</time>
      </trkpt>
      <trkpt lat="45.99637" lon="4.84649">
        <ele>250</ele>
        <time>2018-10-02T09:41:53Z</time>
      </trkpt>
      <trkpt lat="45.99642" lon="4.84648">
        <ele>250</ele>
        <time>2018-10-02T09:41:54Z</time>
      </trkpt>
      <trkpt lat="45.99647" lon="4.84649">
        <ele>250</ele>
        <time>2018-10-02T09:41:55Z</time>
      </trkpt>
      <trkpt lat="45.99651" lon="4.84647">
        <ele>250</ele>
        <time>2018-10-02T09:41:56Z</time>
      </trkpt>
      <trkpt lat="45.99656" lon="4.84646">
        <ele>250</ele>
        <time>2018-10-02T09:41:57Z</time>
      </trkpt>
      <trkpt lat="45.99661" lon="4.84645">
        <ele>250</ele>
        <time>2018-10-02T09:41:58Z</time>
      </trkpt>
      <trkpt lat="45.99669" lon="4.84642">
        <ele>251</ele>
        <time>2018-10-02T09:42:00Z</time>
      </trkpt>
      <trkpt lat="45.99673" lon="4.84642">
        <ele>251</ele>
        <time>2018-10-02T09:42:01Z</time>
      </trkpt>
      <trkpt lat="45.99677" lon="4.84641">
        <ele>252</ele>
        <time>2018-10-02T09:42:02Z</time>
      </trkpt>
      <trkpt lat="45.99682" lon="4.84639">
        <ele>252</ele>
        <time>2018-10-02T09:42:03Z</time>
      </trkpt>
      <trkpt lat="45.99687" lon="4.84638">
        <ele>252</ele>
        <time>2018-10-02T09:42:04Z</time>
      </trkpt>
      <trkpt lat="45.99691" lon="4.84637">
        <ele>252</ele>
        <time>2018-10-02T09:42:05Z</time>
      </trkpt>
      <trkpt lat="45.99697" lon="4.84636">
        <ele>252</ele>
        <time>2018-10-02T09:42:06Z</time>
      </trkpt>
      <trkpt lat="45.99701" lon="4.84635">
        <ele>252</ele>
        <time>2018-10-02T09:42:07Z</time>
      </trkpt>
      <trkpt lat="45.99708" lon="4.84633">
        <ele>252</ele>
        <time>2018-10-02T09:42:09Z</time>
      </trkpt>
      <trkpt lat="45.99712" lon="4.84631">
        <ele>252</ele>
        <time>2018-10-02T09:42:10Z</time>
      </trkpt>
      <trkpt lat="45.9972" lon="4.8463">
        <ele>252</ele>
        <time>2018-10-02T09:42:13Z</time>
      </trkpt>
      <trkpt lat="45.99722" lon="4.8463">
        <ele>252</ele>
        <time>2018-10-02T09:42:14Z</time>
      </trkpt>
      <trkpt lat="45.99731" lon="4.8463">
        <ele>252</ele>
        <time>2018-10-02T09:42:17Z</time>
      </trkpt>
      <trkpt lat="45.99733" lon="4.84629">
        <ele>252</ele>
        <time>2018-10-02T09:42:18Z</time>
      </trkpt>
      <trkpt lat="45.99741" lon="4.84627">
        <ele>252</ele>
        <time>2018-10-02T09:42:21Z</time>
      </trkpt>
      <trkpt lat="45.99744" lon="4.84626">
        <ele>253</ele>
        <time>2018-10-02T09:42:22Z</time>
      </trkpt>
      <trkpt lat="45.99752" lon="4.84625">
        <ele>254</ele>
        <time>2018-10-02T09:42:25Z</time>
      </trkpt>
      <trkpt lat="45.99755" lon="4.84625">
        <ele>254</ele>
        <time>2018-10-02T09:42:26Z</time>
      </trkpt>
      <trkpt lat="45.99764" lon="4.84626">
        <ele>254</ele>
        <time>2018-10-02T09:42:29Z</time>
      </trkpt>
      <trkpt lat="45.99767" lon="4.84626">
        <ele>254</ele>
        <time>2018-10-02T09:42:30Z</time>
      </trkpt>
      <trkpt lat="45.99774" lon="4.84627">
        <ele>254</ele>
        <time>2018-10-02T09:42:32Z</time>
      </trkpt>
      <trkpt lat="45.99777" lon="4.84628">
        <ele>254</ele>
        <time>2018-10-02T09:42:33Z</time>
      </trkpt>
      <trkpt lat="45.99784" lon="4.84629">
        <ele>254</ele>
        <time>2018-10-02T09:42:36Z</time>
      </trkpt>
      <trkpt lat="45.99787" lon="4.8463">
        <ele>254</ele>
        <time>2018-10-02T09:42:37Z</time>
      </trkpt>
      <trkpt lat="45.99793" lon="4.84631">
        <ele>254</ele>
        <time>2018-10-02T09:42:39Z</time>
      </trkpt>
      <trkpt lat="45.99796" lon="4.84631">
        <ele>254</ele>
        <time>2018-10-02T09:42:40Z</time>
      </trkpt>
      <trkpt lat="45.99802" lon="4.84632">
        <ele>254</ele>
        <time>2018-10-02T09:42:42Z</time>
      </trkpt>
      <trkpt lat="45.99805" lon="4.84633">
        <ele>254</ele>
        <time>2018-10-02T09:42:43Z</time>
      </trkpt>
      <trkpt lat="45.99812" lon="4.84633">
        <ele>254</ele>
        <time>2018-10-02T09:42:45Z</time>
      </trkpt>
      <trkpt lat="45.99815" lon="4.84634">
        <ele>254</ele>
        <time>2018-10-02T09:42:46Z</time>
      </trkpt>
      <trkpt lat="45.99821" lon="4.84636">
        <ele>254</ele>
        <time>2018-10-02T09:42:48Z</time>
      </trkpt>
      <trkpt lat="45.99824" lon="4.84637">
        <ele>254</ele>
        <time>2018-10-02T09:42:49Z</time>
      </trkpt>
      <trkpt lat="45.99832" lon="4.8464">
        <ele>254</ele>
        <time>2018-10-02T09:42:52Z</time>
      </trkpt>
      <trkpt lat="45.9984" lon="4.84643">
        <ele>254</ele>
        <time>2018-10-02T09:42:53Z</time>
      </trkpt>
      <trkpt lat="45.99847" lon="4.84646">
        <ele>254</ele>
        <time>2018-10-02T09:42:55Z</time>
      </trkpt>
      <trkpt lat="45.99851" lon="4.84647">
        <ele>254</ele>
        <time>2018-10-02T09:42:56Z</time>
      </trkpt>
      <trkpt lat="45.99858" lon="4.84649">
        <ele>254</ele>
        <time>2018-10-02T09:42:58Z</time>
      </trkpt>
      <trkpt lat="45.99862" lon="4.8465">
        <ele>254</ele>
        <time>2018-10-02T09:42:59Z</time>
      </trkpt>
      <trkpt lat="45.9987" lon="4.84652">
        <ele>254</ele>
        <time>2018-10-02T09:43:01Z</time>
      </trkpt>
      <trkpt lat="45.99874" lon="4.84653">
        <ele>254</ele>
        <time>2018-10-02T09:43:02Z</time>
      </trkpt>
      <trkpt lat="45.99879" lon="4.84654">
        <ele>254</ele>
        <time>2018-10-02T09:43:04Z</time>
      </trkpt>
      <trkpt lat="45.99885" lon="4.84656">
        <ele>254</ele>
        <time>2018-10-02T09:43:05Z</time>
      </trkpt>
      <trkpt lat="45.99892" lon="4.84656">
        <ele>254</ele>
        <time>2018-10-02T09:43:07Z</time>
      </trkpt>
      <trkpt lat="45.99896" lon="4.84657">
        <ele>254</ele>
        <time>2018-10-02T09:43:08Z</time>
      </trkpt>
      <trkpt lat="45.99905" lon="4.84659">
        <ele>254</ele>
        <time>2018-10-02T09:43:10Z</time>
      </trkpt>
      <trkpt lat="45.99909" lon="4.84661">
        <ele>254</ele>
        <time>2018-10-02T09:43:11Z</time>
      </trkpt>
      <trkpt lat="45.99917" lon="4.84663">
        <ele>254</ele>
        <time>2018-10-02T09:43:13Z</time>
      </trkpt>
      <trkpt lat="45.9992" lon="4.84665">
        <ele>254</ele>
        <time>2018-10-02T09:43:14Z</time>
      </trkpt>
      <trkpt lat="45.99924" lon="4.84666">
        <ele>254</ele>
        <time>2018-10-02T09:43:16Z</time>
      </trkpt>
      <trkpt lat="45.99931" lon="4.84667">
        <ele>255</ele>
        <time>2018-10-02T09:43:17Z</time>
      </trkpt>
      <trkpt lat="45.99939" lon="4.84669">
        <ele>255</ele>
        <time>2018-10-02T09:43:19Z</time>
      </trkpt>
      <trkpt lat="45.99942" lon="4.84669">
        <ele>255</ele>
        <time>2018-10-02T09:43:20Z</time>
      </trkpt>
      <trkpt lat="45.9995" lon="4.84672">
        <ele>255</ele>
        <time>2018-10-02T09:43:22Z</time>
      </trkpt>
      <trkpt lat="45.99954" lon="4.84674">
        <ele>255</ele>
        <time>2018-10-02T09:43:23Z</time>
      </trkpt>
      <trkpt lat="45.99962" lon="4.84676">
        <ele>255</ele>
        <time>2018-10-02T09:43:26Z</time>
      </trkpt>
      <trkpt lat="45.99968" lon="4.84678">
        <ele>255</ele>
        <time>2018-10-02T09:43:27Z</time>
      </trkpt>
      <trkpt lat="45.99973" lon="4.8468">
        <ele>255</ele>
        <time>2018-10-02T09:43:29Z</time>
      </trkpt>
      <trkpt lat="45.99979" lon="4.84682">
        <ele>255</ele>
        <time>2018-10-02T09:43:30Z</time>
      </trkpt>
      <trkpt lat="45.99987" lon="4.84685">
        <ele>255</ele>
        <time>2018-10-02T09:43:32Z</time>
      </trkpt>
      <trkpt lat="45.99989" lon="4.84686">
        <ele>255</ele>
        <time>2018-10-02T09:43:33Z</time>
      </trkpt>
      <trkpt lat="45.99996" lon="4.84688">
        <ele>255</ele>
        <time>2018-10-02T09:43:35Z</time>
      </trkpt>
      <trkpt lat="46.00001" lon="4.84689">
        <ele>256</ele>
        <time>2018-10-02T09:43:36Z</time>
      </trkpt>
      <trkpt lat="46.00009" lon="4.84691">
        <ele>256</ele>
        <time>2018-10-02T09:43:38Z</time>
      </trkpt>
      <trkpt lat="46.00011" lon="4.84692">
        <ele>256</ele>
        <time>2018-10-02T09:43:39Z</time>
      </trkpt>
      <trkpt lat="46.00018" lon="4.84692">
        <ele>256</ele>
        <time>2018-10-02T09:43:42Z</time>
      </trkpt>
      <trkpt lat="46.00021" lon="4.84693">
        <ele>256</ele>
        <time>2018-10-02T09:43:43Z</time>
      </trkpt>
      <trkpt lat="46.00028" lon="4.84694">
        <ele>256</ele>
        <time>2018-10-02T09:43:44Z</time>
      </trkpt>
      <trkpt lat="46.00032" lon="4.84694">
        <ele>256</ele>
        <time>2018-10-02T09:43:45Z</time>
      </trkpt>
      <trkpt lat="46.0004" lon="4.84694">
        <ele>256</ele>
        <time>2018-10-02T09:43:47Z</time>
      </trkpt>
      <trkpt lat="46.00043" lon="4.84695">
        <ele>256</ele>
        <time>2018-10-02T09:43:48Z</time>
      </trkpt>
      <trkpt lat="46.00051" lon="4.84696">
        <ele>256</ele>
        <time>2018-10-02T09:43:50Z</time>
      </trkpt>
      <trkpt lat="46.00053" lon="4.84696">
        <ele>256</ele>
        <time>2018-10-02T09:43:51Z</time>
      </trkpt>
      <trkpt lat="46.0006" lon="4.84696">
        <ele>256</ele>
        <time>2018-10-02T09:43:54Z</time>
      </trkpt>
      <trkpt lat="46.00062" lon="4.84696">
        <ele>256</ele>
        <time>2018-10-02T09:43:55Z</time>
      </trkpt>
      <trkpt lat="46.00069" lon="4.84697">
        <ele>256</ele>
        <time>2018-10-02T09:43:58Z</time>
      </trkpt>
      <trkpt lat="46.00071" lon="4.84698">
        <ele>256</ele>
        <time>2018-10-02T09:43:59Z</time>
      </trkpt>
      <trkpt lat="46.00076" lon="4.84704">
        <ele>257</ele>
        <time>2018-10-02T09:44:02Z</time>
      </trkpt>
      <trkpt lat="46.00077" lon="4.84708">
        <ele>257</ele>
        <time>2018-10-02T09:44:03Z</time>
      </trkpt>
      <trkpt lat="46.00078" lon="4.84712">
        <ele>257</ele>
        <time>2018-10-02T09:44:04Z</time>
      </trkpt>
      <trkpt lat="46.00078" lon="4.84724">
        <ele>257</ele>
        <time>2018-10-02T09:44:05Z</time>
      </trkpt>
      <trkpt lat="46.00077" lon="4.84735">
        <ele>257</ele>
        <time>2018-10-02T09:44:07Z</time>
      </trkpt>
      <trkpt lat="46.00076" lon="4.84738">
        <ele>257</ele>
        <time>2018-10-02T09:44:08Z</time>
      </trkpt>
      <trkpt lat="46.00076" lon="4.84748">
        <ele>258</ele>
        <time>2018-10-02T09:44:11Z</time>
      </trkpt>
      <trkpt lat="46.00076" lon="4.8476">
        <ele>259</ele>
        <time>2018-10-02T09:44:12Z</time>
      </trkpt>
      <trkpt lat="46.00075" lon="4.84773">
        <ele>259</ele>
        <time>2018-10-02T09:44:15Z</time>
      </trkpt>
      <trkpt lat="46.00075" lon="4.84776">
        <ele>259</ele>
        <time>2018-10-02T09:44:16Z</time>
      </trkpt>
      <trkpt lat="46.00074" lon="4.84788">
        <ele>259</ele>
        <time>2018-10-02T09:44:19Z</time>
      </trkpt>
      <trkpt lat="46.00073" lon="4.848">
        <ele>260</ele>
        <time>2018-10-02T09:44:20Z</time>
      </trkpt>
      <trkpt lat="46.00073" lon="4.84811">
        <ele>260</ele>
        <time>2018-10-02T09:44:22Z</time>
      </trkpt>
      <trkpt lat="46.00073" lon="4.84817">
        <ele>260</ele>
        <time>2018-10-02T09:44:23Z</time>
      </trkpt>
      <trkpt lat="46.00074" lon="4.84828">
        <ele>261</ele>
        <time>2018-10-02T09:44:25Z</time>
      </trkpt>
      <trkpt lat="46.00074" lon="4.84834">
        <ele>262</ele>
        <time>2018-10-02T09:44:26Z</time>
      </trkpt>
      <trkpt lat="46.00074" lon="4.84843">
        <ele>262</ele>
        <time>2018-10-02T09:44:29Z</time>
      </trkpt>
      <trkpt lat="46.00074" lon="4.84847">
        <ele>262</ele>
        <time>2018-10-02T09:44:30Z</time>
      </trkpt>
      <trkpt lat="46.00076" lon="4.84857">
        <ele>262</ele>
        <time>2018-10-02T09:44:31Z</time>
      </trkpt>
      <trkpt lat="46.00078" lon="4.84859">
        <ele>262</ele>
        <time>2018-10-02T09:44:32Z</time>
      </trkpt>
      <trkpt lat="46.0008" lon="4.8486">
        <ele>262</ele>
        <time>2018-10-02T09:44:33Z</time>
      </trkpt>
      <trkpt lat="46.00086" lon="4.84862">
        <ele>263</ele>
        <time>2018-10-02T09:44:34Z</time>
      </trkpt>
      <trkpt lat="46.0009" lon="4.8486">
        <ele>263</ele>
        <time>2018-10-02T09:44:36Z</time>
      </trkpt>
      <trkpt lat="46.00095" lon="4.84858">
        <ele>263</ele>
        <time>2018-10-02T09:44:37Z</time>
      </trkpt>
      <trkpt lat="46.00102" lon="4.84856">
        <ele>263</ele>
        <time>2018-10-02T09:44:40Z</time>
      </trkpt>
      <trkpt lat="46.00105" lon="4.84855">
        <ele>263</ele>
        <time>2018-10-02T09:44:41Z</time>
      </trkpt>
      <trkpt lat="46.00113" lon="4.84855">
        <ele>263</ele>
        <time>2018-10-02T09:44:44Z</time>
      </trkpt>
      <trkpt lat="46.00116" lon="4.84855">
        <ele>263</ele>
        <time>2018-10-02T09:44:45Z</time>
      </trkpt>
      <trkpt lat="46.00125" lon="4.84857">
        <ele>263</ele>
        <time>2018-10-02T09:44:48Z</time>
      </trkpt>
      <trkpt lat="46.00128" lon="4.84857">
        <ele>263</ele>
        <time>2018-10-02T09:44:49Z</time>
      </trkpt>
      <trkpt lat="46.00135" lon="4.8486">
        <ele>263</ele>
        <time>2018-10-02T09:44:52Z</time>
      </trkpt>
      <trkpt lat="46.00136" lon="4.84861">
        <ele>263</ele>
        <time>2018-10-02T09:44:53Z</time>
      </trkpt>
      <trkpt lat="46.00144" lon="4.84863">
        <ele>263</ele>
        <time>2018-10-02T09:44:57Z</time>
      </trkpt>
      <trkpt lat="46.00146" lon="4.84863">
        <ele>263</ele>
        <time>2018-10-02T09:44:58Z</time>
      </trkpt>
      <trkpt lat="46.00154" lon="4.84865">
        <ele>263</ele>
        <time>2018-10-02T09:45:02Z</time>
      </trkpt>
      <trkpt lat="46.00156" lon="4.84865">
        <ele>263</ele>
        <time>2018-10-02T09:45:03Z</time>
      </trkpt>
      <trkpt lat="46.00159" lon="4.84866">
        <ele>263</ele>
        <time>2018-10-02T09:47:23Z</time>
      </trkpt>
      <trkpt lat="46.00159" lon="4.84866">
        <ele>263</ele>
        <time>2018-10-02T09:47:24Z</time>
      </trkpt>
      <trkpt lat="46.00158" lon="4.84865">
        <ele>263</ele>
        <time>2018-10-02T09:52:22Z</time>
      </trkpt>
      <trkpt lat="46.00157" lon="4.84865">
        <ele>263</ele>
        <time>2018-10-02T09:52:23Z</time>
      </trkpt>
      <trkpt lat="46.00149" lon="4.84862">
        <ele>263</ele>
        <time>2018-10-02T09:52:38Z</time>
      </trkpt>
      <trkpt lat="46.00148" lon="4.84862">
        <ele>263</ele>
        <time>2018-10-02T09:52:39Z</time>
      </trkpt>
      <trkpt lat="46.00154" lon="4.84863">
        <ele>263</ele>
        <time>2018-10-02T09:53:15Z</time>
      </trkpt>
      <trkpt lat="46.00154" lon="4.84863">
        <ele>263</ele>
        <time>2018-10-02T09:53:16Z</time>
      </trkpt>
      <trkpt lat="46.00155" lon="4.84862">
        <ele>263</ele>
        <time>2018-10-02T09:57:49Z</time>
      </trkpt>
      <trkpt lat="46.00155" lon="4.84862">
        <ele>263</ele>
        <time>2018-10-02T09:57:50Z</time>
      </trkpt>
      <trkpt lat="46.00158" lon="4.84852">
        <ele>262</ele>
        <time>2018-10-02T09:58:17Z</time>
      </trkpt>
      <trkpt lat="46.0016" lon="4.8485">
        <ele>262</ele>
        <time>2018-10-02T09:58:18Z</time>
      </trkpt>
      <trkpt lat="46.00166" lon="4.84846">
        <ele>262</ele>
        <time>2018-10-02T09:58:21Z</time>
      </trkpt>
      <trkpt lat="46.00168" lon="4.84843">
        <ele>261</ele>
        <time>2018-10-02T09:58:22Z</time>
      </trkpt>
      <trkpt lat="46.00168" lon="4.84832">
        <ele>261</ele>
        <time>2018-10-02T09:58:25Z</time>
      </trkpt>
      <trkpt lat="46.00167" lon="4.8482">
        <ele>260</ele>
        <time>2018-10-02T09:58:26Z</time>
      </trkpt>
      <trkpt lat="46.00164" lon="4.84808">
        <ele>260</ele>
        <time>2018-10-02T09:58:28Z</time>
      </trkpt>
      <trkpt lat="46.00163" lon="4.84801">
        <ele>260</ele>
        <time>2018-10-02T09:58:29Z</time>
      </trkpt>
      <trkpt lat="46.00162" lon="4.84792">
        <ele>260</ele>
        <time>2018-10-02T09:58:30Z</time>
      </trkpt>
      <trkpt lat="46.00162" lon="4.84784">
        <ele>259</ele>
        <time>2018-10-02T09:58:31Z</time>
      </trkpt>
      <trkpt lat="46.00162" lon="4.84777">
        <ele>259</ele>
        <time>2018-10-02T09:58:32Z</time>
      </trkpt>
      <trkpt lat="46.00161" lon="4.8477">
        <ele>259</ele>
        <time>2018-10-02T09:58:33Z</time>
      </trkpt>
      <trkpt lat="46.0016" lon="4.84762">
        <ele>259</ele>
        <time>2018-10-02T09:58:34Z</time>
      </trkpt>
      <trkpt lat="46.00161" lon="4.84755">
        <ele>258</ele>
        <time>2018-10-02T09:58:35Z</time>
      </trkpt>
      <trkpt lat="46.0016" lon="4.84743">
        <ele>258</ele>
        <time>2018-10-02T09:58:37Z</time>
      </trkpt>
      <trkpt lat="46.0016" lon="4.84736">
        <ele>258</ele>
        <time>2018-10-02T09:58:38Z</time>
      </trkpt>
      <trkpt lat="46.00164" lon="4.84729">
        <ele>258</ele>
        <time>2018-10-02T09:58:40Z</time>
      </trkpt>
      <trkpt lat="46.00168" lon="4.84728">
        <ele>258</ele>
        <time>2018-10-02T09:58:41Z</time>
      </trkpt>
      <trkpt lat="46.00174" lon="4.84726">
        <ele>258</ele>
        <time>2018-10-02T09:58:43Z</time>
      </trkpt>
      <trkpt lat="46.00177" lon="4.84724">
        <ele>258</ele>
        <time>2018-10-02T09:58:44Z</time>
      </trkpt>
      <trkpt lat="46.00181" lon="4.84716">
        <ele>258</ele>
        <time>2018-10-02T09:58:46Z</time>
      </trkpt>
      <trkpt lat="46.00181" lon="4.84711">
        <ele>258</ele>
        <time>2018-10-02T09:58:47Z</time>
      </trkpt>
      <trkpt lat="46.00178" lon="4.84701">
        <ele>258</ele>
        <time>2018-10-02T09:58:49Z</time>
      </trkpt>
      <trkpt lat="46.00175" lon="4.84697">
        <ele>258</ele>
        <time>2018-10-02T09:58:50Z</time>
      </trkpt>
      <trkpt lat="46.00166" lon="4.84697">
        <ele>258</ele>
        <time>2018-10-02T09:58:52Z</time>
      </trkpt>
      <trkpt lat="46.00162" lon="4.84699">
        <ele>258</ele>
        <time>2018-10-02T09:58:53Z</time>
      </trkpt>
      <trkpt lat="46.00154" lon="4.84703">
        <ele>258</ele>
        <time>2018-10-02T09:58:55Z</time>
      </trkpt>
      <trkpt lat="46.00151" lon="4.84706">
        <ele>258</ele>
        <time>2018-10-02T09:58:56Z</time>
      </trkpt>
      <trkpt lat="46.00147" lon="4.84707">
        <ele>258</ele>
        <time>2018-10-02T09:58:57Z</time>
      </trkpt>
      <trkpt lat="46.00141" lon="4.8471">
        <ele>258</ele>
        <time>2018-10-02T09:58:58Z</time>
      </trkpt>
      <trkpt lat="46.00132" lon="4.8471">
        <ele>258</ele>
        <time>2018-10-02T09:59:00Z</time>
      </trkpt>
      <trkpt lat="46.00127" lon="4.84709">
        <ele>258</ele>
        <time>2018-10-02T09:59:01Z</time>
      </trkpt>
      <trkpt lat="46.00122" lon="4.84708">
        <ele>257</ele>
        <time>2018-10-02T09:59:02Z</time>
      </trkpt>
      <trkpt lat="46.00117" lon="4.84708">
        <ele>257</ele>
        <time>2018-10-02T09:59:03Z</time>
      </trkpt>
      <trkpt lat="46.00108" lon="4.84707">
        <ele>257</ele>
        <time>2018-10-02T09:59:05Z</time>
      </trkpt>
      <trkpt lat="46.00104" lon="4.84706">
        <ele>257</ele>
        <time>2018-10-02T09:59:06Z</time>
      </trkpt>
      <trkpt lat="46.00096" lon="4.84706">
        <ele>257</ele>
        <time>2018-10-02T09:59:08Z</time>
      </trkpt>
      <trkpt lat="46.00093" lon="4.84705">
        <ele>257</ele>
        <time>2018-10-02T09:59:09Z</time>
      </trkpt>
      <trkpt lat="46.00087" lon="4.847">
        <ele>257</ele>
        <time>2018-10-02T09:59:11Z</time>
      </trkpt>
      <trkpt lat="46.00084" lon="4.84695">
        <ele>257</ele>
        <time>2018-10-02T09:59:12Z</time>
      </trkpt>
      <trkpt lat="46.00083" lon="4.84683">
        <ele>257</ele>
        <time>2018-10-02T09:59:14Z</time>
      </trkpt>
      <trkpt lat="46.00083" lon="4.84676">
        <ele>257</ele>
        <time>2018-10-02T09:59:15Z</time>
      </trkpt>
      <trkpt lat="46.00082" lon="4.84665">
        <ele>256</ele>
        <time>2018-10-02T09:59:17Z</time>
      </trkpt>
      <trkpt lat="46.00082" lon="4.84658">
        <ele>256</ele>
        <time>2018-10-02T09:59:18Z</time>
      </trkpt>
      <trkpt lat="46.00082" lon="4.84652">
        <ele>256</ele>
        <time>2018-10-02T09:59:19Z</time>
      </trkpt>
      <trkpt lat="46.00082" lon="4.84644">
        <ele>256</ele>
        <time>2018-10-02T09:59:20Z</time>
      </trkpt>
      <trkpt lat="46.00081" lon="4.84636">
        <ele>256</ele>
        <time>2018-10-02T09:59:21Z</time>
      </trkpt>
      <trkpt lat="46.00082" lon="4.8463">
        <ele>256</ele>
        <time>2018-10-02T09:59:22Z</time>
      </trkpt>
      <trkpt lat="46.00083" lon="4.84624">
        <ele>256</ele>
        <time>2018-10-02T09:59:23Z</time>
      </trkpt>
      <trkpt lat="46.00082" lon="4.84617">
        <ele>256</ele>
        <time>2018-10-02T09:59:24Z</time>
      </trkpt>
      <trkpt lat="46.00082" lon="4.84605">
        <ele>256</ele>
        <time>2018-10-02T09:59:26Z</time>
      </trkpt>
      <trkpt lat="46.00081" lon="4.84599">
        <ele>256</ele>
        <time>2018-10-02T09:59:27Z</time>
      </trkpt>
      <trkpt lat="46.00081" lon="4.84587">
        <ele>257</ele>
        <time>2018-10-02T09:59:29Z</time>
      </trkpt>
      <trkpt lat="46.0008" lon="4.84581">
        <ele>257</ele>
        <time>2018-10-02T09:59:30Z</time>
      </trkpt>
      <trkpt lat="46.00079" lon="4.8457">
        <ele>257</ele>
        <time>2018-10-02T09:59:32Z</time>
      </trkpt>
      <trkpt lat="46.00079" lon="4.84564">
        <ele>257</ele>
        <time>2018-10-02T09:59:33Z</time>
      </trkpt>
      <trkpt lat="46.00078" lon="4.84552">
        <ele>257</ele>
        <time>2018-10-02T09:59:35Z</time>
      </trkpt>
      <trkpt lat="46.00078" lon="4.84546">
        <ele>257</ele>
        <time>2018-10-02T09:59:36Z</time>
      </trkpt>
      <trkpt lat="46.00077" lon="4.84533">
        <ele>257</ele>
        <time>2018-10-02T09:59:38Z</time>
      </trkpt>
      <trkpt lat="46.00076" lon="4.84528">
        <ele>257</ele>
        <time>2018-10-02T09:59:39Z</time>
      </trkpt>
      <trkpt lat="46.00074" lon="4.84516">
        <ele>258</ele>
        <time>2018-10-02T09:59:41Z</time>
      </trkpt>
      <trkpt lat="46.00072" lon="4.8451">
        <ele>258</ele>
        <time>2018-10-02T09:59:42Z</time>
      </trkpt>
      <trkpt lat="46.0007" lon="4.84498">
        <ele>259</ele>
        <time>2018-10-02T09:59:44Z</time>
      </trkpt>
      <trkpt lat="46.0007" lon="4.84491">
        <ele>258</ele>
        <time>2018-10-02T09:59:45Z</time>
      </trkpt>
      <trkpt lat="46.00069" lon="4.84485">
        <ele>258</ele>
        <time>2018-10-02T09:59:46Z</time>
      </trkpt>
      <trkpt lat="46.00068" lon="4.84478">
        <ele>258</ele>
        <time>2018-10-02T09:59:47Z</time>
      </trkpt>
      <trkpt lat="46.00066" lon="4.84471">
        <ele>258</ele>
        <time>2018-10-02T09:59:48Z</time>
      </trkpt>
      <trkpt lat="46.00065" lon="4.84465">
        <ele>258</ele>
        <time>2018-10-02T09:59:49Z</time>
      </trkpt>
      <trkpt lat="46.00063" lon="4.84452">
        <ele>258</ele>
        <time>2018-10-02T09:59:51Z</time>
      </trkpt>
      <trkpt lat="46.00063" lon="4.84447">
        <ele>258</ele>
        <time>2018-10-02T09:59:52Z</time>
      </trkpt>
      <trkpt lat="46.00061" lon="4.84435">
        <ele>258</ele>
        <time>2018-10-02T09:59:54Z</time>
      </trkpt>
      <trkpt lat="46.0006" lon="4.84429">
        <ele>258</ele>
        <time>2018-10-02T09:59:55Z</time>
      </trkpt>
      <trkpt lat="46.00058" lon="4.84417">
        <ele>258</ele>
        <time>2018-10-02T09:59:57Z</time>
      </trkpt>
      <trkpt lat="46.00058" lon="4.84412">
        <ele>259</ele>
        <time>2018-10-02T09:59:58Z</time>
      </trkpt>
      <trkpt lat="46.00057" lon="4.84406">
        <ele>259</ele>
        <time>2018-10-02T09:59:59Z</time>
      </trkpt>
      <trkpt lat="46.00055" lon="4.84399">
        <ele>259</ele>
        <time>2018-10-02T10:00:00Z</time>
      </trkpt>
      <trkpt lat="46.00054" lon="4.84393">
        <ele>259</ele>
        <time>2018-10-02T10:00:01Z</time>
      </trkpt>
      <trkpt lat="46.00053" lon="4.84386">
        <ele>259</ele>
        <time>2018-10-02T10:00:02Z</time>
      </trkpt>
      <trkpt lat="46.00052" lon="4.84373">
        <ele>259</ele>
        <time>2018-10-02T10:00:04Z</time>
      </trkpt>
      <trkpt lat="46.00051" lon="4.8437">
        <ele>259</ele>
        <time>2018-10-02T10:00:05Z</time>
      </trkpt>
      <trkpt lat="46.0005" lon="4.84363">
        <ele>259</ele>
        <time>2018-10-02T10:00:06Z</time>
      </trkpt>
      <trkpt lat="46.00049" lon="4.84358">
        <ele>259</ele>
        <time>2018-10-02T10:00:07Z</time>
      </trkpt>
      <trkpt lat="46.00046" lon="4.84348">
        <ele>259</ele>
        <time>2018-10-02T10:00:09Z</time>
      </trkpt>
      <trkpt lat="46.00045" lon="4.84342">
        <ele>259</ele>
        <time>2018-10-02T10:00:10Z</time>
      </trkpt>
      <trkpt lat="46.00043" lon="4.84331">
        <ele>260</ele>
        <time>2018-10-02T10:00:12Z</time>
      </trkpt>
      <trkpt lat="46.00041" lon="4.84325">
        <ele>259</ele>
        <time>2018-10-02T10:00:13Z</time>
      </trkpt>
      <trkpt lat="46.00038" lon="4.84314">
        <ele>259</ele>
        <time>2018-10-02T10:00:15Z</time>
      </trkpt>
      <trkpt lat="46.00036" lon="4.84308">
        <ele>259</ele>
        <time>2018-10-02T10:00:16Z</time>
      </trkpt>
      <trkpt lat="46.00034" lon="4.84302">
        <ele>259</ele>
        <time>2018-10-02T10:00:17Z</time>
      </trkpt>
      <trkpt lat="46.00032" lon="4.84296">
        <ele>259</ele>
        <time>2018-10-02T10:00:18Z</time>
      </trkpt>
      <trkpt lat="46.00029" lon="4.84285">
        <ele>260</ele>
        <time>2018-10-02T10:00:20Z</time>
      </trkpt>
      <trkpt lat="46.00027" lon="4.84279">
        <ele>260</ele>
        <time>2018-10-02T10:00:21Z</time>
      </trkpt>
      <trkpt lat="46.00024" lon="4.8427">
        <ele>260</ele>
        <time>2018-10-02T10:00:23Z</time>
      </trkpt>
      <trkpt lat="46.00022" lon="4.84265">
        <ele>260</ele>
        <time>2018-10-02T10:00:24Z</time>
      </trkpt>
      <trkpt lat="46.00021" lon="4.84259">
        <ele>260</ele>
        <time>2018-10-02T10:00:25Z</time>
      </trkpt>
      <trkpt lat="46.0002" lon="4.84252">
        <ele>260</ele>
        <time>2018-10-02T10:00:26Z</time>
      </trkpt>
      <trkpt lat="46.00018" lon="4.84246">
        <ele>259</ele>
        <time>2018-10-02T10:00:27Z</time>
      </trkpt>
      <trkpt lat="46.00017" lon="4.8424">
        <ele>259</ele>
        <time>2018-10-02T10:00:28Z</time>
      </trkpt>
      <trkpt lat="46.00015" lon="4.84233">
        <ele>259</ele>
        <time>2018-10-02T10:00:29Z</time>
      </trkpt>
      <trkpt lat="46.00012" lon="4.84226">
        <ele>259</ele>
        <time>2018-10-02T10:00:30Z</time>
      </trkpt>
      <trkpt lat="46.0001" lon="4.84219">
        <ele>259</ele>
        <time>2018-10-02T10:00:31Z</time>
      </trkpt>
      <trkpt lat="46.00007" lon="4.84212">
        <ele>259</ele>
        <time>2018-10-02T10:00:32Z</time>
      </trkpt>
      <trkpt lat="46.00005" lon="4.84204">
        <ele>259</ele>
        <time>2018-10-02T10:00:33Z</time>
      </trkpt>
      <trkpt lat="46.00003" lon="4.84196">
        <ele>258</ele>
        <time>2018-10-02T10:00:34Z</time>
      </trkpt>
      <trkpt lat="46" lon="4.8419">
        <ele>257</ele>
        <time>2018-10-02T10:00:35Z</time>
      </trkpt>
      <trkpt lat="45.99998" lon="4.84182">
        <ele>257</ele>
        <time>2018-10-02T10:00:36Z</time>
      </trkpt>
      <trkpt lat="45.99996" lon="4.84174">
        <ele>257</ele>
        <time>2018-10-02T10:00:37Z</time>
      </trkpt>
      <trkpt lat="45.99994" lon="4.84169">
        <ele>257</ele>
        <time>2018-10-02T10:00:38Z</time>
      </trkpt>
      <trkpt lat="45.99992" lon="4.84162">
        <ele>257</ele>
        <time>2018-10-02T10:00:39Z</time>
      </trkpt>
      <trkpt lat="45.99991" lon="4.84156">
        <ele>257</ele>
        <time>2018-10-02T10:00:40Z</time>
      </trkpt>
      <trkpt lat="45.99988" lon="4.84144">
        <ele>257</ele>
        <time>2018-10-02T10:00:42Z</time>
      </trkpt>
      <trkpt lat="45.99987" lon="4.84138">
        <ele>257</ele>
        <time>2018-10-02T10:00:43Z</time>
      </trkpt>
      <trkpt lat="45.99984" lon="4.84127">
        <ele>257</ele>
        <time>2018-10-02T10:00:45Z</time>
      </trkpt>
      <trkpt lat="45.99982" lon="4.84121">
        <ele>258</ele>
        <time>2018-10-02T10:00:46Z</time>
      </trkpt>
      <trkpt lat="45.9998" lon="4.84114">
        <ele>258</ele>
        <time>2018-10-02T10:00:47Z</time>
      </trkpt>
      <trkpt lat="45.99978" lon="4.84107">
        <ele>258</ele>
        <time>2018-10-02T10:00:48Z</time>
      </trkpt>
      <trkpt lat="45.99976" lon="4.84101">
        <ele>258</ele>
        <time>2018-10-02T10:00:49Z</time>
      </trkpt>
      <trkpt lat="45.99974" lon="4.84094">
        <ele>258</ele>
        <time>2018-10-02T10:00:50Z</time>
      </trkpt>
      <trkpt lat="45.99972" lon="4.84086">
        <ele>258</ele>
        <time>2018-10-02T10:00:51Z</time>
      </trkpt>
      <trkpt lat="45.9997" lon="4.84079">
        <ele>259</ele>
        <time>2018-10-02T10:00:52Z</time>
      </trkpt>
      <trkpt lat="45.99969" lon="4.84073">
        <ele>259</ele>
        <time>2018-10-02T10:00:53Z</time>
      </trkpt>
      <trkpt lat="45.99967" lon="4.84066">
        <ele>258</ele>
        <time>2018-10-02T10:00:54Z</time>
      </trkpt>
      <trkpt lat="45.99965" lon="4.84058">
        <ele>258</ele>
        <time>2018-10-02T10:00:55Z</time>
      </trkpt>
      <trkpt lat="45.99963" lon="4.84051">
        <ele>259</ele>
        <time>2018-10-02T10:00:56Z</time>
      </trkpt>
      <trkpt lat="45.99962" lon="4.84043">
        <ele>259</ele>
        <time>2018-10-02T10:00:57Z</time>
      </trkpt>
      <trkpt lat="45.99959" lon="4.84035">
        <ele>259</ele>
        <time>2018-10-02T10:00:58Z</time>
      </trkpt>
      <trkpt lat="45.99958" lon="4.84027">
        <ele>259</ele>
        <time>2018-10-02T10:00:59Z</time>
      </trkpt>
      <trkpt lat="45.99956" lon="4.8402">
        <ele>259</ele>
        <time>2018-10-02T10:01:00Z</time>
      </trkpt>
      <trkpt lat="45.99954" lon="4.84012">
        <ele>259</ele>
        <time>2018-10-02T10:01:01Z</time>
      </trkpt>
      <trkpt lat="45.99952" lon="4.84004">
        <ele>259</ele>
        <time>2018-10-02T10:01:02Z</time>
      </trkpt>
      <trkpt lat="45.9995" lon="4.83997">
        <ele>259</ele>
        <time>2018-10-02T10:01:03Z</time>
      </trkpt>
      <trkpt lat="45.99947" lon="4.8399">
        <ele>259</ele>
        <time>2018-10-02T10:01:04Z</time>
      </trkpt>
      <trkpt lat="45.99945" lon="4.83982">
        <ele>259</ele>
        <time>2018-10-02T10:01:05Z</time>
      </trkpt>
      <trkpt lat="45.99944" lon="4.83974">
        <ele>259</ele>
        <time>2018-10-02T10:01:06Z</time>
      </trkpt>
      <trkpt lat="45.99942" lon="4.83967">
        <ele>259</ele>
        <time>2018-10-02T10:01:07Z</time>
      </trkpt>
      <trkpt lat="45.99938" lon="4.8396">
        <ele>259</ele>
        <time>2018-10-02T10:01:08Z</time>
      </trkpt>
      <trkpt lat="45.99936" lon="4.83952">
        <ele>259</ele>
        <time>2018-10-02T10:01:09Z</time>
      </trkpt>
      <trkpt lat="45.99935" lon="4.83945">
        <ele>259</ele>
        <time>2018-10-02T10:01:10Z</time>
      </trkpt>
      <trkpt lat="45.99933" lon="4.83939">
        <ele>259</ele>
        <time>2018-10-02T10:01:11Z</time>
      </trkpt>
      <trkpt lat="45.99931" lon="4.83932">
        <ele>259</ele>
        <time>2018-10-02T10:01:12Z</time>
      </trkpt>
      <trkpt lat="45.99928" lon="4.83926">
        <ele>259</ele>
        <time>2018-10-02T10:01:13Z</time>
      </trkpt>
      <trkpt lat="45.99926" lon="4.8392">
        <ele>259</ele>
        <time>2018-10-02T10:01:14Z</time>
      </trkpt>
      <trkpt lat="45.99925" lon="4.83914">
        <ele>259</ele>
        <time>2018-10-02T10:01:15Z</time>
      </trkpt>
      <trkpt lat="45.99923" lon="4.83908">
        <ele>259</ele>
        <time>2018-10-02T10:01:16Z</time>
      </trkpt>
      <trkpt lat="45.99922" lon="4.83901">
        <ele>259</ele>
        <time>2018-10-02T10:01:17Z</time>
      </trkpt>
      <trkpt lat="45.99919" lon="4.83895">
        <ele>259</ele>
        <time>2018-10-02T10:01:18Z</time>
      </trkpt>
      <trkpt lat="45.99917" lon="4.83887">
        <ele>259</ele>
        <time>2018-10-02T10:01:19Z</time>
      </trkpt>
      <trkpt lat="45.99915" lon="4.8388">
        <ele>258</ele>
        <time>2018-10-02T10:01:20Z</time>
      </trkpt>
      <trkpt lat="45.99912" lon="4.83872">
        <ele>258</ele>
        <time>2018-10-02T10:01:21Z</time>
      </trkpt>
      <trkpt lat="45.9991" lon="4.83864">
        <ele>258</ele>
        <time>2018-10-02T10:01:22Z</time>
      </trkpt>
      <trkpt lat="45.99907" lon="4.83857">
        <ele>258</ele>
        <time>2018-10-02T10:01:23Z</time>
      </trkpt>
      <trkpt lat="45.99904" lon="4.83849">
        <ele>258</ele>
        <time>2018-10-02T10:01:24Z</time>
      </trkpt>
      <trkpt lat="45.99902" lon="4.83841">
        <ele>258</ele>
        <time>2018-10-02T10:01:25Z</time>
      </trkpt>
      <trkpt lat="45.999" lon="4.83832">
        <ele>257</ele>
        <time>2018-10-02T10:01:26Z</time>
      </trkpt>
      <trkpt lat="45.99899" lon="4.83826">
        <ele>257</ele>
        <time>2018-10-02T10:01:27Z</time>
      </trkpt>
      <trkpt lat="45.99896" lon="4.83817">
        <ele>257</ele>
        <time>2018-10-02T10:01:28Z</time>
      </trkpt>
      <trkpt lat="45.99894" lon="4.83808">
        <ele>257</ele>
        <time>2018-10-02T10:01:29Z</time>
      </trkpt>
      <trkpt lat="45.99892" lon="4.83801">
        <ele>257</ele>
        <time>2018-10-02T10:01:30Z</time>
      </trkpt>
      <trkpt lat="45.99891" lon="4.83794">
        <ele>257</ele>
        <time>2018-10-02T10:01:31Z</time>
      </trkpt>
      <trkpt lat="45.99889" lon="4.83786">
        <ele>257</ele>
        <time>2018-10-02T10:01:32Z</time>
      </trkpt>
      <trkpt lat="45.99888" lon="4.83779">
        <ele>257</ele>
        <time>2018-10-02T10:01:33Z</time>
      </trkpt>
      <trkpt lat="45.99885" lon="4.83772">
        <ele>257</ele>
        <time>2018-10-02T10:01:34Z</time>
      </trkpt>
      <trkpt lat="45.99883" lon="4.83765">
        <ele>256</ele>
        <time>2018-10-02T10:01:35Z</time>
      </trkpt>
      <trkpt lat="45.99881" lon="4.83758">
        <ele>256</ele>
        <time>2018-10-02T10:01:36Z</time>
      </trkpt>
      <trkpt lat="45.99879" lon="4.83751">
        <ele>256</ele>
        <time>2018-10-02T10:01:37Z</time>
      </trkpt>
      <trkpt lat="45.99876" lon="4.83744">
        <ele>256</ele>
        <time>2018-10-02T10:01:38Z</time>
      </trkpt>
      <trkpt lat="45.99874" lon="4.83737">
        <ele>256</ele>
        <time>2018-10-02T10:01:39Z</time>
      </trkpt>
      <trkpt lat="45.99872" lon="4.8373">
        <ele>256</ele>
        <time>2018-10-02T10:01:40Z</time>
      </trkpt>
      <trkpt lat="45.99871" lon="4.83723">
        <ele>256</ele>
        <time>2018-10-02T10:01:41Z</time>
      </trkpt>
      <trkpt lat="45.99868" lon="4.83715">
        <ele>256</ele>
        <time>2018-10-02T10:01:42Z</time>
      </trkpt>
      <trkpt lat="45.99867" lon="4.83708">
        <ele>256</ele>
        <time>2018-10-02T10:01:43Z</time>
      </trkpt>
      <trkpt lat="45.99864" lon="4.837">
        <ele>256</ele>
        <time>2018-10-02T10:01:44Z</time>
      </trkpt>
      <trkpt lat="45.99862" lon="4.83692">
        <ele>256</ele>
        <time>2018-10-02T10:01:45Z</time>
      </trkpt>
      <trkpt lat="45.99861" lon="4.83685">
        <ele>256</ele>
        <time>2018-10-02T10:01:46Z</time>
      </trkpt>
      <trkpt lat="45.99858" lon="4.83676">
        <ele>256</ele>
        <time>2018-10-02T10:01:47Z</time>
      </trkpt>
      <trkpt lat="45.99857" lon="4.83667">
        <ele>256</ele>
        <time>2018-10-02T10:01:48Z</time>
      </trkpt>
      <trkpt lat="45.99854" lon="4.83659">
        <ele>257</ele>
        <time>2018-10-02T10:01:49Z</time>
      </trkpt>
      <trkpt lat="45.99852" lon="4.83651">
        <ele>257</ele>
        <time>2018-10-02T10:01:50Z</time>
      </trkpt>
      <trkpt lat="45.99851" lon="4.83644">
        <ele>257</ele>
        <time>2018-10-02T10:01:51Z</time>
      </trkpt>
      <trkpt lat="45.99849" lon="4.83636">
        <ele>257</ele>
        <time>2018-10-02T10:01:52Z</time>
      </trkpt>
      <trkpt lat="45.99848" lon="4.8363">
        <ele>257</ele>
        <time>2018-10-02T10:01:53Z</time>
      </trkpt>
      <trkpt lat="45.99847" lon="4.83623">
        <ele>257</ele>
        <time>2018-10-02T10:01:54Z</time>
      </trkpt>
      <trkpt lat="45.99845" lon="4.83617">
        <ele>257</ele>
        <time>2018-10-02T10:01:55Z</time>
      </trkpt>
      <trkpt lat="45.99844" lon="4.83609">
        <ele>257</ele>
        <time>2018-10-02T10:01:56Z</time>
      </trkpt>
      <trkpt lat="45.99842" lon="4.83603">
        <ele>257</ele>
        <time>2018-10-02T10:01:57Z</time>
      </trkpt>
      <trkpt lat="45.99841" lon="4.83596">
        <ele>257</ele>
        <time>2018-10-02T10:01:58Z</time>
      </trkpt>
      <trkpt lat="45.9984" lon="4.8359">
        <ele>257</ele>
        <time>2018-10-02T10:01:59Z</time>
      </trkpt>
      <trkpt lat="45.99838" lon="4.83583">
        <ele>257</ele>
        <time>2018-10-02T10:02:00Z</time>
      </trkpt>
      <trkpt lat="45.99836" lon="4.83577">
        <ele>257</ele>
        <time>2018-10-02T10:02:01Z</time>
      </trkpt>
      <trkpt lat="45.99835" lon="4.83571">
        <ele>258</ele>
        <time>2018-10-02T10:02:02Z</time>
      </trkpt>
      <trkpt lat="45.99832" lon="4.83559">
        <ele>258</ele>
        <time>2018-10-02T10:02:04Z</time>
      </trkpt>
      <trkpt lat="45.99831" lon="4.83553">
        <ele>258</ele>
        <time>2018-10-02T10:02:05Z</time>
      </trkpt>
      <trkpt lat="45.99829" lon="4.83546">
        <ele>259</ele>
        <time>2018-10-02T10:02:06Z</time>
      </trkpt>
      <trkpt lat="45.99828" lon="4.8354">
        <ele>259</ele>
        <time>2018-10-02T10:02:07Z</time>
      </trkpt>
      <trkpt lat="45.99826" lon="4.83533">
        <ele>259</ele>
        <time>2018-10-02T10:02:08Z</time>
      </trkpt>
      <trkpt lat="45.99824" lon="4.83527">
        <ele>259</ele>
        <time>2018-10-02T10:02:09Z</time>
      </trkpt>
      <trkpt lat="45.99822" lon="4.8352">
        <ele>259</ele>
        <time>2018-10-02T10:02:10Z</time>
      </trkpt>
      <trkpt lat="45.99821" lon="4.83514">
        <ele>259</ele>
        <time>2018-10-02T10:02:11Z</time>
      </trkpt>
      <trkpt lat="45.99817" lon="4.83507">
        <ele>259</ele>
        <time>2018-10-02T10:02:12Z</time>
      </trkpt>
      <trkpt lat="45.99816" lon="4.835">
        <ele>259</ele>
        <time>2018-10-02T10:02:13Z</time>
      </trkpt>
      <trkpt lat="45.99815" lon="4.83494">
        <ele>260</ele>
        <time>2018-10-02T10:02:14Z</time>
      </trkpt>
      <trkpt lat="45.99814" lon="4.83488">
        <ele>260</ele>
        <time>2018-10-02T10:02:15Z</time>
      </trkpt>
      <trkpt lat="45.99813" lon="4.83481">
        <ele>260</ele>
        <time>2018-10-02T10:02:16Z</time>
      </trkpt>
      <trkpt lat="45.99812" lon="4.83475">
        <ele>260</ele>
        <time>2018-10-02T10:02:17Z</time>
      </trkpt>
      <trkpt lat="45.9981" lon="4.83464">
        <ele>261</ele>
        <time>2018-10-02T10:02:19Z</time>
      </trkpt>
      <trkpt lat="45.99809" lon="4.83457">
        <ele>261</ele>
        <time>2018-10-02T10:02:20Z</time>
      </trkpt>
      <trkpt lat="45.99806" lon="4.83446">
        <ele>261</ele>
        <time>2018-10-02T10:02:22Z</time>
      </trkpt>
      <trkpt lat="45.99805" lon="4.8344">
        <ele>261</ele>
        <time>2018-10-02T10:02:23Z</time>
      </trkpt>
      <trkpt lat="45.99802" lon="4.83429">
        <ele>261</ele>
        <time>2018-10-02T10:02:25Z</time>
      </trkpt>
      <trkpt lat="45.998" lon="4.83424">
        <ele>261</ele>
        <time>2018-10-02T10:02:26Z</time>
      </trkpt>
      <trkpt lat="45.99797" lon="4.83412">
        <ele>262</ele>
        <time>2018-10-02T10:02:28Z</time>
      </trkpt>
      <trkpt lat="45.99796" lon="4.83407">
        <ele>262</ele>
        <time>2018-10-02T10:02:29Z</time>
      </trkpt>
      <trkpt lat="45.99793" lon="4.83397">
        <ele>262</ele>
        <time>2018-10-02T10:02:31Z</time>
      </trkpt>
      <trkpt lat="45.99792" lon="4.83392">
        <ele>262</ele>
        <time>2018-10-02T10:02:32Z</time>
      </trkpt>
      <trkpt lat="45.99789" lon="4.83381">
        <ele>262</ele>
        <time>2018-10-02T10:02:34Z</time>
      </trkpt>
      <trkpt lat="45.99788" lon="4.83375">
        <ele>262</ele>
        <time>2018-10-02T10:02:35Z</time>
      </trkpt>
      <trkpt lat="45.99785" lon="4.83363">
        <ele>262</ele>
        <time>2018-10-02T10:02:37Z</time>
      </trkpt>
      <trkpt lat="45.99784" lon="4.83358">
        <ele>262</ele>
        <time>2018-10-02T10:02:38Z</time>
      </trkpt>
      <trkpt lat="45.99782" lon="4.83351">
        <ele>262</ele>
        <time>2018-10-02T10:02:39Z</time>
      </trkpt>
      <trkpt lat="45.99781" lon="4.83345">
        <ele>263</ele>
        <time>2018-10-02T10:02:40Z</time>
      </trkpt>
      <trkpt lat="45.99779" lon="4.83333">
        <ele>264</ele>
        <time>2018-10-02T10:02:42Z</time>
      </trkpt>
      <trkpt lat="45.99778" lon="4.8333">
        <ele>264</ele>
        <time>2018-10-02T10:02:43Z</time>
      </trkpt>
      <trkpt lat="45.99776" lon="4.8332">
        <ele>264</ele>
        <time>2018-10-02T10:02:46Z</time>
      </trkpt>
      <trkpt lat="45.99775" lon="4.83316">
        <ele>264</ele>
        <time>2018-10-02T10:02:47Z</time>
      </trkpt>
      <trkpt lat="45.99773" lon="4.83307">
        <ele>264</ele>
        <time>2018-10-02T10:02:49Z</time>
      </trkpt>
      <trkpt lat="45.99771" lon="4.83294">
        <ele>264</ele>
        <time>2018-10-02T10:02:50Z</time>
      </trkpt>
      <trkpt lat="45.9977" lon="4.83284">
        <ele>265</ele>
        <time>2018-10-02T10:02:52Z</time>
      </trkpt>
      <trkpt lat="45.99769" lon="4.83278">
        <ele>265</ele>
        <time>2018-10-02T10:02:53Z</time>
      </trkpt>
      <trkpt lat="45.99769" lon="4.83267">
        <ele>265</ele>
        <time>2018-10-02T10:02:55Z</time>
      </trkpt>
      <trkpt lat="45.99769" lon="4.83261">
        <ele>265</ele>
        <time>2018-10-02T10:02:56Z</time>
      </trkpt>
      <trkpt lat="45.99768" lon="4.8325">
        <ele>267</ele>
        <time>2018-10-02T10:02:58Z</time>
      </trkpt>
      <trkpt lat="45.99768" lon="4.83244">
        <ele>267</ele>
        <time>2018-10-02T10:02:59Z</time>
      </trkpt>
      <trkpt lat="45.99767" lon="4.83233">
        <ele>267</ele>
        <time>2018-10-02T10:03:01Z</time>
      </trkpt>
      <trkpt lat="45.99767" lon="4.83228">
        <ele>267</ele>
        <time>2018-10-02T10:03:02Z</time>
      </trkpt>
      <trkpt lat="45.99766" lon="4.83217">
        <ele>268</ele>
        <time>2018-10-02T10:03:04Z</time>
      </trkpt>
      <trkpt lat="45.99766" lon="4.83215">
        <ele>268</ele>
        <time>2018-10-02T10:03:05Z</time>
      </trkpt>
      <trkpt lat="45.99765" lon="4.83204">
        <ele>268</ele>
        <time>2018-10-02T10:03:08Z</time>
      </trkpt>
      <trkpt lat="45.99764" lon="4.832">
        <ele>268</ele>
        <time>2018-10-02T10:03:09Z</time>
      </trkpt>
      <trkpt lat="45.99763" lon="4.83191">
        <ele>269</ele>
        <time>2018-10-02T10:03:11Z</time>
      </trkpt>
      <trkpt lat="45.99763" lon="4.83187">
        <ele>269</ele>
        <time>2018-10-02T10:03:12Z</time>
      </trkpt>
      <trkpt lat="45.99762" lon="4.83177">
        <ele>269</ele>
        <time>2018-10-02T10:03:14Z</time>
      </trkpt>
      <trkpt lat="45.99762" lon="4.83172">
        <ele>269</ele>
        <time>2018-10-02T10:03:15Z</time>
      </trkpt>
      <trkpt lat="45.99761" lon="4.83163">
        <ele>270</ele>
        <time>2018-10-02T10:03:17Z</time>
      </trkpt>
      <trkpt lat="45.99761" lon="4.83159">
        <ele>271</ele>
        <time>2018-10-02T10:03:18Z</time>
      </trkpt>
      <trkpt lat="45.9976" lon="4.8315">
        <ele>271</ele>
        <time>2018-10-02T10:03:20Z</time>
      </trkpt>
      <trkpt lat="45.9976" lon="4.83145">
        <ele>271</ele>
        <time>2018-10-02T10:03:21Z</time>
      </trkpt>
      <trkpt lat="45.9976" lon="4.83137">
        <ele>271</ele>
        <time>2018-10-02T10:03:23Z</time>
      </trkpt>
      <trkpt lat="45.99759" lon="4.83132">
        <ele>271</ele>
        <time>2018-10-02T10:03:24Z</time>
      </trkpt>
      <trkpt lat="45.99758" lon="4.83124">
        <ele>271</ele>
        <time>2018-10-02T10:03:26Z</time>
      </trkpt>
      <trkpt lat="45.99758" lon="4.8312">
        <ele>271</ele>
        <time>2018-10-02T10:03:27Z</time>
      </trkpt>
      <trkpt lat="45.99757" lon="4.83111">
        <ele>271</ele>
        <time>2018-10-02T10:03:29Z</time>
      </trkpt>
      <trkpt lat="45.99756" lon="4.83107">
        <ele>271</ele>
        <time>2018-10-02T10:03:30Z</time>
      </trkpt>
      <trkpt lat="45.99755" lon="4.83098">
        <ele>272</ele>
        <time>2018-10-02T10:03:32Z</time>
      </trkpt>
      <trkpt lat="45.99755" lon="4.83094">
        <ele>272</ele>
        <time>2018-10-02T10:03:33Z</time>
      </trkpt>
      <trkpt lat="45.99754" lon="4.83085">
        <ele>272</ele>
        <time>2018-10-02T10:03:35Z</time>
      </trkpt>
      <trkpt lat="45.99754" lon="4.8308">
        <ele>272</ele>
        <time>2018-10-02T10:03:36Z</time>
      </trkpt>
      <trkpt lat="45.99753" lon="4.83071">
        <ele>272</ele>
        <time>2018-10-02T10:03:38Z</time>
      </trkpt>
      <trkpt lat="45.99752" lon="4.83066">
        <ele>272</ele>
        <time>2018-10-02T10:03:39Z</time>
      </trkpt>
      <trkpt lat="45.9975" lon="4.83056">
        <ele>272</ele>
        <time>2018-10-02T10:03:41Z</time>
      </trkpt>
      <trkpt lat="45.99749" lon="4.83052">
        <ele>271</ele>
        <time>2018-10-02T10:03:42Z</time>
      </trkpt>
      <trkpt lat="45.99747" lon="4.83043">
        <ele>271</ele>
        <time>2018-10-02T10:03:44Z</time>
      </trkpt>
      <trkpt lat="45.99746" lon="4.83038">
        <ele>271</ele>
        <time>2018-10-02T10:03:45Z</time>
      </trkpt>
      <trkpt lat="45.99744" lon="4.8303">
        <ele>271</ele>
        <time>2018-10-02T10:03:47Z</time>
      </trkpt>
      <trkpt lat="45.9974" lon="4.83016">
        <ele>271</ele>
        <time>2018-10-02T10:03:48Z</time>
      </trkpt>
      <trkpt lat="45.99739" lon="4.83011">
        <ele>271</ele>
        <time>2018-10-02T10:03:50Z</time>
      </trkpt>
      <trkpt lat="45.99736" lon="4.83002">
        <ele>271</ele>
        <time>2018-10-02T10:03:51Z</time>
      </trkpt>
      <trkpt lat="45.99733" lon="4.82992">
        <ele>271</ele>
        <time>2018-10-02T10:03:53Z</time>
      </trkpt>
      <trkpt lat="45.99731" lon="4.82987">
        <ele>271</ele>
        <time>2018-10-02T10:03:54Z</time>
      </trkpt>
      <trkpt lat="45.99728" lon="4.82976">
        <ele>271</ele>
        <time>2018-10-02T10:03:56Z</time>
      </trkpt>
      <trkpt lat="45.99726" lon="4.8297">
        <ele>271</ele>
        <time>2018-10-02T10:03:57Z</time>
      </trkpt>
      <trkpt lat="45.99724" lon="4.82964">
        <ele>271</ele>
        <time>2018-10-02T10:03:58Z</time>
      </trkpt>
      <trkpt lat="45.99722" lon="4.82958">
        <ele>271</ele>
        <time>2018-10-02T10:03:59Z</time>
      </trkpt>
      <trkpt lat="45.99718" lon="4.82947">
        <ele>271</ele>
        <time>2018-10-02T10:04:01Z</time>
      </trkpt>
      <trkpt lat="45.99717" lon="4.82941">
        <ele>271</ele>
        <time>2018-10-02T10:04:02Z</time>
      </trkpt>
      <trkpt lat="45.99713" lon="4.8293">
        <ele>271</ele>
        <time>2018-10-02T10:04:04Z</time>
      </trkpt>
      <trkpt lat="45.99711" lon="4.82925">
        <ele>271</ele>
        <time>2018-10-02T10:04:05Z</time>
      </trkpt>
      <trkpt lat="45.99709" lon="4.82914">
        <ele>271</ele>
        <time>2018-10-02T10:04:07Z</time>
      </trkpt>
      <trkpt lat="45.99707" lon="4.82908">
        <ele>271</ele>
        <time>2018-10-02T10:04:08Z</time>
      </trkpt>
      <trkpt lat="45.99705" lon="4.82902">
        <ele>271</ele>
        <time>2018-10-02T10:04:09Z</time>
      </trkpt>
      <trkpt lat="45.99704" lon="4.82895">
        <ele>271</ele>
        <time>2018-10-02T10:04:10Z</time>
      </trkpt>
      <trkpt lat="45.99701" lon="4.82888">
        <ele>271</ele>
        <time>2018-10-02T10:04:11Z</time>
      </trkpt>
      <trkpt lat="45.99699" lon="4.82881">
        <ele>271</ele>
        <time>2018-10-02T10:04:12Z</time>
      </trkpt>
      <trkpt lat="45.99697" lon="4.82874">
        <ele>270</ele>
        <time>2018-10-02T10:04:13Z</time>
      </trkpt>
      <trkpt lat="45.99695" lon="4.82866">
        <ele>270</ele>
        <time>2018-10-02T10:04:14Z</time>
      </trkpt>
      <trkpt lat="45.99693" lon="4.82859">
        <ele>270</ele>
        <time>2018-10-02T10:04:15Z</time>
      </trkpt>
      <trkpt lat="45.99691" lon="4.82852">
        <ele>270</ele>
        <time>2018-10-02T10:04:16Z</time>
      </trkpt>
      <trkpt lat="45.99688" lon="4.82846">
        <ele>270</ele>
        <time>2018-10-02T10:04:17Z</time>
      </trkpt>
      <trkpt lat="45.99685" lon="4.82839">
        <ele>270</ele>
        <time>2018-10-02T10:04:18Z</time>
      </trkpt>
      <trkpt lat="45.99682" lon="4.82832">
        <ele>270</ele>
        <time>2018-10-02T10:04:19Z</time>
      </trkpt>
      <trkpt lat="45.9968" lon="4.82825">
        <ele>270</ele>
        <time>2018-10-02T10:04:20Z</time>
      </trkpt>
      <trkpt lat="45.99678" lon="4.82817">
        <ele>270</ele>
        <time>2018-10-02T10:04:21Z</time>
      </trkpt>
      <trkpt lat="45.99676" lon="4.8281">
        <ele>270</ele>
        <time>2018-10-02T10:04:22Z</time>
      </trkpt>
      <trkpt lat="45.99675" lon="4.82803">
        <ele>270</ele>
        <time>2018-10-02T10:04:23Z</time>
      </trkpt>
      <trkpt lat="45.99674" lon="4.82794">
        <ele>270</ele>
        <time>2018-10-02T10:04:24Z</time>
      </trkpt>
      <trkpt lat="45.99672" lon="4.82786">
        <ele>269</ele>
        <time>2018-10-02T10:04:25Z</time>
      </trkpt>
      <trkpt lat="45.99671" lon="4.82778">
        <ele>269</ele>
        <time>2018-10-02T10:04:26Z</time>
      </trkpt>
      <trkpt lat="45.99669" lon="4.8277">
        <ele>269</ele>
        <time>2018-10-02T10:04:27Z</time>
      </trkpt>
      <trkpt lat="45.99668" lon="4.82762">
        <ele>269</ele>
        <time>2018-10-02T10:04:28Z</time>
      </trkpt>
      <trkpt lat="45.99667" lon="4.82753">
        <ele>269</ele>
        <time>2018-10-02T10:04:29Z</time>
      </trkpt>
      <trkpt lat="45.99666" lon="4.82744">
        <ele>269</ele>
        <time>2018-10-02T10:04:30Z</time>
      </trkpt>
      <trkpt lat="45.99665" lon="4.82736">
        <ele>268</ele>
        <time>2018-10-02T10:04:31Z</time>
      </trkpt>
      <trkpt lat="45.99665" lon="4.82727">
        <ele>268</ele>
        <time>2018-10-02T10:04:32Z</time>
      </trkpt>
      <trkpt lat="45.99664" lon="4.82718">
        <ele>268</ele>
        <time>2018-10-02T10:04:33Z</time>
      </trkpt>
      <trkpt lat="45.99664" lon="4.82709">
        <ele>268</ele>
        <time>2018-10-02T10:04:34Z</time>
      </trkpt>
      <trkpt lat="45.99663" lon="4.827">
        <ele>268</ele>
        <time>2018-10-02T10:04:35Z</time>
      </trkpt>
      <trkpt lat="45.99663" lon="4.82692">
        <ele>268</ele>
        <time>2018-10-02T10:04:36Z</time>
      </trkpt>
      <trkpt lat="45.99661" lon="4.82683">
        <ele>268</ele>
        <time>2018-10-02T10:04:37Z</time>
      </trkpt>
      <trkpt lat="45.9966" lon="4.82674">
        <ele>268</ele>
        <time>2018-10-02T10:04:38Z</time>
      </trkpt>
      <trkpt lat="45.99658" lon="4.82664">
        <ele>268</ele>
        <time>2018-10-02T10:04:39Z</time>
      </trkpt>
      <trkpt lat="45.99656" lon="4.82656">
        <ele>268</ele>
        <time>2018-10-02T10:04:40Z</time>
      </trkpt>
      <trkpt lat="45.99656" lon="4.82648">
        <ele>267</ele>
        <time>2018-10-02T10:04:41Z</time>
      </trkpt>
      <trkpt lat="45.99655" lon="4.8264">
        <ele>267</ele>
        <time>2018-10-02T10:04:42Z</time>
      </trkpt>
      <trkpt lat="45.99653" lon="4.82632">
        <ele>267</ele>
        <time>2018-10-02T10:04:43Z</time>
      </trkpt>
      <trkpt lat="45.99651" lon="4.82623">
        <ele>267</ele>
        <time>2018-10-02T10:04:44Z</time>
      </trkpt>
      <trkpt lat="45.9965" lon="4.82616">
        <ele>267</ele>
        <time>2018-10-02T10:04:45Z</time>
      </trkpt>
      <trkpt lat="45.99648" lon="4.82608">
        <ele>267</ele>
        <time>2018-10-02T10:04:46Z</time>
      </trkpt>
      <trkpt lat="45.99647" lon="4.826">
        <ele>267</ele>
        <time>2018-10-02T10:04:47Z</time>
      </trkpt>
      <trkpt lat="45.99646" lon="4.82592">
        <ele>267</ele>
        <time>2018-10-02T10:04:48Z</time>
      </trkpt>
      <trkpt lat="45.99645" lon="4.82586">
        <ele>267</ele>
        <time>2018-10-02T10:04:49Z</time>
      </trkpt>
      <trkpt lat="45.99644" lon="4.82578">
        <ele>266</ele>
        <time>2018-10-02T10:04:50Z</time>
      </trkpt>
      <trkpt lat="45.99643" lon="4.8257">
        <ele>266</ele>
        <time>2018-10-02T10:04:51Z</time>
      </trkpt>
      <trkpt lat="45.99641" lon="4.82562">
        <ele>266</ele>
        <time>2018-10-02T10:04:52Z</time>
      </trkpt>
      <trkpt lat="45.99639" lon="4.82555">
        <ele>266</ele>
        <time>2018-10-02T10:04:53Z</time>
      </trkpt>
      <trkpt lat="45.99639" lon="4.82548">
        <ele>266</ele>
        <time>2018-10-02T10:04:54Z</time>
      </trkpt>
      <trkpt lat="45.99637" lon="4.8254">
        <ele>266</ele>
        <time>2018-10-02T10:04:55Z</time>
      </trkpt>
      <trkpt lat="45.99636" lon="4.82533">
        <ele>266</ele>
        <time>2018-10-02T10:04:56Z</time>
      </trkpt>
      <trkpt lat="45.99634" lon="4.82525">
        <ele>266</ele>
        <time>2018-10-02T10:04:57Z</time>
      </trkpt>
      <trkpt lat="45.99631" lon="4.82517">
        <ele>266</ele>
        <time>2018-10-02T10:04:58Z</time>
      </trkpt>
      <trkpt lat="45.99629" lon="4.82512">
        <ele>265</ele>
        <time>2018-10-02T10:04:59Z</time>
      </trkpt>
      <trkpt lat="45.99627" lon="4.82504">
        <ele>265</ele>
        <time>2018-10-02T10:05:00Z</time>
      </trkpt>
      <trkpt lat="45.99624" lon="4.82496">
        <ele>265</ele>
        <time>2018-10-02T10:05:01Z</time>
      </trkpt>
      <trkpt lat="45.99621" lon="4.82489">
        <ele>265</ele>
        <time>2018-10-02T10:05:02Z</time>
      </trkpt>
      <trkpt lat="45.99618" lon="4.82481">
        <ele>265</ele>
        <time>2018-10-02T10:05:03Z</time>
      </trkpt>
      <trkpt lat="45.99615" lon="4.82473">
        <ele>265</ele>
        <time>2018-10-02T10:05:04Z</time>
      </trkpt>
      <trkpt lat="45.99612" lon="4.82464">
        <ele>265</ele>
        <time>2018-10-02T10:05:05Z</time>
      </trkpt>
      <trkpt lat="45.99609" lon="4.82455">
        <ele>265</ele>
        <time>2018-10-02T10:05:06Z</time>
      </trkpt>
      <trkpt lat="45.99605" lon="4.82446">
        <ele>264</ele>
        <time>2018-10-02T10:05:07Z</time>
      </trkpt>
      <trkpt lat="45.99602" lon="4.82437">
        <ele>264</ele>
        <time>2018-10-02T10:05:08Z</time>
      </trkpt>
      <trkpt lat="45.99598" lon="4.82427">
        <ele>264</ele>
        <time>2018-10-02T10:05:09Z</time>
      </trkpt>
      <trkpt lat="45.99595" lon="4.82417">
        <ele>263</ele>
        <time>2018-10-02T10:05:10Z</time>
      </trkpt>
      <trkpt lat="45.99592" lon="4.82406">
        <ele>263</ele>
        <time>2018-10-02T10:05:11Z</time>
      </trkpt>
      <trkpt lat="45.99589" lon="4.82395">
        <ele>264</ele>
        <time>2018-10-02T10:05:12Z</time>
      </trkpt>
      <trkpt lat="45.99588" lon="4.82384">
        <ele>264</ele>
        <time>2018-10-02T10:05:13Z</time>
      </trkpt>
      <trkpt lat="45.99586" lon="4.82372">
        <ele>264</ele>
        <time>2018-10-02T10:05:14Z</time>
      </trkpt>
      <trkpt lat="45.99586" lon="4.8236">
        <ele>264</ele>
        <time>2018-10-02T10:05:15Z</time>
      </trkpt>
      <trkpt lat="45.99583" lon="4.82349">
        <ele>264</ele>
        <time>2018-10-02T10:05:16Z</time>
      </trkpt>
      <trkpt lat="45.99581" lon="4.82337">
        <ele>262</ele>
        <time>2018-10-02T10:05:17Z</time>
      </trkpt>
      <trkpt lat="45.9958" lon="4.82326">
        <ele>262</ele>
        <time>2018-10-02T10:05:18Z</time>
      </trkpt>
      <trkpt lat="45.99577" lon="4.82315">
        <ele>262</ele>
        <time>2018-10-02T10:05:19Z</time>
      </trkpt>
      <trkpt lat="45.99574" lon="4.82305">
        <ele>262</ele>
        <time>2018-10-02T10:05:20Z</time>
      </trkpt>
      <trkpt lat="45.99571" lon="4.82295">
        <ele>262</ele>
        <time>2018-10-02T10:05:21Z</time>
      </trkpt>
      <trkpt lat="45.9957" lon="4.82288">
        <ele>262</ele>
        <time>2018-10-02T10:05:22Z</time>
      </trkpt>
      <trkpt lat="45.99565" lon="4.82273">
        <ele>262</ele>
        <time>2018-10-02T10:05:23Z</time>
      </trkpt>
      <trkpt lat="45.99561" lon="4.82264">
        <ele>262</ele>
        <time>2018-10-02T10:05:24Z</time>
      </trkpt>
      <trkpt lat="45.99558" lon="4.82256">
        <ele>262</ele>
        <time>2018-10-02T10:05:25Z</time>
      </trkpt>
      <trkpt lat="45.99556" lon="4.82247">
        <ele>262</ele>
        <time>2018-10-02T10:05:26Z</time>
      </trkpt>
      <trkpt lat="45.99555" lon="4.82239">
        <ele>262</ele>
        <time>2018-10-02T10:05:27Z</time>
      </trkpt>
      <trkpt lat="45.99553" lon="4.82231">
        <ele>262</ele>
        <time>2018-10-02T10:05:28Z</time>
      </trkpt>
      <trkpt lat="45.99551" lon="4.82224">
        <ele>262</ele>
        <time>2018-10-02T10:05:29Z</time>
      </trkpt>
      <trkpt lat="45.9955" lon="4.82218">
        <ele>262</ele>
        <time>2018-10-02T10:05:30Z</time>
      </trkpt>
      <trkpt lat="45.99547" lon="4.82211">
        <ele>262</ele>
        <time>2018-10-02T10:05:31Z</time>
      </trkpt>
      <trkpt lat="45.99545" lon="4.82204">
        <ele>262</ele>
        <time>2018-10-02T10:05:32Z</time>
      </trkpt>
      <trkpt lat="45.99543" lon="4.82197">
        <ele>262</ele>
        <time>2018-10-02T10:05:33Z</time>
      </trkpt>
      <trkpt lat="45.9954" lon="4.82189">
        <ele>262</ele>
        <time>2018-10-02T10:05:34Z</time>
      </trkpt>
      <trkpt lat="45.9954" lon="4.82182">
        <ele>262</ele>
        <time>2018-10-02T10:05:35Z</time>
      </trkpt>
      <trkpt lat="45.99538" lon="4.82175">
        <ele>262</ele>
        <time>2018-10-02T10:05:36Z</time>
      </trkpt>
      <trkpt lat="45.99538" lon="4.82166">
        <ele>263</ele>
        <time>2018-10-02T10:05:37Z</time>
      </trkpt>
      <trkpt lat="45.99537" lon="4.82158">
        <ele>263</ele>
        <time>2018-10-02T10:05:38Z</time>
      </trkpt>
      <trkpt lat="45.99536" lon="4.82151">
        <ele>263</ele>
        <time>2018-10-02T10:05:39Z</time>
      </trkpt>
      <trkpt lat="45.99536" lon="4.82144">
        <ele>263</ele>
        <time>2018-10-02T10:05:40Z</time>
      </trkpt>
      <trkpt lat="45.99534" lon="4.82136">
        <ele>263</ele>
        <time>2018-10-02T10:05:41Z</time>
      </trkpt>
      <trkpt lat="45.99533" lon="4.82129">
        <ele>263</ele>
        <time>2018-10-02T10:05:42Z</time>
      </trkpt>
      <trkpt lat="45.99532" lon="4.82121">
        <ele>263</ele>
        <time>2018-10-02T10:05:43Z</time>
      </trkpt>
      <trkpt lat="45.99534" lon="4.82115">
        <ele>263</ele>
        <time>2018-10-02T10:05:44Z</time>
      </trkpt>
      <trkpt lat="45.99531" lon="4.82106">
        <ele>263</ele>
        <time>2018-10-02T10:05:45Z</time>
      </trkpt>
      <trkpt lat="45.9953" lon="4.82098">
        <ele>262</ele>
        <time>2018-10-02T10:05:46Z</time>
      </trkpt>
      <trkpt lat="45.99531" lon="4.82089">
        <ele>262</ele>
        <time>2018-10-02T10:05:47Z</time>
      </trkpt>
      <trkpt lat="45.9953" lon="4.82081">
        <ele>262</ele>
        <time>2018-10-02T10:05:48Z</time>
      </trkpt>
      <trkpt lat="45.9953" lon="4.82074">
        <ele>262</ele>
        <time>2018-10-02T10:05:49Z</time>
      </trkpt>
      <trkpt lat="45.99529" lon="4.82067">
        <ele>262</ele>
        <time>2018-10-02T10:05:50Z</time>
      </trkpt>
      <trkpt lat="45.99529" lon="4.8206">
        <ele>262</ele>
        <time>2018-10-02T10:05:51Z</time>
      </trkpt>
      <trkpt lat="45.99527" lon="4.82052">
        <ele>262</ele>
        <time>2018-10-02T10:05:52Z</time>
      </trkpt>
      <trkpt lat="45.99526" lon="4.82043">
        <ele>262</ele>
        <time>2018-10-02T10:05:53Z</time>
      </trkpt>
      <trkpt lat="45.99525" lon="4.82035">
        <ele>262</ele>
        <time>2018-10-02T10:05:54Z</time>
      </trkpt>
      <trkpt lat="45.99524" lon="4.82025">
        <ele>261</ele>
        <time>2018-10-02T10:05:55Z</time>
      </trkpt>
      <trkpt lat="45.99522" lon="4.82017">
        <ele>261</ele>
        <time>2018-10-02T10:05:56Z</time>
      </trkpt>
      <trkpt lat="45.9952" lon="4.82008">
        <ele>261</ele>
        <time>2018-10-02T10:05:57Z</time>
      </trkpt>
      <trkpt lat="45.99519" lon="4.81999">
        <ele>260</ele>
        <time>2018-10-02T10:05:58Z</time>
      </trkpt>
      <trkpt lat="45.99518" lon="4.8199">
        <ele>260</ele>
        <time>2018-10-02T10:05:59Z</time>
      </trkpt>
      <trkpt lat="45.99516" lon="4.81982">
        <ele>261</ele>
        <time>2018-10-02T10:06:00Z</time>
      </trkpt>
      <trkpt lat="45.99514" lon="4.81973">
        <ele>261</ele>
        <time>2018-10-02T10:06:01Z</time>
      </trkpt>
      <trkpt lat="45.99512" lon="4.81964">
        <ele>261</ele>
        <time>2018-10-02T10:06:02Z</time>
      </trkpt>
      <trkpt lat="45.99511" lon="4.81956">
        <ele>261</ele>
        <time>2018-10-02T10:06:03Z</time>
      </trkpt>
      <trkpt lat="45.99511" lon="4.81948">
        <ele>261</ele>
        <time>2018-10-02T10:06:04Z</time>
      </trkpt>
      <trkpt lat="45.99509" lon="4.81942">
        <ele>261</ele>
        <time>2018-10-02T10:06:05Z</time>
      </trkpt>
      <trkpt lat="45.99509" lon="4.81936">
        <ele>260</ele>
        <time>2018-10-02T10:06:06Z</time>
      </trkpt>
      <trkpt lat="45.99508" lon="4.81929">
        <ele>260</ele>
        <time>2018-10-02T10:06:07Z</time>
      </trkpt>
      <trkpt lat="45.99508" lon="4.81923">
        <ele>260</ele>
        <time>2018-10-02T10:06:08Z</time>
      </trkpt>
      <trkpt lat="45.99508" lon="4.81916">
        <ele>260</ele>
        <time>2018-10-02T10:06:09Z</time>
      </trkpt>
      <trkpt lat="45.99507" lon="4.81908">
        <ele>260</ele>
        <time>2018-10-02T10:06:10Z</time>
      </trkpt>
      <trkpt lat="45.99506" lon="4.819">
        <ele>261</ele>
        <time>2018-10-02T10:06:11Z</time>
      </trkpt>
      <trkpt lat="45.99503" lon="4.81888">
        <ele>261</ele>
        <time>2018-10-02T10:06:13Z</time>
      </trkpt>
      <trkpt lat="45.99503" lon="4.81882">
        <ele>261</ele>
        <time>2018-10-02T10:06:14Z</time>
      </trkpt>
      <trkpt lat="45.99502" lon="4.81875">
        <ele>261</ele>
        <time>2018-10-02T10:06:15Z</time>
      </trkpt>
      <trkpt lat="45.99501" lon="4.81868">
        <ele>262</ele>
        <time>2018-10-02T10:06:16Z</time>
      </trkpt>
      <trkpt lat="45.995" lon="4.81861">
        <ele>262</ele>
        <time>2018-10-02T10:06:17Z</time>
      </trkpt>
      <trkpt lat="45.99499" lon="4.81854">
        <ele>261</ele>
        <time>2018-10-02T10:06:18Z</time>
      </trkpt>
      <trkpt lat="45.99499" lon="4.81846">
        <ele>261</ele>
        <time>2018-10-02T10:06:19Z</time>
      </trkpt>
      <trkpt lat="45.99498" lon="4.81839">
        <ele>261</ele>
        <time>2018-10-02T10:06:20Z</time>
      </trkpt>
      <trkpt lat="45.99497" lon="4.81831">
        <ele>262</ele>
        <time>2018-10-02T10:06:21Z</time>
      </trkpt>
      <trkpt lat="45.99495" lon="4.81824">
        <ele>262</ele>
        <time>2018-10-02T10:06:22Z</time>
      </trkpt>
      <trkpt lat="45.99494" lon="4.81817">
        <ele>262</ele>
        <time>2018-10-02T10:06:23Z</time>
      </trkpt>
      <trkpt lat="45.99493" lon="4.8181">
        <ele>262</ele>
        <time>2018-10-02T10:06:24Z</time>
      </trkpt>
      <trkpt lat="45.99491" lon="4.81803">
        <ele>262</ele>
        <time>2018-10-02T10:06:25Z</time>
      </trkpt>
      <trkpt lat="45.99489" lon="4.81795">
        <ele>262</ele>
        <time>2018-10-02T10:06:26Z</time>
      </trkpt>
      <trkpt lat="45.99488" lon="4.81787">
        <ele>262</ele>
        <time>2018-10-02T10:06:27Z</time>
      </trkpt>
      <trkpt lat="45.99487" lon="4.81778">
        <ele>262</ele>
        <time>2018-10-02T10:06:28Z</time>
      </trkpt>
      <trkpt lat="45.99487" lon="4.81772">
        <ele>262</ele>
        <time>2018-10-02T10:06:29Z</time>
      </trkpt>
      <trkpt lat="45.99487" lon="4.81765">
        <ele>262</ele>
        <time>2018-10-02T10:06:30Z</time>
      </trkpt>
      <trkpt lat="45.99485" lon="4.81758">
        <ele>262</ele>
        <time>2018-10-02T10:06:31Z</time>
      </trkpt>
      <trkpt lat="45.99484" lon="4.8175">
        <ele>262</ele>
        <time>2018-10-02T10:06:32Z</time>
      </trkpt>
      <trkpt lat="45.99483" lon="4.81742">
        <ele>262</ele>
        <time>2018-10-02T10:06:33Z</time>
      </trkpt>
      <trkpt lat="45.99482" lon="4.81737">
        <ele>261</ele>
        <time>2018-10-02T10:06:34Z</time>
      </trkpt>
      <trkpt lat="45.99481" lon="4.81728">
        <ele>261</ele>
        <time>2018-10-02T10:06:35Z</time>
      </trkpt>
      <trkpt lat="45.99479" lon="4.8172">
        <ele>261</ele>
        <time>2018-10-02T10:06:36Z</time>
      </trkpt>
      <trkpt lat="45.99478" lon="4.81711">
        <ele>261</ele>
        <time>2018-10-02T10:06:37Z</time>
      </trkpt>
      <trkpt lat="45.99478" lon="4.81703">
        <ele>261</ele>
        <time>2018-10-02T10:06:38Z</time>
      </trkpt>
      <trkpt lat="45.99477" lon="4.81694">
        <ele>261</ele>
        <time>2018-10-02T10:06:39Z</time>
      </trkpt>
      <trkpt lat="45.99474" lon="4.81685">
        <ele>261</ele>
        <time>2018-10-02T10:06:40Z</time>
      </trkpt>
      <trkpt lat="45.99473" lon="4.81676">
        <ele>261</ele>
        <time>2018-10-02T10:06:41Z</time>
      </trkpt>
      <trkpt lat="45.99472" lon="4.81666">
        <ele>259</ele>
        <time>2018-10-02T10:06:42Z</time>
      </trkpt>
      <trkpt lat="45.99472" lon="4.81657">
        <ele>259</ele>
        <time>2018-10-02T10:06:43Z</time>
      </trkpt>
      <trkpt lat="45.99472" lon="4.81647">
        <ele>259</ele>
        <time>2018-10-02T10:06:44Z</time>
      </trkpt>
      <trkpt lat="45.99471" lon="4.81637">
        <ele>258</ele>
        <time>2018-10-02T10:06:45Z</time>
      </trkpt>
      <trkpt lat="45.9947" lon="4.81629">
        <ele>258</ele>
        <time>2018-10-02T10:06:46Z</time>
      </trkpt>
      <trkpt lat="45.99469" lon="4.8162">
        <ele>258</ele>
        <time>2018-10-02T10:06:47Z</time>
      </trkpt>
      <trkpt lat="45.99467" lon="4.81611">
        <ele>258</ele>
        <time>2018-10-02T10:06:48Z</time>
      </trkpt>
      <trkpt lat="45.99466" lon="4.81602">
        <ele>257</ele>
        <time>2018-10-02T10:06:49Z</time>
      </trkpt>
      <trkpt lat="45.99464" lon="4.81594">
        <ele>257</ele>
        <time>2018-10-02T10:06:50Z</time>
      </trkpt>
      <trkpt lat="45.99463" lon="4.81586">
        <ele>257</ele>
        <time>2018-10-02T10:06:51Z</time>
      </trkpt>
      <trkpt lat="45.99462" lon="4.81577">
        <ele>255</ele>
        <time>2018-10-02T10:06:52Z</time>
      </trkpt>
      <trkpt lat="45.99461" lon="4.81569">
        <ele>255</ele>
        <time>2018-10-02T10:06:53Z</time>
      </trkpt>
      <trkpt lat="45.9946" lon="4.8156">
        <ele>255</ele>
        <time>2018-10-02T10:06:54Z</time>
      </trkpt>
      <trkpt lat="45.99458" lon="4.81552">
        <ele>255</ele>
        <time>2018-10-02T10:06:55Z</time>
      </trkpt>
      <trkpt lat="45.99457" lon="4.81545">
        <ele>255</ele>
        <time>2018-10-02T10:06:56Z</time>
      </trkpt>
      <trkpt lat="45.99457" lon="4.81537">
        <ele>255</ele>
        <time>2018-10-02T10:06:57Z</time>
      </trkpt>
      <trkpt lat="45.99456" lon="4.8153">
        <ele>255</ele>
        <time>2018-10-02T10:06:58Z</time>
      </trkpt>
      <trkpt lat="45.99455" lon="4.81523">
        <ele>255</ele>
        <time>2018-10-02T10:06:59Z</time>
      </trkpt>
      <trkpt lat="45.99454" lon="4.81515">
        <ele>255</ele>
        <time>2018-10-02T10:07:00Z</time>
      </trkpt>
      <trkpt lat="45.99453" lon="4.81507">
        <ele>255</ele>
        <time>2018-10-02T10:07:01Z</time>
      </trkpt>
      <trkpt lat="45.99452" lon="4.815">
        <ele>255</ele>
        <time>2018-10-02T10:07:02Z</time>
      </trkpt>
      <trkpt lat="45.9945" lon="4.81493">
        <ele>254</ele>
        <time>2018-10-02T10:07:03Z</time>
      </trkpt>
      <trkpt lat="45.9945" lon="4.81487">
        <ele>254</ele>
        <time>2018-10-02T10:07:04Z</time>
      </trkpt>
      <trkpt lat="45.99449" lon="4.81479">
        <ele>254</ele>
        <time>2018-10-02T10:07:05Z</time>
      </trkpt>
      <trkpt lat="45.99448" lon="4.81471">
        <ele>254</ele>
        <time>2018-10-02T10:07:06Z</time>
      </trkpt>
      <trkpt lat="45.99448" lon="4.81463">
        <ele>254</ele>
        <time>2018-10-02T10:07:07Z</time>
      </trkpt>
      <trkpt lat="45.99446" lon="4.81456">
        <ele>254</ele>
        <time>2018-10-02T10:07:08Z</time>
      </trkpt>
      <trkpt lat="45.99445" lon="4.81448">
        <ele>254</ele>
        <time>2018-10-02T10:07:09Z</time>
      </trkpt>
      <trkpt lat="45.99444" lon="4.8144">
        <ele>254</ele>
        <time>2018-10-02T10:07:10Z</time>
      </trkpt>
      <trkpt lat="45.99443" lon="4.81433">
        <ele>254</ele>
        <time>2018-10-02T10:07:11Z</time>
      </trkpt>
      <trkpt lat="45.99441" lon="4.81424">
        <ele>254</ele>
        <time>2018-10-02T10:07:12Z</time>
      </trkpt>
      <trkpt lat="45.99438" lon="4.81417">
        <ele>254</ele>
        <time>2018-10-02T10:07:13Z</time>
      </trkpt>
      <trkpt lat="45.99438" lon="4.81409">
        <ele>254</ele>
        <time>2018-10-02T10:07:14Z</time>
      </trkpt>
      <trkpt lat="45.99437" lon="4.81401">
        <ele>254</ele>
        <time>2018-10-02T10:07:15Z</time>
      </trkpt>
      <trkpt lat="45.99436" lon="4.81392">
        <ele>254</ele>
        <time>2018-10-02T10:07:16Z</time>
      </trkpt>
      <trkpt lat="45.99435" lon="4.81383">
        <ele>254</ele>
        <time>2018-10-02T10:07:17Z</time>
      </trkpt>
      <trkpt lat="45.99435" lon="4.81375">
        <ele>254</ele>
        <time>2018-10-02T10:07:18Z</time>
      </trkpt>
      <trkpt lat="45.99433" lon="4.81367">
        <ele>254</ele>
        <time>2018-10-02T10:07:19Z</time>
      </trkpt>
      <trkpt lat="45.99432" lon="4.81358">
        <ele>254</ele>
        <time>2018-10-02T10:07:20Z</time>
      </trkpt>
      <trkpt lat="45.9943" lon="4.81348">
        <ele>254</ele>
        <time>2018-10-02T10:07:21Z</time>
      </trkpt>
      <trkpt lat="45.99428" lon="4.8134">
        <ele>254</ele>
        <time>2018-10-02T10:07:22Z</time>
      </trkpt>
      <trkpt lat="45.99426" lon="4.81331">
        <ele>254</ele>
        <time>2018-10-02T10:07:23Z</time>
      </trkpt>
      <trkpt lat="45.99425" lon="4.81321">
        <ele>254</ele>
        <time>2018-10-02T10:07:24Z</time>
      </trkpt>
      <trkpt lat="45.99426" lon="4.81312">
        <ele>254</ele>
        <time>2018-10-02T10:07:25Z</time>
      </trkpt>
      <trkpt lat="45.99425" lon="4.81302">
        <ele>253</ele>
        <time>2018-10-02T10:07:26Z</time>
      </trkpt>
      <trkpt lat="45.99424" lon="4.81293">
        <ele>253</ele>
        <time>2018-10-02T10:07:27Z</time>
      </trkpt>
      <trkpt lat="45.99421" lon="4.81283">
        <ele>253</ele>
        <time>2018-10-02T10:07:28Z</time>
      </trkpt>
      <trkpt lat="45.9942" lon="4.81273">
        <ele>253</ele>
        <time>2018-10-02T10:07:29Z</time>
      </trkpt>
      <trkpt lat="45.99418" lon="4.81265">
        <ele>252</ele>
        <time>2018-10-02T10:07:30Z</time>
      </trkpt>
      <trkpt lat="45.99417" lon="4.81255">
        <ele>252</ele>
        <time>2018-10-02T10:07:31Z</time>
      </trkpt>
      <trkpt lat="45.99416" lon="4.81247">
        <ele>252</ele>
        <time>2018-10-02T10:07:32Z</time>
      </trkpt>
      <trkpt lat="45.99415" lon="4.81238">
        <ele>252</ele>
        <time>2018-10-02T10:07:33Z</time>
      </trkpt>
      <trkpt lat="45.99413" lon="4.8123">
        <ele>252</ele>
        <time>2018-10-02T10:07:34Z</time>
      </trkpt>
      <trkpt lat="45.99412" lon="4.81222">
        <ele>252</ele>
        <time>2018-10-02T10:07:35Z</time>
      </trkpt>
      <trkpt lat="45.9941" lon="4.81214">
        <ele>252</ele>
        <time>2018-10-02T10:07:36Z</time>
      </trkpt>
      <trkpt lat="45.99409" lon="4.81206">
        <ele>252</ele>
        <time>2018-10-02T10:07:37Z</time>
      </trkpt>
      <trkpt lat="45.99408" lon="4.81197">
        <ele>252</ele>
        <time>2018-10-02T10:07:38Z</time>
      </trkpt>
      <trkpt lat="45.99407" lon="4.81188">
        <ele>251</ele>
        <time>2018-10-02T10:07:39Z</time>
      </trkpt>
      <trkpt lat="45.99405" lon="4.8118">
        <ele>251</ele>
        <time>2018-10-02T10:07:40Z</time>
      </trkpt>
      <trkpt lat="45.99404" lon="4.8117">
        <ele>251</ele>
        <time>2018-10-02T10:07:41Z</time>
      </trkpt>
      <trkpt lat="45.99403" lon="4.81161">
        <ele>251</ele>
        <time>2018-10-02T10:07:42Z</time>
      </trkpt>
      <trkpt lat="45.99401" lon="4.81151">
        <ele>251</ele>
        <time>2018-10-02T10:07:43Z</time>
      </trkpt>
      <trkpt lat="45.994" lon="4.81143">
        <ele>251</ele>
        <time>2018-10-02T10:07:44Z</time>
      </trkpt>
      <trkpt lat="45.99398" lon="4.81135">
        <ele>251</ele>
        <time>2018-10-02T10:07:45Z</time>
      </trkpt>
      <trkpt lat="45.99398" lon="4.81125">
        <ele>251</ele>
        <time>2018-10-02T10:07:46Z</time>
      </trkpt>
      <trkpt lat="45.99397" lon="4.81117">
        <ele>251</ele>
        <time>2018-10-02T10:07:47Z</time>
      </trkpt>
      <trkpt lat="45.99396" lon="4.81109">
        <ele>251</ele>
        <time>2018-10-02T10:07:48Z</time>
      </trkpt>
      <trkpt lat="45.99394" lon="4.81101">
        <ele>251</ele>
        <time>2018-10-02T10:07:49Z</time>
      </trkpt>
      <trkpt lat="45.99394" lon="4.81093">
        <ele>251</ele>
        <time>2018-10-02T10:07:50Z</time>
      </trkpt>
      <trkpt lat="45.99393" lon="4.81087">
        <ele>251</ele>
        <time>2018-10-02T10:07:51Z</time>
      </trkpt>
      <trkpt lat="45.99392" lon="4.81078">
        <ele>251</ele>
        <time>2018-10-02T10:07:52Z</time>
      </trkpt>
      <trkpt lat="45.99391" lon="4.8107">
        <ele>251</ele>
        <time>2018-10-02T10:07:53Z</time>
      </trkpt>
      <trkpt lat="45.99391" lon="4.81063">
        <ele>251</ele>
        <time>2018-10-02T10:07:54Z</time>
      </trkpt>
      <trkpt lat="45.99389" lon="4.81053">
        <ele>251</ele>
        <time>2018-10-02T10:07:55Z</time>
      </trkpt>
      <trkpt lat="45.99387" lon="4.81045">
        <ele>251</ele>
        <time>2018-10-02T10:07:56Z</time>
      </trkpt>
      <trkpt lat="45.99386" lon="4.81037">
        <ele>251</ele>
        <time>2018-10-02T10:07:57Z</time>
      </trkpt>
      <trkpt lat="45.99384" lon="4.81029">
        <ele>251</ele>
        <time>2018-10-02T10:07:58Z</time>
      </trkpt>
      <trkpt lat="45.99383" lon="4.81021">
        <ele>251</ele>
        <time>2018-10-02T10:07:59Z</time>
      </trkpt>
      <trkpt lat="45.99381" lon="4.81013">
        <ele>251</ele>
        <time>2018-10-02T10:08:00Z</time>
      </trkpt>
      <trkpt lat="45.9938" lon="4.81006">
        <ele>251</ele>
        <time>2018-10-02T10:08:01Z</time>
      </trkpt>
      <trkpt lat="45.9938" lon="4.80998">
        <ele>250</ele>
        <time>2018-10-02T10:08:02Z</time>
      </trkpt>
      <trkpt lat="45.99378" lon="4.8099">
        <ele>250</ele>
        <time>2018-10-02T10:08:03Z</time>
      </trkpt>
      <trkpt lat="45.99377" lon="4.80982">
        <ele>250</ele>
        <time>2018-10-02T10:08:04Z</time>
      </trkpt>
      <trkpt lat="45.99376" lon="4.80974">
        <ele>250</ele>
        <time>2018-10-02T10:08:05Z</time>
      </trkpt>
      <trkpt lat="45.99375" lon="4.80965">
        <ele>250</ele>
        <time>2018-10-02T10:08:06Z</time>
      </trkpt>
      <trkpt lat="45.99374" lon="4.80956">
        <ele>250</ele>
        <time>2018-10-02T10:08:07Z</time>
      </trkpt>
      <trkpt lat="45.99373" lon="4.80946">
        <ele>250</ele>
        <time>2018-10-02T10:08:08Z</time>
      </trkpt>
      <trkpt lat="45.99371" lon="4.80938">
        <ele>250</ele>
        <time>2018-10-02T10:08:09Z</time>
      </trkpt>
      <trkpt lat="45.9937" lon="4.8093">
        <ele>250</ele>
        <time>2018-10-02T10:08:10Z</time>
      </trkpt>
      <trkpt lat="45.9937" lon="4.80921">
        <ele>250</ele>
        <time>2018-10-02T10:08:11Z</time>
      </trkpt>
      <trkpt lat="45.99368" lon="4.80912">
        <ele>248</ele>
        <time>2018-10-02T10:08:12Z</time>
      </trkpt>
      <trkpt lat="45.99367" lon="4.80903">
        <ele>248</ele>
        <time>2018-10-02T10:08:13Z</time>
      </trkpt>
      <trkpt lat="45.99365" lon="4.80894">
        <ele>248</ele>
        <time>2018-10-02T10:08:14Z</time>
      </trkpt>
      <trkpt lat="45.99365" lon="4.80884">
        <ele>248</ele>
        <time>2018-10-02T10:08:15Z</time>
      </trkpt>
      <trkpt lat="45.99363" lon="4.80875">
        <ele>248</ele>
        <time>2018-10-02T10:08:16Z</time>
      </trkpt>
      <trkpt lat="45.99361" lon="4.80865">
        <ele>248</ele>
        <time>2018-10-02T10:08:17Z</time>
      </trkpt>
      <trkpt lat="45.9936" lon="4.80855">
        <ele>248</ele>
        <time>2018-10-02T10:08:18Z</time>
      </trkpt>
      <trkpt lat="45.99359" lon="4.80844">
        <ele>247</ele>
        <time>2018-10-02T10:08:19Z</time>
      </trkpt>
      <trkpt lat="45.99358" lon="4.80834">
        <ele>247</ele>
        <time>2018-10-02T10:08:20Z</time>
      </trkpt>
      <trkpt lat="45.99357" lon="4.80824">
        <ele>246</ele>
        <time>2018-10-02T10:08:21Z</time>
      </trkpt>
      <trkpt lat="45.99355" lon="4.80812">
        <ele>246</ele>
        <time>2018-10-02T10:08:22Z</time>
      </trkpt>
      <trkpt lat="45.99353" lon="4.80802">
        <ele>246</ele>
        <time>2018-10-02T10:08:23Z</time>
      </trkpt>
      <trkpt lat="45.99352" lon="4.80791">
        <ele>246</ele>
        <time>2018-10-02T10:08:24Z</time>
      </trkpt>
      <trkpt lat="45.99352" lon="4.80781">
        <ele>245</ele>
        <time>2018-10-02T10:08:25Z</time>
      </trkpt>
      <trkpt lat="45.9935" lon="4.8077">
        <ele>245</ele>
        <time>2018-10-02T10:08:26Z</time>
      </trkpt>
      <trkpt lat="45.9935" lon="4.8076">
        <ele>245</ele>
        <time>2018-10-02T10:08:27Z</time>
      </trkpt>
      <trkpt lat="45.99348" lon="4.80749">
        <ele>245</ele>
        <time>2018-10-02T10:08:28Z</time>
      </trkpt>
      <trkpt lat="45.99347" lon="4.80739">
        <ele>245</ele>
        <time>2018-10-02T10:08:29Z</time>
      </trkpt>
      <trkpt lat="45.99346" lon="4.80728">
        <ele>244</ele>
        <time>2018-10-02T10:08:30Z</time>
      </trkpt>
      <trkpt lat="45.99343" lon="4.80717">
        <ele>244</ele>
        <time>2018-10-02T10:08:31Z</time>
      </trkpt>
      <trkpt lat="45.99342" lon="4.80706">
        <ele>244</ele>
        <time>2018-10-02T10:08:32Z</time>
      </trkpt>
      <trkpt lat="45.99341" lon="4.80696">
        <ele>244</ele>
        <time>2018-10-02T10:08:33Z</time>
      </trkpt>
      <trkpt lat="45.99338" lon="4.80685">
        <ele>244</ele>
        <time>2018-10-02T10:08:34Z</time>
      </trkpt>
      <trkpt lat="45.99337" lon="4.80675">
        <ele>244</ele>
        <time>2018-10-02T10:08:35Z</time>
      </trkpt>
      <trkpt lat="45.99335" lon="4.80664">
        <ele>244</ele>
        <time>2018-10-02T10:08:36Z</time>
      </trkpt>
      <trkpt lat="45.99333" lon="4.80653">
        <ele>244</ele>
        <time>2018-10-02T10:08:37Z</time>
      </trkpt>
      <trkpt lat="45.99333" lon="4.80643">
        <ele>243</ele>
        <time>2018-10-02T10:08:38Z</time>
      </trkpt>
      <trkpt lat="45.99332" lon="4.80633">
        <ele>243</ele>
        <time>2018-10-02T10:08:39Z</time>
      </trkpt>
      <trkpt lat="45.99331" lon="4.80624">
        <ele>243</ele>
        <time>2018-10-02T10:08:40Z</time>
      </trkpt>
      <trkpt lat="45.9933" lon="4.80614">
        <ele>243</ele>
        <time>2018-10-02T10:08:41Z</time>
      </trkpt>
      <trkpt lat="45.99329" lon="4.80605">
        <ele>243</ele>
        <time>2018-10-02T10:08:42Z</time>
      </trkpt>
      <trkpt lat="45.99329" lon="4.80596">
        <ele>242</ele>
        <time>2018-10-02T10:08:43Z</time>
      </trkpt>
      <trkpt lat="45.99327" lon="4.80587">
        <ele>242</ele>
        <time>2018-10-02T10:08:44Z</time>
      </trkpt>
      <trkpt lat="45.99325" lon="4.80578">
        <ele>242</ele>
        <time>2018-10-02T10:08:45Z</time>
      </trkpt>
      <trkpt lat="45.99323" lon="4.80569">
        <ele>242</ele>
        <time>2018-10-02T10:08:46Z</time>
      </trkpt>
      <trkpt lat="45.99323" lon="4.8056">
        <ele>242</ele>
        <time>2018-10-02T10:08:47Z</time>
      </trkpt>
      <trkpt lat="45.99322" lon="4.80551">
        <ele>241</ele>
        <time>2018-10-02T10:08:48Z</time>
      </trkpt>
      <trkpt lat="45.99322" lon="4.80543">
        <ele>241</ele>
        <time>2018-10-02T10:08:49Z</time>
      </trkpt>
      <trkpt lat="45.9932" lon="4.80534">
        <ele>241</ele>
        <time>2018-10-02T10:08:50Z</time>
      </trkpt>
      <trkpt lat="45.9932" lon="4.80526">
        <ele>241</ele>
        <time>2018-10-02T10:08:51Z</time>
      </trkpt>
      <trkpt lat="45.99318" lon="4.80519">
        <ele>241</ele>
        <time>2018-10-02T10:08:52Z</time>
      </trkpt>
      <trkpt lat="45.99317" lon="4.80511">
        <ele>241</ele>
        <time>2018-10-02T10:08:53Z</time>
      </trkpt>
      <trkpt lat="45.99316" lon="4.80503">
        <ele>241</ele>
        <time>2018-10-02T10:08:54Z</time>
      </trkpt>
      <trkpt lat="45.99315" lon="4.80495">
        <ele>241</ele>
        <time>2018-10-02T10:08:55Z</time>
      </trkpt>
      <trkpt lat="45.99314" lon="4.80486">
        <ele>241</ele>
        <time>2018-10-02T10:08:56Z</time>
      </trkpt>
      <trkpt lat="45.99313" lon="4.80477">
        <ele>241</ele>
        <time>2018-10-02T10:08:57Z</time>
      </trkpt>
      <trkpt lat="45.99312" lon="4.8047">
        <ele>241</ele>
        <time>2018-10-02T10:08:58Z</time>
      </trkpt>
      <trkpt lat="45.99311" lon="4.80462">
        <ele>241</ele>
        <time>2018-10-02T10:08:59Z</time>
      </trkpt>
      <trkpt lat="45.9931" lon="4.80455">
        <ele>241</ele>
        <time>2018-10-02T10:09:00Z</time>
      </trkpt>
      <trkpt lat="45.9931" lon="4.80449">
        <ele>241</ele>
        <time>2018-10-02T10:09:01Z</time>
      </trkpt>
      <trkpt lat="45.99311" lon="4.80442">
        <ele>241</ele>
        <time>2018-10-02T10:09:02Z</time>
      </trkpt>
      <trkpt lat="45.99312" lon="4.80435">
        <ele>241</ele>
        <time>2018-10-02T10:09:03Z</time>
      </trkpt>
      <trkpt lat="45.99313" lon="4.80429">
        <ele>241</ele>
        <time>2018-10-02T10:09:04Z</time>
      </trkpt>
      <trkpt lat="45.99315" lon="4.80422">
        <ele>241</ele>
        <time>2018-10-02T10:09:05Z</time>
      </trkpt>
      <trkpt lat="45.99316" lon="4.80416">
        <ele>242</ele>
        <time>2018-10-02T10:09:06Z</time>
      </trkpt>
      <trkpt lat="45.99317" lon="4.80409">
        <ele>242</ele>
        <time>2018-10-02T10:09:07Z</time>
      </trkpt>
      <trkpt lat="45.99317" lon="4.80403">
        <ele>242</ele>
        <time>2018-10-02T10:09:08Z</time>
      </trkpt>
      <trkpt lat="45.99316" lon="4.80396">
        <ele>242</ele>
        <time>2018-10-02T10:09:09Z</time>
      </trkpt>
      <trkpt lat="45.99314" lon="4.8039">
        <ele>242</ele>
        <time>2018-10-02T10:09:10Z</time>
      </trkpt>
      <trkpt lat="45.99308" lon="4.80382">
        <ele>242</ele>
        <time>2018-10-02T10:09:12Z</time>
      </trkpt>
      <trkpt lat="45.99304" lon="4.80382">
        <ele>242</ele>
        <time>2018-10-02T10:09:13Z</time>
      </trkpt>
      <trkpt lat="45.99299" lon="4.80382">
        <ele>242</ele>
        <time>2018-10-02T10:09:14Z</time>
      </trkpt>
      <trkpt lat="45.99295" lon="4.80383">
        <ele>242</ele>
        <time>2018-10-02T10:09:15Z</time>
      </trkpt>
      <trkpt lat="45.9929" lon="4.80383">
        <ele>242</ele>
        <time>2018-10-02T10:09:16Z</time>
      </trkpt>
      <trkpt lat="45.99284" lon="4.80383">
        <ele>242</ele>
        <time>2018-10-02T10:09:17Z</time>
      </trkpt>
      <trkpt lat="45.99279" lon="4.80382">
        <ele>242</ele>
        <time>2018-10-02T10:09:18Z</time>
      </trkpt>
      <trkpt lat="45.99274" lon="4.80378">
        <ele>242</ele>
        <time>2018-10-02T10:09:19Z</time>
      </trkpt>
      <trkpt lat="45.99269" lon="4.80376">
        <ele>242</ele>
        <time>2018-10-02T10:09:20Z</time>
      </trkpt>
      <trkpt lat="45.99264" lon="4.80371">
        <ele>243</ele>
        <time>2018-10-02T10:09:21Z</time>
      </trkpt>
      <trkpt lat="45.9926" lon="4.80367">
        <ele>243</ele>
        <time>2018-10-02T10:09:22Z</time>
      </trkpt>
      <trkpt lat="45.99256" lon="4.80361">
        <ele>243</ele>
        <time>2018-10-02T10:09:23Z</time>
      </trkpt>
      <trkpt lat="45.99252" lon="4.80355">
        <ele>243</ele>
        <time>2018-10-02T10:09:24Z</time>
      </trkpt>
      <trkpt lat="45.99249" lon="4.80349">
        <ele>242</ele>
        <time>2018-10-02T10:09:25Z</time>
      </trkpt>
      <trkpt lat="45.99245" lon="4.80343">
        <ele>242</ele>
        <time>2018-10-02T10:09:26Z</time>
      </trkpt>
      <trkpt lat="45.99241" lon="4.80336">
        <ele>243</ele>
        <time>2018-10-02T10:09:27Z</time>
      </trkpt>
      <trkpt lat="45.99238" lon="4.80329">
        <ele>243</ele>
        <time>2018-10-02T10:09:28Z</time>
      </trkpt>
      <trkpt lat="45.99234" lon="4.80322">
        <ele>243</ele>
        <time>2018-10-02T10:09:29Z</time>
      </trkpt>
      <trkpt lat="45.9923" lon="4.80315">
        <ele>243</ele>
        <time>2018-10-02T10:09:30Z</time>
      </trkpt>
      <trkpt lat="45.99225" lon="4.80308">
        <ele>242</ele>
        <time>2018-10-02T10:09:31Z</time>
      </trkpt>
      <trkpt lat="45.9922" lon="4.80301">
        <ele>242</ele>
        <time>2018-10-02T10:09:32Z</time>
      </trkpt>
      <trkpt lat="45.99217" lon="4.80294">
        <ele>242</ele>
        <time>2018-10-02T10:09:33Z</time>
      </trkpt>
      <trkpt lat="45.99212" lon="4.80289">
        <ele>242</ele>
        <time>2018-10-02T10:09:34Z</time>
      </trkpt>
      <trkpt lat="45.99208" lon="4.80282">
        <ele>242</ele>
        <time>2018-10-02T10:09:35Z</time>
      </trkpt>
      <trkpt lat="45.99204" lon="4.80276">
        <ele>242</ele>
        <time>2018-10-02T10:09:36Z</time>
      </trkpt>
      <trkpt lat="45.99201" lon="4.8027">
        <ele>242</ele>
        <time>2018-10-02T10:09:37Z</time>
      </trkpt>
      <trkpt lat="45.99197" lon="4.80264">
        <ele>242</ele>
        <time>2018-10-02T10:09:38Z</time>
      </trkpt>
      <trkpt lat="45.99192" lon="4.8026">
        <ele>242</ele>
        <time>2018-10-02T10:09:39Z</time>
      </trkpt>
      <trkpt lat="45.99188" lon="4.80255">
        <ele>242</ele>
        <time>2018-10-02T10:09:40Z</time>
      </trkpt>
      <trkpt lat="45.99184" lon="4.80249">
        <ele>242</ele>
        <time>2018-10-02T10:09:41Z</time>
      </trkpt>
      <trkpt lat="45.99179" lon="4.80245">
        <ele>242</ele>
        <time>2018-10-02T10:09:42Z</time>
      </trkpt>
      <trkpt lat="45.99175" lon="4.8024">
        <ele>242</ele>
        <time>2018-10-02T10:09:43Z</time>
      </trkpt>
      <trkpt lat="45.99168" lon="4.80233">
        <ele>242</ele>
        <time>2018-10-02T10:09:45Z</time>
      </trkpt>
      <trkpt lat="45.99164" lon="4.80228">
        <ele>241</ele>
        <time>2018-10-02T10:09:46Z</time>
      </trkpt>
      <trkpt lat="45.9916" lon="4.80223">
        <ele>241</ele>
        <time>2018-10-02T10:09:47Z</time>
      </trkpt>
      <trkpt lat="45.99156" lon="4.80218">
        <ele>242</ele>
        <time>2018-10-02T10:09:48Z</time>
      </trkpt>
      <trkpt lat="45.99151" lon="4.80213">
        <ele>242</ele>
        <time>2018-10-02T10:09:49Z</time>
      </trkpt>
      <trkpt lat="45.99146" lon="4.80208">
        <ele>242</ele>
        <time>2018-10-02T10:09:50Z</time>
      </trkpt>
      <trkpt lat="45.99141" lon="4.80202">
        <ele>242</ele>
        <time>2018-10-02T10:09:51Z</time>
      </trkpt>
      <trkpt lat="45.99137" lon="4.80197">
        <ele>242</ele>
        <time>2018-10-02T10:09:52Z</time>
      </trkpt>
      <trkpt lat="45.99132" lon="4.80192">
        <ele>242</ele>
        <time>2018-10-02T10:09:53Z</time>
      </trkpt>
      <trkpt lat="45.99128" lon="4.80188">
        <ele>242</ele>
        <time>2018-10-02T10:09:54Z</time>
      </trkpt>
      <trkpt lat="45.99123" lon="4.80182">
        <ele>242</ele>
        <time>2018-10-02T10:09:55Z</time>
      </trkpt>
      <trkpt lat="45.99118" lon="4.80176">
        <ele>242</ele>
        <time>2018-10-02T10:09:56Z</time>
      </trkpt>
      <trkpt lat="45.99114" lon="4.80171">
        <ele>242</ele>
        <time>2018-10-02T10:09:57Z</time>
      </trkpt>
      <trkpt lat="45.99109" lon="4.80166">
        <ele>243</ele>
        <time>2018-10-02T10:09:58Z</time>
      </trkpt>
      <trkpt lat="45.99104" lon="4.80161">
        <ele>243</ele>
        <time>2018-10-02T10:09:59Z</time>
      </trkpt>
      <trkpt lat="45.991" lon="4.80156">
        <ele>243</ele>
        <time>2018-10-02T10:10:00Z</time>
      </trkpt>
      <trkpt lat="45.99096" lon="4.80151">
        <ele>243</ele>
        <time>2018-10-02T10:10:01Z</time>
      </trkpt>
      <trkpt lat="45.99092" lon="4.80146">
        <ele>243</ele>
        <time>2018-10-02T10:10:02Z</time>
      </trkpt>
      <trkpt lat="45.99087" lon="4.8014">
        <ele>243</ele>
        <time>2018-10-02T10:10:03Z</time>
      </trkpt>
      <trkpt lat="45.99082" lon="4.80136">
        <ele>242</ele>
        <time>2018-10-02T10:10:04Z</time>
      </trkpt>
      <trkpt lat="45.99077" lon="4.80131">
        <ele>242</ele>
        <time>2018-10-02T10:10:05Z</time>
      </trkpt>
      <trkpt lat="45.99073" lon="4.80125">
        <ele>242</ele>
        <time>2018-10-02T10:10:06Z</time>
      </trkpt>
      <trkpt lat="45.99068" lon="4.8012">
        <ele>242</ele>
        <time>2018-10-02T10:10:07Z</time>
      </trkpt>
      <trkpt lat="45.99065" lon="4.80116">
        <ele>242</ele>
        <time>2018-10-02T10:10:08Z</time>
      </trkpt>
      <trkpt lat="45.99061" lon="4.80111">
        <ele>242</ele>
        <time>2018-10-02T10:10:09Z</time>
      </trkpt>
      <trkpt lat="45.99056" lon="4.80105">
        <ele>242</ele>
        <time>2018-10-02T10:10:10Z</time>
      </trkpt>
      <trkpt lat="45.99052" lon="4.801">
        <ele>242</ele>
        <time>2018-10-02T10:10:11Z</time>
      </trkpt>
      <trkpt lat="45.99047" lon="4.80094">
        <ele>242</ele>
        <time>2018-10-02T10:10:12Z</time>
      </trkpt>
      <trkpt lat="45.99042" lon="4.80089">
        <ele>242</ele>
        <time>2018-10-02T10:10:13Z</time>
      </trkpt>
      <trkpt lat="45.99038" lon="4.80084">
        <ele>242</ele>
        <time>2018-10-02T10:10:14Z</time>
      </trkpt>
      <trkpt lat="45.99031" lon="4.80075">
        <ele>243</ele>
        <time>2018-10-02T10:10:16Z</time>
      </trkpt>
      <trkpt lat="45.99027" lon="4.80071">
        <ele>243</ele>
        <time>2018-10-02T10:10:17Z</time>
      </trkpt>
      <trkpt lat="45.99024" lon="4.80066">
        <ele>243</ele>
        <time>2018-10-02T10:10:18Z</time>
      </trkpt>
      <trkpt lat="45.99019" lon="4.80061">
        <ele>243</ele>
        <time>2018-10-02T10:10:19Z</time>
      </trkpt>
      <trkpt lat="45.99014" lon="4.80055">
        <ele>243</ele>
        <time>2018-10-02T10:10:20Z</time>
      </trkpt>
      <trkpt lat="45.9901" lon="4.8005">
        <ele>244</ele>
        <time>2018-10-02T10:10:21Z</time>
      </trkpt>
      <trkpt lat="45.99005" lon="4.80044">
        <ele>244</ele>
        <time>2018-10-02T10:10:22Z</time>
      </trkpt>
      <trkpt lat="45.99001" lon="4.8004">
        <ele>244</ele>
        <time>2018-10-02T10:10:23Z</time>
      </trkpt>
      <trkpt lat="45.98996" lon="4.80034">
        <ele>242</ele>
        <time>2018-10-02T10:10:24Z</time>
      </trkpt>
      <trkpt lat="45.98991" lon="4.80028">
        <ele>243</ele>
        <time>2018-10-02T10:10:25Z</time>
      </trkpt>
      <trkpt lat="45.98985" lon="4.80022">
        <ele>243</ele>
        <time>2018-10-02T10:10:26Z</time>
      </trkpt>
      <trkpt lat="45.98981" lon="4.80017">
        <ele>243</ele>
        <time>2018-10-02T10:10:27Z</time>
      </trkpt>
      <trkpt lat="45.98977" lon="4.80011">
        <ele>243</ele>
        <time>2018-10-02T10:10:28Z</time>
      </trkpt>
      <trkpt lat="45.98973" lon="4.80006">
        <ele>243</ele>
        <time>2018-10-02T10:10:29Z</time>
      </trkpt>
      <trkpt lat="45.98968" lon="4.8">
        <ele>243</ele>
        <time>2018-10-02T10:10:30Z</time>
      </trkpt>
      <trkpt lat="45.98964" lon="4.79995">
        <ele>245</ele>
        <time>2018-10-02T10:10:31Z</time>
      </trkpt>
      <trkpt lat="45.9896" lon="4.7999">
        <ele>245</ele>
        <time>2018-10-02T10:10:32Z</time>
      </trkpt>
      <trkpt lat="45.98955" lon="4.79985">
        <ele>245</ele>
        <time>2018-10-02T10:10:33Z</time>
      </trkpt>
      <trkpt lat="45.98948" lon="4.79976">
        <ele>245</ele>
        <time>2018-10-02T10:10:35Z</time>
      </trkpt>
      <trkpt lat="45.98944" lon="4.79972">
        <ele>245</ele>
        <time>2018-10-02T10:10:36Z</time>
      </trkpt>
      <trkpt lat="45.98939" lon="4.79967">
        <ele>245</ele>
        <time>2018-10-02T10:10:37Z</time>
      </trkpt>
      <trkpt lat="45.98935" lon="4.79963">
        <ele>245</ele>
        <time>2018-10-02T10:10:38Z</time>
      </trkpt>
      <trkpt lat="45.98931" lon="4.79958">
        <ele>245</ele>
        <time>2018-10-02T10:10:39Z</time>
      </trkpt>
      <trkpt lat="45.98926" lon="4.79952">
        <ele>245</ele>
        <time>2018-10-02T10:10:40Z</time>
      </trkpt>
      <trkpt lat="45.98922" lon="4.79946">
        <ele>245</ele>
        <time>2018-10-02T10:10:41Z</time>
      </trkpt>
      <trkpt lat="45.98917" lon="4.79941">
        <ele>245</ele>
        <time>2018-10-02T10:10:42Z</time>
      </trkpt>
      <trkpt lat="45.98913" lon="4.79936">
        <ele>244</ele>
        <time>2018-10-02T10:10:43Z</time>
      </trkpt>
      <trkpt lat="45.98908" lon="4.79931">
        <ele>244</ele>
        <time>2018-10-02T10:10:44Z</time>
      </trkpt>
      <trkpt lat="45.98903" lon="4.79925">
        <ele>244</ele>
        <time>2018-10-02T10:10:45Z</time>
      </trkpt>
      <trkpt lat="45.98899" lon="4.79919">
        <ele>244</ele>
        <time>2018-10-02T10:10:46Z</time>
      </trkpt>
      <trkpt lat="45.98895" lon="4.79915">
        <ele>244</ele>
        <time>2018-10-02T10:10:47Z</time>
      </trkpt>
      <trkpt lat="45.98891" lon="4.79909">
        <ele>244</ele>
        <time>2018-10-02T10:10:48Z</time>
      </trkpt>
      <trkpt lat="45.98887" lon="4.79905">
        <ele>244</ele>
        <time>2018-10-02T10:10:49Z</time>
      </trkpt>
      <trkpt lat="45.98883" lon="4.79901">
        <ele>244</ele>
        <time>2018-10-02T10:10:50Z</time>
      </trkpt>
      <trkpt lat="45.98879" lon="4.79896">
        <ele>244</ele>
        <time>2018-10-02T10:10:51Z</time>
      </trkpt>
      <trkpt lat="45.98875" lon="4.79892">
        <ele>244</ele>
        <time>2018-10-02T10:10:52Z</time>
      </trkpt>
      <trkpt lat="45.98872" lon="4.79887">
        <ele>244</ele>
        <time>2018-10-02T10:10:53Z</time>
      </trkpt>
      <trkpt lat="45.98868" lon="4.79883">
        <ele>244</ele>
        <time>2018-10-02T10:10:54Z</time>
      </trkpt>
      <trkpt lat="45.98861" lon="4.79875">
        <ele>244</ele>
        <time>2018-10-02T10:10:56Z</time>
      </trkpt>
      <trkpt lat="45.98857" lon="4.7987">
        <ele>244</ele>
        <time>2018-10-02T10:10:57Z</time>
      </trkpt>
      <trkpt lat="45.98853" lon="4.79866">
        <ele>244</ele>
        <time>2018-10-02T10:10:58Z</time>
      </trkpt>
      <trkpt lat="45.98849" lon="4.79862">
        <ele>244</ele>
        <time>2018-10-02T10:10:59Z</time>
      </trkpt>
      <trkpt lat="45.98845" lon="4.79858">
        <ele>244</ele>
        <time>2018-10-02T10:11:00Z</time>
      </trkpt>
      <trkpt lat="45.9884" lon="4.79853">
        <ele>244</ele>
        <time>2018-10-02T10:11:01Z</time>
      </trkpt>
      <trkpt lat="45.98836" lon="4.79848">
        <ele>244</ele>
        <time>2018-10-02T10:11:02Z</time>
      </trkpt>
      <trkpt lat="45.98832" lon="4.79843">
        <ele>244</ele>
        <time>2018-10-02T10:11:03Z</time>
      </trkpt>
      <trkpt lat="45.98827" lon="4.79837">
        <ele>244</ele>
        <time>2018-10-02T10:11:04Z</time>
      </trkpt>
      <trkpt lat="45.98823" lon="4.79832">
        <ele>244</ele>
        <time>2018-10-02T10:11:05Z</time>
      </trkpt>
      <trkpt lat="45.98818" lon="4.79826">
        <ele>245</ele>
        <time>2018-10-02T10:11:06Z</time>
      </trkpt>
      <trkpt lat="45.98814" lon="4.79821">
        <ele>245</ele>
        <time>2018-10-02T10:11:07Z</time>
      </trkpt>
      <trkpt lat="45.98808" lon="4.79812">
        <ele>245</ele>
        <time>2018-10-02T10:11:09Z</time>
      </trkpt>
      <trkpt lat="45.98805" lon="4.79809">
        <ele>245</ele>
        <time>2018-10-02T10:11:10Z</time>
      </trkpt>
      <trkpt lat="45.98798" lon="4.79801">
        <ele>245</ele>
        <time>2018-10-02T10:11:12Z</time>
      </trkpt>
      <trkpt lat="45.98794" lon="4.79797">
        <ele>245</ele>
        <time>2018-10-02T10:11:13Z</time>
      </trkpt>
      <trkpt lat="45.9879" lon="4.79792">
        <ele>245</ele>
        <time>2018-10-02T10:11:14Z</time>
      </trkpt>
      <trkpt lat="45.98786" lon="4.79787">
        <ele>245</ele>
        <time>2018-10-02T10:11:15Z</time>
      </trkpt>
      <trkpt lat="45.98782" lon="4.79783">
        <ele>245</ele>
        <time>2018-10-02T10:11:16Z</time>
      </trkpt>
      <trkpt lat="45.98778" lon="4.7978">
        <ele>245</ele>
        <time>2018-10-02T10:11:17Z</time>
      </trkpt>
      <trkpt lat="45.98773" lon="4.79775">
        <ele>245</ele>
        <time>2018-10-02T10:11:18Z</time>
      </trkpt>
      <trkpt lat="45.98769" lon="4.79771">
        <ele>245</ele>
        <time>2018-10-02T10:11:19Z</time>
      </trkpt>
      <trkpt lat="45.98764" lon="4.79766">
        <ele>245</ele>
        <time>2018-10-02T10:11:20Z</time>
      </trkpt>
      <trkpt lat="45.9876" lon="4.79762">
        <ele>245</ele>
        <time>2018-10-02T10:11:21Z</time>
      </trkpt>
      <trkpt lat="45.98756" lon="4.79758">
        <ele>245</ele>
        <time>2018-10-02T10:11:22Z</time>
      </trkpt>
      <trkpt lat="45.98752" lon="4.79754">
        <ele>245</ele>
        <time>2018-10-02T10:11:23Z</time>
      </trkpt>
      <trkpt lat="45.98747" lon="4.7975">
        <ele>245</ele>
        <time>2018-10-02T10:11:24Z</time>
      </trkpt>
      <trkpt lat="45.98743" lon="4.79747">
        <ele>245</ele>
        <time>2018-10-02T10:11:25Z</time>
      </trkpt>
      <trkpt lat="45.98738" lon="4.79743">
        <ele>245</ele>
        <time>2018-10-02T10:11:26Z</time>
      </trkpt>
      <trkpt lat="45.98733" lon="4.79739">
        <ele>245</ele>
        <time>2018-10-02T10:11:27Z</time>
      </trkpt>
      <trkpt lat="45.98727" lon="4.79736">
        <ele>245</ele>
        <time>2018-10-02T10:11:29Z</time>
      </trkpt>
      <trkpt lat="45.98724" lon="4.79735">
        <ele>245</ele>
        <time>2018-10-02T10:11:30Z</time>
      </trkpt>
      <trkpt lat="45.98715" lon="4.7973">
        <ele>245</ele>
        <time>2018-10-02T10:11:31Z</time>
      </trkpt>
      <trkpt lat="45.98709" lon="4.79728">
        <ele>245</ele>
        <time>2018-10-02T10:11:32Z</time>
      </trkpt>
      <trkpt lat="45.98705" lon="4.79725">
        <ele>245</ele>
        <time>2018-10-02T10:11:33Z</time>
      </trkpt>
      <trkpt lat="45.98699" lon="4.79723">
        <ele>245</ele>
        <time>2018-10-02T10:11:34Z</time>
      </trkpt>
      <trkpt lat="45.98693" lon="4.79722">
        <ele>245</ele>
        <time>2018-10-02T10:11:35Z</time>
      </trkpt>
      <trkpt lat="45.98688" lon="4.79718">
        <ele>245</ele>
        <time>2018-10-02T10:11:36Z</time>
      </trkpt>
      <trkpt lat="45.98683" lon="4.79716">
        <ele>245</ele>
        <time>2018-10-02T10:11:37Z</time>
      </trkpt>
      <trkpt lat="45.98678" lon="4.79712">
        <ele>245</ele>
        <time>2018-10-02T10:11:38Z</time>
      </trkpt>
      <trkpt lat="45.98673" lon="4.79707">
        <ele>245</ele>
        <time>2018-10-02T10:11:39Z</time>
      </trkpt>
      <trkpt lat="45.98668" lon="4.79702">
        <ele>245</ele>
        <time>2018-10-02T10:11:40Z</time>
      </trkpt>
      <trkpt lat="45.98663" lon="4.79696">
        <ele>245</ele>
        <time>2018-10-02T10:11:41Z</time>
      </trkpt>
      <trkpt lat="45.98658" lon="4.7969">
        <ele>245</ele>
        <time>2018-10-02T10:11:42Z</time>
      </trkpt>
      <trkpt lat="45.98654" lon="4.79683">
        <ele>245</ele>
        <time>2018-10-02T10:11:43Z</time>
      </trkpt>
      <trkpt lat="45.98651" lon="4.79677">
        <ele>245</ele>
        <time>2018-10-02T10:11:44Z</time>
      </trkpt>
      <trkpt lat="45.98647" lon="4.7967">
        <ele>245</ele>
        <time>2018-10-02T10:11:45Z</time>
      </trkpt>
      <trkpt lat="45.98644" lon="4.79664">
        <ele>245</ele>
        <time>2018-10-02T10:11:46Z</time>
      </trkpt>
      <trkpt lat="45.98641" lon="4.79657">
        <ele>245</ele>
        <time>2018-10-02T10:11:47Z</time>
      </trkpt>
      <trkpt lat="45.98638" lon="4.79651">
        <ele>245</ele>
        <time>2018-10-02T10:11:48Z</time>
      </trkpt>
      <trkpt lat="45.98636" lon="4.79644">
        <ele>245</ele>
        <time>2018-10-02T10:11:49Z</time>
      </trkpt>
      <trkpt lat="45.98633" lon="4.79638">
        <ele>245</ele>
        <time>2018-10-02T10:11:50Z</time>
      </trkpt>
      <trkpt lat="45.98632" lon="4.79633">
        <ele>245</ele>
        <time>2018-10-02T10:11:51Z</time>
      </trkpt>
      <trkpt lat="45.98629" lon="4.79621">
        <ele>245</ele>
        <time>2018-10-02T10:11:53Z</time>
      </trkpt>
      <trkpt lat="45.98629" lon="4.79616">
        <ele>245</ele>
        <time>2018-10-02T10:11:54Z</time>
      </trkpt>
      <trkpt lat="45.98628" lon="4.79603">
        <ele>245</ele>
        <time>2018-10-02T10:11:56Z</time>
      </trkpt>
      <trkpt lat="45.98626" lon="4.79597">
        <ele>245</ele>
        <time>2018-10-02T10:11:57Z</time>
      </trkpt>
      <trkpt lat="45.98624" lon="4.79591">
        <ele>245</ele>
        <time>2018-10-02T10:11:58Z</time>
      </trkpt>
      <trkpt lat="45.9862" lon="4.79586">
        <ele>245</ele>
        <time>2018-10-02T10:11:59Z</time>
      </trkpt>
      <trkpt lat="45.98616" lon="4.79584">
        <ele>245</ele>
        <time>2018-10-02T10:12:00Z</time>
      </trkpt>
      <trkpt lat="45.98611" lon="4.79582">
        <ele>245</ele>
        <time>2018-10-02T10:12:01Z</time>
      </trkpt>
      <trkpt lat="45.98607" lon="4.79581">
        <ele>245</ele>
        <time>2018-10-02T10:12:02Z</time>
      </trkpt>
      <trkpt lat="45.98601" lon="4.79581">
        <ele>245</ele>
        <time>2018-10-02T10:12:03Z</time>
      </trkpt>
      <trkpt lat="45.98596" lon="4.79582">
        <ele>245</ele>
        <time>2018-10-02T10:12:04Z</time>
      </trkpt>
      <trkpt lat="45.98592" lon="4.79583">
        <ele>245</ele>
        <time>2018-10-02T10:12:05Z</time>
      </trkpt>
      <trkpt lat="45.98587" lon="4.79583">
        <ele>245</ele>
        <time>2018-10-02T10:12:06Z</time>
      </trkpt>
      <trkpt lat="45.98582" lon="4.79582">
        <ele>245</ele>
        <time>2018-10-02T10:12:07Z</time>
      </trkpt>
      <trkpt lat="45.98577" lon="4.7958">
        <ele>245</ele>
        <time>2018-10-02T10:12:08Z</time>
      </trkpt>
      <trkpt lat="45.98572" lon="4.79577">
        <ele>245</ele>
        <time>2018-10-02T10:12:09Z</time>
      </trkpt>
      <trkpt lat="45.98567" lon="4.79573">
        <ele>244</ele>
        <time>2018-10-02T10:12:10Z</time>
      </trkpt>
      <trkpt lat="45.98561" lon="4.79569">
        <ele>244</ele>
        <time>2018-10-02T10:12:11Z</time>
      </trkpt>
      <trkpt lat="45.98556" lon="4.79564">
        <ele>244</ele>
        <time>2018-10-02T10:12:12Z</time>
      </trkpt>
      <trkpt lat="45.98552" lon="4.79558">
        <ele>244</ele>
        <time>2018-10-02T10:12:13Z</time>
      </trkpt>
      <trkpt lat="45.98548" lon="4.79552">
        <ele>244</ele>
        <time>2018-10-02T10:12:14Z</time>
      </trkpt>
      <trkpt lat="45.98544" lon="4.79545">
        <ele>244</ele>
        <time>2018-10-02T10:12:15Z</time>
      </trkpt>
      <trkpt lat="45.98541" lon="4.79539">
        <ele>244</ele>
        <time>2018-10-02T10:12:16Z</time>
      </trkpt>
      <trkpt lat="45.98538" lon="4.79531">
        <ele>244</ele>
        <time>2018-10-02T10:12:17Z</time>
      </trkpt>
      <trkpt lat="45.98536" lon="4.79524">
        <ele>244</ele>
        <time>2018-10-02T10:12:18Z</time>
      </trkpt>
      <trkpt lat="45.98533" lon="4.79517">
        <ele>244</ele>
        <time>2018-10-02T10:12:19Z</time>
      </trkpt>
      <trkpt lat="45.98531" lon="4.7951">
        <ele>244</ele>
        <time>2018-10-02T10:12:20Z</time>
      </trkpt>
      <trkpt lat="45.9853" lon="4.79503">
        <ele>244</ele>
        <time>2018-10-02T10:12:21Z</time>
      </trkpt>
      <trkpt lat="45.98528" lon="4.79495">
        <ele>244</ele>
        <time>2018-10-02T10:12:22Z</time>
      </trkpt>
      <trkpt lat="45.98527" lon="4.79487">
        <ele>244</ele>
        <time>2018-10-02T10:12:23Z</time>
      </trkpt>
      <trkpt lat="45.98527" lon="4.79478">
        <ele>244</ele>
        <time>2018-10-02T10:12:24Z</time>
      </trkpt>
      <trkpt lat="45.98526" lon="4.7947">
        <ele>244</ele>
        <time>2018-10-02T10:12:25Z</time>
      </trkpt>
      <trkpt lat="45.98526" lon="4.79461">
        <ele>244</ele>
        <time>2018-10-02T10:12:26Z</time>
      </trkpt>
      <trkpt lat="45.98525" lon="4.79451">
        <ele>244</ele>
        <time>2018-10-02T10:12:27Z</time>
      </trkpt>
      <trkpt lat="45.98525" lon="4.79443">
        <ele>244</ele>
        <time>2018-10-02T10:12:28Z</time>
      </trkpt>
      <trkpt lat="45.98524" lon="4.79435">
        <ele>244</ele>
        <time>2018-10-02T10:12:29Z</time>
      </trkpt>
      <trkpt lat="45.98524" lon="4.79427">
        <ele>244</ele>
        <time>2018-10-02T10:12:30Z</time>
      </trkpt>
      <trkpt lat="45.98523" lon="4.79418">
        <ele>244</ele>
        <time>2018-10-02T10:12:31Z</time>
      </trkpt>
      <trkpt lat="45.98522" lon="4.7941">
        <ele>244</ele>
        <time>2018-10-02T10:12:32Z</time>
      </trkpt>
      <trkpt lat="45.9852" lon="4.79403">
        <ele>244</ele>
        <time>2018-10-02T10:12:33Z</time>
      </trkpt>
      <trkpt lat="45.98519" lon="4.79397">
        <ele>244</ele>
        <time>2018-10-02T10:12:34Z</time>
      </trkpt>
      <trkpt lat="45.98518" lon="4.79389">
        <ele>244</ele>
        <time>2018-10-02T10:12:35Z</time>
      </trkpt>
      <trkpt lat="45.98516" lon="4.79381">
        <ele>244</ele>
        <time>2018-10-02T10:12:36Z</time>
      </trkpt>
      <trkpt lat="45.98515" lon="4.79373">
        <ele>243</ele>
        <time>2018-10-02T10:12:37Z</time>
      </trkpt>
      <trkpt lat="45.98514" lon="4.79365">
        <ele>243</ele>
        <time>2018-10-02T10:12:38Z</time>
      </trkpt>
      <trkpt lat="45.98512" lon="4.79355">
        <ele>243</ele>
        <time>2018-10-02T10:12:39Z</time>
      </trkpt>
      <trkpt lat="45.98511" lon="4.79346">
        <ele>243</ele>
        <time>2018-10-02T10:12:40Z</time>
      </trkpt>
      <trkpt lat="45.98509" lon="4.79338">
        <ele>243</ele>
        <time>2018-10-02T10:12:41Z</time>
      </trkpt>
      <trkpt lat="45.98507" lon="4.7933">
        <ele>243</ele>
        <time>2018-10-02T10:12:42Z</time>
      </trkpt>
      <trkpt lat="45.98504" lon="4.79322">
        <ele>243</ele>
        <time>2018-10-02T10:12:43Z</time>
      </trkpt>
      <trkpt lat="45.98502" lon="4.79314">
        <ele>243</ele>
        <time>2018-10-02T10:12:44Z</time>
      </trkpt>
      <trkpt lat="45.98498" lon="4.79306">
        <ele>243</ele>
        <time>2018-10-02T10:12:45Z</time>
      </trkpt>
      <trkpt lat="45.98495" lon="4.79299">
        <ele>243</ele>
        <time>2018-10-02T10:12:46Z</time>
      </trkpt>
      <trkpt lat="45.98492" lon="4.79291">
        <ele>243</ele>
        <time>2018-10-02T10:12:47Z</time>
      </trkpt>
      <trkpt lat="45.98489" lon="4.79285">
        <ele>243</ele>
        <time>2018-10-02T10:12:48Z</time>
      </trkpt>
      <trkpt lat="45.98487" lon="4.79277">
        <ele>243</ele>
        <time>2018-10-02T10:12:49Z</time>
      </trkpt>
      <trkpt lat="45.98483" lon="4.7927">
        <ele>243</ele>
        <time>2018-10-02T10:12:50Z</time>
      </trkpt>
      <trkpt lat="45.98478" lon="4.79262">
        <ele>243</ele>
        <time>2018-10-02T10:12:51Z</time>
      </trkpt>
      <trkpt lat="45.98475" lon="4.79256">
        <ele>243</ele>
        <time>2018-10-02T10:12:52Z</time>
      </trkpt>
      <trkpt lat="45.98471" lon="4.79248">
        <ele>243</ele>
        <time>2018-10-02T10:12:53Z</time>
      </trkpt>
      <trkpt lat="45.98467" lon="4.7924">
        <ele>243</ele>
        <time>2018-10-02T10:12:54Z</time>
      </trkpt>
      <trkpt lat="45.98463" lon="4.79232">
        <ele>243</ele>
        <time>2018-10-02T10:12:55Z</time>
      </trkpt>
      <trkpt lat="45.9846" lon="4.79225">
        <ele>243</ele>
        <time>2018-10-02T10:12:56Z</time>
      </trkpt>
      <trkpt lat="45.98455" lon="4.79218">
        <ele>243</ele>
        <time>2018-10-02T10:12:57Z</time>
      </trkpt>
      <trkpt lat="45.9845" lon="4.7921">
        <ele>242</ele>
        <time>2018-10-02T10:12:58Z</time>
      </trkpt>
      <trkpt lat="45.98446" lon="4.79203">
        <ele>242</ele>
        <time>2018-10-02T10:12:59Z</time>
      </trkpt>
      <trkpt lat="45.98442" lon="4.79195">
        <ele>242</ele>
        <time>2018-10-02T10:13:00Z</time>
      </trkpt>
      <trkpt lat="45.98438" lon="4.79189">
        <ele>242</ele>
        <time>2018-10-02T10:13:01Z</time>
      </trkpt>
      <trkpt lat="45.98434" lon="4.79182">
        <ele>242</ele>
        <time>2018-10-02T10:13:02Z</time>
      </trkpt>
      <trkpt lat="45.98431" lon="4.79174">
        <ele>242</ele>
        <time>2018-10-02T10:13:03Z</time>
      </trkpt>
      <trkpt lat="45.98427" lon="4.79168">
        <ele>242</ele>
        <time>2018-10-02T10:13:04Z</time>
      </trkpt>
      <trkpt lat="45.98424" lon="4.79161">
        <ele>242</ele>
        <time>2018-10-02T10:13:05Z</time>
      </trkpt>
      <trkpt lat="45.9842" lon="4.79154">
        <ele>242</ele>
        <time>2018-10-02T10:13:06Z</time>
      </trkpt>
      <trkpt lat="45.98417" lon="4.79148">
        <ele>242</ele>
        <time>2018-10-02T10:13:07Z</time>
      </trkpt>
      <trkpt lat="45.98413" lon="4.7914">
        <ele>242</ele>
        <time>2018-10-02T10:13:08Z</time>
      </trkpt>
      <trkpt lat="45.98409" lon="4.79133">
        <ele>242</ele>
        <time>2018-10-02T10:13:09Z</time>
      </trkpt>
      <trkpt lat="45.98405" lon="4.79126">
        <ele>242</ele>
        <time>2018-10-02T10:13:10Z</time>
      </trkpt>
      <trkpt lat="45.98401" lon="4.79119">
        <ele>242</ele>
        <time>2018-10-02T10:13:11Z</time>
      </trkpt>
      <trkpt lat="45.98397" lon="4.79112">
        <ele>242</ele>
        <time>2018-10-02T10:13:12Z</time>
      </trkpt>
      <trkpt lat="45.98393" lon="4.79106">
        <ele>242</ele>
        <time>2018-10-02T10:13:13Z</time>
      </trkpt>
      <trkpt lat="45.98391" lon="4.79099">
        <ele>242</ele>
        <time>2018-10-02T10:13:14Z</time>
      </trkpt>
      <trkpt lat="45.98387" lon="4.79093">
        <ele>242</ele>
        <time>2018-10-02T10:13:15Z</time>
      </trkpt>
      <trkpt lat="45.98384" lon="4.79086">
        <ele>242</ele>
        <time>2018-10-02T10:13:16Z</time>
      </trkpt>
      <trkpt lat="45.9838" lon="4.79079">
        <ele>242</ele>
        <time>2018-10-02T10:13:17Z</time>
      </trkpt>
      <trkpt lat="45.98377" lon="4.79073">
        <ele>242</ele>
        <time>2018-10-02T10:13:18Z</time>
      </trkpt>
      <trkpt lat="45.98373" lon="4.79066">
        <ele>242</ele>
        <time>2018-10-02T10:13:19Z</time>
      </trkpt>
      <trkpt lat="45.9837" lon="4.79059">
        <ele>242</ele>
        <time>2018-10-02T10:13:20Z</time>
      </trkpt>
      <trkpt lat="45.98365" lon="4.79052">
        <ele>242</ele>
        <time>2018-10-02T10:13:21Z</time>
      </trkpt>
      <trkpt lat="45.98361" lon="4.79046">
        <ele>242</ele>
        <time>2018-10-02T10:13:22Z</time>
      </trkpt>
      <trkpt lat="45.98356" lon="4.7904">
        <ele>242</ele>
        <time>2018-10-02T10:13:23Z</time>
      </trkpt>
      <trkpt lat="45.98353" lon="4.79033">
        <ele>242</ele>
        <time>2018-10-02T10:13:24Z</time>
      </trkpt>
      <trkpt lat="45.98348" lon="4.79027">
        <ele>242</ele>
        <time>2018-10-02T10:13:25Z</time>
      </trkpt>
      <trkpt lat="45.98343" lon="4.79022">
        <ele>242</ele>
        <time>2018-10-02T10:13:26Z</time>
      </trkpt>
      <trkpt lat="45.98338" lon="4.79018">
        <ele>242</ele>
        <time>2018-10-02T10:13:27Z</time>
      </trkpt>
      <trkpt lat="45.98333" lon="4.79014">
        <ele>242</ele>
        <time>2018-10-02T10:13:28Z</time>
      </trkpt>
      <trkpt lat="45.98327" lon="4.79011">
        <ele>242</ele>
        <time>2018-10-02T10:13:29Z</time>
      </trkpt>
      <trkpt lat="45.98322" lon="4.79008">
        <ele>242</ele>
        <time>2018-10-02T10:13:30Z</time>
      </trkpt>
      <trkpt lat="45.98316" lon="4.79005">
        <ele>242</ele>
        <time>2018-10-02T10:13:31Z</time>
      </trkpt>
      <trkpt lat="45.98311" lon="4.79001">
        <ele>242</ele>
        <time>2018-10-02T10:13:32Z</time>
      </trkpt>
      <trkpt lat="45.98305" lon="4.78998">
        <ele>241</ele>
        <time>2018-10-02T10:13:33Z</time>
      </trkpt>
      <trkpt lat="45.983" lon="4.78994">
        <ele>241</ele>
        <time>2018-10-02T10:13:34Z</time>
      </trkpt>
      <trkpt lat="45.98293" lon="4.7899">
        <ele>241</ele>
        <time>2018-10-02T10:13:35Z</time>
      </trkpt>
      <trkpt lat="45.98287" lon="4.78987">
        <ele>241</ele>
        <time>2018-10-02T10:13:36Z</time>
      </trkpt>
      <trkpt lat="45.98281" lon="4.78983">
        <ele>241</ele>
        <time>2018-10-02T10:13:37Z</time>
      </trkpt>
      <trkpt lat="45.98275" lon="4.78979">
        <ele>241</ele>
        <time>2018-10-02T10:13:38Z</time>
      </trkpt>
      <trkpt lat="45.98266" lon="4.78975">
        <ele>241</ele>
        <time>2018-10-02T10:13:39Z</time>
      </trkpt>
      <trkpt lat="45.98259" lon="4.7897">
        <ele>241</ele>
        <time>2018-10-02T10:13:40Z</time>
      </trkpt>
      <trkpt lat="45.98254" lon="4.78969">
        <ele>241</ele>
        <time>2018-10-02T10:13:41Z</time>
      </trkpt>
      <trkpt lat="45.98249" lon="4.78966">
        <ele>241</ele>
        <time>2018-10-02T10:13:42Z</time>
      </trkpt>
      <trkpt lat="45.98244" lon="4.78962">
        <ele>241</ele>
        <time>2018-10-02T10:13:43Z</time>
      </trkpt>
      <trkpt lat="45.98237" lon="4.78958">
        <ele>241</ele>
        <time>2018-10-02T10:13:44Z</time>
      </trkpt>
      <trkpt lat="45.98233" lon="4.78957">
        <ele>241</ele>
        <time>2018-10-02T10:13:45Z</time>
      </trkpt>
      <trkpt lat="45.98228" lon="4.78953">
        <ele>241</ele>
        <time>2018-10-02T10:13:46Z</time>
      </trkpt>
      <trkpt lat="45.9822" lon="4.7895">
        <ele>241</ele>
        <time>2018-10-02T10:13:47Z</time>
      </trkpt>
      <trkpt lat="45.98215" lon="4.78947">
        <ele>241</ele>
        <time>2018-10-02T10:13:48Z</time>
      </trkpt>
      <trkpt lat="45.9821" lon="4.78944">
        <ele>241</ele>
        <time>2018-10-02T10:13:49Z</time>
      </trkpt>
      <trkpt lat="45.98206" lon="4.7894">
        <ele>241</ele>
        <time>2018-10-02T10:13:50Z</time>
      </trkpt>
      <trkpt lat="45.98201" lon="4.78937">
        <ele>241</ele>
        <time>2018-10-02T10:13:51Z</time>
      </trkpt>
      <trkpt lat="45.98197" lon="4.78934">
        <ele>241</ele>
        <time>2018-10-02T10:13:52Z</time>
      </trkpt>
      <trkpt lat="45.98193" lon="4.78931">
        <ele>241</ele>
        <time>2018-10-02T10:13:53Z</time>
      </trkpt>
      <trkpt lat="45.98188" lon="4.78929">
        <ele>241</ele>
        <time>2018-10-02T10:13:54Z</time>
      </trkpt>
      <trkpt lat="45.98183" lon="4.78926">
        <ele>241</ele>
        <time>2018-10-02T10:13:55Z</time>
      </trkpt>
      <trkpt lat="45.98178" lon="4.78923">
        <ele>240</ele>
        <time>2018-10-02T10:13:56Z</time>
      </trkpt>
      <trkpt lat="45.98172" lon="4.78919">
        <ele>240</ele>
        <time>2018-10-02T10:13:57Z</time>
      </trkpt>
      <trkpt lat="45.98167" lon="4.78915">
        <ele>240</ele>
        <time>2018-10-02T10:13:58Z</time>
      </trkpt>
      <trkpt lat="45.98161" lon="4.78912">
        <ele>240</ele>
        <time>2018-10-02T10:13:59Z</time>
      </trkpt>
      <trkpt lat="45.98156" lon="4.7891">
        <ele>240</ele>
        <time>2018-10-02T10:14:00Z</time>
      </trkpt>
      <trkpt lat="45.9815" lon="4.78905">
        <ele>240</ele>
        <time>2018-10-02T10:14:01Z</time>
      </trkpt>
      <trkpt lat="45.98144" lon="4.78901">
        <ele>240</ele>
        <time>2018-10-02T10:14:02Z</time>
      </trkpt>
      <trkpt lat="45.98138" lon="4.78898">
        <ele>240</ele>
        <time>2018-10-02T10:14:03Z</time>
      </trkpt>
      <trkpt lat="45.98132" lon="4.78895">
        <ele>240</ele>
        <time>2018-10-02T10:14:04Z</time>
      </trkpt>
      <trkpt lat="45.98127" lon="4.78891">
        <ele>240</ele>
        <time>2018-10-02T10:14:05Z</time>
      </trkpt>
      <trkpt lat="45.98121" lon="4.78888">
        <ele>240</ele>
        <time>2018-10-02T10:14:06Z</time>
      </trkpt>
      <trkpt lat="45.98117" lon="4.78885">
        <ele>240</ele>
        <time>2018-10-02T10:14:07Z</time>
      </trkpt>
      <trkpt lat="45.98111" lon="4.78881">
        <ele>240</ele>
        <time>2018-10-02T10:14:08Z</time>
      </trkpt>
      <trkpt lat="45.98107" lon="4.78879">
        <ele>240</ele>
        <time>2018-10-02T10:14:09Z</time>
      </trkpt>
      <trkpt lat="45.98103" lon="4.78875">
        <ele>240</ele>
        <time>2018-10-02T10:14:10Z</time>
      </trkpt>
      <trkpt lat="45.98098" lon="4.78872">
        <ele>239</ele>
        <time>2018-10-02T10:14:11Z</time>
      </trkpt>
      <trkpt lat="45.98093" lon="4.7887">
        <ele>239</ele>
        <time>2018-10-02T10:14:12Z</time>
      </trkpt>
      <trkpt lat="45.98086" lon="4.78864">
        <ele>239</ele>
        <time>2018-10-02T10:14:13Z</time>
      </trkpt>
      <trkpt lat="45.98081" lon="4.7886">
        <ele>239</ele>
        <time>2018-10-02T10:14:14Z</time>
      </trkpt>
      <trkpt lat="45.98075" lon="4.78856">
        <ele>239</ele>
        <time>2018-10-02T10:14:15Z</time>
      </trkpt>
      <trkpt lat="45.98069" lon="4.78852">
        <ele>239</ele>
        <time>2018-10-02T10:14:16Z</time>
      </trkpt>
      <trkpt lat="45.98063" lon="4.78849">
        <ele>239</ele>
        <time>2018-10-02T10:14:17Z</time>
      </trkpt>
      <trkpt lat="45.98057" lon="4.78844">
        <ele>239</ele>
        <time>2018-10-02T10:14:18Z</time>
      </trkpt>
      <trkpt lat="45.98051" lon="4.7884">
        <ele>238</ele>
        <time>2018-10-02T10:14:19Z</time>
      </trkpt>
      <trkpt lat="45.98046" lon="4.78836">
        <ele>238</ele>
        <time>2018-10-02T10:14:20Z</time>
      </trkpt>
      <trkpt lat="45.9804" lon="4.78831">
        <ele>238</ele>
        <time>2018-10-02T10:14:21Z</time>
      </trkpt>
      <trkpt lat="45.98034" lon="4.78827">
        <ele>238</ele>
        <time>2018-10-02T10:14:22Z</time>
      </trkpt>
      <trkpt lat="45.98028" lon="4.78823">
        <ele>238</ele>
        <time>2018-10-02T10:14:23Z</time>
      </trkpt>
      <trkpt lat="45.98022" lon="4.78819">
        <ele>238</ele>
        <time>2018-10-02T10:14:24Z</time>
      </trkpt>
      <trkpt lat="45.98017" lon="4.78815">
        <ele>238</ele>
        <time>2018-10-02T10:14:25Z</time>
      </trkpt>
      <trkpt lat="45.98011" lon="4.7881">
        <ele>238</ele>
        <time>2018-10-02T10:14:26Z</time>
      </trkpt>
      <trkpt lat="45.98005" lon="4.78805">
        <ele>238</ele>
        <time>2018-10-02T10:14:27Z</time>
      </trkpt>
      <trkpt lat="45.97999" lon="4.78801">
        <ele>238</ele>
        <time>2018-10-02T10:14:28Z</time>
      </trkpt>
      <trkpt lat="45.97993" lon="4.78797">
        <ele>238</ele>
        <time>2018-10-02T10:14:29Z</time>
      </trkpt>
      <trkpt lat="45.97987" lon="4.78792">
        <ele>238</ele>
        <time>2018-10-02T10:14:30Z</time>
      </trkpt>
      <trkpt lat="45.97981" lon="4.78788">
        <ele>238</ele>
        <time>2018-10-02T10:14:31Z</time>
      </trkpt>
      <trkpt lat="45.97975" lon="4.78784">
        <ele>238</ele>
        <time>2018-10-02T10:14:32Z</time>
      </trkpt>
      <trkpt lat="45.97968" lon="4.78779">
        <ele>238</ele>
        <time>2018-10-02T10:14:33Z</time>
      </trkpt>
      <trkpt lat="45.97962" lon="4.78775">
        <ele>238</ele>
        <time>2018-10-02T10:14:34Z</time>
      </trkpt>
      <trkpt lat="45.97955" lon="4.7877">
        <ele>238</ele>
        <time>2018-10-02T10:14:35Z</time>
      </trkpt>
      <trkpt lat="45.97948" lon="4.78766">
        <ele>238</ele>
        <time>2018-10-02T10:14:36Z</time>
      </trkpt>
      <trkpt lat="45.97941" lon="4.78762">
        <ele>238</ele>
        <time>2018-10-02T10:14:37Z</time>
      </trkpt>
      <trkpt lat="45.97934" lon="4.78756">
        <ele>238</ele>
        <time>2018-10-02T10:14:38Z</time>
      </trkpt>
      <trkpt lat="45.97927" lon="4.78751">
        <ele>237</ele>
        <time>2018-10-02T10:14:39Z</time>
      </trkpt>
      <trkpt lat="45.97921" lon="4.78746">
        <ele>237</ele>
        <time>2018-10-02T10:14:40Z</time>
      </trkpt>
      <trkpt lat="45.97914" lon="4.78741">
        <ele>237</ele>
        <time>2018-10-02T10:14:41Z</time>
      </trkpt>
      <trkpt lat="45.97908" lon="4.78737">
        <ele>237</ele>
        <time>2018-10-02T10:14:42Z</time>
      </trkpt>
      <trkpt lat="45.97901" lon="4.78732">
        <ele>237</ele>
        <time>2018-10-02T10:14:43Z</time>
      </trkpt>
      <trkpt lat="45.97895" lon="4.78727">
        <ele>236</ele>
        <time>2018-10-02T10:14:44Z</time>
      </trkpt>
      <trkpt lat="45.97889" lon="4.78723">
        <ele>236</ele>
        <time>2018-10-02T10:14:45Z</time>
      </trkpt>
      <trkpt lat="45.97882" lon="4.78719">
        <ele>236</ele>
        <time>2018-10-02T10:14:46Z</time>
      </trkpt>
      <trkpt lat="45.97876" lon="4.78715">
        <ele>236</ele>
        <time>2018-10-02T10:14:47Z</time>
      </trkpt>
      <trkpt lat="45.97869" lon="4.78709">
        <ele>236</ele>
        <time>2018-10-02T10:14:48Z</time>
      </trkpt>
      <trkpt lat="45.97863" lon="4.78705">
        <ele>236</ele>
        <time>2018-10-02T10:14:49Z</time>
      </trkpt>
      <trkpt lat="45.97856" lon="4.78701">
        <ele>236</ele>
        <time>2018-10-02T10:14:50Z</time>
      </trkpt>
      <trkpt lat="45.9785" lon="4.78697">
        <ele>236</ele>
        <time>2018-10-02T10:14:51Z</time>
      </trkpt>
      <trkpt lat="45.97843" lon="4.78693">
        <ele>236</ele>
        <time>2018-10-02T10:14:52Z</time>
      </trkpt>
      <trkpt lat="45.97835" lon="4.78689">
        <ele>236</ele>
        <time>2018-10-02T10:14:53Z</time>
      </trkpt>
      <trkpt lat="45.97826" lon="4.78685">
        <ele>235</ele>
        <time>2018-10-02T10:14:54Z</time>
      </trkpt>
      <trkpt lat="45.97819" lon="4.78681">
        <ele>235</ele>
        <time>2018-10-02T10:14:55Z</time>
      </trkpt>
      <trkpt lat="45.97813" lon="4.78678">
        <ele>235</ele>
        <time>2018-10-02T10:14:56Z</time>
      </trkpt>
      <trkpt lat="45.97806" lon="4.78675">
        <ele>235</ele>
        <time>2018-10-02T10:14:57Z</time>
      </trkpt>
      <trkpt lat="45.97799" lon="4.78671">
        <ele>235</ele>
        <time>2018-10-02T10:14:58Z</time>
      </trkpt>
      <trkpt lat="45.97792" lon="4.78668">
        <ele>235</ele>
        <time>2018-10-02T10:14:59Z</time>
      </trkpt>
      <trkpt lat="45.97785" lon="4.78665">
        <ele>235</ele>
        <time>2018-10-02T10:15:00Z</time>
      </trkpt>
      <trkpt lat="45.97778" lon="4.78662">
        <ele>235</ele>
        <time>2018-10-02T10:15:01Z</time>
      </trkpt>
      <trkpt lat="45.97772" lon="4.78659">
        <ele>235</ele>
        <time>2018-10-02T10:15:02Z</time>
      </trkpt>
      <trkpt lat="45.97763" lon="4.78656">
        <ele>235</ele>
        <time>2018-10-02T10:15:03Z</time>
      </trkpt>
      <trkpt lat="45.97757" lon="4.78653">
        <ele>235</ele>
        <time>2018-10-02T10:15:04Z</time>
      </trkpt>
      <trkpt lat="45.9775" lon="4.7865">
        <ele>234</ele>
        <time>2018-10-02T10:15:05Z</time>
      </trkpt>
      <trkpt lat="45.97742" lon="4.78648">
        <ele>234</ele>
        <time>2018-10-02T10:15:06Z</time>
      </trkpt>
      <trkpt lat="45.97736" lon="4.78645">
        <ele>234</ele>
        <time>2018-10-02T10:15:07Z</time>
      </trkpt>
      <trkpt lat="45.97729" lon="4.78642">
        <ele>234</ele>
        <time>2018-10-02T10:15:08Z</time>
      </trkpt>
      <trkpt lat="45.97723" lon="4.78639">
        <ele>234</ele>
        <time>2018-10-02T10:15:09Z</time>
      </trkpt>
      <trkpt lat="45.97716" lon="4.78636">
        <ele>234</ele>
        <time>2018-10-02T10:15:10Z</time>
      </trkpt>
      <trkpt lat="45.97709" lon="4.78633">
        <ele>234</ele>
        <time>2018-10-02T10:15:11Z</time>
      </trkpt>
      <trkpt lat="45.97702" lon="4.7863">
        <ele>234</ele>
        <time>2018-10-02T10:15:12Z</time>
      </trkpt>
      <trkpt lat="45.97695" lon="4.78628">
        <ele>234</ele>
        <time>2018-10-02T10:15:13Z</time>
      </trkpt>
      <trkpt lat="45.97689" lon="4.78625">
        <ele>234</ele>
        <time>2018-10-02T10:15:14Z</time>
      </trkpt>
      <trkpt lat="45.97683" lon="4.78622">
        <ele>234</ele>
        <time>2018-10-02T10:15:15Z</time>
      </trkpt>
      <trkpt lat="45.97676" lon="4.78619">
        <ele>234</ele>
        <time>2018-10-02T10:15:16Z</time>
      </trkpt>
      <trkpt lat="45.9767" lon="4.78616">
        <ele>234</ele>
        <time>2018-10-02T10:15:17Z</time>
      </trkpt>
      <trkpt lat="45.97664" lon="4.78614">
        <ele>233</ele>
        <time>2018-10-02T10:15:18Z</time>
      </trkpt>
      <trkpt lat="45.97658" lon="4.78611">
        <ele>233</ele>
        <time>2018-10-02T10:15:19Z</time>
      </trkpt>
      <trkpt lat="45.97651" lon="4.78608">
        <ele>233</ele>
        <time>2018-10-02T10:15:20Z</time>
      </trkpt>
      <trkpt lat="45.97645" lon="4.78605">
        <ele>233</ele>
        <time>2018-10-02T10:15:21Z</time>
      </trkpt>
      <trkpt lat="45.97638" lon="4.78602">
        <ele>233</ele>
        <time>2018-10-02T10:15:22Z</time>
      </trkpt>
      <trkpt lat="45.97632" lon="4.786">
        <ele>233</ele>
        <time>2018-10-02T10:15:23Z</time>
      </trkpt>
      <trkpt lat="45.97625" lon="4.78598">
        <ele>233</ele>
        <time>2018-10-02T10:15:24Z</time>
      </trkpt>
      <trkpt lat="45.97619" lon="4.78596">
        <ele>233</ele>
        <time>2018-10-02T10:15:25Z</time>
      </trkpt>
      <trkpt lat="45.97612" lon="4.78593">
        <ele>233</ele>
        <time>2018-10-02T10:15:26Z</time>
      </trkpt>
      <trkpt lat="45.97606" lon="4.78592">
        <ele>233</ele>
        <time>2018-10-02T10:15:27Z</time>
      </trkpt>
      <trkpt lat="45.97599" lon="4.78588">
        <ele>233</ele>
        <time>2018-10-02T10:15:28Z</time>
      </trkpt>
      <trkpt lat="45.97592" lon="4.78586">
        <ele>233</ele>
        <time>2018-10-02T10:15:29Z</time>
      </trkpt>
      <trkpt lat="45.97585" lon="4.78582">
        <ele>233</ele>
        <time>2018-10-02T10:15:30Z</time>
      </trkpt>
      <trkpt lat="45.97578" lon="4.78579">
        <ele>233</ele>
        <time>2018-10-02T10:15:31Z</time>
      </trkpt>
      <trkpt lat="45.97571" lon="4.78576">
        <ele>233</ele>
        <time>2018-10-02T10:15:32Z</time>
      </trkpt>
      <trkpt lat="45.97564" lon="4.78573">
        <ele>233</ele>
        <time>2018-10-02T10:15:33Z</time>
      </trkpt>
      <trkpt lat="45.97557" lon="4.7857">
        <ele>234</ele>
        <time>2018-10-02T10:15:34Z</time>
      </trkpt>
      <trkpt lat="45.9755" lon="4.78568">
        <ele>234</ele>
        <time>2018-10-02T10:15:35Z</time>
      </trkpt>
      <trkpt lat="45.97543" lon="4.78565">
        <ele>234</ele>
        <time>2018-10-02T10:15:36Z</time>
      </trkpt>
      <trkpt lat="45.97537" lon="4.78563">
        <ele>234</ele>
        <time>2018-10-02T10:15:37Z</time>
      </trkpt>
      <trkpt lat="45.9753" lon="4.7856">
        <ele>234</ele>
        <time>2018-10-02T10:15:38Z</time>
      </trkpt>
      <trkpt lat="45.97524" lon="4.78557">
        <ele>234</ele>
        <time>2018-10-02T10:15:39Z</time>
      </trkpt>
      <trkpt lat="45.97517" lon="4.78553">
        <ele>234</ele>
        <time>2018-10-02T10:15:40Z</time>
      </trkpt>
      <trkpt lat="45.97511" lon="4.7855">
        <ele>234</ele>
        <time>2018-10-02T10:15:41Z</time>
      </trkpt>
      <trkpt lat="45.97504" lon="4.78545">
        <ele>234</ele>
        <time>2018-10-02T10:15:42Z</time>
      </trkpt>
      <trkpt lat="45.97498" lon="4.7854">
        <ele>233</ele>
        <time>2018-10-02T10:15:43Z</time>
      </trkpt>
      <trkpt lat="45.97491" lon="4.78535">
        <ele>233</ele>
        <time>2018-10-02T10:15:44Z</time>
      </trkpt>
      <trkpt lat="45.97485" lon="4.7853">
        <ele>233</ele>
        <time>2018-10-02T10:15:45Z</time>
      </trkpt>
      <trkpt lat="45.97478" lon="4.78524">
        <ele>233</ele>
        <time>2018-10-02T10:15:46Z</time>
      </trkpt>
      <trkpt lat="45.97472" lon="4.78519">
        <ele>233</ele>
        <time>2018-10-02T10:15:47Z</time>
      </trkpt>
      <trkpt lat="45.97464" lon="4.78514">
        <ele>233</ele>
        <time>2018-10-02T10:15:48Z</time>
      </trkpt>
      <trkpt lat="45.97458" lon="4.78508">
        <ele>234</ele>
        <time>2018-10-02T10:15:49Z</time>
      </trkpt>
      <trkpt lat="45.97451" lon="4.78501">
        <ele>234</ele>
        <time>2018-10-02T10:15:50Z</time>
      </trkpt>
      <trkpt lat="45.97444" lon="4.78497">
        <ele>234</ele>
        <time>2018-10-02T10:15:51Z</time>
      </trkpt>
      <trkpt lat="45.97438" lon="4.78491">
        <ele>234</ele>
        <time>2018-10-02T10:15:52Z</time>
      </trkpt>
      <trkpt lat="45.97432" lon="4.78486">
        <ele>234</ele>
        <time>2018-10-02T10:15:53Z</time>
      </trkpt>
      <trkpt lat="45.97426" lon="4.78481">
        <ele>234</ele>
        <time>2018-10-02T10:15:54Z</time>
      </trkpt>
      <trkpt lat="45.9742" lon="4.78475">
        <ele>234</ele>
        <time>2018-10-02T10:15:55Z</time>
      </trkpt>
      <trkpt lat="45.97414" lon="4.78468">
        <ele>233</ele>
        <time>2018-10-02T10:15:56Z</time>
      </trkpt>
      <trkpt lat="45.97408" lon="4.78462">
        <ele>233</ele>
        <time>2018-10-02T10:15:57Z</time>
      </trkpt>
      <trkpt lat="45.97403" lon="4.78456">
        <ele>233</ele>
        <time>2018-10-02T10:15:58Z</time>
      </trkpt>
      <trkpt lat="45.97397" lon="4.78451">
        <ele>233</ele>
        <time>2018-10-02T10:15:59Z</time>
      </trkpt>
      <trkpt lat="45.97391" lon="4.78446">
        <ele>233</ele>
        <time>2018-10-02T10:16:00Z</time>
      </trkpt>
      <trkpt lat="45.97385" lon="4.7844">
        <ele>233</ele>
        <time>2018-10-02T10:16:01Z</time>
      </trkpt>
      <trkpt lat="45.9738" lon="4.78434">
        <ele>233</ele>
        <time>2018-10-02T10:16:02Z</time>
      </trkpt>
      <trkpt lat="45.97375" lon="4.78428">
        <ele>233</ele>
        <time>2018-10-02T10:16:03Z</time>
      </trkpt>
      <trkpt lat="45.97369" lon="4.78423">
        <ele>233</ele>
        <time>2018-10-02T10:16:04Z</time>
      </trkpt>
      <trkpt lat="45.97364" lon="4.78417">
        <ele>233</ele>
        <time>2018-10-02T10:16:05Z</time>
      </trkpt>
      <trkpt lat="45.97358" lon="4.78411">
        <ele>233</ele>
        <time>2018-10-02T10:16:06Z</time>
      </trkpt>
      <trkpt lat="45.97353" lon="4.78406">
        <ele>232</ele>
        <time>2018-10-02T10:16:07Z</time>
      </trkpt>
      <trkpt lat="45.97348" lon="4.784">
        <ele>232</ele>
        <time>2018-10-02T10:16:08Z</time>
      </trkpt>
      <trkpt lat="45.97342" lon="4.78395">
        <ele>232</ele>
        <time>2018-10-02T10:16:09Z</time>
      </trkpt>
      <trkpt lat="45.97336" lon="4.78388">
        <ele>233</ele>
        <time>2018-10-02T10:16:10Z</time>
      </trkpt>
      <trkpt lat="45.97331" lon="4.78381">
        <ele>232</ele>
        <time>2018-10-02T10:16:11Z</time>
      </trkpt>
      <trkpt lat="45.97325" lon="4.78375">
        <ele>232</ele>
        <time>2018-10-02T10:16:12Z</time>
      </trkpt>
      <trkpt lat="45.97319" lon="4.78368">
        <ele>232</ele>
        <time>2018-10-02T10:16:13Z</time>
      </trkpt>
      <trkpt lat="45.97313" lon="4.7836">
        <ele>232</ele>
        <time>2018-10-02T10:16:14Z</time>
      </trkpt>
      <trkpt lat="45.97308" lon="4.78353">
        <ele>232</ele>
        <time>2018-10-02T10:16:15Z</time>
      </trkpt>
      <trkpt lat="45.97303" lon="4.78347">
        <ele>232</ele>
        <time>2018-10-02T10:16:16Z</time>
      </trkpt>
      <trkpt lat="45.97297" lon="4.7834">
        <ele>232</ele>
        <time>2018-10-02T10:16:17Z</time>
      </trkpt>
      <trkpt lat="45.97293" lon="4.78332">
        <ele>232</ele>
        <time>2018-10-02T10:16:18Z</time>
      </trkpt>
      <trkpt lat="45.97288" lon="4.78325">
        <ele>232</ele>
        <time>2018-10-02T10:16:19Z</time>
      </trkpt>
      <trkpt lat="45.97283" lon="4.78319">
        <ele>232</ele>
        <time>2018-10-02T10:16:20Z</time>
      </trkpt>
      <trkpt lat="45.9728" lon="4.78313">
        <ele>232</ele>
        <time>2018-10-02T10:16:21Z</time>
      </trkpt>
      <trkpt lat="45.97275" lon="4.78306">
        <ele>232</ele>
        <time>2018-10-02T10:16:22Z</time>
      </trkpt>
      <trkpt lat="45.9727" lon="4.783">
        <ele>232</ele>
        <time>2018-10-02T10:16:23Z</time>
      </trkpt>
      <trkpt lat="45.97266" lon="4.78293">
        <ele>232</ele>
        <time>2018-10-02T10:16:24Z</time>
      </trkpt>
      <trkpt lat="45.97261" lon="4.78286">
        <ele>232</ele>
        <time>2018-10-02T10:16:25Z</time>
      </trkpt>
      <trkpt lat="45.97257" lon="4.78279">
        <ele>232</ele>
        <time>2018-10-02T10:16:26Z</time>
      </trkpt>
      <trkpt lat="45.97253" lon="4.78272">
        <ele>232</ele>
        <time>2018-10-02T10:16:27Z</time>
      </trkpt>
      <trkpt lat="45.97249" lon="4.78266">
        <ele>231</ele>
        <time>2018-10-02T10:16:28Z</time>
      </trkpt>
      <trkpt lat="45.97245" lon="4.78259">
        <ele>231</ele>
        <time>2018-10-02T10:16:29Z</time>
      </trkpt>
      <trkpt lat="45.9724" lon="4.78253">
        <ele>231</ele>
        <time>2018-10-02T10:16:30Z</time>
      </trkpt>
      <trkpt lat="45.97235" lon="4.78246">
        <ele>231</ele>
        <time>2018-10-02T10:16:31Z</time>
      </trkpt>
      <trkpt lat="45.97231" lon="4.7824">
        <ele>231</ele>
        <time>2018-10-02T10:16:32Z</time>
      </trkpt>
      <trkpt lat="45.97226" lon="4.78233">
        <ele>231</ele>
        <time>2018-10-02T10:16:33Z</time>
      </trkpt>
      <trkpt lat="45.97222" lon="4.78226">
        <ele>231</ele>
        <time>2018-10-02T10:16:34Z</time>
      </trkpt>
      <trkpt lat="45.97218" lon="4.78218">
        <ele>231</ele>
        <time>2018-10-02T10:16:35Z</time>
      </trkpt>
      <trkpt lat="45.97213" lon="4.7821">
        <ele>231</ele>
        <time>2018-10-02T10:16:36Z</time>
      </trkpt>
      <trkpt lat="45.97209" lon="4.78202">
        <ele>231</ele>
        <time>2018-10-02T10:16:37Z</time>
      </trkpt>
      <trkpt lat="45.97204" lon="4.78193">
        <ele>231</ele>
        <time>2018-10-02T10:16:38Z</time>
      </trkpt>
      <trkpt lat="45.97198" lon="4.78185">
        <ele>231</ele>
        <time>2018-10-02T10:16:39Z</time>
      </trkpt>
      <trkpt lat="45.97194" lon="4.78177">
        <ele>231</ele>
        <time>2018-10-02T10:16:40Z</time>
      </trkpt>
      <trkpt lat="45.97189" lon="4.78169">
        <ele>231</ele>
        <time>2018-10-02T10:16:41Z</time>
      </trkpt>
      <trkpt lat="45.97186" lon="4.78161">
        <ele>231</ele>
        <time>2018-10-02T10:16:42Z</time>
      </trkpt>
      <trkpt lat="45.97181" lon="4.78153">
        <ele>231</ele>
        <time>2018-10-02T10:16:43Z</time>
      </trkpt>
      <trkpt lat="45.97177" lon="4.78145">
        <ele>231</ele>
        <time>2018-10-02T10:16:44Z</time>
      </trkpt>
      <trkpt lat="45.97173" lon="4.78137">
        <ele>231</ele>
        <time>2018-10-02T10:16:45Z</time>
      </trkpt>
      <trkpt lat="45.97169" lon="4.7813">
        <ele>231</ele>
        <time>2018-10-02T10:16:46Z</time>
      </trkpt>
      <trkpt lat="45.97164" lon="4.78123">
        <ele>230</ele>
        <time>2018-10-02T10:16:47Z</time>
      </trkpt>
      <trkpt lat="45.9716" lon="4.78116">
        <ele>230</ele>
        <time>2018-10-02T10:16:48Z</time>
      </trkpt>
      <trkpt lat="45.97156" lon="4.78109">
        <ele>230</ele>
        <time>2018-10-02T10:16:49Z</time>
      </trkpt>
      <trkpt lat="45.97152" lon="4.78102">
        <ele>230</ele>
        <time>2018-10-02T10:16:50Z</time>
      </trkpt>
      <trkpt lat="45.97148" lon="4.78095">
        <ele>230</ele>
        <time>2018-10-02T10:16:51Z</time>
      </trkpt>
      <trkpt lat="45.97145" lon="4.78087">
        <ele>230</ele>
        <time>2018-10-02T10:16:52Z</time>
      </trkpt>
      <trkpt lat="45.97141" lon="4.7808">
        <ele>230</ele>
        <time>2018-10-02T10:16:53Z</time>
      </trkpt>
      <trkpt lat="45.97137" lon="4.78075">
        <ele>230</ele>
        <time>2018-10-02T10:16:54Z</time>
      </trkpt>
      <trkpt lat="45.97133" lon="4.78069">
        <ele>230</ele>
        <time>2018-10-02T10:16:55Z</time>
      </trkpt>
      <trkpt lat="45.97128" lon="4.78062">
        <ele>230</ele>
        <time>2018-10-02T10:16:56Z</time>
      </trkpt>
      <trkpt lat="45.97123" lon="4.78056">
        <ele>229</ele>
        <time>2018-10-02T10:16:57Z</time>
      </trkpt>
      <trkpt lat="45.97118" lon="4.78051">
        <ele>229</ele>
        <time>2018-10-02T10:16:58Z</time>
      </trkpt>
      <trkpt lat="45.97112" lon="4.78046">
        <ele>229</ele>
        <time>2018-10-02T10:16:59Z</time>
      </trkpt>
      <trkpt lat="45.97107" lon="4.78041">
        <ele>229</ele>
        <time>2018-10-02T10:17:00Z</time>
      </trkpt>
      <trkpt lat="45.97101" lon="4.78036">
        <ele>229</ele>
        <time>2018-10-02T10:17:01Z</time>
      </trkpt>
      <trkpt lat="45.97096" lon="4.7803">
        <ele>229</ele>
        <time>2018-10-02T10:17:02Z</time>
      </trkpt>
      <trkpt lat="45.97091" lon="4.78026">
        <ele>229</ele>
        <time>2018-10-02T10:17:03Z</time>
      </trkpt>
      <trkpt lat="45.97085" lon="4.7802">
        <ele>229</ele>
        <time>2018-10-02T10:17:04Z</time>
      </trkpt>
      <trkpt lat="45.97079" lon="4.78015">
        <ele>229</ele>
        <time>2018-10-02T10:17:05Z</time>
      </trkpt>
      <trkpt lat="45.97074" lon="4.7801">
        <ele>229</ele>
        <time>2018-10-02T10:17:06Z</time>
      </trkpt>
      <trkpt lat="45.97068" lon="4.78005">
        <ele>229</ele>
        <time>2018-10-02T10:17:07Z</time>
      </trkpt>
      <trkpt lat="45.97063" lon="4.77999">
        <ele>229</ele>
        <time>2018-10-02T10:17:08Z</time>
      </trkpt>
      <trkpt lat="45.97057" lon="4.77992">
        <ele>229</ele>
        <time>2018-10-02T10:17:09Z</time>
      </trkpt>
      <trkpt lat="45.97052" lon="4.77986">
        <ele>229</ele>
        <time>2018-10-02T10:17:10Z</time>
      </trkpt>
      <trkpt lat="45.97047" lon="4.77981">
        <ele>229</ele>
        <time>2018-10-02T10:17:11Z</time>
      </trkpt>
      <trkpt lat="45.97041" lon="4.77975">
        <ele>229</ele>
        <time>2018-10-02T10:17:12Z</time>
      </trkpt>
      <trkpt lat="45.97036" lon="4.77968">
        <ele>229</ele>
        <time>2018-10-02T10:17:13Z</time>
      </trkpt>
      <trkpt lat="45.9703" lon="4.77962">
        <ele>228</ele>
        <time>2018-10-02T10:17:14Z</time>
      </trkpt>
      <trkpt lat="45.97025" lon="4.77955">
        <ele>228</ele>
        <time>2018-10-02T10:17:15Z</time>
      </trkpt>
      <trkpt lat="45.9702" lon="4.77949">
        <ele>228</ele>
        <time>2018-10-02T10:17:16Z</time>
      </trkpt>
      <trkpt lat="45.97014" lon="4.77942">
        <ele>228</ele>
        <time>2018-10-02T10:17:17Z</time>
      </trkpt>
      <trkpt lat="45.97008" lon="4.77935">
        <ele>228</ele>
        <time>2018-10-02T10:17:18Z</time>
      </trkpt>
      <trkpt lat="45.97003" lon="4.77929">
        <ele>228</ele>
        <time>2018-10-02T10:17:19Z</time>
      </trkpt>
      <trkpt lat="45.96998" lon="4.77923">
        <ele>227</ele>
        <time>2018-10-02T10:17:20Z</time>
      </trkpt>
      <trkpt lat="45.96992" lon="4.77916">
        <ele>227</ele>
        <time>2018-10-02T10:17:21Z</time>
      </trkpt>
      <trkpt lat="45.96986" lon="4.77908">
        <ele>227</ele>
        <time>2018-10-02T10:17:22Z</time>
      </trkpt>
      <trkpt lat="45.9698" lon="4.77901">
        <ele>227</ele>
        <time>2018-10-02T10:17:23Z</time>
      </trkpt>
      <trkpt lat="45.96975" lon="4.77894">
        <ele>228</ele>
        <time>2018-10-02T10:17:24Z</time>
      </trkpt>
      <trkpt lat="45.9697" lon="4.77887">
        <ele>228</ele>
        <time>2018-10-02T10:17:25Z</time>
      </trkpt>
      <trkpt lat="45.96965" lon="4.77881">
        <ele>228</ele>
        <time>2018-10-02T10:17:26Z</time>
      </trkpt>
      <trkpt lat="45.96961" lon="4.77875">
        <ele>228</ele>
        <time>2018-10-02T10:17:27Z</time>
      </trkpt>
      <trkpt lat="45.96955" lon="4.77868">
        <ele>228</ele>
        <time>2018-10-02T10:17:28Z</time>
      </trkpt>
      <trkpt lat="45.9695" lon="4.77861">
        <ele>228</ele>
        <time>2018-10-02T10:17:29Z</time>
      </trkpt>
      <trkpt lat="45.96944" lon="4.77855">
        <ele>228</ele>
        <time>2018-10-02T10:17:30Z</time>
      </trkpt>
      <trkpt lat="45.96939" lon="4.77848">
        <ele>228</ele>
        <time>2018-10-02T10:17:31Z</time>
      </trkpt>
      <trkpt lat="45.96932" lon="4.77841">
        <ele>228</ele>
        <time>2018-10-02T10:17:32Z</time>
      </trkpt>
      <trkpt lat="45.96925" lon="4.77833">
        <ele>228</ele>
        <time>2018-10-02T10:17:33Z</time>
      </trkpt>
      <trkpt lat="45.96918" lon="4.77827">
        <ele>228</ele>
        <time>2018-10-02T10:17:34Z</time>
      </trkpt>
      <trkpt lat="45.96911" lon="4.77821">
        <ele>228</ele>
        <time>2018-10-02T10:17:35Z</time>
      </trkpt>
      <trkpt lat="45.96904" lon="4.77814">
        <ele>228</ele>
        <time>2018-10-02T10:17:36Z</time>
      </trkpt>
      <trkpt lat="45.96898" lon="4.77807">
        <ele>228</ele>
        <time>2018-10-02T10:17:37Z</time>
      </trkpt>
      <trkpt lat="45.96892" lon="4.77801">
        <ele>228</ele>
        <time>2018-10-02T10:17:38Z</time>
      </trkpt>
      <trkpt lat="45.96885" lon="4.77794">
        <ele>228</ele>
        <time>2018-10-02T10:17:39Z</time>
      </trkpt>
      <trkpt lat="45.96879" lon="4.77788">
        <ele>228</ele>
        <time>2018-10-02T10:17:40Z</time>
      </trkpt>
      <trkpt lat="45.96874" lon="4.77782">
        <ele>228</ele>
        <time>2018-10-02T10:17:41Z</time>
      </trkpt>
      <trkpt lat="45.96867" lon="4.77776">
        <ele>228</ele>
        <time>2018-10-02T10:17:42Z</time>
      </trkpt>
      <trkpt lat="45.96861" lon="4.7777">
        <ele>228</ele>
        <time>2018-10-02T10:17:43Z</time>
      </trkpt>
      <trkpt lat="45.96856" lon="4.77765">
        <ele>228</ele>
        <time>2018-10-02T10:17:44Z</time>
      </trkpt>
      <trkpt lat="45.96851" lon="4.7776">
        <ele>228</ele>
        <time>2018-10-02T10:17:45Z</time>
      </trkpt>
      <trkpt lat="45.96845" lon="4.77754">
        <ele>228</ele>
        <time>2018-10-02T10:17:46Z</time>
      </trkpt>
      <trkpt lat="45.96839" lon="4.77747">
        <ele>228</ele>
        <time>2018-10-02T10:17:47Z</time>
      </trkpt>
      <trkpt lat="45.96833" lon="4.77742">
        <ele>228</ele>
        <time>2018-10-02T10:17:48Z</time>
      </trkpt>
      <trkpt lat="45.96827" lon="4.77737">
        <ele>228</ele>
        <time>2018-10-02T10:17:49Z</time>
      </trkpt>
      <trkpt lat="45.96821" lon="4.77731">
        <ele>228</ele>
        <time>2018-10-02T10:17:50Z</time>
      </trkpt>
      <trkpt lat="45.96816" lon="4.77725">
        <ele>228</ele>
        <time>2018-10-02T10:17:51Z</time>
      </trkpt>
      <trkpt lat="45.9681" lon="4.77719">
        <ele>228</ele>
        <time>2018-10-02T10:17:52Z</time>
      </trkpt>
      <trkpt lat="45.96804" lon="4.77712">
        <ele>228</ele>
        <time>2018-10-02T10:17:53Z</time>
      </trkpt>
      <trkpt lat="45.96799" lon="4.77706">
        <ele>228</ele>
        <time>2018-10-02T10:17:54Z</time>
      </trkpt>
      <trkpt lat="45.96793" lon="4.777">
        <ele>228</ele>
        <time>2018-10-02T10:17:55Z</time>
      </trkpt>
      <trkpt lat="45.96787" lon="4.77695">
        <ele>227</ele>
        <time>2018-10-02T10:17:56Z</time>
      </trkpt>
      <trkpt lat="45.96781" lon="4.77688">
        <ele>227</ele>
        <time>2018-10-02T10:17:57Z</time>
      </trkpt>
      <trkpt lat="45.96777" lon="4.77682">
        <ele>227</ele>
        <time>2018-10-02T10:17:58Z</time>
      </trkpt>
      <trkpt lat="45.96772" lon="4.77676">
        <ele>227</ele>
        <time>2018-10-02T10:17:59Z</time>
      </trkpt>
      <trkpt lat="45.96767" lon="4.7767">
        <ele>227</ele>
        <time>2018-10-02T10:18:00Z</time>
      </trkpt>
      <trkpt lat="45.96762" lon="4.77664">
        <ele>227</ele>
        <time>2018-10-02T10:18:01Z</time>
      </trkpt>
      <trkpt lat="45.96757" lon="4.77657">
        <ele>227</ele>
        <time>2018-10-02T10:18:02Z</time>
      </trkpt>
      <trkpt lat="45.96751" lon="4.7765">
        <ele>227</ele>
        <time>2018-10-02T10:18:03Z</time>
      </trkpt>
      <trkpt lat="45.96747" lon="4.77644">
        <ele>227</ele>
        <time>2018-10-02T10:18:04Z</time>
      </trkpt>
      <trkpt lat="45.96742" lon="4.77637">
        <ele>227</ele>
        <time>2018-10-02T10:18:05Z</time>
      </trkpt>
      <trkpt lat="45.96737" lon="4.77631">
        <ele>226</ele>
        <time>2018-10-02T10:18:06Z</time>
      </trkpt>
      <trkpt lat="45.96732" lon="4.77624">
        <ele>226</ele>
        <time>2018-10-02T10:18:07Z</time>
      </trkpt>
      <trkpt lat="45.96727" lon="4.77618">
        <ele>226</ele>
        <time>2018-10-02T10:18:08Z</time>
      </trkpt>
      <trkpt lat="45.96722" lon="4.77611">
        <ele>226</ele>
        <time>2018-10-02T10:18:09Z</time>
      </trkpt>
      <trkpt lat="45.96717" lon="4.77605">
        <ele>226</ele>
        <time>2018-10-02T10:18:10Z</time>
      </trkpt>
      <trkpt lat="45.96712" lon="4.776">
        <ele>226</ele>
        <time>2018-10-02T10:18:11Z</time>
      </trkpt>
      <trkpt lat="45.96707" lon="4.77594">
        <ele>226</ele>
        <time>2018-10-02T10:18:12Z</time>
      </trkpt>
      <trkpt lat="45.96702" lon="4.77588">
        <ele>226</ele>
        <time>2018-10-02T10:18:13Z</time>
      </trkpt>
      <trkpt lat="45.96697" lon="4.77582">
        <ele>225</ele>
        <time>2018-10-02T10:18:14Z</time>
      </trkpt>
      <trkpt lat="45.96691" lon="4.77577">
        <ele>225</ele>
        <time>2018-10-02T10:18:15Z</time>
      </trkpt>
      <trkpt lat="45.96686" lon="4.77573">
        <ele>225</ele>
        <time>2018-10-02T10:18:16Z</time>
      </trkpt>
      <trkpt lat="45.9668" lon="4.77569">
        <ele>225</ele>
        <time>2018-10-02T10:18:17Z</time>
      </trkpt>
      <trkpt lat="45.96674" lon="4.77564">
        <ele>225</ele>
        <time>2018-10-02T10:18:18Z</time>
      </trkpt>
      <trkpt lat="45.96667" lon="4.7756">
        <ele>225</ele>
        <time>2018-10-02T10:18:19Z</time>
      </trkpt>
      <trkpt lat="45.96661" lon="4.77555">
        <ele>224</ele>
        <time>2018-10-02T10:18:20Z</time>
      </trkpt>
      <trkpt lat="45.96654" lon="4.77551">
        <ele>224</ele>
        <time>2018-10-02T10:18:21Z</time>
      </trkpt>
      <trkpt lat="45.96648" lon="4.77546">
        <ele>224</ele>
        <time>2018-10-02T10:18:22Z</time>
      </trkpt>
      <trkpt lat="45.96641" lon="4.77542">
        <ele>224</ele>
        <time>2018-10-02T10:18:23Z</time>
      </trkpt>
      <trkpt lat="45.96635" lon="4.77537">
        <ele>224</ele>
        <time>2018-10-02T10:18:24Z</time>
      </trkpt>
      <trkpt lat="45.96626" lon="4.77532">
        <ele>224</ele>
        <time>2018-10-02T10:18:25Z</time>
      </trkpt>
      <trkpt lat="45.9662" lon="4.77528">
        <ele>224</ele>
        <time>2018-10-02T10:18:26Z</time>
      </trkpt>
      <trkpt lat="45.96615" lon="4.77524">
        <ele>224</ele>
        <time>2018-10-02T10:18:27Z</time>
      </trkpt>
      <trkpt lat="45.9661" lon="4.7752">
        <ele>224</ele>
        <time>2018-10-02T10:18:28Z</time>
      </trkpt>
      <trkpt lat="45.96603" lon="4.77516">
        <ele>224</ele>
        <time>2018-10-02T10:18:29Z</time>
      </trkpt>
      <trkpt lat="45.96597" lon="4.77513">
        <ele>224</ele>
        <time>2018-10-02T10:18:30Z</time>
      </trkpt>
      <trkpt lat="45.96591" lon="4.77508">
        <ele>224</ele>
        <time>2018-10-02T10:18:31Z</time>
      </trkpt>
      <trkpt lat="45.96584" lon="4.77504">
        <ele>224</ele>
        <time>2018-10-02T10:18:32Z</time>
      </trkpt>
      <trkpt lat="45.96578" lon="4.775">
        <ele>224</ele>
        <time>2018-10-02T10:18:33Z</time>
      </trkpt>
      <trkpt lat="45.96571" lon="4.77496">
        <ele>224</ele>
        <time>2018-10-02T10:18:34Z</time>
      </trkpt>
      <trkpt lat="45.96565" lon="4.77493">
        <ele>224</ele>
        <time>2018-10-02T10:18:35Z</time>
      </trkpt>
      <trkpt lat="45.96558" lon="4.77489">
        <ele>224</ele>
        <time>2018-10-02T10:18:36Z</time>
      </trkpt>
      <trkpt lat="45.96552" lon="4.77485">
        <ele>223</ele>
        <time>2018-10-02T10:18:37Z</time>
      </trkpt>
      <trkpt lat="45.96546" lon="4.77481">
        <ele>223</ele>
        <time>2018-10-02T10:18:38Z</time>
      </trkpt>
      <trkpt lat="45.96539" lon="4.77477">
        <ele>223</ele>
        <time>2018-10-02T10:18:39Z</time>
      </trkpt>
      <trkpt lat="45.96534" lon="4.77473">
        <ele>223</ele>
        <time>2018-10-02T10:18:40Z</time>
      </trkpt>
      <trkpt lat="45.96528" lon="4.77469">
        <ele>223</ele>
        <time>2018-10-02T10:18:41Z</time>
      </trkpt>
      <trkpt lat="45.96521" lon="4.77464">
        <ele>223</ele>
        <time>2018-10-02T10:18:42Z</time>
      </trkpt>
      <trkpt lat="45.96515" lon="4.7746">
        <ele>223</ele>
        <time>2018-10-02T10:18:43Z</time>
      </trkpt>
      <trkpt lat="45.96508" lon="4.77456">
        <ele>223</ele>
        <time>2018-10-02T10:18:44Z</time>
      </trkpt>
      <trkpt lat="45.96502" lon="4.77452">
        <ele>223</ele>
        <time>2018-10-02T10:18:45Z</time>
      </trkpt>
      <trkpt lat="45.96496" lon="4.77448">
        <ele>221</ele>
        <time>2018-10-02T10:18:46Z</time>
      </trkpt>
      <trkpt lat="45.96488" lon="4.77444">
        <ele>221</ele>
        <time>2018-10-02T10:18:47Z</time>
      </trkpt>
      <trkpt lat="45.96482" lon="4.77442">
        <ele>221</ele>
        <time>2018-10-02T10:18:48Z</time>
      </trkpt>
      <trkpt lat="45.96476" lon="4.77437">
        <ele>221</ele>
        <time>2018-10-02T10:18:49Z</time>
      </trkpt>
      <trkpt lat="45.96469" lon="4.77433">
        <ele>221</ele>
        <time>2018-10-02T10:18:50Z</time>
      </trkpt>
      <trkpt lat="45.96462" lon="4.77428">
        <ele>221</ele>
        <time>2018-10-02T10:18:51Z</time>
      </trkpt>
      <trkpt lat="45.96454" lon="4.77424">
        <ele>221</ele>
        <time>2018-10-02T10:18:52Z</time>
      </trkpt>
      <trkpt lat="45.96448" lon="4.7742">
        <ele>221</ele>
        <time>2018-10-02T10:18:53Z</time>
      </trkpt>
      <trkpt lat="45.96441" lon="4.77415">
        <ele>222</ele>
        <time>2018-10-02T10:18:54Z</time>
      </trkpt>
      <trkpt lat="45.96433" lon="4.7741">
        <ele>222</ele>
        <time>2018-10-02T10:18:55Z</time>
      </trkpt>
      <trkpt lat="45.96426" lon="4.77406">
        <ele>222</ele>
        <time>2018-10-02T10:18:56Z</time>
      </trkpt>
      <trkpt lat="45.9642" lon="4.774">
        <ele>222</ele>
        <time>2018-10-02T10:18:57Z</time>
      </trkpt>
      <trkpt lat="45.96413" lon="4.77396">
        <ele>220</ele>
        <time>2018-10-02T10:18:58Z</time>
      </trkpt>
      <trkpt lat="45.96406" lon="4.77392">
        <ele>220</ele>
        <time>2018-10-02T10:18:59Z</time>
      </trkpt>
      <trkpt lat="45.96398" lon="4.77391">
        <ele>220</ele>
        <time>2018-10-02T10:19:00Z</time>
      </trkpt>
      <trkpt lat="45.9639" lon="4.77385">
        <ele>220</ele>
        <time>2018-10-02T10:19:01Z</time>
      </trkpt>
      <trkpt lat="45.96383" lon="4.77381">
        <ele>220</ele>
        <time>2018-10-02T10:19:02Z</time>
      </trkpt>
      <trkpt lat="45.96376" lon="4.77377">
        <ele>219</ele>
        <time>2018-10-02T10:19:03Z</time>
      </trkpt>
      <trkpt lat="45.96368" lon="4.77373">
        <ele>219</ele>
        <time>2018-10-02T10:19:04Z</time>
      </trkpt>
      <trkpt lat="45.96362" lon="4.77369">
        <ele>219</ele>
        <time>2018-10-02T10:19:05Z</time>
      </trkpt>
      <trkpt lat="45.96355" lon="4.77364">
        <ele>219</ele>
        <time>2018-10-02T10:19:06Z</time>
      </trkpt>
      <trkpt lat="45.96348" lon="4.7736">
        <ele>219</ele>
        <time>2018-10-02T10:19:07Z</time>
      </trkpt>
      <trkpt lat="45.9634" lon="4.77357">
        <ele>219</ele>
        <time>2018-10-02T10:19:08Z</time>
      </trkpt>
      <trkpt lat="45.96333" lon="4.77352">
        <ele>218</ele>
        <time>2018-10-02T10:19:09Z</time>
      </trkpt>
      <trkpt lat="45.96326" lon="4.77348">
        <ele>218</ele>
        <time>2018-10-02T10:19:10Z</time>
      </trkpt>
      <trkpt lat="45.96318" lon="4.77343">
        <ele>218</ele>
        <time>2018-10-02T10:19:11Z</time>
      </trkpt>
      <trkpt lat="45.96311" lon="4.77339">
        <ele>217</ele>
        <time>2018-10-02T10:19:12Z</time>
      </trkpt>
      <trkpt lat="45.96304" lon="4.77335">
        <ele>217</ele>
        <time>2018-10-02T10:19:13Z</time>
      </trkpt>
      <trkpt lat="45.96297" lon="4.77331">
        <ele>219</ele>
        <time>2018-10-02T10:19:14Z</time>
      </trkpt>
      <trkpt lat="45.9629" lon="4.77327">
        <ele>219</ele>
        <time>2018-10-02T10:19:15Z</time>
      </trkpt>
      <trkpt lat="45.96283" lon="4.77323">
        <ele>219</ele>
        <time>2018-10-02T10:19:16Z</time>
      </trkpt>
      <trkpt lat="45.96276" lon="4.7732">
        <ele>219</ele>
        <time>2018-10-02T10:19:17Z</time>
      </trkpt>
      <trkpt lat="45.96269" lon="4.77316">
        <ele>218</ele>
        <time>2018-10-02T10:19:18Z</time>
      </trkpt>
      <trkpt lat="45.96263" lon="4.77313">
        <ele>218</ele>
        <time>2018-10-02T10:19:19Z</time>
      </trkpt>
      <trkpt lat="45.96256" lon="4.77309">
        <ele>218</ele>
        <time>2018-10-02T10:19:20Z</time>
      </trkpt>
      <trkpt lat="45.9625" lon="4.77305">
        <ele>217</ele>
        <time>2018-10-02T10:19:21Z</time>
      </trkpt>
      <trkpt lat="45.96244" lon="4.77303">
        <ele>217</ele>
        <time>2018-10-02T10:19:22Z</time>
      </trkpt>
      <trkpt lat="45.96237" lon="4.773">
        <ele>217</ele>
        <time>2018-10-02T10:19:23Z</time>
      </trkpt>
      <trkpt lat="45.96231" lon="4.77296">
        <ele>217</ele>
        <time>2018-10-02T10:19:24Z</time>
      </trkpt>
      <trkpt lat="45.96224" lon="4.77291">
        <ele>217</ele>
        <time>2018-10-02T10:19:25Z</time>
      </trkpt>
      <trkpt lat="45.96218" lon="4.77287">
        <ele>217</ele>
        <time>2018-10-02T10:19:26Z</time>
      </trkpt>
      <trkpt lat="45.96212" lon="4.77282">
        <ele>217</ele>
        <time>2018-10-02T10:19:27Z</time>
      </trkpt>
      <trkpt lat="45.96205" lon="4.77279">
        <ele>216</ele>
        <time>2018-10-02T10:19:28Z</time>
      </trkpt>
      <trkpt lat="45.96198" lon="4.77276">
        <ele>216</ele>
        <time>2018-10-02T10:19:29Z</time>
      </trkpt>
      <trkpt lat="45.96191" lon="4.77272">
        <ele>216</ele>
        <time>2018-10-02T10:19:30Z</time>
      </trkpt>
      <trkpt lat="45.96185" lon="4.77268">
        <ele>216</ele>
        <time>2018-10-02T10:19:31Z</time>
      </trkpt>
      <trkpt lat="45.96179" lon="4.77264">
        <ele>216</ele>
        <time>2018-10-02T10:19:32Z</time>
      </trkpt>
      <trkpt lat="45.96173" lon="4.7726">
        <ele>216</ele>
        <time>2018-10-02T10:19:33Z</time>
      </trkpt>
      <trkpt lat="45.96166" lon="4.77256">
        <ele>215</ele>
        <time>2018-10-02T10:19:34Z</time>
      </trkpt>
      <trkpt lat="45.96161" lon="4.77253">
        <ele>215</ele>
        <time>2018-10-02T10:19:35Z</time>
      </trkpt>
      <trkpt lat="45.96154" lon="4.7725">
        <ele>216</ele>
        <time>2018-10-02T10:19:36Z</time>
      </trkpt>
      <trkpt lat="45.96148" lon="4.77248">
        <ele>215</ele>
        <time>2018-10-02T10:19:37Z</time>
      </trkpt>
      <trkpt lat="45.96142" lon="4.77246">
        <ele>215</ele>
        <time>2018-10-02T10:19:38Z</time>
      </trkpt>
      <trkpt lat="45.96136" lon="4.77243">
        <ele>215</ele>
        <time>2018-10-02T10:19:39Z</time>
      </trkpt>
      <trkpt lat="45.96129" lon="4.77241">
        <ele>215</ele>
        <time>2018-10-02T10:19:40Z</time>
      </trkpt>
      <trkpt lat="45.96122" lon="4.77241">
        <ele>214</ele>
        <time>2018-10-02T10:19:41Z</time>
      </trkpt>
      <trkpt lat="45.96116" lon="4.7724">
        <ele>214</ele>
        <time>2018-10-02T10:19:42Z</time>
      </trkpt>
      <trkpt lat="45.96109" lon="4.77241">
        <ele>213</ele>
        <time>2018-10-02T10:19:43Z</time>
      </trkpt>
      <trkpt lat="45.96102" lon="4.77241">
        <ele>213</ele>
        <time>2018-10-02T10:19:44Z</time>
      </trkpt>
      <trkpt lat="45.96094" lon="4.77241">
        <ele>212</ele>
        <time>2018-10-02T10:19:45Z</time>
      </trkpt>
      <trkpt lat="45.96086" lon="4.77242">
        <ele>212</ele>
        <time>2018-10-02T10:19:46Z</time>
      </trkpt>
      <trkpt lat="45.9608" lon="4.77242">
        <ele>210</ele>
        <time>2018-10-02T10:19:47Z</time>
      </trkpt>
      <trkpt lat="45.96072" lon="4.77243">
        <ele>210</ele>
        <time>2018-10-02T10:19:48Z</time>
      </trkpt>
      <trkpt lat="45.96064" lon="4.77244">
        <ele>209</ele>
        <time>2018-10-02T10:19:49Z</time>
      </trkpt>
      <trkpt lat="45.96056" lon="4.77245">
        <ele>209</ele>
        <time>2018-10-02T10:19:50Z</time>
      </trkpt>
      <trkpt lat="45.96048" lon="4.77245">
        <ele>209</ele>
        <time>2018-10-02T10:19:51Z</time>
      </trkpt>
      <trkpt lat="45.96041" lon="4.77246">
        <ele>208</ele>
        <time>2018-10-02T10:19:52Z</time>
      </trkpt>
      <trkpt lat="45.96033" lon="4.77246">
        <ele>208</ele>
        <time>2018-10-02T10:19:53Z</time>
      </trkpt>
      <trkpt lat="45.96024" lon="4.77246">
        <ele>207</ele>
        <time>2018-10-02T10:19:54Z</time>
      </trkpt>
      <trkpt lat="45.96016" lon="4.77246">
        <ele>206</ele>
        <time>2018-10-02T10:19:55Z</time>
      </trkpt>
      <trkpt lat="45.96008" lon="4.77245">
        <ele>205</ele>
        <time>2018-10-02T10:19:56Z</time>
      </trkpt>
      <trkpt lat="45.95999" lon="4.77243">
        <ele>203</ele>
        <time>2018-10-02T10:19:57Z</time>
      </trkpt>
      <trkpt lat="45.95991" lon="4.7724">
        <ele>202</ele>
        <time>2018-10-02T10:19:58Z</time>
      </trkpt>
      <trkpt lat="45.95983" lon="4.77234">
        <ele>202</ele>
        <time>2018-10-02T10:19:59Z</time>
      </trkpt>
      <trkpt lat="45.95975" lon="4.77229">
        <ele>202</ele>
        <time>2018-10-02T10:20:00Z</time>
      </trkpt>
      <trkpt lat="45.95967" lon="4.77222">
        <ele>202</ele>
        <time>2018-10-02T10:20:01Z</time>
      </trkpt>
      <trkpt lat="45.95961" lon="4.77213">
        <ele>201</ele>
        <time>2018-10-02T10:20:02Z</time>
      </trkpt>
      <trkpt lat="45.95955" lon="4.77203">
        <ele>201</ele>
        <time>2018-10-02T10:20:03Z</time>
      </trkpt>
      <trkpt lat="45.95951" lon="4.77191">
        <ele>201</ele>
        <time>2018-10-02T10:20:04Z</time>
      </trkpt>
      <trkpt lat="45.95948" lon="4.77179">
        <ele>201</ele>
        <time>2018-10-02T10:20:05Z</time>
      </trkpt>
      <trkpt lat="45.95945" lon="4.77166">
        <ele>201</ele>
        <time>2018-10-02T10:20:06Z</time>
      </trkpt>
      <trkpt lat="45.95944" lon="4.77153">
        <ele>201</ele>
        <time>2018-10-02T10:20:07Z</time>
      </trkpt>
      <trkpt lat="45.95944" lon="4.77139">
        <ele>201</ele>
        <time>2018-10-02T10:20:08Z</time>
      </trkpt>
      <trkpt lat="45.95944" lon="4.77126">
        <ele>201</ele>
        <time>2018-10-02T10:20:09Z</time>
      </trkpt>
      <trkpt lat="45.95945" lon="4.77113">
        <ele>202</ele>
        <time>2018-10-02T10:20:10Z</time>
      </trkpt>
      <trkpt lat="45.95946" lon="4.771">
        <ele>201</ele>
        <time>2018-10-02T10:20:11Z</time>
      </trkpt>
      <trkpt lat="45.95948" lon="4.77088">
        <ele>201</ele>
        <time>2018-10-02T10:20:12Z</time>
      </trkpt>
      <trkpt lat="45.95952" lon="4.77075">
        <ele>200</ele>
        <time>2018-10-02T10:20:13Z</time>
      </trkpt>
      <trkpt lat="45.95955" lon="4.77063">
        <ele>200</ele>
        <time>2018-10-02T10:20:14Z</time>
      </trkpt>
      <trkpt lat="45.9596" lon="4.77052">
        <ele>200</ele>
        <time>2018-10-02T10:20:15Z</time>
      </trkpt>
      <trkpt lat="45.95964" lon="4.7704">
        <ele>200</ele>
        <time>2018-10-02T10:20:16Z</time>
      </trkpt>
      <trkpt lat="45.95966" lon="4.77029">
        <ele>200</ele>
        <time>2018-10-02T10:20:17Z</time>
      </trkpt>
      <trkpt lat="45.95971" lon="4.77018">
        <ele>200</ele>
        <time>2018-10-02T10:20:18Z</time>
      </trkpt>
      <trkpt lat="45.95974" lon="4.77006">
        <ele>200</ele>
        <time>2018-10-02T10:20:19Z</time>
      </trkpt>
      <trkpt lat="45.95978" lon="4.76995">
        <ele>198</ele>
        <time>2018-10-02T10:20:20Z</time>
      </trkpt>
      <trkpt lat="45.9598" lon="4.76983">
        <ele>197</ele>
        <time>2018-10-02T10:20:21Z</time>
      </trkpt>
      <trkpt lat="45.9598" lon="4.7697">
        <ele>197</ele>
        <time>2018-10-02T10:20:22Z</time>
      </trkpt>
      <trkpt lat="45.95978" lon="4.76956">
        <ele>196</ele>
        <time>2018-10-02T10:20:23Z</time>
      </trkpt>
      <trkpt lat="45.95973" lon="4.76944">
        <ele>196</ele>
        <time>2018-10-02T10:20:24Z</time>
      </trkpt>
      <trkpt lat="45.95967" lon="4.76934">
        <ele>195</ele>
        <time>2018-10-02T10:20:25Z</time>
      </trkpt>
      <trkpt lat="45.9596" lon="4.76925">
        <ele>195</ele>
        <time>2018-10-02T10:20:26Z</time>
      </trkpt>
      <trkpt lat="45.95951" lon="4.76917">
        <ele>194</ele>
        <time>2018-10-02T10:20:27Z</time>
      </trkpt>
      <trkpt lat="45.95943" lon="4.76909">
        <ele>192</ele>
        <time>2018-10-02T10:20:28Z</time>
      </trkpt>
      <trkpt lat="45.95935" lon="4.76899">
        <ele>192</ele>
        <time>2018-10-02T10:20:29Z</time>
      </trkpt>
      <trkpt lat="45.95927" lon="4.7689">
        <ele>192</ele>
        <time>2018-10-02T10:20:30Z</time>
      </trkpt>
      <trkpt lat="45.9592" lon="4.76881">
        <ele>192</ele>
        <time>2018-10-02T10:20:31Z</time>
      </trkpt>
      <trkpt lat="45.95912" lon="4.76872">
        <ele>191</ele>
        <time>2018-10-02T10:20:32Z</time>
      </trkpt>
      <trkpt lat="45.95904" lon="4.76863">
        <ele>191</ele>
        <time>2018-10-02T10:20:33Z</time>
      </trkpt>
      <trkpt lat="45.95897" lon="4.76854">
        <ele>191</ele>
        <time>2018-10-02T10:20:34Z</time>
      </trkpt>
      <trkpt lat="45.95889" lon="4.76845">
        <ele>191</ele>
        <time>2018-10-02T10:20:35Z</time>
      </trkpt>
      <trkpt lat="45.95882" lon="4.76837">
        <ele>191</ele>
        <time>2018-10-02T10:20:36Z</time>
      </trkpt>
      <trkpt lat="45.95874" lon="4.76829">
        <ele>191</ele>
        <time>2018-10-02T10:20:37Z</time>
      </trkpt>
      <trkpt lat="45.95869" lon="4.76822">
        <ele>191</ele>
        <time>2018-10-02T10:20:38Z</time>
      </trkpt>
      <trkpt lat="45.95862" lon="4.76814">
        <ele>191</ele>
        <time>2018-10-02T10:20:39Z</time>
      </trkpt>
      <trkpt lat="45.95855" lon="4.76806">
        <ele>191</ele>
        <time>2018-10-02T10:20:40Z</time>
      </trkpt>
      <trkpt lat="45.95849" lon="4.76799">
        <ele>191</ele>
        <time>2018-10-02T10:20:41Z</time>
      </trkpt>
      <trkpt lat="45.95843" lon="4.76792">
        <ele>191</ele>
        <time>2018-10-02T10:20:42Z</time>
      </trkpt>
      <trkpt lat="45.95836" lon="4.76783">
        <ele>191</ele>
        <time>2018-10-02T10:20:43Z</time>
      </trkpt>
      <trkpt lat="45.95833" lon="4.76775">
        <ele>190</ele>
        <time>2018-10-02T10:20:44Z</time>
      </trkpt>
      <trkpt lat="45.9583" lon="4.76764">
        <ele>190</ele>
        <time>2018-10-02T10:20:45Z</time>
      </trkpt>
      <trkpt lat="45.95827" lon="4.76754">
        <ele>191</ele>
        <time>2018-10-02T10:20:46Z</time>
      </trkpt>
      <trkpt lat="45.95826" lon="4.76743">
        <ele>190</ele>
        <time>2018-10-02T10:20:47Z</time>
      </trkpt>
      <trkpt lat="45.95825" lon="4.76734">
        <ele>190</ele>
        <time>2018-10-02T10:20:48Z</time>
      </trkpt>
      <trkpt lat="45.95824" lon="4.76724">
        <ele>190</ele>
        <time>2018-10-02T10:20:49Z</time>
      </trkpt>
      <trkpt lat="45.95823" lon="4.76715">
        <ele>189</ele>
        <time>2018-10-02T10:20:50Z</time>
      </trkpt>
      <trkpt lat="45.95822" lon="4.76704">
        <ele>189</ele>
        <time>2018-10-02T10:20:51Z</time>
      </trkpt>
      <trkpt lat="45.9582" lon="4.76695">
        <ele>189</ele>
        <time>2018-10-02T10:20:52Z</time>
      </trkpt>
      <trkpt lat="45.95818" lon="4.76686">
        <ele>189</ele>
        <time>2018-10-02T10:20:53Z</time>
      </trkpt>
      <trkpt lat="45.95817" lon="4.76677">
        <ele>189</ele>
        <time>2018-10-02T10:20:54Z</time>
      </trkpt>
      <trkpt lat="45.95816" lon="4.76668">
        <ele>188</ele>
        <time>2018-10-02T10:20:55Z</time>
      </trkpt>
      <trkpt lat="45.95816" lon="4.76659">
        <ele>188</ele>
        <time>2018-10-02T10:20:56Z</time>
      </trkpt>
      <trkpt lat="45.95814" lon="4.76651">
        <ele>188</ele>
        <time>2018-10-02T10:20:57Z</time>
      </trkpt>
      <trkpt lat="45.95812" lon="4.76642">
        <ele>188</ele>
        <time>2018-10-02T10:20:58Z</time>
      </trkpt>
      <trkpt lat="45.95811" lon="4.76632">
        <ele>188</ele>
        <time>2018-10-02T10:20:59Z</time>
      </trkpt>
      <trkpt lat="45.9581" lon="4.76623">
        <ele>188</ele>
        <time>2018-10-02T10:21:00Z</time>
      </trkpt>
      <trkpt lat="45.95808" lon="4.76614">
        <ele>188</ele>
        <time>2018-10-02T10:21:01Z</time>
      </trkpt>
      <trkpt lat="45.95806" lon="4.76606">
        <ele>188</ele>
        <time>2018-10-02T10:21:02Z</time>
      </trkpt>
      <trkpt lat="45.95804" lon="4.76597">
        <ele>188</ele>
        <time>2018-10-02T10:21:03Z</time>
      </trkpt>
      <trkpt lat="45.95804" lon="4.7659">
        <ele>188</ele>
        <time>2018-10-02T10:21:04Z</time>
      </trkpt>
      <trkpt lat="45.95802" lon="4.76581">
        <ele>187</ele>
        <time>2018-10-02T10:21:05Z</time>
      </trkpt>
      <trkpt lat="45.95801" lon="4.76574">
        <ele>187</ele>
        <time>2018-10-02T10:21:06Z</time>
      </trkpt>
      <trkpt lat="45.95799" lon="4.76566">
        <ele>187</ele>
        <time>2018-10-02T10:21:07Z</time>
      </trkpt>
      <trkpt lat="45.95798" lon="4.76557">
        <ele>187</ele>
        <time>2018-10-02T10:21:08Z</time>
      </trkpt>
      <trkpt lat="45.95798" lon="4.76549">
        <ele>187</ele>
        <time>2018-10-02T10:21:09Z</time>
      </trkpt>
      <trkpt lat="45.95796" lon="4.76541">
        <ele>187</ele>
        <time>2018-10-02T10:21:10Z</time>
      </trkpt>
      <trkpt lat="45.95795" lon="4.76533">
        <ele>187</ele>
        <time>2018-10-02T10:21:11Z</time>
      </trkpt>
      <trkpt lat="45.95794" lon="4.76525">
        <ele>187</ele>
        <time>2018-10-02T10:21:12Z</time>
      </trkpt>
      <trkpt lat="45.95793" lon="4.76518">
        <ele>187</ele>
        <time>2018-10-02T10:21:13Z</time>
      </trkpt>
      <trkpt lat="45.95792" lon="4.7651">
        <ele>187</ele>
        <time>2018-10-02T10:21:14Z</time>
      </trkpt>
      <trkpt lat="45.95791" lon="4.76502">
        <ele>187</ele>
        <time>2018-10-02T10:21:15Z</time>
      </trkpt>
      <trkpt lat="45.9579" lon="4.76495">
        <ele>186</ele>
        <time>2018-10-02T10:21:16Z</time>
      </trkpt>
      <trkpt lat="45.95788" lon="4.76487">
        <ele>186</ele>
        <time>2018-10-02T10:21:17Z</time>
      </trkpt>
      <trkpt lat="45.95788" lon="4.76479">
        <ele>186</ele>
        <time>2018-10-02T10:21:18Z</time>
      </trkpt>
      <trkpt lat="45.95787" lon="4.76472">
        <ele>186</ele>
        <time>2018-10-02T10:21:19Z</time>
      </trkpt>
      <trkpt lat="45.95786" lon="4.76464">
        <ele>186</ele>
        <time>2018-10-02T10:21:20Z</time>
      </trkpt>
      <trkpt lat="45.95785" lon="4.76456">
        <ele>186</ele>
        <time>2018-10-02T10:21:21Z</time>
      </trkpt>
      <trkpt lat="45.95784" lon="4.76448">
        <ele>186</ele>
        <time>2018-10-02T10:21:22Z</time>
      </trkpt>
      <trkpt lat="45.95783" lon="4.7644">
        <ele>186</ele>
        <time>2018-10-02T10:21:23Z</time>
      </trkpt>
      <trkpt lat="45.95781" lon="4.76431">
        <ele>186</ele>
        <time>2018-10-02T10:21:24Z</time>
      </trkpt>
      <trkpt lat="45.9578" lon="4.76424">
        <ele>186</ele>
        <time>2018-10-02T10:21:25Z</time>
      </trkpt>
      <trkpt lat="45.95779" lon="4.76417">
        <ele>186</ele>
        <time>2018-10-02T10:21:26Z</time>
      </trkpt>
      <trkpt lat="45.95778" lon="4.76409">
        <ele>186</ele>
        <time>2018-10-02T10:21:27Z</time>
      </trkpt>
      <trkpt lat="45.95777" lon="4.76402">
        <ele>186</ele>
        <time>2018-10-02T10:21:28Z</time>
      </trkpt>
      <trkpt lat="45.95777" lon="4.76395">
        <ele>186</ele>
        <time>2018-10-02T10:21:29Z</time>
      </trkpt>
      <trkpt lat="45.95776" lon="4.76386">
        <ele>186</ele>
        <time>2018-10-02T10:21:30Z</time>
      </trkpt>
      <trkpt lat="45.95775" lon="4.76378">
        <ele>186</ele>
        <time>2018-10-02T10:21:31Z</time>
      </trkpt>
      <trkpt lat="45.95774" lon="4.76371">
        <ele>186</ele>
        <time>2018-10-02T10:21:32Z</time>
      </trkpt>
      <trkpt lat="45.95774" lon="4.76363">
        <ele>186</ele>
        <time>2018-10-02T10:21:33Z</time>
      </trkpt>
      <trkpt lat="45.95774" lon="4.76355">
        <ele>186</ele>
        <time>2018-10-02T10:21:34Z</time>
      </trkpt>
      <trkpt lat="45.95773" lon="4.76347">
        <ele>186</ele>
        <time>2018-10-02T10:21:35Z</time>
      </trkpt>
      <trkpt lat="45.95773" lon="4.7634">
        <ele>186</ele>
        <time>2018-10-02T10:21:36Z</time>
      </trkpt>
      <trkpt lat="45.95774" lon="4.76332">
        <ele>185</ele>
        <time>2018-10-02T10:21:37Z</time>
      </trkpt>
      <trkpt lat="45.95773" lon="4.76325">
        <ele>185</ele>
        <time>2018-10-02T10:21:38Z</time>
      </trkpt>
      <trkpt lat="45.95773" lon="4.76317">
        <ele>186</ele>
        <time>2018-10-02T10:21:39Z</time>
      </trkpt>
      <trkpt lat="45.95773" lon="4.7631">
        <ele>186</ele>
        <time>2018-10-02T10:21:40Z</time>
      </trkpt>
      <trkpt lat="45.95772" lon="4.76303">
        <ele>186</ele>
        <time>2018-10-02T10:21:41Z</time>
      </trkpt>
      <trkpt lat="45.95772" lon="4.76295">
        <ele>186</ele>
        <time>2018-10-02T10:21:42Z</time>
      </trkpt>
      <trkpt lat="45.95772" lon="4.76287">
        <ele>186</ele>
        <time>2018-10-02T10:21:43Z</time>
      </trkpt>
      <trkpt lat="45.95771" lon="4.76279">
        <ele>186</ele>
        <time>2018-10-02T10:21:44Z</time>
      </trkpt>
      <trkpt lat="45.95771" lon="4.76271">
        <ele>186</ele>
        <time>2018-10-02T10:21:45Z</time>
      </trkpt>
      <trkpt lat="45.9577" lon="4.76263">
        <ele>186</ele>
        <time>2018-10-02T10:21:46Z</time>
      </trkpt>
      <trkpt lat="45.95769" lon="4.76254">
        <ele>185</ele>
        <time>2018-10-02T10:21:47Z</time>
      </trkpt>
      <trkpt lat="45.95768" lon="4.76246">
        <ele>186</ele>
        <time>2018-10-02T10:21:48Z</time>
      </trkpt>
      <trkpt lat="45.95768" lon="4.76239">
        <ele>186</ele>
        <time>2018-10-02T10:21:49Z</time>
      </trkpt>
      <trkpt lat="45.95768" lon="4.76232">
        <ele>186</ele>
        <time>2018-10-02T10:21:50Z</time>
      </trkpt>
      <trkpt lat="45.95768" lon="4.76224">
        <ele>186</ele>
        <time>2018-10-02T10:21:51Z</time>
      </trkpt>
      <trkpt lat="45.95767" lon="4.76217">
        <ele>186</ele>
        <time>2018-10-02T10:21:52Z</time>
      </trkpt>
      <trkpt lat="45.95767" lon="4.76209">
        <ele>186</ele>
        <time>2018-10-02T10:21:53Z</time>
      </trkpt>
      <trkpt lat="45.95766" lon="4.76201">
        <ele>186</ele>
        <time>2018-10-02T10:21:54Z</time>
      </trkpt>
      <trkpt lat="45.95766" lon="4.76193">
        <ele>186</ele>
        <time>2018-10-02T10:21:55Z</time>
      </trkpt>
      <trkpt lat="45.95766" lon="4.76185">
        <ele>186</ele>
        <time>2018-10-02T10:21:56Z</time>
      </trkpt>
      <trkpt lat="45.95765" lon="4.76177">
        <ele>186</ele>
        <time>2018-10-02T10:21:57Z</time>
      </trkpt>
      <trkpt lat="45.95764" lon="4.76169">
        <ele>185</ele>
        <time>2018-10-02T10:21:58Z</time>
      </trkpt>
      <trkpt lat="45.95764" lon="4.76162">
        <ele>186</ele>
        <time>2018-10-02T10:21:59Z</time>
      </trkpt>
      <trkpt lat="45.95764" lon="4.76154">
        <ele>186</ele>
        <time>2018-10-02T10:22:00Z</time>
      </trkpt>
      <trkpt lat="45.95763" lon="4.76147">
        <ele>186</ele>
        <time>2018-10-02T10:22:01Z</time>
      </trkpt>
      <trkpt lat="45.95762" lon="4.7614">
        <ele>186</ele>
        <time>2018-10-02T10:22:02Z</time>
      </trkpt>
      <trkpt lat="45.95762" lon="4.76133">
        <ele>186</ele>
        <time>2018-10-02T10:22:03Z</time>
      </trkpt>
      <trkpt lat="45.95761" lon="4.76128">
        <ele>186</ele>
        <time>2018-10-02T10:22:04Z</time>
      </trkpt>
      <trkpt lat="45.95759" lon="4.7612">
        <ele>186</ele>
        <time>2018-10-02T10:22:05Z</time>
      </trkpt>
      <trkpt lat="45.95758" lon="4.76113">
        <ele>186</ele>
        <time>2018-10-02T10:22:06Z</time>
      </trkpt>
      <trkpt lat="45.95758" lon="4.76105">
        <ele>186</ele>
        <time>2018-10-02T10:22:07Z</time>
      </trkpt>
      <trkpt lat="45.95756" lon="4.76099">
        <ele>186</ele>
        <time>2018-10-02T10:22:08Z</time>
      </trkpt>
      <trkpt lat="45.95754" lon="4.76091">
        <ele>185</ele>
        <time>2018-10-02T10:22:09Z</time>
      </trkpt>
      <trkpt lat="45.95751" lon="4.76083">
        <ele>185</ele>
        <time>2018-10-02T10:22:10Z</time>
      </trkpt>
      <trkpt lat="45.95748" lon="4.76076">
        <ele>185</ele>
        <time>2018-10-02T10:22:11Z</time>
      </trkpt>
      <trkpt lat="45.95746" lon="4.76069">
        <ele>185</ele>
        <time>2018-10-02T10:22:12Z</time>
      </trkpt>
      <trkpt lat="45.95743" lon="4.76062">
        <ele>184</ele>
        <time>2018-10-02T10:22:13Z</time>
      </trkpt>
      <trkpt lat="45.9574" lon="4.76055">
        <ele>184</ele>
        <time>2018-10-02T10:22:14Z</time>
      </trkpt>
      <trkpt lat="45.95738" lon="4.76048">
        <ele>184</ele>
        <time>2018-10-02T10:22:15Z</time>
      </trkpt>
      <trkpt lat="45.95735" lon="4.76042">
        <ele>184</ele>
        <time>2018-10-02T10:22:16Z</time>
      </trkpt>
      <trkpt lat="45.95732" lon="4.76035">
        <ele>184</ele>
        <time>2018-10-02T10:22:17Z</time>
      </trkpt>
      <trkpt lat="45.95729" lon="4.76028">
        <ele>184</ele>
        <time>2018-10-02T10:22:18Z</time>
      </trkpt>
      <trkpt lat="45.95726" lon="4.76022">
        <ele>185</ele>
        <time>2018-10-02T10:22:19Z</time>
      </trkpt>
      <trkpt lat="45.95723" lon="4.76016">
        <ele>185</ele>
        <time>2018-10-02T10:22:20Z</time>
      </trkpt>
      <trkpt lat="45.9572" lon="4.7601">
        <ele>184</ele>
        <time>2018-10-02T10:22:21Z</time>
      </trkpt>
      <trkpt lat="45.95718" lon="4.76003">
        <ele>184</ele>
        <time>2018-10-02T10:22:22Z</time>
      </trkpt>
      <trkpt lat="45.95715" lon="4.75996">
        <ele>185</ele>
        <time>2018-10-02T10:22:23Z</time>
      </trkpt>
      <trkpt lat="45.95711" lon="4.75991">
        <ele>185</ele>
        <time>2018-10-02T10:22:24Z</time>
      </trkpt>
      <trkpt lat="45.95708" lon="4.75985">
        <ele>185</ele>
        <time>2018-10-02T10:22:25Z</time>
      </trkpt>
      <trkpt lat="45.95705" lon="4.75977">
        <ele>185</ele>
        <time>2018-10-02T10:22:26Z</time>
      </trkpt>
      <trkpt lat="45.95702" lon="4.7597">
        <ele>185</ele>
        <time>2018-10-02T10:22:27Z</time>
      </trkpt>
      <trkpt lat="45.95699" lon="4.75964">
        <ele>185</ele>
        <time>2018-10-02T10:22:28Z</time>
      </trkpt>
      <trkpt lat="45.95696" lon="4.75957">
        <ele>185</ele>
        <time>2018-10-02T10:22:29Z</time>
      </trkpt>
      <trkpt lat="45.95693" lon="4.7595">
        <ele>185</ele>
        <time>2018-10-02T10:22:30Z</time>
      </trkpt>
      <trkpt lat="45.9569" lon="4.75943">
        <ele>185</ele>
        <time>2018-10-02T10:22:31Z</time>
      </trkpt>
      <trkpt lat="45.95688" lon="4.75935">
        <ele>185</ele>
        <time>2018-10-02T10:22:32Z</time>
      </trkpt>
      <trkpt lat="45.95685" lon="4.75929">
        <ele>185</ele>
        <time>2018-10-02T10:22:33Z</time>
      </trkpt>
      <trkpt lat="45.95682" lon="4.75923">
        <ele>185</ele>
        <time>2018-10-02T10:22:34Z</time>
      </trkpt>
      <trkpt lat="45.95678" lon="4.75916">
        <ele>185</ele>
        <time>2018-10-02T10:22:35Z</time>
      </trkpt>
      <trkpt lat="45.95676" lon="4.7591">
        <ele>185</ele>
        <time>2018-10-02T10:22:36Z</time>
      </trkpt>
      <trkpt lat="45.95673" lon="4.75902">
        <ele>185</ele>
        <time>2018-10-02T10:22:37Z</time>
      </trkpt>
      <trkpt lat="45.9567" lon="4.75895">
        <ele>186</ele>
        <time>2018-10-02T10:22:38Z</time>
      </trkpt>
      <trkpt lat="45.95668" lon="4.75887">
        <ele>186</ele>
        <time>2018-10-02T10:22:39Z</time>
      </trkpt>
      <trkpt lat="45.95666" lon="4.75879">
        <ele>184</ele>
        <time>2018-10-02T10:22:40Z</time>
      </trkpt>
      <trkpt lat="45.95663" lon="4.75872">
        <ele>184</ele>
        <time>2018-10-02T10:22:41Z</time>
      </trkpt>
      <trkpt lat="45.95661" lon="4.75864">
        <ele>184</ele>
        <time>2018-10-02T10:22:42Z</time>
      </trkpt>
      <trkpt lat="45.95658" lon="4.75855">
        <ele>184</ele>
        <time>2018-10-02T10:22:43Z</time>
      </trkpt>
      <trkpt lat="45.95656" lon="4.75847">
        <ele>185</ele>
        <time>2018-10-02T10:22:44Z</time>
      </trkpt>
      <trkpt lat="45.95654" lon="4.7584">
        <ele>185</ele>
        <time>2018-10-02T10:22:45Z</time>
      </trkpt>
      <trkpt lat="45.95652" lon="4.75833">
        <ele>186</ele>
        <time>2018-10-02T10:22:46Z</time>
      </trkpt>
      <trkpt lat="45.9565" lon="4.75826">
        <ele>185</ele>
        <time>2018-10-02T10:22:47Z</time>
      </trkpt>
      <trkpt lat="45.95649" lon="4.75818">
        <ele>185</ele>
        <time>2018-10-02T10:22:48Z</time>
      </trkpt>
      <trkpt lat="45.95647" lon="4.75812">
        <ele>185</ele>
        <time>2018-10-02T10:22:49Z</time>
      </trkpt>
      <trkpt lat="45.95645" lon="4.75803">
        <ele>185</ele>
        <time>2018-10-02T10:22:50Z</time>
      </trkpt>
      <trkpt lat="45.95644" lon="4.75796">
        <ele>185</ele>
        <time>2018-10-02T10:22:51Z</time>
      </trkpt>
      <trkpt lat="45.95643" lon="4.75789">
        <ele>185</ele>
        <time>2018-10-02T10:22:52Z</time>
      </trkpt>
      <trkpt lat="45.95643" lon="4.75782">
        <ele>186</ele>
        <time>2018-10-02T10:22:53Z</time>
      </trkpt>
      <trkpt lat="45.95641" lon="4.75776">
        <ele>186</ele>
        <time>2018-10-02T10:22:54Z</time>
      </trkpt>
      <trkpt lat="45.9564" lon="4.75769">
        <ele>186</ele>
        <time>2018-10-02T10:22:55Z</time>
      </trkpt>
      <trkpt lat="45.95639" lon="4.75763">
        <ele>186</ele>
        <time>2018-10-02T10:22:56Z</time>
      </trkpt>
      <trkpt lat="45.95638" lon="4.75756">
        <ele>186</ele>
        <time>2018-10-02T10:22:57Z</time>
      </trkpt>
      <trkpt lat="45.95635" lon="4.75745">
        <ele>187</ele>
        <time>2018-10-02T10:22:59Z</time>
      </trkpt>
      <trkpt lat="45.95635" lon="4.75738">
        <ele>187</ele>
        <time>2018-10-02T10:23:00Z</time>
      </trkpt>
      <trkpt lat="45.95634" lon="4.75732">
        <ele>187</ele>
        <time>2018-10-02T10:23:01Z</time>
      </trkpt>
      <trkpt lat="45.95633" lon="4.75724">
        <ele>187</ele>
        <time>2018-10-02T10:23:02Z</time>
      </trkpt>
      <trkpt lat="45.95633" lon="4.75717">
        <ele>187</ele>
        <time>2018-10-02T10:23:03Z</time>
      </trkpt>
      <trkpt lat="45.95632" lon="4.7571">
        <ele>187</ele>
        <time>2018-10-02T10:23:04Z</time>
      </trkpt>
      <trkpt lat="45.9563" lon="4.75703">
        <ele>187</ele>
        <time>2018-10-02T10:23:05Z</time>
      </trkpt>
      <trkpt lat="45.9563" lon="4.75696">
        <ele>187</ele>
        <time>2018-10-02T10:23:06Z</time>
      </trkpt>
      <trkpt lat="45.95628" lon="4.75689">
        <ele>187</ele>
        <time>2018-10-02T10:23:07Z</time>
      </trkpt>
      <trkpt lat="45.95627" lon="4.75681">
        <ele>187</ele>
        <time>2018-10-02T10:23:08Z</time>
      </trkpt>
      <trkpt lat="45.95626" lon="4.75674">
        <ele>187</ele>
        <time>2018-10-02T10:23:09Z</time>
      </trkpt>
      <trkpt lat="45.95625" lon="4.75667">
        <ele>187</ele>
        <time>2018-10-02T10:23:10Z</time>
      </trkpt>
      <trkpt lat="45.95624" lon="4.7566">
        <ele>188</ele>
        <time>2018-10-02T10:23:11Z</time>
      </trkpt>
      <trkpt lat="45.95622" lon="4.75653">
        <ele>188</ele>
        <time>2018-10-02T10:23:12Z</time>
      </trkpt>
      <trkpt lat="45.9562" lon="4.75646">
        <ele>188</ele>
        <time>2018-10-02T10:23:13Z</time>
      </trkpt>
      <trkpt lat="45.95618" lon="4.7564">
        <ele>188</ele>
        <time>2018-10-02T10:23:14Z</time>
      </trkpt>
      <trkpt lat="45.95615" lon="4.75628">
        <ele>188</ele>
        <time>2018-10-02T10:23:16Z</time>
      </trkpt>
      <trkpt lat="45.95613" lon="4.75621">
        <ele>188</ele>
        <time>2018-10-02T10:23:17Z</time>
      </trkpt>
      <trkpt lat="45.95611" lon="4.75615">
        <ele>188</ele>
        <time>2018-10-02T10:23:18Z</time>
      </trkpt>
      <trkpt lat="45.95609" lon="4.75608">
        <ele>188</ele>
        <time>2018-10-02T10:23:19Z</time>
      </trkpt>
      <trkpt lat="45.95606" lon="4.75601">
        <ele>187</ele>
        <time>2018-10-02T10:23:20Z</time>
      </trkpt>
      <trkpt lat="45.95604" lon="4.75595">
        <ele>187</ele>
        <time>2018-10-02T10:23:21Z</time>
      </trkpt>
      <trkpt lat="45.95601" lon="4.75589">
        <ele>187</ele>
        <time>2018-10-02T10:23:22Z</time>
      </trkpt>
      <trkpt lat="45.95598" lon="4.75582">
        <ele>188</ele>
        <time>2018-10-02T10:23:23Z</time>
      </trkpt>
      <trkpt lat="45.95595" lon="4.75576">
        <ele>188</ele>
        <time>2018-10-02T10:23:24Z</time>
      </trkpt>
      <trkpt lat="45.95592" lon="4.7557">
        <ele>188</ele>
        <time>2018-10-02T10:23:25Z</time>
      </trkpt>
      <trkpt lat="45.95589" lon="4.75564">
        <ele>188</ele>
        <time>2018-10-02T10:23:26Z</time>
      </trkpt>
      <trkpt lat="45.95585" lon="4.75558">
        <ele>188</ele>
        <time>2018-10-02T10:23:27Z</time>
      </trkpt>
      <trkpt lat="45.95581" lon="4.75553">
        <ele>186</ele>
        <time>2018-10-02T10:23:28Z</time>
      </trkpt>
      <trkpt lat="45.95576" lon="4.75548">
        <ele>186</ele>
        <time>2018-10-02T10:23:29Z</time>
      </trkpt>
      <trkpt lat="45.95572" lon="4.75543">
        <ele>186</ele>
        <time>2018-10-02T10:23:30Z</time>
      </trkpt>
      <trkpt lat="45.95567" lon="4.75538">
        <ele>186</ele>
        <time>2018-10-02T10:23:31Z</time>
      </trkpt>
      <trkpt lat="45.95563" lon="4.75533">
        <ele>186</ele>
        <time>2018-10-02T10:23:32Z</time>
      </trkpt>
      <trkpt lat="45.95558" lon="4.75527">
        <ele>186</ele>
        <time>2018-10-02T10:23:33Z</time>
      </trkpt>
      <trkpt lat="45.95554" lon="4.75522">
        <ele>186</ele>
        <time>2018-10-02T10:23:34Z</time>
      </trkpt>
      <trkpt lat="45.9555" lon="4.75516">
        <ele>186</ele>
        <time>2018-10-02T10:23:35Z</time>
      </trkpt>
      <trkpt lat="45.95546" lon="4.75511">
        <ele>186</ele>
        <time>2018-10-02T10:23:36Z</time>
      </trkpt>
      <trkpt lat="45.95543" lon="4.75504">
        <ele>186</ele>
        <time>2018-10-02T10:23:37Z</time>
      </trkpt>
      <trkpt lat="45.95543" lon="4.75497">
        <ele>187</ele>
        <time>2018-10-02T10:23:38Z</time>
      </trkpt>
      <trkpt lat="45.95543" lon="4.75491">
        <ele>187</ele>
        <time>2018-10-02T10:23:39Z</time>
      </trkpt>
      <trkpt lat="45.95543" lon="4.75484">
        <ele>187</ele>
        <time>2018-10-02T10:23:40Z</time>
      </trkpt>
      <trkpt lat="45.95542" lon="4.75477">
        <ele>187</ele>
        <time>2018-10-02T10:23:41Z</time>
      </trkpt>
      <trkpt lat="45.9554" lon="4.75471">
        <ele>187</ele>
        <time>2018-10-02T10:23:42Z</time>
      </trkpt>
      <trkpt lat="45.95537" lon="4.75465">
        <ele>187</ele>
        <time>2018-10-02T10:23:43Z</time>
      </trkpt>
      <trkpt lat="45.95534" lon="4.75458">
        <ele>187</ele>
        <time>2018-10-02T10:23:44Z</time>
      </trkpt>
      <trkpt lat="45.9553" lon="4.75452">
        <ele>187</ele>
        <time>2018-10-02T10:23:45Z</time>
      </trkpt>
      <trkpt lat="45.95525" lon="4.75444">
        <ele>187</ele>
        <time>2018-10-02T10:23:46Z</time>
      </trkpt>
      <trkpt lat="45.9552" lon="4.75436">
        <ele>187</ele>
        <time>2018-10-02T10:23:47Z</time>
      </trkpt>
      <trkpt lat="45.95517" lon="4.75429">
        <ele>187</ele>
        <time>2018-10-02T10:23:48Z</time>
      </trkpt>
      <trkpt lat="45.95515" lon="4.75422">
        <ele>186</ele>
        <time>2018-10-02T10:23:49Z</time>
      </trkpt>
      <trkpt lat="45.95512" lon="4.75415">
        <ele>187</ele>
        <time>2018-10-02T10:23:50Z</time>
      </trkpt>
      <trkpt lat="45.95511" lon="4.75408">
        <ele>187</ele>
        <time>2018-10-02T10:23:51Z</time>
      </trkpt>
      <trkpt lat="45.95509" lon="4.75401">
        <ele>187</ele>
        <time>2018-10-02T10:23:52Z</time>
      </trkpt>
      <trkpt lat="45.95506" lon="4.75396">
        <ele>188</ele>
        <time>2018-10-02T10:23:53Z</time>
      </trkpt>
      <trkpt lat="45.95502" lon="4.75384">
        <ele>188</ele>
        <time>2018-10-02T10:23:55Z</time>
      </trkpt>
      <trkpt lat="45.955" lon="4.75379">
        <ele>185</ele>
        <time>2018-10-02T10:23:56Z</time>
      </trkpt>
      <trkpt lat="45.95497" lon="4.75373">
        <ele>185</ele>
        <time>2018-10-02T10:23:57Z</time>
      </trkpt>
      <trkpt lat="45.95495" lon="4.75367">
        <ele>186</ele>
        <time>2018-10-02T10:23:58Z</time>
      </trkpt>
      <trkpt lat="45.95492" lon="4.75362">
        <ele>186</ele>
        <time>2018-10-02T10:23:59Z</time>
      </trkpt>
      <trkpt lat="45.95489" lon="4.75357">
        <ele>186</ele>
        <time>2018-10-02T10:24:00Z</time>
      </trkpt>
      <trkpt lat="45.95485" lon="4.75351">
        <ele>186</ele>
        <time>2018-10-02T10:24:01Z</time>
      </trkpt>
      <trkpt lat="45.95482" lon="4.75345">
        <ele>186</ele>
        <time>2018-10-02T10:24:02Z</time>
      </trkpt>
      <trkpt lat="45.95477" lon="4.7534">
        <ele>186</ele>
        <time>2018-10-02T10:24:03Z</time>
      </trkpt>
      <trkpt lat="45.95474" lon="4.75334">
        <ele>186</ele>
        <time>2018-10-02T10:24:04Z</time>
      </trkpt>
      <trkpt lat="45.95471" lon="4.75327">
        <ele>188</ele>
        <time>2018-10-02T10:24:05Z</time>
      </trkpt>
      <trkpt lat="45.95468" lon="4.75321">
        <ele>188</ele>
        <time>2018-10-02T10:24:06Z</time>
      </trkpt>
      <trkpt lat="45.95464" lon="4.75314">
        <ele>188</ele>
        <time>2018-10-02T10:24:07Z</time>
      </trkpt>
      <trkpt lat="45.95461" lon="4.75308">
        <ele>188</ele>
        <time>2018-10-02T10:24:08Z</time>
      </trkpt>
      <trkpt lat="45.95458" lon="4.75302">
        <ele>188</ele>
        <time>2018-10-02T10:24:09Z</time>
      </trkpt>
      <trkpt lat="45.95455" lon="4.75295">
        <ele>188</ele>
        <time>2018-10-02T10:24:10Z</time>
      </trkpt>
      <trkpt lat="45.95452" lon="4.75288">
        <ele>188</ele>
        <time>2018-10-02T10:24:11Z</time>
      </trkpt>
      <trkpt lat="45.95449" lon="4.75282">
        <ele>189</ele>
        <time>2018-10-02T10:24:12Z</time>
      </trkpt>
      <trkpt lat="45.95448" lon="4.75277">
        <ele>189</ele>
        <time>2018-10-02T10:24:13Z</time>
      </trkpt>
      <trkpt lat="45.95443" lon="4.75271">
        <ele>189</ele>
        <time>2018-10-02T10:24:14Z</time>
      </trkpt>
      <trkpt lat="45.9544" lon="4.75265">
        <ele>189</ele>
        <time>2018-10-02T10:24:15Z</time>
      </trkpt>
      <trkpt lat="45.95438" lon="4.75261">
        <ele>189</ele>
        <time>2018-10-02T10:24:16Z</time>
      </trkpt>
      <trkpt lat="45.95435" lon="4.75255">
        <ele>189</ele>
        <time>2018-10-02T10:24:17Z</time>
      </trkpt>
      <trkpt lat="45.95433" lon="4.7525">
        <ele>189</ele>
        <time>2018-10-02T10:24:18Z</time>
      </trkpt>
      <trkpt lat="45.95426" lon="4.75245">
        <ele>190</ele>
        <time>2018-10-02T10:24:19Z</time>
      </trkpt>
      <trkpt lat="45.95424" lon="4.7524">
        <ele>190</ele>
        <time>2018-10-02T10:24:20Z</time>
      </trkpt>
      <trkpt lat="45.95419" lon="4.75231">
        <ele>190</ele>
        <time>2018-10-02T10:24:22Z</time>
      </trkpt>
      <trkpt lat="45.95417" lon="4.75227">
        <ele>191</ele>
        <time>2018-10-02T10:24:23Z</time>
      </trkpt>
      <trkpt lat="45.95414" lon="4.7522">
        <ele>189</ele>
        <time>2018-10-02T10:24:25Z</time>
      </trkpt>
      <trkpt lat="45.95412" lon="4.75215">
        <ele>189</ele>
        <time>2018-10-02T10:24:26Z</time>
      </trkpt>
      <trkpt lat="45.95407" lon="4.75206">
        <ele>189</ele>
        <time>2018-10-02T10:24:28Z</time>
      </trkpt>
      <trkpt lat="45.95404" lon="4.75202">
        <ele>189</ele>
        <time>2018-10-02T10:24:29Z</time>
      </trkpt>
      <trkpt lat="45.95399" lon="4.75193">
        <ele>189</ele>
        <time>2018-10-02T10:24:31Z</time>
      </trkpt>
      <trkpt lat="45.95396" lon="4.75188">
        <ele>189</ele>
        <time>2018-10-02T10:24:32Z</time>
      </trkpt>
      <trkpt lat="45.95391" lon="4.75179">
        <ele>189</ele>
        <time>2018-10-02T10:24:34Z</time>
      </trkpt>
      <trkpt lat="45.95388" lon="4.75174">
        <ele>189</ele>
        <time>2018-10-02T10:24:35Z</time>
      </trkpt>
      <trkpt lat="45.95382" lon="4.75164">
        <ele>191</ele>
        <time>2018-10-02T10:24:37Z</time>
      </trkpt>
      <trkpt lat="45.9538" lon="4.75159">
        <ele>191</ele>
        <time>2018-10-02T10:24:38Z</time>
      </trkpt>
      <trkpt lat="45.95374" lon="4.75151">
        <ele>191</ele>
        <time>2018-10-02T10:24:40Z</time>
      </trkpt>
      <trkpt lat="45.95372" lon="4.75146">
        <ele>191</ele>
        <time>2018-10-02T10:24:41Z</time>
      </trkpt>
      <trkpt lat="45.95366" lon="4.75137">
        <ele>191</ele>
        <time>2018-10-02T10:24:43Z</time>
      </trkpt>
      <trkpt lat="45.95362" lon="4.75133">
        <ele>191</ele>
        <time>2018-10-02T10:24:44Z</time>
      </trkpt>
      <trkpt lat="45.95358" lon="4.75128">
        <ele>191</ele>
        <time>2018-10-02T10:24:45Z</time>
      </trkpt>
      <trkpt lat="45.95355" lon="4.75123">
        <ele>191</ele>
        <time>2018-10-02T10:24:46Z</time>
      </trkpt>
      <trkpt lat="45.95351" lon="4.75118">
        <ele>191</ele>
        <time>2018-10-02T10:24:47Z</time>
      </trkpt>
      <trkpt lat="45.95347" lon="4.75113">
        <ele>192</ele>
        <time>2018-10-02T10:24:48Z</time>
      </trkpt>
      <trkpt lat="45.95344" lon="4.75109">
        <ele>192</ele>
        <time>2018-10-02T10:24:49Z</time>
      </trkpt>
      <trkpt lat="45.9534" lon="4.75104">
        <ele>192</ele>
        <time>2018-10-02T10:24:50Z</time>
      </trkpt>
      <trkpt lat="45.95337" lon="4.75098">
        <ele>192</ele>
        <time>2018-10-02T10:24:51Z</time>
      </trkpt>
      <trkpt lat="45.95333" lon="4.75092">
        <ele>192</ele>
        <time>2018-10-02T10:24:52Z</time>
      </trkpt>
      <trkpt lat="45.9533" lon="4.75087">
        <ele>192</ele>
        <time>2018-10-02T10:24:53Z</time>
      </trkpt>
      <trkpt lat="45.95326" lon="4.75082">
        <ele>193</ele>
        <time>2018-10-02T10:24:54Z</time>
      </trkpt>
      <trkpt lat="45.95323" lon="4.75077">
        <ele>192</ele>
        <time>2018-10-02T10:24:55Z</time>
      </trkpt>
      <trkpt lat="45.9532" lon="4.75071">
        <ele>192</ele>
        <time>2018-10-02T10:24:56Z</time>
      </trkpt>
      <trkpt lat="45.95316" lon="4.75066">
        <ele>192</ele>
        <time>2018-10-02T10:24:57Z</time>
      </trkpt>
      <trkpt lat="45.95313" lon="4.75061">
        <ele>192</ele>
        <time>2018-10-02T10:24:58Z</time>
      </trkpt>
      <trkpt lat="45.95308" lon="4.75052">
        <ele>192</ele>
        <time>2018-10-02T10:25:00Z</time>
      </trkpt>
      <trkpt lat="45.95308" lon="4.75048">
        <ele>192</ele>
        <time>2018-10-02T10:25:01Z</time>
      </trkpt>
      <trkpt lat="45.95305" lon="4.75043">
        <ele>192</ele>
        <time>2018-10-02T10:25:02Z</time>
      </trkpt>
      <trkpt lat="45.95302" lon="4.75038">
        <ele>191</ele>
        <time>2018-10-02T10:25:03Z</time>
      </trkpt>
      <trkpt lat="45.95299" lon="4.75033">
        <ele>191</ele>
        <time>2018-10-02T10:25:04Z</time>
      </trkpt>
      <trkpt lat="45.95296" lon="4.75029">
        <ele>191</ele>
        <time>2018-10-02T10:25:05Z</time>
      </trkpt>
      <trkpt lat="45.95291" lon="4.7502">
        <ele>191</ele>
        <time>2018-10-02T10:25:07Z</time>
      </trkpt>
      <trkpt lat="45.95288" lon="4.75016">
        <ele>191</ele>
        <time>2018-10-02T10:25:08Z</time>
      </trkpt>
      <trkpt lat="45.95283" lon="4.7501">
        <ele>191</ele>
        <time>2018-10-02T10:25:10Z</time>
      </trkpt>
      <trkpt lat="45.9528" lon="4.75006">
        <ele>191</ele>
        <time>2018-10-02T10:25:11Z</time>
      </trkpt>
      <trkpt lat="45.95277" lon="4.75001">
        <ele>191</ele>
        <time>2018-10-02T10:25:12Z</time>
      </trkpt>
      <trkpt lat="45.95273" lon="4.74996">
        <ele>192</ele>
        <time>2018-10-02T10:25:13Z</time>
      </trkpt>
      <trkpt lat="45.95267" lon="4.74986">
        <ele>192</ele>
        <time>2018-10-02T10:25:15Z</time>
      </trkpt>
      <trkpt lat="45.95264" lon="4.74983">
        <ele>192</ele>
        <time>2018-10-02T10:25:16Z</time>
      </trkpt>
      <trkpt lat="45.95261" lon="4.74977">
        <ele>192</ele>
        <time>2018-10-02T10:25:17Z</time>
      </trkpt>
      <trkpt lat="45.95257" lon="4.74971">
        <ele>192</ele>
        <time>2018-10-02T10:25:18Z</time>
      </trkpt>
      <trkpt lat="45.95252" lon="4.74962">
        <ele>192</ele>
        <time>2018-10-02T10:25:20Z</time>
      </trkpt>
      <trkpt lat="45.95249" lon="4.74957">
        <ele>192</ele>
        <time>2018-10-02T10:25:21Z</time>
      </trkpt>
      <trkpt lat="45.95243" lon="4.74946">
        <ele>192</ele>
        <time>2018-10-02T10:25:23Z</time>
      </trkpt>
      <trkpt lat="45.9524" lon="4.74942">
        <ele>192</ele>
        <time>2018-10-02T10:25:24Z</time>
      </trkpt>
      <trkpt lat="45.95237" lon="4.74938">
        <ele>192</ele>
        <time>2018-10-02T10:25:25Z</time>
      </trkpt>
      <trkpt lat="45.95233" lon="4.74933">
        <ele>192</ele>
        <time>2018-10-02T10:25:26Z</time>
      </trkpt>
      <trkpt lat="45.9523" lon="4.74927">
        <ele>192</ele>
        <time>2018-10-02T10:25:27Z</time>
      </trkpt>
      <trkpt lat="45.95227" lon="4.74922">
        <ele>192</ele>
        <time>2018-10-02T10:25:28Z</time>
      </trkpt>
      <trkpt lat="45.95223" lon="4.74916">
        <ele>193</ele>
        <time>2018-10-02T10:25:29Z</time>
      </trkpt>
      <trkpt lat="45.9522" lon="4.7491">
        <ele>193</ele>
        <time>2018-10-02T10:25:30Z</time>
      </trkpt>
      <trkpt lat="45.95216" lon="4.74903">
        <ele>193</ele>
        <time>2018-10-02T10:25:31Z</time>
      </trkpt>
      <trkpt lat="45.95212" lon="4.74897">
        <ele>193</ele>
        <time>2018-10-02T10:25:32Z</time>
      </trkpt>
      <trkpt lat="45.95208" lon="4.74891">
        <ele>193</ele>
        <time>2018-10-02T10:25:33Z</time>
      </trkpt>
      <trkpt lat="45.95204" lon="4.74886">
        <ele>194</ele>
        <time>2018-10-02T10:25:34Z</time>
      </trkpt>
      <trkpt lat="45.952" lon="4.74881">
        <ele>194</ele>
        <time>2018-10-02T10:25:35Z</time>
      </trkpt>
      <trkpt lat="45.95196" lon="4.74875">
        <ele>194</ele>
        <time>2018-10-02T10:25:36Z</time>
      </trkpt>
      <trkpt lat="45.95193" lon="4.7487">
        <ele>194</ele>
        <time>2018-10-02T10:25:37Z</time>
      </trkpt>
      <trkpt lat="45.9519" lon="4.74863">
        <ele>194</ele>
        <time>2018-10-02T10:25:38Z</time>
      </trkpt>
      <trkpt lat="45.95186" lon="4.74857">
        <ele>194</ele>
        <time>2018-10-02T10:25:39Z</time>
      </trkpt>
      <trkpt lat="45.95182" lon="4.74851">
        <ele>194</ele>
        <time>2018-10-02T10:25:40Z</time>
      </trkpt>
      <trkpt lat="45.95179" lon="4.74846">
        <ele>194</ele>
        <time>2018-10-02T10:25:41Z</time>
      </trkpt>
      <trkpt lat="45.95176" lon="4.7484">
        <ele>194</ele>
        <time>2018-10-02T10:25:42Z</time>
      </trkpt>
      <trkpt lat="45.95171" lon="4.74835">
        <ele>194</ele>
        <time>2018-10-02T10:25:43Z</time>
      </trkpt>
      <trkpt lat="45.95167" lon="4.74829">
        <ele>194</ele>
        <time>2018-10-02T10:25:44Z</time>
      </trkpt>
      <trkpt lat="45.95163" lon="4.74823">
        <ele>194</ele>
        <time>2018-10-02T10:25:45Z</time>
      </trkpt>
      <trkpt lat="45.95159" lon="4.74816">
        <ele>194</ele>
        <time>2018-10-02T10:25:46Z</time>
      </trkpt>
      <trkpt lat="45.95156" lon="4.7481">
        <ele>194</ele>
        <time>2018-10-02T10:25:47Z</time>
      </trkpt>
      <trkpt lat="45.95152" lon="4.74803">
        <ele>194</ele>
        <time>2018-10-02T10:25:48Z</time>
      </trkpt>
      <trkpt lat="45.95148" lon="4.74797">
        <ele>194</ele>
        <time>2018-10-02T10:25:49Z</time>
      </trkpt>
      <trkpt lat="45.95146" lon="4.74791">
        <ele>194</ele>
        <time>2018-10-02T10:25:50Z</time>
      </trkpt>
      <trkpt lat="45.95142" lon="4.74786">
        <ele>194</ele>
        <time>2018-10-02T10:25:51Z</time>
      </trkpt>
      <trkpt lat="45.95139" lon="4.74781">
        <ele>194</ele>
        <time>2018-10-02T10:25:52Z</time>
      </trkpt>
      <trkpt lat="45.95136" lon="4.74776">
        <ele>194</ele>
        <time>2018-10-02T10:25:53Z</time>
      </trkpt>
      <trkpt lat="45.95131" lon="4.7477">
        <ele>194</ele>
        <time>2018-10-02T10:25:54Z</time>
      </trkpt>
      <trkpt lat="45.95126" lon="4.74764">
        <ele>194</ele>
        <time>2018-10-02T10:25:55Z</time>
      </trkpt>
      <trkpt lat="45.95122" lon="4.74757">
        <ele>194</ele>
        <time>2018-10-02T10:25:56Z</time>
      </trkpt>
      <trkpt lat="45.95119" lon="4.7475">
        <ele>194</ele>
        <time>2018-10-02T10:25:57Z</time>
      </trkpt>
      <trkpt lat="45.95115" lon="4.74742">
        <ele>194</ele>
        <time>2018-10-02T10:25:58Z</time>
      </trkpt>
      <trkpt lat="45.95112" lon="4.74737">
        <ele>194</ele>
        <time>2018-10-02T10:25:59Z</time>
      </trkpt>
      <trkpt lat="45.95108" lon="4.74731">
        <ele>194</ele>
        <time>2018-10-02T10:26:00Z</time>
      </trkpt>
      <trkpt lat="45.95105" lon="4.74724">
        <ele>194</ele>
        <time>2018-10-02T10:26:01Z</time>
      </trkpt>
      <trkpt lat="45.95102" lon="4.74717">
        <ele>194</ele>
        <time>2018-10-02T10:26:02Z</time>
      </trkpt>
      <trkpt lat="45.95098" lon="4.7471">
        <ele>194</ele>
        <time>2018-10-02T10:26:03Z</time>
      </trkpt>
      <trkpt lat="45.95095" lon="4.74705">
        <ele>194</ele>
        <time>2018-10-02T10:26:04Z</time>
      </trkpt>
      <trkpt lat="45.95092" lon="4.74701">
        <ele>194</ele>
        <time>2018-10-02T10:26:05Z</time>
      </trkpt>
      <trkpt lat="45.95088" lon="4.74696">
        <ele>194</ele>
        <time>2018-10-02T10:26:06Z</time>
      </trkpt>
      <trkpt lat="45.95084" lon="4.74691">
        <ele>195</ele>
        <time>2018-10-02T10:26:07Z</time>
      </trkpt>
      <trkpt lat="45.95081" lon="4.74685">
        <ele>194</ele>
        <time>2018-10-02T10:26:08Z</time>
      </trkpt>
      <trkpt lat="45.95077" lon="4.74679">
        <ele>194</ele>
        <time>2018-10-02T10:26:09Z</time>
      </trkpt>
      <trkpt lat="45.95074" lon="4.74673">
        <ele>194</ele>
        <time>2018-10-02T10:26:10Z</time>
      </trkpt>
      <trkpt lat="45.9507" lon="4.74668">
        <ele>194</ele>
        <time>2018-10-02T10:26:11Z</time>
      </trkpt>
      <trkpt lat="45.95066" lon="4.7466">
        <ele>195</ele>
        <time>2018-10-02T10:26:12Z</time>
      </trkpt>
      <trkpt lat="45.95063" lon="4.74654">
        <ele>195</ele>
        <time>2018-10-02T10:26:13Z</time>
      </trkpt>
      <trkpt lat="45.95059" lon="4.74648">
        <ele>194</ele>
        <time>2018-10-02T10:26:14Z</time>
      </trkpt>
      <trkpt lat="45.95055" lon="4.74642">
        <ele>194</ele>
        <time>2018-10-02T10:26:15Z</time>
      </trkpt>
      <trkpt lat="45.95052" lon="4.74636">
        <ele>194</ele>
        <time>2018-10-02T10:26:16Z</time>
      </trkpt>
      <trkpt lat="45.95047" lon="4.74625">
        <ele>194</ele>
        <time>2018-10-02T10:26:18Z</time>
      </trkpt>
      <trkpt lat="45.95044" lon="4.74619">
        <ele>194</ele>
        <time>2018-10-02T10:26:19Z</time>
      </trkpt>
      <trkpt lat="45.9504" lon="4.74609">
        <ele>194</ele>
        <time>2018-10-02T10:26:21Z</time>
      </trkpt>
      <trkpt lat="45.95035" lon="4.74601">
        <ele>194</ele>
        <time>2018-10-02T10:26:22Z</time>
      </trkpt>
      <trkpt lat="45.95031" lon="4.74593">
        <ele>194</ele>
        <time>2018-10-02T10:26:23Z</time>
      </trkpt>
      <trkpt lat="45.95026" lon="4.74585">
        <ele>194</ele>
        <time>2018-10-02T10:26:24Z</time>
      </trkpt>
      <trkpt lat="45.95023" lon="4.74578">
        <ele>194</ele>
        <time>2018-10-02T10:26:25Z</time>
      </trkpt>
      <trkpt lat="45.95019" lon="4.7457">
        <ele>194</ele>
        <time>2018-10-02T10:26:26Z</time>
      </trkpt>
      <trkpt lat="45.95014" lon="4.74562">
        <ele>194</ele>
        <time>2018-10-02T10:26:27Z</time>
      </trkpt>
      <trkpt lat="45.95012" lon="4.74556">
        <ele>194</ele>
        <time>2018-10-02T10:26:28Z</time>
      </trkpt>
      <trkpt lat="45.95009" lon="4.7455">
        <ele>194</ele>
        <time>2018-10-02T10:26:29Z</time>
      </trkpt>
      <trkpt lat="45.95005" lon="4.74542">
        <ele>194</ele>
        <time>2018-10-02T10:26:30Z</time>
      </trkpt>
      <trkpt lat="45.95001" lon="4.74534">
        <ele>194</ele>
        <time>2018-10-02T10:26:31Z</time>
      </trkpt>
      <trkpt lat="45.94997" lon="4.74527">
        <ele>193</ele>
        <time>2018-10-02T10:26:32Z</time>
      </trkpt>
      <trkpt lat="45.94993" lon="4.7452">
        <ele>193</ele>
        <time>2018-10-02T10:26:33Z</time>
      </trkpt>
      <trkpt lat="45.9499" lon="4.74512">
        <ele>193</ele>
        <time>2018-10-02T10:26:34Z</time>
      </trkpt>
      <trkpt lat="45.94986" lon="4.74503">
        <ele>193</ele>
        <time>2018-10-02T10:26:35Z</time>
      </trkpt>
      <trkpt lat="45.94981" lon="4.74496">
        <ele>193</ele>
        <time>2018-10-02T10:26:36Z</time>
      </trkpt>
      <trkpt lat="45.94978" lon="4.74489">
        <ele>193</ele>
        <time>2018-10-02T10:26:37Z</time>
      </trkpt>
      <trkpt lat="45.94973" lon="4.7448">
        <ele>193</ele>
        <time>2018-10-02T10:26:38Z</time>
      </trkpt>
      <trkpt lat="45.94968" lon="4.74471">
        <ele>193</ele>
        <time>2018-10-02T10:26:39Z</time>
      </trkpt>
      <trkpt lat="45.94964" lon="4.74462">
        <ele>193</ele>
        <time>2018-10-02T10:26:40Z</time>
      </trkpt>
      <trkpt lat="45.94959" lon="4.74454">
        <ele>192</ele>
        <time>2018-10-02T10:26:41Z</time>
      </trkpt>
      <trkpt lat="45.94955" lon="4.74445">
        <ele>192</ele>
        <time>2018-10-02T10:26:42Z</time>
      </trkpt>
      <trkpt lat="45.9495" lon="4.74436">
        <ele>192</ele>
        <time>2018-10-02T10:26:43Z</time>
      </trkpt>
      <trkpt lat="45.94945" lon="4.74426">
        <ele>192</ele>
        <time>2018-10-02T10:26:44Z</time>
      </trkpt>
      <trkpt lat="45.94941" lon="4.74417">
        <ele>192</ele>
        <time>2018-10-02T10:26:45Z</time>
      </trkpt>
      <trkpt lat="45.94936" lon="4.74407">
        <ele>192</ele>
        <time>2018-10-02T10:26:46Z</time>
      </trkpt>
      <trkpt lat="45.94931" lon="4.74397">
        <ele>192</ele>
        <time>2018-10-02T10:26:47Z</time>
      </trkpt>
      <trkpt lat="45.94926" lon="4.74388">
        <ele>192</ele>
        <time>2018-10-02T10:26:48Z</time>
      </trkpt>
      <trkpt lat="45.94922" lon="4.74379">
        <ele>192</ele>
        <time>2018-10-02T10:26:49Z</time>
      </trkpt>
      <trkpt lat="45.94917" lon="4.7437">
        <ele>191</ele>
        <time>2018-10-02T10:26:50Z</time>
      </trkpt>
      <trkpt lat="45.94912" lon="4.74361">
        <ele>191</ele>
        <time>2018-10-02T10:26:51Z</time>
      </trkpt>
      <trkpt lat="45.94907" lon="4.74352">
        <ele>191</ele>
        <time>2018-10-02T10:26:52Z</time>
      </trkpt>
      <trkpt lat="45.94902" lon="4.74344">
        <ele>191</ele>
        <time>2018-10-02T10:26:53Z</time>
      </trkpt>
      <trkpt lat="45.94897" lon="4.74337">
        <ele>191</ele>
        <time>2018-10-02T10:26:54Z</time>
      </trkpt>
      <trkpt lat="45.94894" lon="4.7433">
        <ele>191</ele>
        <time>2018-10-02T10:26:55Z</time>
      </trkpt>
      <trkpt lat="45.9489" lon="4.74322">
        <ele>191</ele>
        <time>2018-10-02T10:26:56Z</time>
      </trkpt>
      <trkpt lat="45.94885" lon="4.74314">
        <ele>191</ele>
        <time>2018-10-02T10:26:57Z</time>
      </trkpt>
      <trkpt lat="45.9488" lon="4.74306">
        <ele>191</ele>
        <time>2018-10-02T10:26:58Z</time>
      </trkpt>
      <trkpt lat="45.94875" lon="4.74299">
        <ele>191</ele>
        <time>2018-10-02T10:26:59Z</time>
      </trkpt>
      <trkpt lat="45.94872" lon="4.74292">
        <ele>191</ele>
        <time>2018-10-02T10:27:00Z</time>
      </trkpt>
      <trkpt lat="45.94868" lon="4.74284">
        <ele>191</ele>
        <time>2018-10-02T10:27:01Z</time>
      </trkpt>
      <trkpt lat="45.94865" lon="4.74276">
        <ele>191</ele>
        <time>2018-10-02T10:27:02Z</time>
      </trkpt>
      <trkpt lat="45.94861" lon="4.74268">
        <ele>190</ele>
        <time>2018-10-02T10:27:03Z</time>
      </trkpt>
      <trkpt lat="45.94857" lon="4.74261">
        <ele>190</ele>
        <time>2018-10-02T10:27:04Z</time>
      </trkpt>
      <trkpt lat="45.94853" lon="4.74253">
        <ele>190</ele>
        <time>2018-10-02T10:27:05Z</time>
      </trkpt>
      <trkpt lat="45.9485" lon="4.74245">
        <ele>190</ele>
        <time>2018-10-02T10:27:06Z</time>
      </trkpt>
      <trkpt lat="45.94846" lon="4.74237">
        <ele>190</ele>
        <time>2018-10-02T10:27:07Z</time>
      </trkpt>
      <trkpt lat="45.94842" lon="4.74229">
        <ele>190</ele>
        <time>2018-10-02T10:27:08Z</time>
      </trkpt>
      <trkpt lat="45.94837" lon="4.74224">
        <ele>190</ele>
        <time>2018-10-02T10:27:09Z</time>
      </trkpt>
      <trkpt lat="45.94834" lon="4.74216">
        <ele>190</ele>
        <time>2018-10-02T10:27:10Z</time>
      </trkpt>
      <trkpt lat="45.9483" lon="4.74209">
        <ele>189</ele>
        <time>2018-10-02T10:27:11Z</time>
      </trkpt>
      <trkpt lat="45.94826" lon="4.74203">
        <ele>189</ele>
        <time>2018-10-02T10:27:12Z</time>
      </trkpt>
      <trkpt lat="45.94822" lon="4.74196">
        <ele>189</ele>
        <time>2018-10-02T10:27:13Z</time>
      </trkpt>
      <trkpt lat="45.94818" lon="4.74189">
        <ele>189</ele>
        <time>2018-10-02T10:27:14Z</time>
      </trkpt>
      <trkpt lat="45.94815" lon="4.74183">
        <ele>189</ele>
        <time>2018-10-02T10:27:15Z</time>
      </trkpt>
      <trkpt lat="45.94812" lon="4.74176">
        <ele>189</ele>
        <time>2018-10-02T10:27:16Z</time>
      </trkpt>
      <trkpt lat="45.94809" lon="4.7417">
        <ele>189</ele>
        <time>2018-10-02T10:27:17Z</time>
      </trkpt>
      <trkpt lat="45.94805" lon="4.74164">
        <ele>189</ele>
        <time>2018-10-02T10:27:18Z</time>
      </trkpt>
      <trkpt lat="45.94801" lon="4.74157">
        <ele>189</ele>
        <time>2018-10-02T10:27:19Z</time>
      </trkpt>
      <trkpt lat="45.94798" lon="4.7415">
        <ele>189</ele>
        <time>2018-10-02T10:27:20Z</time>
      </trkpt>
      <trkpt lat="45.94794" lon="4.74144">
        <ele>189</ele>
        <time>2018-10-02T10:27:21Z</time>
      </trkpt>
      <trkpt lat="45.94789" lon="4.74137">
        <ele>189</ele>
        <time>2018-10-02T10:27:22Z</time>
      </trkpt>
      <trkpt lat="45.94785" lon="4.7413">
        <ele>189</ele>
        <time>2018-10-02T10:27:23Z</time>
      </trkpt>
      <trkpt lat="45.94781" lon="4.74124">
        <ele>189</ele>
        <time>2018-10-02T10:27:24Z</time>
      </trkpt>
      <trkpt lat="45.94776" lon="4.74117">
        <ele>189</ele>
        <time>2018-10-02T10:27:25Z</time>
      </trkpt>
      <trkpt lat="45.94771" lon="4.74111">
        <ele>189</ele>
        <time>2018-10-02T10:27:26Z</time>
      </trkpt>
      <trkpt lat="45.94768" lon="4.74104">
        <ele>189</ele>
        <time>2018-10-02T10:27:27Z</time>
      </trkpt>
      <trkpt lat="45.94764" lon="4.74099">
        <ele>189</ele>
        <time>2018-10-02T10:27:28Z</time>
      </trkpt>
      <trkpt lat="45.94759" lon="4.74093">
        <ele>189</ele>
        <time>2018-10-02T10:27:29Z</time>
      </trkpt>
      <trkpt lat="45.94754" lon="4.74087">
        <ele>189</ele>
        <time>2018-10-02T10:27:30Z</time>
      </trkpt>
      <trkpt lat="45.94749" lon="4.74081">
        <ele>189</ele>
        <time>2018-10-02T10:27:31Z</time>
      </trkpt>
      <trkpt lat="45.94745" lon="4.74076">
        <ele>188</ele>
        <time>2018-10-02T10:27:32Z</time>
      </trkpt>
      <trkpt lat="45.94741" lon="4.7407">
        <ele>188</ele>
        <time>2018-10-02T10:27:33Z</time>
      </trkpt>
      <trkpt lat="45.94738" lon="4.74065">
        <ele>188</ele>
        <time>2018-10-02T10:27:34Z</time>
      </trkpt>
      <trkpt lat="45.94733" lon="4.7406">
        <ele>188</ele>
        <time>2018-10-02T10:27:35Z</time>
      </trkpt>
      <trkpt lat="45.94729" lon="4.74055">
        <ele>188</ele>
        <time>2018-10-02T10:27:36Z</time>
      </trkpt>
      <trkpt lat="45.94726" lon="4.74051">
        <ele>188</ele>
        <time>2018-10-02T10:27:37Z</time>
      </trkpt>
      <trkpt lat="45.94722" lon="4.74045">
        <ele>187</ele>
        <time>2018-10-02T10:27:38Z</time>
      </trkpt>
      <trkpt lat="45.94718" lon="4.74039">
        <ele>187</ele>
        <time>2018-10-02T10:27:39Z</time>
      </trkpt>
      <trkpt lat="45.94714" lon="4.74033">
        <ele>187</ele>
        <time>2018-10-02T10:27:40Z</time>
      </trkpt>
      <trkpt lat="45.9471" lon="4.74028">
        <ele>187</ele>
        <time>2018-10-02T10:27:41Z</time>
      </trkpt>
      <trkpt lat="45.94707" lon="4.74023">
        <ele>187</ele>
        <time>2018-10-02T10:27:42Z</time>
      </trkpt>
      <trkpt lat="45.94703" lon="4.74018">
        <ele>187</ele>
        <time>2018-10-02T10:27:43Z</time>
      </trkpt>
      <trkpt lat="45.94699" lon="4.74012">
        <ele>187</ele>
        <time>2018-10-02T10:27:44Z</time>
      </trkpt>
      <trkpt lat="45.94695" lon="4.74007">
        <ele>187</ele>
        <time>2018-10-02T10:27:45Z</time>
      </trkpt>
      <trkpt lat="45.94691" lon="4.74001">
        <ele>187</ele>
        <time>2018-10-02T10:27:46Z</time>
      </trkpt>
      <trkpt lat="45.94687" lon="4.73995">
        <ele>187</ele>
        <time>2018-10-02T10:27:47Z</time>
      </trkpt>
      <trkpt lat="45.94683" lon="4.73989">
        <ele>187</ele>
        <time>2018-10-02T10:27:48Z</time>
      </trkpt>
      <trkpt lat="45.94678" lon="4.73983">
        <ele>187</ele>
        <time>2018-10-02T10:27:49Z</time>
      </trkpt>
      <trkpt lat="45.94673" lon="4.73977">
        <ele>187</ele>
        <time>2018-10-02T10:27:50Z</time>
      </trkpt>
      <trkpt lat="45.94669" lon="4.73971">
        <ele>187</ele>
        <time>2018-10-02T10:27:51Z</time>
      </trkpt>
      <trkpt lat="45.94664" lon="4.73965">
        <ele>187</ele>
        <time>2018-10-02T10:27:52Z</time>
      </trkpt>
      <trkpt lat="45.94659" lon="4.73959">
        <ele>187</ele>
        <time>2018-10-02T10:27:53Z</time>
      </trkpt>
      <trkpt lat="45.94655" lon="4.73953">
        <ele>187</ele>
        <time>2018-10-02T10:27:54Z</time>
      </trkpt>
      <trkpt lat="45.94649" lon="4.73948">
        <ele>187</ele>
        <time>2018-10-02T10:27:55Z</time>
      </trkpt>
      <trkpt lat="45.94645" lon="4.73942">
        <ele>187</ele>
        <time>2018-10-02T10:27:56Z</time>
      </trkpt>
      <trkpt lat="45.94641" lon="4.73936">
        <ele>187</ele>
        <time>2018-10-02T10:27:57Z</time>
      </trkpt>
      <trkpt lat="45.94637" lon="4.7393">
        <ele>187</ele>
        <time>2018-10-02T10:27:58Z</time>
      </trkpt>
      <trkpt lat="45.94632" lon="4.73923">
        <ele>187</ele>
        <time>2018-10-02T10:27:59Z</time>
      </trkpt>
      <trkpt lat="45.94628" lon="4.73917">
        <ele>187</ele>
        <time>2018-10-02T10:28:00Z</time>
      </trkpt>
      <trkpt lat="45.94624" lon="4.73911">
        <ele>187</ele>
        <time>2018-10-02T10:28:01Z</time>
      </trkpt>
      <trkpt lat="45.9462" lon="4.73906">
        <ele>187</ele>
        <time>2018-10-02T10:28:02Z</time>
      </trkpt>
      <trkpt lat="45.94615" lon="4.739">
        <ele>187</ele>
        <time>2018-10-02T10:28:03Z</time>
      </trkpt>
      <trkpt lat="45.94611" lon="4.73895">
        <ele>187</ele>
        <time>2018-10-02T10:28:04Z</time>
      </trkpt>
      <trkpt lat="45.94606" lon="4.7389">
        <ele>187</ele>
        <time>2018-10-02T10:28:05Z</time>
      </trkpt>
      <trkpt lat="45.94602" lon="4.73885">
        <ele>187</ele>
        <time>2018-10-02T10:28:06Z</time>
      </trkpt>
      <trkpt lat="45.94597" lon="4.7388">
        <ele>187</ele>
        <time>2018-10-02T10:28:07Z</time>
      </trkpt>
      <trkpt lat="45.94592" lon="4.73874">
        <ele>187</ele>
        <time>2018-10-02T10:28:08Z</time>
      </trkpt>
      <trkpt lat="45.94588" lon="4.73869">
        <ele>187</ele>
        <time>2018-10-02T10:28:09Z</time>
      </trkpt>
      <trkpt lat="45.94583" lon="4.73863">
        <ele>186</ele>
        <time>2018-10-02T10:28:10Z</time>
      </trkpt>
      <trkpt lat="45.94578" lon="4.73859">
        <ele>186</ele>
        <time>2018-10-02T10:28:11Z</time>
      </trkpt>
      <trkpt lat="45.94573" lon="4.73854">
        <ele>186</ele>
        <time>2018-10-02T10:28:12Z</time>
      </trkpt>
      <trkpt lat="45.94568" lon="4.73849">
        <ele>186</ele>
        <time>2018-10-02T10:28:13Z</time>
      </trkpt>
      <trkpt lat="45.94563" lon="4.73843">
        <ele>186</ele>
        <time>2018-10-02T10:28:14Z</time>
      </trkpt>
      <trkpt lat="45.94557" lon="4.73838">
        <ele>186</ele>
        <time>2018-10-02T10:28:15Z</time>
      </trkpt>
      <trkpt lat="45.94552" lon="4.73832">
        <ele>186</ele>
        <time>2018-10-02T10:28:16Z</time>
      </trkpt>
      <trkpt lat="45.94548" lon="4.73827">
        <ele>186</ele>
        <time>2018-10-02T10:28:17Z</time>
      </trkpt>
      <trkpt lat="45.94543" lon="4.73822">
        <ele>186</ele>
        <time>2018-10-02T10:28:18Z</time>
      </trkpt>
      <trkpt lat="45.94539" lon="4.73818">
        <ele>186</ele>
        <time>2018-10-02T10:28:19Z</time>
      </trkpt>
      <trkpt lat="45.94535" lon="4.73814">
        <ele>186</ele>
        <time>2018-10-02T10:28:20Z</time>
      </trkpt>
      <trkpt lat="45.94531" lon="4.7381">
        <ele>186</ele>
        <time>2018-10-02T10:28:21Z</time>
      </trkpt>
      <trkpt lat="45.94526" lon="4.73805">
        <ele>186</ele>
        <time>2018-10-02T10:28:22Z</time>
      </trkpt>
      <trkpt lat="45.94522" lon="4.738">
        <ele>186</ele>
        <time>2018-10-02T10:28:23Z</time>
      </trkpt>
      <trkpt lat="45.94518" lon="4.73796">
        <ele>186</ele>
        <time>2018-10-02T10:28:24Z</time>
      </trkpt>
      <trkpt lat="45.94514" lon="4.73792">
        <ele>186</ele>
        <time>2018-10-02T10:28:25Z</time>
      </trkpt>
      <trkpt lat="45.94509" lon="4.73787">
        <ele>186</ele>
        <time>2018-10-02T10:28:26Z</time>
      </trkpt>
      <trkpt lat="45.94505" lon="4.73781">
        <ele>186</ele>
        <time>2018-10-02T10:28:27Z</time>
      </trkpt>
      <trkpt lat="45.94501" lon="4.73776">
        <ele>186</ele>
        <time>2018-10-02T10:28:28Z</time>
      </trkpt>
      <trkpt lat="45.94497" lon="4.7377">
        <ele>186</ele>
        <time>2018-10-02T10:28:29Z</time>
      </trkpt>
      <trkpt lat="45.94494" lon="4.73764">
        <ele>186</ele>
        <time>2018-10-02T10:28:30Z</time>
      </trkpt>
      <trkpt lat="45.94488" lon="4.73757">
        <ele>186</ele>
        <time>2018-10-02T10:28:31Z</time>
      </trkpt>
      <trkpt lat="45.94487" lon="4.7375">
        <ele>186</ele>
        <time>2018-10-02T10:28:32Z</time>
      </trkpt>
      <trkpt lat="45.94488" lon="4.73742">
        <ele>186</ele>
        <time>2018-10-02T10:28:33Z</time>
      </trkpt>
      <trkpt lat="45.94488" lon="4.73734">
        <ele>186</ele>
        <time>2018-10-02T10:28:34Z</time>
      </trkpt>
      <trkpt lat="45.94488" lon="4.73726">
        <ele>186</ele>
        <time>2018-10-02T10:28:35Z</time>
      </trkpt>
      <trkpt lat="45.94489" lon="4.73717">
        <ele>186</ele>
        <time>2018-10-02T10:28:36Z</time>
      </trkpt>
      <trkpt lat="45.9449" lon="4.73709">
        <ele>186</ele>
        <time>2018-10-02T10:28:37Z</time>
      </trkpt>
      <trkpt lat="45.94491" lon="4.73701">
        <ele>186</ele>
        <time>2018-10-02T10:28:38Z</time>
      </trkpt>
      <trkpt lat="45.94492" lon="4.73693">
        <ele>186</ele>
        <time>2018-10-02T10:28:39Z</time>
      </trkpt>
      <trkpt lat="45.94494" lon="4.73685">
        <ele>186</ele>
        <time>2018-10-02T10:28:40Z</time>
      </trkpt>
      <trkpt lat="45.94496" lon="4.73676">
        <ele>185</ele>
        <time>2018-10-02T10:28:41Z</time>
      </trkpt>
      <trkpt lat="45.94495" lon="4.73669">
        <ele>185</ele>
        <time>2018-10-02T10:28:42Z</time>
      </trkpt>
      <trkpt lat="45.94496" lon="4.73662">
        <ele>185</ele>
        <time>2018-10-02T10:28:43Z</time>
      </trkpt>
      <trkpt lat="45.94498" lon="4.73653">
        <ele>185</ele>
        <time>2018-10-02T10:28:44Z</time>
      </trkpt>
      <trkpt lat="45.945" lon="4.73643">
        <ele>186</ele>
        <time>2018-10-02T10:28:45Z</time>
      </trkpt>
      <trkpt lat="45.94501" lon="4.73634">
        <ele>184</ele>
        <time>2018-10-02T10:28:46Z</time>
      </trkpt>
      <trkpt lat="45.94502" lon="4.73625">
        <ele>184</ele>
        <time>2018-10-02T10:28:47Z</time>
      </trkpt>
      <trkpt lat="45.94503" lon="4.73616">
        <ele>184</ele>
        <time>2018-10-02T10:28:48Z</time>
      </trkpt>
      <trkpt lat="45.94503" lon="4.73607">
        <ele>184</ele>
        <time>2018-10-02T10:28:49Z</time>
      </trkpt>
      <trkpt lat="45.94504" lon="4.73598">
        <ele>184</ele>
        <time>2018-10-02T10:28:50Z</time>
      </trkpt>
      <trkpt lat="45.94504" lon="4.73589">
        <ele>185</ele>
        <time>2018-10-02T10:28:51Z</time>
      </trkpt>
      <trkpt lat="45.94504" lon="4.73579">
        <ele>184</ele>
        <time>2018-10-02T10:28:52Z</time>
      </trkpt>
      <trkpt lat="45.94505" lon="4.73569">
        <ele>184</ele>
        <time>2018-10-02T10:28:53Z</time>
      </trkpt>
      <trkpt lat="45.94505" lon="4.73559">
        <ele>184</ele>
        <time>2018-10-02T10:28:54Z</time>
      </trkpt>
      <trkpt lat="45.94505" lon="4.73549">
        <ele>183</ele>
        <time>2018-10-02T10:28:55Z</time>
      </trkpt>
      <trkpt lat="45.94506" lon="4.73538">
        <ele>183</ele>
        <time>2018-10-02T10:28:56Z</time>
      </trkpt>
      <trkpt lat="45.94505" lon="4.73527">
        <ele>183</ele>
        <time>2018-10-02T10:28:57Z</time>
      </trkpt>
      <trkpt lat="45.94505" lon="4.73516">
        <ele>183</ele>
        <time>2018-10-02T10:28:58Z</time>
      </trkpt>
      <trkpt lat="45.94505" lon="4.73505">
        <ele>183</ele>
        <time>2018-10-02T10:28:59Z</time>
      </trkpt>
      <trkpt lat="45.94505" lon="4.73494">
        <ele>182</ele>
        <time>2018-10-02T10:29:00Z</time>
      </trkpt>
      <trkpt lat="45.94506" lon="4.73484">
        <ele>182</ele>
        <time>2018-10-02T10:29:01Z</time>
      </trkpt>
      <trkpt lat="45.94506" lon="4.73474">
        <ele>182</ele>
        <time>2018-10-02T10:29:02Z</time>
      </trkpt>
      <trkpt lat="45.94506" lon="4.73462">
        <ele>181</ele>
        <time>2018-10-02T10:29:03Z</time>
      </trkpt>
      <trkpt lat="45.94507" lon="4.73452">
        <ele>181</ele>
        <time>2018-10-02T10:29:04Z</time>
      </trkpt>
      <trkpt lat="45.94507" lon="4.73441">
        <ele>181</ele>
        <time>2018-10-02T10:29:05Z</time>
      </trkpt>
      <trkpt lat="45.94504" lon="4.73429">
        <ele>180</ele>
        <time>2018-10-02T10:29:06Z</time>
      </trkpt>
      <trkpt lat="45.94503" lon="4.73418">
        <ele>180</ele>
        <time>2018-10-02T10:29:07Z</time>
      </trkpt>
      <trkpt lat="45.94503" lon="4.73408">
        <ele>179</ele>
        <time>2018-10-02T10:29:08Z</time>
      </trkpt>
      <trkpt lat="45.94502" lon="4.73396">
        <ele>179</ele>
        <time>2018-10-02T10:29:09Z</time>
      </trkpt>
      <trkpt lat="45.94501" lon="4.73385">
        <ele>179</ele>
        <time>2018-10-02T10:29:10Z</time>
      </trkpt>
      <trkpt lat="45.945" lon="4.73374">
        <ele>179</ele>
        <time>2018-10-02T10:29:11Z</time>
      </trkpt>
      <trkpt lat="45.94499" lon="4.73363">
        <ele>179</ele>
        <time>2018-10-02T10:29:12Z</time>
      </trkpt>
      <trkpt lat="45.94498" lon="4.73352">
        <ele>178</ele>
        <time>2018-10-02T10:29:13Z</time>
      </trkpt>
      <trkpt lat="45.94497" lon="4.7334">
        <ele>178</ele>
        <time>2018-10-02T10:29:14Z</time>
      </trkpt>
      <trkpt lat="45.94496" lon="4.73328">
        <ele>177</ele>
        <time>2018-10-02T10:29:15Z</time>
      </trkpt>
      <trkpt lat="45.94494" lon="4.73316">
        <ele>177</ele>
        <time>2018-10-02T10:29:16Z</time>
      </trkpt>
      <trkpt lat="45.94492" lon="4.73305">
        <ele>177</ele>
        <time>2018-10-02T10:29:17Z</time>
      </trkpt>
      <trkpt lat="45.94491" lon="4.73294">
        <ele>177</ele>
        <time>2018-10-02T10:29:18Z</time>
      </trkpt>
      <trkpt lat="45.94489" lon="4.73283">
        <ele>177</ele>
        <time>2018-10-02T10:29:19Z</time>
      </trkpt>
      <trkpt lat="45.94488" lon="4.73271">
        <ele>177</ele>
        <time>2018-10-02T10:29:20Z</time>
      </trkpt>
      <trkpt lat="45.94486" lon="4.7326">
        <ele>176</ele>
        <time>2018-10-02T10:29:21Z</time>
      </trkpt>
      <trkpt lat="45.94485" lon="4.73249">
        <ele>175</ele>
        <time>2018-10-02T10:29:22Z</time>
      </trkpt>
      <trkpt lat="45.94483" lon="4.73238">
        <ele>175</ele>
        <time>2018-10-02T10:29:23Z</time>
      </trkpt>
      <trkpt lat="45.9448" lon="4.73227">
        <ele>175</ele>
        <time>2018-10-02T10:29:24Z</time>
      </trkpt>
      <trkpt lat="45.94479" lon="4.73215">
        <ele>175</ele>
        <time>2018-10-02T10:29:25Z</time>
      </trkpt>
      <trkpt lat="45.94478" lon="4.73204">
        <ele>175</ele>
        <time>2018-10-02T10:29:26Z</time>
      </trkpt>
      <trkpt lat="45.94476" lon="4.73193">
        <ele>174</ele>
        <time>2018-10-02T10:29:27Z</time>
      </trkpt>
      <trkpt lat="45.94474" lon="4.7318">
        <ele>174</ele>
        <time>2018-10-02T10:29:28Z</time>
      </trkpt>
      <trkpt lat="45.94474" lon="4.73169">
        <ele>174</ele>
        <time>2018-10-02T10:29:29Z</time>
      </trkpt>
      <trkpt lat="45.94473" lon="4.73157">
        <ele>172</ele>
        <time>2018-10-02T10:29:30Z</time>
      </trkpt>
      <trkpt lat="45.94471" lon="4.73147">
        <ele>172</ele>
        <time>2018-10-02T10:29:31Z</time>
      </trkpt>
      <trkpt lat="45.9447" lon="4.73137">
        <ele>172</ele>
        <time>2018-10-02T10:29:32Z</time>
      </trkpt>
      <trkpt lat="45.9447" lon="4.73127">
        <ele>172</ele>
        <time>2018-10-02T10:29:33Z</time>
      </trkpt>
      <trkpt lat="45.94469" lon="4.73117">
        <ele>172</ele>
        <time>2018-10-02T10:29:34Z</time>
      </trkpt>
      <trkpt lat="45.94468" lon="4.73107">
        <ele>172</ele>
        <time>2018-10-02T10:29:35Z</time>
      </trkpt>
      <trkpt lat="45.94466" lon="4.73097">
        <ele>172</ele>
        <time>2018-10-02T10:29:36Z</time>
      </trkpt>
      <trkpt lat="45.94465" lon="4.73088">
        <ele>171</ele>
        <time>2018-10-02T10:29:37Z</time>
      </trkpt>
      <trkpt lat="45.94463" lon="4.73078">
        <ele>170</ele>
        <time>2018-10-02T10:29:38Z</time>
      </trkpt>
      <trkpt lat="45.94461" lon="4.7307">
        <ele>170</ele>
        <time>2018-10-02T10:29:39Z</time>
      </trkpt>
      <trkpt lat="45.94459" lon="4.73061">
        <ele>170</ele>
        <time>2018-10-02T10:29:40Z</time>
      </trkpt>
      <trkpt lat="45.94459" lon="4.73053">
        <ele>170</ele>
        <time>2018-10-02T10:29:41Z</time>
      </trkpt>
      <trkpt lat="45.94458" lon="4.73046">
        <ele>170</ele>
        <time>2018-10-02T10:29:42Z</time>
      </trkpt>
      <trkpt lat="45.94456" lon="4.7304">
        <ele>169</ele>
        <time>2018-10-02T10:29:43Z</time>
      </trkpt>
      <trkpt lat="45.94455" lon="4.73033">
        <ele>169</ele>
        <time>2018-10-02T10:29:44Z</time>
      </trkpt>
      <trkpt lat="45.94454" lon="4.73025">
        <ele>169</ele>
        <time>2018-10-02T10:29:45Z</time>
      </trkpt>
      <trkpt lat="45.94453" lon="4.73019">
        <ele>169</ele>
        <time>2018-10-02T10:29:46Z</time>
      </trkpt>
      <trkpt lat="45.94451" lon="4.73011">
        <ele>169</ele>
        <time>2018-10-02T10:29:47Z</time>
      </trkpt>
      <trkpt lat="45.9445" lon="4.73005">
        <ele>169</ele>
        <time>2018-10-02T10:29:48Z</time>
      </trkpt>
      <trkpt lat="45.94449" lon="4.72999">
        <ele>167</ele>
        <time>2018-10-02T10:29:49Z</time>
      </trkpt>
      <trkpt lat="45.94447" lon="4.72992">
        <ele>167</ele>
        <time>2018-10-02T10:29:50Z</time>
      </trkpt>
      <trkpt lat="45.94447" lon="4.72986">
        <ele>167</ele>
        <time>2018-10-02T10:29:51Z</time>
      </trkpt>
      <trkpt lat="45.94446" lon="4.72978">
        <ele>167</ele>
        <time>2018-10-02T10:29:52Z</time>
      </trkpt>
      <trkpt lat="45.94445" lon="4.72972">
        <ele>167</ele>
        <time>2018-10-02T10:29:53Z</time>
      </trkpt>
      <trkpt lat="45.94445" lon="4.72965">
        <ele>167</ele>
        <time>2018-10-02T10:29:54Z</time>
      </trkpt>
      <trkpt lat="45.94444" lon="4.72959">
        <ele>167</ele>
        <time>2018-10-02T10:29:55Z</time>
      </trkpt>
      <trkpt lat="45.94443" lon="4.72951">
        <ele>167</ele>
        <time>2018-10-02T10:29:56Z</time>
      </trkpt>
      <trkpt lat="45.94443" lon="4.72939">
        <ele>167</ele>
        <time>2018-10-02T10:29:58Z</time>
      </trkpt>
      <trkpt lat="45.94442" lon="4.72932">
        <ele>167</ele>
        <time>2018-10-02T10:29:59Z</time>
      </trkpt>
      <trkpt lat="45.94441" lon="4.72926">
        <ele>167</ele>
        <time>2018-10-02T10:30:00Z</time>
      </trkpt>
      <trkpt lat="45.94441" lon="4.72919">
        <ele>167</ele>
        <time>2018-10-02T10:30:01Z</time>
      </trkpt>
      <trkpt lat="45.9444" lon="4.72912">
        <ele>166</ele>
        <time>2018-10-02T10:30:02Z</time>
      </trkpt>
      <trkpt lat="45.9444" lon="4.72904">
        <ele>166</ele>
        <time>2018-10-02T10:30:03Z</time>
      </trkpt>
      <trkpt lat="45.94439" lon="4.72897">
        <ele>166</ele>
        <time>2018-10-02T10:30:04Z</time>
      </trkpt>
      <trkpt lat="45.94438" lon="4.7289">
        <ele>166</ele>
        <time>2018-10-02T10:30:05Z</time>
      </trkpt>
      <trkpt lat="45.94437" lon="4.72882">
        <ele>166</ele>
        <time>2018-10-02T10:30:06Z</time>
      </trkpt>
      <trkpt lat="45.94437" lon="4.72874">
        <ele>166</ele>
        <time>2018-10-02T10:30:07Z</time>
      </trkpt>
      <trkpt lat="45.94435" lon="4.72866">
        <ele>166</ele>
        <time>2018-10-02T10:30:08Z</time>
      </trkpt>
      <trkpt lat="45.94435" lon="4.72859">
        <ele>166</ele>
        <time>2018-10-02T10:30:09Z</time>
      </trkpt>
      <trkpt lat="45.94434" lon="4.72852">
        <ele>166</ele>
        <time>2018-10-02T10:30:10Z</time>
      </trkpt>
      <trkpt lat="45.94432" lon="4.72844">
        <ele>166</ele>
        <time>2018-10-02T10:30:11Z</time>
      </trkpt>
      <trkpt lat="45.9443" lon="4.72834">
        <ele>166</ele>
        <time>2018-10-02T10:30:12Z</time>
      </trkpt>
      <trkpt lat="45.94429" lon="4.72825">
        <ele>167</ele>
        <time>2018-10-02T10:30:13Z</time>
      </trkpt>
      <trkpt lat="45.94428" lon="4.72816">
        <ele>167</ele>
        <time>2018-10-02T10:30:14Z</time>
      </trkpt>
      <trkpt lat="45.94427" lon="4.72806">
        <ele>167</ele>
        <time>2018-10-02T10:30:15Z</time>
      </trkpt>
      <trkpt lat="45.94425" lon="4.72797">
        <ele>167</ele>
        <time>2018-10-02T10:30:16Z</time>
      </trkpt>
      <trkpt lat="45.94425" lon="4.72787">
        <ele>168</ele>
        <time>2018-10-02T10:30:17Z</time>
      </trkpt>
      <trkpt lat="45.94422" lon="4.72779">
        <ele>168</ele>
        <time>2018-10-02T10:30:18Z</time>
      </trkpt>
      <trkpt lat="45.94421" lon="4.72769">
        <ele>169</ele>
        <time>2018-10-02T10:30:19Z</time>
      </trkpt>
      <trkpt lat="45.9442" lon="4.72759">
        <ele>170</ele>
        <time>2018-10-02T10:30:20Z</time>
      </trkpt>
      <trkpt lat="45.94419" lon="4.7275">
        <ele>171</ele>
        <time>2018-10-02T10:30:21Z</time>
      </trkpt>
      <trkpt lat="45.94418" lon="4.7274">
        <ele>171</ele>
        <time>2018-10-02T10:30:22Z</time>
      </trkpt>
      <trkpt lat="45.94417" lon="4.7273">
        <ele>172</ele>
        <time>2018-10-02T10:30:23Z</time>
      </trkpt>
      <trkpt lat="45.94415" lon="4.7272">
        <ele>172</ele>
        <time>2018-10-02T10:30:24Z</time>
      </trkpt>
      <trkpt lat="45.94415" lon="4.72711">
        <ele>172</ele>
        <time>2018-10-02T10:30:25Z</time>
      </trkpt>
      <trkpt lat="45.94413" lon="4.72701">
        <ele>172</ele>
        <time>2018-10-02T10:30:26Z</time>
      </trkpt>
      <trkpt lat="45.94412" lon="4.72691">
        <ele>173</ele>
        <time>2018-10-02T10:30:27Z</time>
      </trkpt>
      <trkpt lat="45.94411" lon="4.72681">
        <ele>173</ele>
        <time>2018-10-02T10:30:28Z</time>
      </trkpt>
      <trkpt lat="45.94409" lon="4.72673">
        <ele>173</ele>
        <time>2018-10-02T10:30:29Z</time>
      </trkpt>
      <trkpt lat="45.94408" lon="4.72663">
        <ele>174</ele>
        <time>2018-10-02T10:30:30Z</time>
      </trkpt>
      <trkpt lat="45.94407" lon="4.72654">
        <ele>174</ele>
        <time>2018-10-02T10:30:31Z</time>
      </trkpt>
      <trkpt lat="45.94406" lon="4.72645">
        <ele>174</ele>
        <time>2018-10-02T10:30:32Z</time>
      </trkpt>
      <trkpt lat="45.94406" lon="4.72635">
        <ele>174</ele>
        <time>2018-10-02T10:30:33Z</time>
      </trkpt>
      <trkpt lat="45.94405" lon="4.72626">
        <ele>174</ele>
        <time>2018-10-02T10:30:34Z</time>
      </trkpt>
      <trkpt lat="45.94403" lon="4.72617">
        <ele>173</ele>
        <time>2018-10-02T10:30:35Z</time>
      </trkpt>
      <trkpt lat="45.94401" lon="4.72609">
        <ele>173</ele>
        <time>2018-10-02T10:30:36Z</time>
      </trkpt>
      <trkpt lat="45.944" lon="4.72601">
        <ele>173</ele>
        <time>2018-10-02T10:30:37Z</time>
      </trkpt>
      <trkpt lat="45.94399" lon="4.72592">
        <ele>173</ele>
        <time>2018-10-02T10:30:38Z</time>
      </trkpt>
      <trkpt lat="45.94397" lon="4.72585">
        <ele>173</ele>
        <time>2018-10-02T10:30:39Z</time>
      </trkpt>
      <trkpt lat="45.94396" lon="4.72577">
        <ele>173</ele>
        <time>2018-10-02T10:30:40Z</time>
      </trkpt>
      <trkpt lat="45.94394" lon="4.72568">
        <ele>173</ele>
        <time>2018-10-02T10:30:41Z</time>
      </trkpt>
      <trkpt lat="45.94393" lon="4.7256">
        <ele>173</ele>
        <time>2018-10-02T10:30:42Z</time>
      </trkpt>
      <trkpt lat="45.94391" lon="4.72551">
        <ele>173</ele>
        <time>2018-10-02T10:30:43Z</time>
      </trkpt>
      <trkpt lat="45.94389" lon="4.72542">
        <ele>173</ele>
        <time>2018-10-02T10:30:44Z</time>
      </trkpt>
      <trkpt lat="45.94387" lon="4.72533">
        <ele>174</ele>
        <time>2018-10-02T10:30:45Z</time>
      </trkpt>
      <trkpt lat="45.94385" lon="4.72526">
        <ele>174</ele>
        <time>2018-10-02T10:30:46Z</time>
      </trkpt>
      <trkpt lat="45.94383" lon="4.72518">
        <ele>174</ele>
        <time>2018-10-02T10:30:47Z</time>
      </trkpt>
      <trkpt lat="45.94381" lon="4.72511">
        <ele>174</ele>
        <time>2018-10-02T10:30:48Z</time>
      </trkpt>
      <trkpt lat="45.94379" lon="4.72504">
        <ele>174</ele>
        <time>2018-10-02T10:30:49Z</time>
      </trkpt>
      <trkpt lat="45.94375" lon="4.72492">
        <ele>173</ele>
        <time>2018-10-02T10:30:51Z</time>
      </trkpt>
      <trkpt lat="45.94373" lon="4.72486">
        <ele>173</ele>
        <time>2018-10-02T10:30:52Z</time>
      </trkpt>
      <trkpt lat="45.94372" lon="4.7248">
        <ele>173</ele>
        <time>2018-10-02T10:30:53Z</time>
      </trkpt>
      <trkpt lat="45.9437" lon="4.72474">
        <ele>173</ele>
        <time>2018-10-02T10:30:54Z</time>
      </trkpt>
      <trkpt lat="45.94366" lon="4.72468">
        <ele>173</ele>
        <time>2018-10-02T10:30:55Z</time>
      </trkpt>
      <trkpt lat="45.94363" lon="4.72462">
        <ele>173</ele>
        <time>2018-10-02T10:30:56Z</time>
      </trkpt>
      <trkpt lat="45.94359" lon="4.72452">
        <ele>173</ele>
        <time>2018-10-02T10:30:58Z</time>
      </trkpt>
      <trkpt lat="45.94356" lon="4.72445">
        <ele>173</ele>
        <time>2018-10-02T10:30:59Z</time>
      </trkpt>
      <trkpt lat="45.94354" lon="4.72438">
        <ele>173</ele>
        <time>2018-10-02T10:31:00Z</time>
      </trkpt>
      <trkpt lat="45.94351" lon="4.7243">
        <ele>173</ele>
        <time>2018-10-02T10:31:01Z</time>
      </trkpt>
      <trkpt lat="45.94348" lon="4.72423">
        <ele>173</ele>
        <time>2018-10-02T10:31:02Z</time>
      </trkpt>
      <trkpt lat="45.94345" lon="4.72415">
        <ele>173</ele>
        <time>2018-10-02T10:31:03Z</time>
      </trkpt>
      <trkpt lat="45.94342" lon="4.72407">
        <ele>173</ele>
        <time>2018-10-02T10:31:04Z</time>
      </trkpt>
      <trkpt lat="45.94339" lon="4.724">
        <ele>172</ele>
        <time>2018-10-02T10:31:05Z</time>
      </trkpt>
      <trkpt lat="45.94336" lon="4.72393">
        <ele>172</ele>
        <time>2018-10-02T10:31:06Z</time>
      </trkpt>
      <trkpt lat="45.94334" lon="4.72386">
        <ele>172</ele>
        <time>2018-10-02T10:31:07Z</time>
      </trkpt>
      <trkpt lat="45.94331" lon="4.7238">
        <ele>172</ele>
        <time>2018-10-02T10:31:08Z</time>
      </trkpt>
      <trkpt lat="45.94329" lon="4.72374">
        <ele>172</ele>
        <time>2018-10-02T10:31:09Z</time>
      </trkpt>
      <trkpt lat="45.94326" lon="4.72369">
        <ele>172</ele>
        <time>2018-10-02T10:31:10Z</time>
      </trkpt>
      <trkpt lat="45.94324" lon="4.72363">
        <ele>172</ele>
        <time>2018-10-02T10:31:11Z</time>
      </trkpt>
      <trkpt lat="45.94319" lon="4.72353">
        <ele>172</ele>
        <time>2018-10-02T10:31:13Z</time>
      </trkpt>
      <trkpt lat="45.94316" lon="4.72347">
        <ele>172</ele>
        <time>2018-10-02T10:31:14Z</time>
      </trkpt>
      <trkpt lat="45.94313" lon="4.72341">
        <ele>172</ele>
        <time>2018-10-02T10:31:15Z</time>
      </trkpt>
      <trkpt lat="45.9431" lon="4.72336">
        <ele>172</ele>
        <time>2018-10-02T10:31:16Z</time>
      </trkpt>
      <trkpt lat="45.94308" lon="4.72329">
        <ele>172</ele>
        <time>2018-10-02T10:31:17Z</time>
      </trkpt>
      <trkpt lat="45.94306" lon="4.72324">
        <ele>171</ele>
        <time>2018-10-02T10:31:18Z</time>
      </trkpt>
      <trkpt lat="45.94302" lon="4.72317">
        <ele>171</ele>
        <time>2018-10-02T10:31:19Z</time>
      </trkpt>
      <trkpt lat="45.94299" lon="4.7231">
        <ele>171</ele>
        <time>2018-10-02T10:31:20Z</time>
      </trkpt>
      <trkpt lat="45.94294" lon="4.72302">
        <ele>171</ele>
        <time>2018-10-02T10:31:21Z</time>
      </trkpt>
      <trkpt lat="45.94291" lon="4.72296">
        <ele>171</ele>
        <time>2018-10-02T10:31:22Z</time>
      </trkpt>
      <trkpt lat="45.94288" lon="4.7229">
        <ele>171</ele>
        <time>2018-10-02T10:31:23Z</time>
      </trkpt>
      <trkpt lat="45.94285" lon="4.72283">
        <ele>171</ele>
        <time>2018-10-02T10:31:24Z</time>
      </trkpt>
      <trkpt lat="45.94281" lon="4.72279">
        <ele>171</ele>
        <time>2018-10-02T10:31:25Z</time>
      </trkpt>
      <trkpt lat="45.94277" lon="4.72277">
        <ele>171</ele>
        <time>2018-10-02T10:31:26Z</time>
      </trkpt>
      <trkpt lat="45.94272" lon="4.72276">
        <ele>171</ele>
        <time>2018-10-02T10:31:27Z</time>
      </trkpt>
      <trkpt lat="45.94267" lon="4.72275">
        <ele>171</ele>
        <time>2018-10-02T10:31:28Z</time>
      </trkpt>
      <trkpt lat="45.94262" lon="4.72276">
        <ele>171</ele>
        <time>2018-10-02T10:31:29Z</time>
      </trkpt>
      <trkpt lat="45.94256" lon="4.72277">
        <ele>171</ele>
        <time>2018-10-02T10:31:30Z</time>
      </trkpt>
      <trkpt lat="45.9425" lon="4.72279">
        <ele>171</ele>
        <time>2018-10-02T10:31:31Z</time>
      </trkpt>
      <trkpt lat="45.94245" lon="4.72282">
        <ele>171</ele>
        <time>2018-10-02T10:31:32Z</time>
      </trkpt>
      <trkpt lat="45.9424" lon="4.72284">
        <ele>171</ele>
        <time>2018-10-02T10:31:33Z</time>
      </trkpt>
      <trkpt lat="45.94235" lon="4.72286">
        <ele>171</ele>
        <time>2018-10-02T10:31:34Z</time>
      </trkpt>
      <trkpt lat="45.9423" lon="4.72287">
        <ele>171</ele>
        <time>2018-10-02T10:31:35Z</time>
      </trkpt>
      <trkpt lat="45.94224" lon="4.72288">
        <ele>171</ele>
        <time>2018-10-02T10:31:36Z</time>
      </trkpt>
      <trkpt lat="45.94219" lon="4.72288">
        <ele>171</ele>
        <time>2018-10-02T10:31:37Z</time>
      </trkpt>
      <trkpt lat="45.94214" lon="4.72288">
        <ele>171</ele>
        <time>2018-10-02T10:31:38Z</time>
      </trkpt>
      <trkpt lat="45.9421" lon="4.72288">
        <ele>171</ele>
        <time>2018-10-02T10:31:39Z</time>
      </trkpt>
      <trkpt lat="45.94204" lon="4.72288">
        <ele>171</ele>
        <time>2018-10-02T10:31:40Z</time>
      </trkpt>
      <trkpt lat="45.942" lon="4.72288">
        <ele>171</ele>
        <time>2018-10-02T10:31:41Z</time>
      </trkpt>
      <trkpt lat="45.94195" lon="4.72287">
        <ele>171</ele>
        <time>2018-10-02T10:31:42Z</time>
      </trkpt>
      <trkpt lat="45.9419" lon="4.72287">
        <ele>171</ele>
        <time>2018-10-02T10:31:43Z</time>
      </trkpt>
      <trkpt lat="45.94185" lon="4.72287">
        <ele>171</ele>
        <time>2018-10-02T10:31:44Z</time>
      </trkpt>
      <trkpt lat="45.94181" lon="4.72288">
        <ele>171</ele>
        <time>2018-10-02T10:31:45Z</time>
      </trkpt>
      <trkpt lat="45.94175" lon="4.72287">
        <ele>171</ele>
        <time>2018-10-02T10:31:46Z</time>
      </trkpt>
      <trkpt lat="45.9417" lon="4.72287">
        <ele>171</ele>
        <time>2018-10-02T10:31:47Z</time>
      </trkpt>
      <trkpt lat="45.94165" lon="4.72286">
        <ele>171</ele>
        <time>2018-10-02T10:31:48Z</time>
      </trkpt>
      <trkpt lat="45.9416" lon="4.72285">
        <ele>171</ele>
        <time>2018-10-02T10:31:49Z</time>
      </trkpt>
      <trkpt lat="45.94155" lon="4.72283">
        <ele>171</ele>
        <time>2018-10-02T10:31:50Z</time>
      </trkpt>
      <trkpt lat="45.9415" lon="4.72281">
        <ele>171</ele>
        <time>2018-10-02T10:31:51Z</time>
      </trkpt>
      <trkpt lat="45.94145" lon="4.72279">
        <ele>171</ele>
        <time>2018-10-02T10:31:52Z</time>
      </trkpt>
      <trkpt lat="45.9414" lon="4.72276">
        <ele>171</ele>
        <time>2018-10-02T10:31:53Z</time>
      </trkpt>
      <trkpt lat="45.94134" lon="4.72274">
        <ele>171</ele>
        <time>2018-10-02T10:31:54Z</time>
      </trkpt>
      <trkpt lat="45.94128" lon="4.72271">
        <ele>171</ele>
        <time>2018-10-02T10:31:55Z</time>
      </trkpt>
      <trkpt lat="45.94123" lon="4.72269">
        <ele>171</ele>
        <time>2018-10-02T10:31:56Z</time>
      </trkpt>
      <trkpt lat="45.94117" lon="4.72266">
        <ele>171</ele>
        <time>2018-10-02T10:31:57Z</time>
      </trkpt>
      <trkpt lat="45.94111" lon="4.72264">
        <ele>171</ele>
        <time>2018-10-02T10:31:58Z</time>
      </trkpt>
      <trkpt lat="45.94105" lon="4.72262">
        <ele>171</ele>
        <time>2018-10-02T10:31:59Z</time>
      </trkpt>
      <trkpt lat="45.94099" lon="4.72262">
        <ele>171</ele>
        <time>2018-10-02T10:32:00Z</time>
      </trkpt>
      <trkpt lat="45.94094" lon="4.72262">
        <ele>171</ele>
        <time>2018-10-02T10:32:01Z</time>
      </trkpt>
      <trkpt lat="45.94088" lon="4.72263">
        <ele>171</ele>
        <time>2018-10-02T10:32:02Z</time>
      </trkpt>
      <trkpt lat="45.94082" lon="4.72265">
        <ele>171</ele>
        <time>2018-10-02T10:32:03Z</time>
      </trkpt>
      <trkpt lat="45.94077" lon="4.72267">
        <ele>171</ele>
        <time>2018-10-02T10:32:04Z</time>
      </trkpt>
      <trkpt lat="45.94072" lon="4.7227">
        <ele>171</ele>
        <time>2018-10-02T10:32:05Z</time>
      </trkpt>
      <trkpt lat="45.94067" lon="4.72274">
        <ele>171</ele>
        <time>2018-10-02T10:32:06Z</time>
      </trkpt>
      <trkpt lat="45.94063" lon="4.72279">
        <ele>171</ele>
        <time>2018-10-02T10:32:07Z</time>
      </trkpt>
      <trkpt lat="45.94059" lon="4.72284">
        <ele>171</ele>
        <time>2018-10-02T10:32:08Z</time>
      </trkpt>
      <trkpt lat="45.94054" lon="4.72289">
        <ele>171</ele>
        <time>2018-10-02T10:32:09Z</time>
      </trkpt>
      <trkpt lat="45.9405" lon="4.72295">
        <ele>171</ele>
        <time>2018-10-02T10:32:10Z</time>
      </trkpt>
      <trkpt lat="45.94046" lon="4.723">
        <ele>171</ele>
        <time>2018-10-02T10:32:11Z</time>
      </trkpt>
      <trkpt lat="45.94042" lon="4.72305">
        <ele>171</ele>
        <time>2018-10-02T10:32:12Z</time>
      </trkpt>
      <trkpt lat="45.94037" lon="4.72311">
        <ele>171</ele>
        <time>2018-10-02T10:32:13Z</time>
      </trkpt>
      <trkpt lat="45.94034" lon="4.72315">
        <ele>171</ele>
        <time>2018-10-02T10:32:14Z</time>
      </trkpt>
      <trkpt lat="45.94029" lon="4.7232">
        <ele>171</ele>
        <time>2018-10-02T10:32:15Z</time>
      </trkpt>
      <trkpt lat="45.94025" lon="4.72326">
        <ele>171</ele>
        <time>2018-10-02T10:32:16Z</time>
      </trkpt>
      <trkpt lat="45.94021" lon="4.72332">
        <ele>171</ele>
        <time>2018-10-02T10:32:17Z</time>
      </trkpt>
      <trkpt lat="45.94016" lon="4.72339">
        <ele>171</ele>
        <time>2018-10-02T10:32:18Z</time>
      </trkpt>
      <trkpt lat="45.94011" lon="4.72346">
        <ele>171</ele>
        <time>2018-10-02T10:32:19Z</time>
      </trkpt>
      <trkpt lat="45.94006" lon="4.72352">
        <ele>171</ele>
        <time>2018-10-02T10:32:20Z</time>
      </trkpt>
      <trkpt lat="45.94001" lon="4.72359">
        <ele>171</ele>
        <time>2018-10-02T10:32:21Z</time>
      </trkpt>
      <trkpt lat="45.93996" lon="4.72365">
        <ele>171</ele>
        <time>2018-10-02T10:32:22Z</time>
      </trkpt>
      <trkpt lat="45.9399" lon="4.7237">
        <ele>171</ele>
        <time>2018-10-02T10:32:23Z</time>
      </trkpt>
      <trkpt lat="45.93986" lon="4.72376">
        <ele>171</ele>
        <time>2018-10-02T10:32:24Z</time>
      </trkpt>
      <trkpt lat="45.93981" lon="4.72382">
        <ele>171</ele>
        <time>2018-10-02T10:32:25Z</time>
      </trkpt>
      <trkpt lat="45.93976" lon="4.72388">
        <ele>171</ele>
        <time>2018-10-02T10:32:26Z</time>
      </trkpt>
      <trkpt lat="45.93971" lon="4.72395">
        <ele>171</ele>
        <time>2018-10-02T10:32:27Z</time>
      </trkpt>
      <trkpt lat="45.93967" lon="4.724">
        <ele>171</ele>
        <time>2018-10-02T10:32:28Z</time>
      </trkpt>
      <trkpt lat="45.93963" lon="4.72405">
        <ele>171</ele>
        <time>2018-10-02T10:32:29Z</time>
      </trkpt>
      <trkpt lat="45.93958" lon="4.7241">
        <ele>171</ele>
        <time>2018-10-02T10:32:30Z</time>
      </trkpt>
      <trkpt lat="45.93954" lon="4.72414">
        <ele>171</ele>
        <time>2018-10-02T10:32:31Z</time>
      </trkpt>
      <trkpt lat="45.93951" lon="4.72418">
        <ele>171</ele>
        <time>2018-10-02T10:32:32Z</time>
      </trkpt>
      <trkpt lat="45.93946" lon="4.72423">
        <ele>171</ele>
        <time>2018-10-02T10:32:33Z</time>
      </trkpt>
      <trkpt lat="45.93942" lon="4.72428">
        <ele>171</ele>
        <time>2018-10-02T10:32:34Z</time>
      </trkpt>
      <trkpt lat="45.93937" lon="4.72433">
        <ele>171</ele>
        <time>2018-10-02T10:32:35Z</time>
      </trkpt>
      <trkpt lat="45.93933" lon="4.72438">
        <ele>171</ele>
        <time>2018-10-02T10:32:36Z</time>
      </trkpt>
      <trkpt lat="45.93929" lon="4.72442">
        <ele>171</ele>
        <time>2018-10-02T10:32:37Z</time>
      </trkpt>
      <trkpt lat="45.93925" lon="4.72446">
        <ele>171</ele>
        <time>2018-10-02T10:32:38Z</time>
      </trkpt>
      <trkpt lat="45.93921" lon="4.72451">
        <ele>171</ele>
        <time>2018-10-02T10:32:39Z</time>
      </trkpt>
      <trkpt lat="45.93917" lon="4.72455">
        <ele>171</ele>
        <time>2018-10-02T10:32:40Z</time>
      </trkpt>
      <trkpt lat="45.93914" lon="4.7246">
        <ele>172</ele>
        <time>2018-10-02T10:32:41Z</time>
      </trkpt>
      <trkpt lat="45.9391" lon="4.72465">
        <ele>172</ele>
        <time>2018-10-02T10:32:42Z</time>
      </trkpt>
      <trkpt lat="45.93907" lon="4.72471">
        <ele>172</ele>
        <time>2018-10-02T10:32:43Z</time>
      </trkpt>
      <trkpt lat="45.93903" lon="4.72475">
        <ele>172</ele>
        <time>2018-10-02T10:32:44Z</time>
      </trkpt>
      <trkpt lat="45.93899" lon="4.7248">
        <ele>172</ele>
        <time>2018-10-02T10:32:45Z</time>
      </trkpt>
      <trkpt lat="45.93896" lon="4.72484">
        <ele>172</ele>
        <time>2018-10-02T10:32:46Z</time>
      </trkpt>
      <trkpt lat="45.93889" lon="4.72492">
        <ele>172</ele>
        <time>2018-10-02T10:32:48Z</time>
      </trkpt>
      <trkpt lat="45.93886" lon="4.72496">
        <ele>172</ele>
        <time>2018-10-02T10:32:49Z</time>
      </trkpt>
      <trkpt lat="45.93883" lon="4.72501">
        <ele>173</ele>
        <time>2018-10-02T10:32:50Z</time>
      </trkpt>
      <trkpt lat="45.93879" lon="4.72505">
        <ele>173</ele>
        <time>2018-10-02T10:32:51Z</time>
      </trkpt>
      <trkpt lat="45.93871" lon="4.7251">
        <ele>173</ele>
        <time>2018-10-02T10:32:53Z</time>
      </trkpt>
      <trkpt lat="45.93867" lon="4.7251">
        <ele>173</ele>
        <time>2018-10-02T10:32:54Z</time>
      </trkpt>
      <trkpt lat="45.93862" lon="4.72509">
        <ele>173</ele>
        <time>2018-10-02T10:32:55Z</time>
      </trkpt>
      <trkpt lat="45.93857" lon="4.72508">
        <ele>173</ele>
        <time>2018-10-02T10:32:56Z</time>
      </trkpt>
      <trkpt lat="45.93853" lon="4.72502">
        <ele>173</ele>
        <time>2018-10-02T10:32:58Z</time>
      </trkpt>
      <trkpt lat="45.93831" lon="4.72482">
        <ele>173</ele>
        <time>2018-10-02T10:33:03Z</time>
      </trkpt>
      <trkpt lat="45.93825" lon="4.72477">
        <ele>173</ele>
        <time>2018-10-02T10:33:05Z</time>
      </trkpt>
      <trkpt lat="45.9382" lon="4.72474">
        <ele>172</ele>
        <time>2018-10-02T10:33:06Z</time>
      </trkpt>
      <trkpt lat="45.93816" lon="4.72466">
        <ele>172</ele>
        <time>2018-10-02T10:33:08Z</time>
      </trkpt>
      <trkpt lat="45.93812" lon="4.72464">
        <ele>172</ele>
        <time>2018-10-02T10:33:09Z</time>
      </trkpt>
      <trkpt lat="45.93808" lon="4.72462">
        <ele>172</ele>
        <time>2018-10-02T10:33:10Z</time>
      </trkpt>
      <trkpt lat="45.93801" lon="4.72457">
        <ele>172</ele>
        <time>2018-10-02T10:33:11Z</time>
      </trkpt>
      <trkpt lat="45.93794" lon="4.72449">
        <ele>172</ele>
        <time>2018-10-02T10:33:13Z</time>
      </trkpt>
      <trkpt lat="45.9379" lon="4.72444">
        <ele>172</ele>
        <time>2018-10-02T10:33:14Z</time>
      </trkpt>
      <trkpt lat="45.93784" lon="4.7244">
        <ele>172</ele>
        <time>2018-10-02T10:33:17Z</time>
      </trkpt>
      <trkpt lat="45.93778" lon="4.72433">
        <ele>172</ele>
        <time>2018-10-02T10:33:18Z</time>
      </trkpt>
      <trkpt lat="45.93773" lon="4.72428">
        <ele>171</ele>
        <time>2018-10-02T10:33:19Z</time>
      </trkpt>
      <trkpt lat="45.9377" lon="4.72423">
        <ele>171</ele>
        <time>2018-10-02T10:33:20Z</time>
      </trkpt>
      <trkpt lat="45.93763" lon="4.72415">
        <ele>171</ele>
        <time>2018-10-02T10:33:22Z</time>
      </trkpt>
      <trkpt lat="45.93759" lon="4.72412">
        <ele>171</ele>
        <time>2018-10-02T10:33:23Z</time>
      </trkpt>
      <trkpt lat="45.93754" lon="4.72407">
        <ele>171</ele>
        <time>2018-10-02T10:33:24Z</time>
      </trkpt>
      <trkpt lat="45.93749" lon="4.72403">
        <ele>171</ele>
        <time>2018-10-02T10:33:25Z</time>
      </trkpt>
      <trkpt lat="45.93745" lon="4.72399">
        <ele>171</ele>
        <time>2018-10-02T10:33:26Z</time>
      </trkpt>
      <trkpt lat="45.93741" lon="4.72396">
        <ele>171</ele>
        <time>2018-10-02T10:33:27Z</time>
      </trkpt>
      <trkpt lat="45.93737" lon="4.72391">
        <ele>171</ele>
        <time>2018-10-02T10:33:28Z</time>
      </trkpt>
      <trkpt lat="45.93731" lon="4.72388">
        <ele>171</ele>
        <time>2018-10-02T10:33:29Z</time>
      </trkpt>
      <trkpt lat="45.93726" lon="4.72384">
        <ele>171</ele>
        <time>2018-10-02T10:33:30Z</time>
      </trkpt>
      <trkpt lat="45.93722" lon="4.7238">
        <ele>171</ele>
        <time>2018-10-02T10:33:31Z</time>
      </trkpt>
      <trkpt lat="45.93717" lon="4.72374">
        <ele>172</ele>
        <time>2018-10-02T10:33:32Z</time>
      </trkpt>
      <trkpt lat="45.93712" lon="4.7237">
        <ele>172</ele>
        <time>2018-10-02T10:33:33Z</time>
      </trkpt>
      <trkpt lat="45.93707" lon="4.72365">
        <ele>171</ele>
        <time>2018-10-02T10:33:34Z</time>
      </trkpt>
      <trkpt lat="45.93701" lon="4.7236">
        <ele>171</ele>
        <time>2018-10-02T10:33:35Z</time>
      </trkpt>
      <trkpt lat="45.93696" lon="4.72355">
        <ele>171</ele>
        <time>2018-10-02T10:33:36Z</time>
      </trkpt>
      <trkpt lat="45.93686" lon="4.72348">
        <ele>171</ele>
        <time>2018-10-02T10:33:38Z</time>
      </trkpt>
      <trkpt lat="45.93684" lon="4.72342">
        <ele>171</ele>
        <time>2018-10-02T10:33:39Z</time>
      </trkpt>
      <trkpt lat="45.9368" lon="4.72335">
        <ele>171</ele>
        <time>2018-10-02T10:33:40Z</time>
      </trkpt>
      <trkpt lat="45.93675" lon="4.72331">
        <ele>171</ele>
        <time>2018-10-02T10:33:41Z</time>
      </trkpt>
      <trkpt lat="45.93671" lon="4.72326">
        <ele>171</ele>
        <time>2018-10-02T10:33:42Z</time>
      </trkpt>
      <trkpt lat="45.93667" lon="4.72321">
        <ele>171</ele>
        <time>2018-10-02T10:33:43Z</time>
      </trkpt>
      <trkpt lat="45.93663" lon="4.72315">
        <ele>172</ele>
        <time>2018-10-02T10:33:44Z</time>
      </trkpt>
      <trkpt lat="45.9366" lon="4.72311">
        <ele>172</ele>
        <time>2018-10-02T10:33:45Z</time>
      </trkpt>
      <trkpt lat="45.93656" lon="4.72308">
        <ele>172</ele>
        <time>2018-10-02T10:33:46Z</time>
      </trkpt>
      <trkpt lat="45.93652" lon="4.72304">
        <ele>172</ele>
        <time>2018-10-02T10:33:47Z</time>
      </trkpt>
      <trkpt lat="45.93647" lon="4.72301">
        <ele>172</ele>
        <time>2018-10-02T10:33:48Z</time>
      </trkpt>
      <trkpt lat="45.93645" lon="4.723">
        <ele>172</ele>
        <time>2018-10-02T10:33:49Z</time>
      </trkpt>
      <trkpt lat="45.93638" lon="4.72294">
        <ele>172</ele>
        <time>2018-10-02T10:33:50Z</time>
      </trkpt>
      <trkpt lat="45.93634" lon="4.72291">
        <ele>172</ele>
        <time>2018-10-02T10:33:51Z</time>
      </trkpt>
      <trkpt lat="45.93629" lon="4.72289">
        <ele>172</ele>
        <time>2018-10-02T10:33:52Z</time>
      </trkpt>
      <trkpt lat="45.93622" lon="4.72282">
        <ele>172</ele>
        <time>2018-10-02T10:33:54Z</time>
      </trkpt>
      <trkpt lat="45.9362" lon="4.7228">
        <ele>172</ele>
        <time>2018-10-02T10:33:55Z</time>
      </trkpt>
      <trkpt lat="45.93612" lon="4.72274">
        <ele>172</ele>
        <time>2018-10-02T10:33:57Z</time>
      </trkpt>
      <trkpt lat="45.93609" lon="4.7227">
        <ele>172</ele>
        <time>2018-10-02T10:33:58Z</time>
      </trkpt>
      <trkpt lat="45.93602" lon="4.72265">
        <ele>173</ele>
        <time>2018-10-02T10:34:00Z</time>
      </trkpt>
      <trkpt lat="45.93599" lon="4.72261">
        <ele>173</ele>
        <time>2018-10-02T10:34:01Z</time>
      </trkpt>
      <trkpt lat="45.93593" lon="4.72253">
        <ele>173</ele>
        <time>2018-10-02T10:34:03Z</time>
      </trkpt>
      <trkpt lat="45.9359" lon="4.72249">
        <ele>173</ele>
        <time>2018-10-02T10:34:04Z</time>
      </trkpt>
      <trkpt lat="45.93584" lon="4.7224">
        <ele>173</ele>
        <time>2018-10-02T10:34:06Z</time>
      </trkpt>
      <trkpt lat="45.93581" lon="4.72236">
        <ele>173</ele>
        <time>2018-10-02T10:34:07Z</time>
      </trkpt>
      <trkpt lat="45.93574" lon="4.72229">
        <ele>173</ele>
        <time>2018-10-02T10:34:09Z</time>
      </trkpt>
      <trkpt lat="45.93573" lon="4.72228">
        <ele>173</ele>
        <time>2018-10-02T10:34:10Z</time>
      </trkpt>
      <trkpt lat="45.93567" lon="4.72222">
        <ele>173</ele>
        <time>2018-10-02T10:34:13Z</time>
      </trkpt>
      <trkpt lat="45.93564" lon="4.7222">
        <ele>173</ele>
        <time>2018-10-02T10:34:14Z</time>
      </trkpt>
      <trkpt lat="45.93556" lon="4.72218">
        <ele>173</ele>
        <time>2018-10-02T10:34:17Z</time>
      </trkpt>
      <trkpt lat="45.93553" lon="4.72219">
        <ele>173</ele>
        <time>2018-10-02T10:34:18Z</time>
      </trkpt>
      <trkpt lat="45.93544" lon="4.72226">
        <ele>172</ele>
        <time>2018-10-02T10:34:19Z</time>
      </trkpt>
      <trkpt lat="45.9354" lon="4.72236">
        <ele>172</ele>
        <time>2018-10-02T10:34:21Z</time>
      </trkpt>
      <trkpt lat="45.93538" lon="4.72241">
        <ele>172</ele>
        <time>2018-10-02T10:34:22Z</time>
      </trkpt>
      <trkpt lat="45.93535" lon="4.7225">
        <ele>172</ele>
        <time>2018-10-02T10:34:24Z</time>
      </trkpt>
      <trkpt lat="45.93534" lon="4.72253">
        <ele>172</ele>
        <time>2018-10-02T10:34:25Z</time>
      </trkpt>
      <trkpt lat="45.9353" lon="4.72264">
        <ele>172</ele>
        <time>2018-10-02T10:34:28Z</time>
      </trkpt>
      <trkpt lat="45.93528" lon="4.72268">
        <ele>172</ele>
        <time>2018-10-02T10:34:29Z</time>
      </trkpt>
      <trkpt lat="45.93523" lon="4.72279">
        <ele>172</ele>
        <time>2018-10-02T10:34:30Z</time>
      </trkpt>
      <trkpt lat="45.93519" lon="4.72289">
        <ele>172</ele>
        <time>2018-10-02T10:34:32Z</time>
      </trkpt>
      <trkpt lat="45.93517" lon="4.72295">
        <ele>172</ele>
        <time>2018-10-02T10:34:33Z</time>
      </trkpt>
      <trkpt lat="45.93515" lon="4.723">
        <ele>172</ele>
        <time>2018-10-02T10:34:34Z</time>
      </trkpt>
      <trkpt lat="45.93511" lon="4.72304">
        <ele>173</ele>
        <time>2018-10-02T10:34:35Z</time>
      </trkpt>
      <trkpt lat="45.93508" lon="4.72309">
        <ele>173</ele>
        <time>2018-10-02T10:34:36Z</time>
      </trkpt>
      <trkpt lat="45.93504" lon="4.72314">
        <ele>173</ele>
        <time>2018-10-02T10:34:37Z</time>
      </trkpt>
      <trkpt lat="45.935" lon="4.72319">
        <ele>173</ele>
        <time>2018-10-02T10:34:38Z</time>
      </trkpt>
      <trkpt lat="45.93497" lon="4.72324">
        <ele>173</ele>
        <time>2018-10-02T10:34:39Z</time>
      </trkpt>
      <trkpt lat="45.93493" lon="4.7233">
        <ele>173</ele>
        <time>2018-10-02T10:34:40Z</time>
      </trkpt>
      <trkpt lat="45.93489" lon="4.72335">
        <ele>173</ele>
        <time>2018-10-02T10:34:41Z</time>
      </trkpt>
      <trkpt lat="45.93485" lon="4.7234">
        <ele>173</ele>
        <time>2018-10-02T10:34:42Z</time>
      </trkpt>
      <trkpt lat="45.93481" lon="4.72345">
        <ele>173</ele>
        <time>2018-10-02T10:34:43Z</time>
      </trkpt>
      <trkpt lat="45.93477" lon="4.7235">
        <ele>173</ele>
        <time>2018-10-02T10:34:44Z</time>
      </trkpt>
      <trkpt lat="45.93474" lon="4.72356">
        <ele>173</ele>
        <time>2018-10-02T10:34:45Z</time>
      </trkpt>
      <trkpt lat="45.9347" lon="4.72361">
        <ele>173</ele>
        <time>2018-10-02T10:34:46Z</time>
      </trkpt>
      <trkpt lat="45.93467" lon="4.72366">
        <ele>173</ele>
        <time>2018-10-02T10:34:47Z</time>
      </trkpt>
      <trkpt lat="45.93463" lon="4.7237">
        <ele>173</ele>
        <time>2018-10-02T10:34:48Z</time>
      </trkpt>
      <trkpt lat="45.93458" lon="4.72374">
        <ele>173</ele>
        <time>2018-10-02T10:34:49Z</time>
      </trkpt>
      <trkpt lat="45.93455" lon="4.72378">
        <ele>173</ele>
        <time>2018-10-02T10:34:50Z</time>
      </trkpt>
      <trkpt lat="45.93451" lon="4.72383">
        <ele>173</ele>
        <time>2018-10-02T10:34:51Z</time>
      </trkpt>
      <trkpt lat="45.93447" lon="4.72387">
        <ele>173</ele>
        <time>2018-10-02T10:34:52Z</time>
      </trkpt>
      <trkpt lat="45.93443" lon="4.7239">
        <ele>173</ele>
        <time>2018-10-02T10:34:53Z</time>
      </trkpt>
      <trkpt lat="45.93435" lon="4.72396">
        <ele>173</ele>
        <time>2018-10-02T10:34:55Z</time>
      </trkpt>
      <trkpt lat="45.93431" lon="4.72398">
        <ele>174</ele>
        <time>2018-10-02T10:34:56Z</time>
      </trkpt>
      <trkpt lat="45.93426" lon="4.724">
        <ele>174</ele>
        <time>2018-10-02T10:34:57Z</time>
      </trkpt>
      <trkpt lat="45.93421" lon="4.72403">
        <ele>174</ele>
        <time>2018-10-02T10:34:58Z</time>
      </trkpt>
      <trkpt lat="45.93417" lon="4.72405">
        <ele>174</ele>
        <time>2018-10-02T10:34:59Z</time>
      </trkpt>
      <trkpt lat="45.93412" lon="4.72406">
        <ele>174</ele>
        <time>2018-10-02T10:35:00Z</time>
      </trkpt>
      <trkpt lat="45.93404" lon="4.72407">
        <ele>174</ele>
        <time>2018-10-02T10:35:02Z</time>
      </trkpt>
      <trkpt lat="45.934" lon="4.72406">
        <ele>174</ele>
        <time>2018-10-02T10:35:03Z</time>
      </trkpt>
      <trkpt lat="45.93391" lon="4.72405">
        <ele>174</ele>
        <time>2018-10-02T10:35:05Z</time>
      </trkpt>
      <trkpt lat="45.93387" lon="4.72406">
        <ele>174</ele>
        <time>2018-10-02T10:35:06Z</time>
      </trkpt>
      <trkpt lat="45.93382" lon="4.72416">
        <ele>174</ele>
        <time>2018-10-02T10:35:08Z</time>
      </trkpt>
      <trkpt lat="45.93381" lon="4.72423">
        <ele>173</ele>
        <time>2018-10-02T10:35:09Z</time>
      </trkpt>
      <trkpt lat="45.93381" lon="4.7243">
        <ele>173</ele>
        <time>2018-10-02T10:35:10Z</time>
      </trkpt>
      <trkpt lat="45.93384" lon="4.72437">
        <ele>173</ele>
        <time>2018-10-02T10:35:11Z</time>
      </trkpt>
      <trkpt lat="45.93386" lon="4.72444">
        <ele>173</ele>
        <time>2018-10-02T10:35:12Z</time>
      </trkpt>
      <trkpt lat="45.93387" lon="4.72451">
        <ele>173</ele>
        <time>2018-10-02T10:35:13Z</time>
      </trkpt>
      <trkpt lat="45.93387" lon="4.72457">
        <ele>173</ele>
        <time>2018-10-02T10:35:14Z</time>
      </trkpt>
      <trkpt lat="45.93385" lon="4.72464">
        <ele>173</ele>
        <time>2018-10-02T10:35:15Z</time>
      </trkpt>
      <trkpt lat="45.93382" lon="4.7247">
        <ele>173</ele>
        <time>2018-10-02T10:35:16Z</time>
      </trkpt>
      <trkpt lat="45.93379" lon="4.72474">
        <ele>173</ele>
        <time>2018-10-02T10:35:17Z</time>
      </trkpt>
      <trkpt lat="45.93375" lon="4.72478">
        <ele>173</ele>
        <time>2018-10-02T10:35:18Z</time>
      </trkpt>
      <trkpt lat="45.93372" lon="4.72483">
        <ele>173</ele>
        <time>2018-10-02T10:35:19Z</time>
      </trkpt>
      <trkpt lat="45.93368" lon="4.72486">
        <ele>173</ele>
        <time>2018-10-02T10:35:20Z</time>
      </trkpt>
      <trkpt lat="45.93364" lon="4.7249">
        <ele>173</ele>
        <time>2018-10-02T10:35:21Z</time>
      </trkpt>
      <trkpt lat="45.9336" lon="4.72494">
        <ele>173</ele>
        <time>2018-10-02T10:35:22Z</time>
      </trkpt>
      <trkpt lat="45.93356" lon="4.72498">
        <ele>173</ele>
        <time>2018-10-02T10:35:23Z</time>
      </trkpt>
      <trkpt lat="45.93353" lon="4.72504">
        <ele>172</ele>
        <time>2018-10-02T10:35:24Z</time>
      </trkpt>
      <trkpt lat="45.93348" lon="4.72508">
        <ele>172</ele>
        <time>2018-10-02T10:35:25Z</time>
      </trkpt>
      <trkpt lat="45.93345" lon="4.72513">
        <ele>172</ele>
        <time>2018-10-02T10:35:26Z</time>
      </trkpt>
      <trkpt lat="45.93341" lon="4.72517">
        <ele>172</ele>
        <time>2018-10-02T10:35:27Z</time>
      </trkpt>
      <trkpt lat="45.93337" lon="4.72521">
        <ele>172</ele>
        <time>2018-10-02T10:35:28Z</time>
      </trkpt>
      <trkpt lat="45.93334" lon="4.72525">
        <ele>172</ele>
        <time>2018-10-02T10:35:29Z</time>
      </trkpt>
      <trkpt lat="45.9333" lon="4.72529">
        <ele>172</ele>
        <time>2018-10-02T10:35:30Z</time>
      </trkpt>
      <trkpt lat="45.93326" lon="4.72533">
        <ele>172</ele>
        <time>2018-10-02T10:35:31Z</time>
      </trkpt>
      <trkpt lat="45.93319" lon="4.72541">
        <ele>172</ele>
        <time>2018-10-02T10:35:33Z</time>
      </trkpt>
      <trkpt lat="45.93316" lon="4.72545">
        <ele>172</ele>
        <time>2018-10-02T10:35:34Z</time>
      </trkpt>
      <trkpt lat="45.93311" lon="4.7255">
        <ele>172</ele>
        <time>2018-10-02T10:35:35Z</time>
      </trkpt>
      <trkpt lat="45.93308" lon="4.72554">
        <ele>172</ele>
        <time>2018-10-02T10:35:36Z</time>
      </trkpt>
      <trkpt lat="45.93304" lon="4.72559">
        <ele>172</ele>
        <time>2018-10-02T10:35:37Z</time>
      </trkpt>
      <trkpt lat="45.933" lon="4.72564">
        <ele>172</ele>
        <time>2018-10-02T10:35:38Z</time>
      </trkpt>
      <trkpt lat="45.93295" lon="4.72568">
        <ele>172</ele>
        <time>2018-10-02T10:35:39Z</time>
      </trkpt>
      <trkpt lat="45.93292" lon="4.72572">
        <ele>172</ele>
        <time>2018-10-02T10:35:40Z</time>
      </trkpt>
      <trkpt lat="45.93288" lon="4.72576">
        <ele>172</ele>
        <time>2018-10-02T10:35:41Z</time>
      </trkpt>
      <trkpt lat="45.93284" lon="4.7258">
        <ele>171</ele>
        <time>2018-10-02T10:35:42Z</time>
      </trkpt>
      <trkpt lat="45.93278" lon="4.72586">
        <ele>170</ele>
        <time>2018-10-02T10:35:44Z</time>
      </trkpt>
      <trkpt lat="45.93274" lon="4.7259">
        <ele>170</ele>
        <time>2018-10-02T10:35:45Z</time>
      </trkpt>
      <trkpt lat="45.93271" lon="4.72595">
        <ele>170</ele>
        <time>2018-10-02T10:35:46Z</time>
      </trkpt>
      <trkpt lat="45.93268" lon="4.726">
        <ele>170</ele>
        <time>2018-10-02T10:35:47Z</time>
      </trkpt>
      <trkpt lat="45.93264" lon="4.72606">
        <ele>170</ele>
        <time>2018-10-02T10:35:48Z</time>
      </trkpt>
      <trkpt lat="45.93259" lon="4.72609">
        <ele>170</ele>
        <time>2018-10-02T10:35:49Z</time>
      </trkpt>
      <trkpt lat="45.93253" lon="4.72617">
        <ele>170</ele>
        <time>2018-10-02T10:35:51Z</time>
      </trkpt>
      <trkpt lat="45.9325" lon="4.72621">
        <ele>170</ele>
        <time>2018-10-02T10:35:52Z</time>
      </trkpt>
      <trkpt lat="45.93243" lon="4.72629">
        <ele>170</ele>
        <time>2018-10-02T10:35:54Z</time>
      </trkpt>
      <trkpt lat="45.93239" lon="4.72634">
        <ele>170</ele>
        <time>2018-10-02T10:35:55Z</time>
      </trkpt>
      <trkpt lat="45.93235" lon="4.7264">
        <ele>170</ele>
        <time>2018-10-02T10:35:56Z</time>
      </trkpt>
      <trkpt lat="45.9323" lon="4.72645">
        <ele>170</ele>
        <time>2018-10-02T10:35:57Z</time>
      </trkpt>
      <trkpt lat="45.93225" lon="4.7265">
        <ele>170</ele>
        <time>2018-10-02T10:35:58Z</time>
      </trkpt>
      <trkpt lat="45.93222" lon="4.72656">
        <ele>170</ele>
        <time>2018-10-02T10:35:59Z</time>
      </trkpt>
      <trkpt lat="45.93218" lon="4.7266">
        <ele>170</ele>
        <time>2018-10-02T10:36:00Z</time>
      </trkpt>
      <trkpt lat="45.93214" lon="4.72664">
        <ele>170</ele>
        <time>2018-10-02T10:36:01Z</time>
      </trkpt>
      <trkpt lat="45.9321" lon="4.72669">
        <ele>169</ele>
        <time>2018-10-02T10:36:02Z</time>
      </trkpt>
      <trkpt lat="45.93206" lon="4.72675">
        <ele>169</ele>
        <time>2018-10-02T10:36:03Z</time>
      </trkpt>
      <trkpt lat="45.93199" lon="4.72682">
        <ele>169</ele>
        <time>2018-10-02T10:36:05Z</time>
      </trkpt>
      <trkpt lat="45.93196" lon="4.72687">
        <ele>169</ele>
        <time>2018-10-02T10:36:06Z</time>
      </trkpt>
      <trkpt lat="45.93192" lon="4.72691">
        <ele>169</ele>
        <time>2018-10-02T10:36:07Z</time>
      </trkpt>
      <trkpt lat="45.93187" lon="4.72695">
        <ele>169</ele>
        <time>2018-10-02T10:36:08Z</time>
      </trkpt>
      <trkpt lat="45.93184" lon="4.727">
        <ele>169</ele>
        <time>2018-10-02T10:36:09Z</time>
      </trkpt>
      <trkpt lat="45.9318" lon="4.72706">
        <ele>169</ele>
        <time>2018-10-02T10:36:10Z</time>
      </trkpt>
      <trkpt lat="45.93176" lon="4.72711">
        <ele>169</ele>
        <time>2018-10-02T10:36:11Z</time>
      </trkpt>
      <trkpt lat="45.93171" lon="4.72716">
        <ele>170</ele>
        <time>2018-10-02T10:36:12Z</time>
      </trkpt>
      <trkpt lat="45.93168" lon="4.72721">
        <ele>170</ele>
        <time>2018-10-02T10:36:13Z</time>
      </trkpt>
      <trkpt lat="45.93163" lon="4.72727">
        <ele>170</ele>
        <time>2018-10-02T10:36:14Z</time>
      </trkpt>
      <trkpt lat="45.93158" lon="4.72732">
        <ele>170</ele>
        <time>2018-10-02T10:36:15Z</time>
      </trkpt>
      <trkpt lat="45.93154" lon="4.72736">
        <ele>170</ele>
        <time>2018-10-02T10:36:16Z</time>
      </trkpt>
      <trkpt lat="45.9315" lon="4.72742">
        <ele>170</ele>
        <time>2018-10-02T10:36:17Z</time>
      </trkpt>
      <trkpt lat="45.93145" lon="4.72746">
        <ele>170</ele>
        <time>2018-10-02T10:36:18Z</time>
      </trkpt>
      <trkpt lat="45.9314" lon="4.72752">
        <ele>171</ele>
        <time>2018-10-02T10:36:19Z</time>
      </trkpt>
      <trkpt lat="45.93136" lon="4.72757">
        <ele>171</ele>
        <time>2018-10-02T10:36:20Z</time>
      </trkpt>
      <trkpt lat="45.93132" lon="4.72762">
        <ele>171</ele>
        <time>2018-10-02T10:36:21Z</time>
      </trkpt>
      <trkpt lat="45.93127" lon="4.72768">
        <ele>171</ele>
        <time>2018-10-02T10:36:22Z</time>
      </trkpt>
      <trkpt lat="45.93123" lon="4.72774">
        <ele>171</ele>
        <time>2018-10-02T10:36:23Z</time>
      </trkpt>
      <trkpt lat="45.93118" lon="4.7278">
        <ele>171</ele>
        <time>2018-10-02T10:36:24Z</time>
      </trkpt>
      <trkpt lat="45.93113" lon="4.72786">
        <ele>171</ele>
        <time>2018-10-02T10:36:25Z</time>
      </trkpt>
      <trkpt lat="45.93108" lon="4.72792">
        <ele>171</ele>
        <time>2018-10-02T10:36:26Z</time>
      </trkpt>
      <trkpt lat="45.93104" lon="4.72798">
        <ele>171</ele>
        <time>2018-10-02T10:36:27Z</time>
      </trkpt>
      <trkpt lat="45.931" lon="4.72804">
        <ele>171</ele>
        <time>2018-10-02T10:36:28Z</time>
      </trkpt>
      <trkpt lat="45.93095" lon="4.72808">
        <ele>172</ele>
        <time>2018-10-02T10:36:29Z</time>
      </trkpt>
      <trkpt lat="45.9309" lon="4.72812">
        <ele>172</ele>
        <time>2018-10-02T10:36:30Z</time>
      </trkpt>
      <trkpt lat="45.93086" lon="4.72817">
        <ele>172</ele>
        <time>2018-10-02T10:36:31Z</time>
      </trkpt>
      <trkpt lat="45.93082" lon="4.72821">
        <ele>173</ele>
        <time>2018-10-02T10:36:32Z</time>
      </trkpt>
      <trkpt lat="45.93073" lon="4.72824">
        <ele>173</ele>
        <time>2018-10-02T10:36:36Z</time>
      </trkpt>
      <trkpt lat="45.93066" lon="4.72827">
        <ele>173</ele>
        <time>2018-10-02T10:36:37Z</time>
      </trkpt>
      <trkpt lat="45.93062" lon="4.72831">
        <ele>173</ele>
        <time>2018-10-02T10:36:38Z</time>
      </trkpt>
      <trkpt lat="45.93059" lon="4.72839">
        <ele>172</ele>
        <time>2018-10-02T10:36:39Z</time>
      </trkpt>
      <trkpt lat="45.9305" lon="4.72853">
        <ele>172</ele>
        <time>2018-10-02T10:36:40Z</time>
      </trkpt>
      <trkpt lat="45.93046" lon="4.72852">
        <ele>172</ele>
        <time>2018-10-02T10:36:41Z</time>
      </trkpt>
      <trkpt lat="45.93041" lon="4.72859">
        <ele>172</ele>
        <time>2018-10-02T10:36:42Z</time>
      </trkpt>
      <trkpt lat="45.93035" lon="4.72864">
        <ele>172</ele>
        <time>2018-10-02T10:36:43Z</time>
      </trkpt>
      <trkpt lat="45.93033" lon="4.72869">
        <ele>172</ele>
        <time>2018-10-02T10:36:44Z</time>
      </trkpt>
      <trkpt lat="45.93029" lon="4.72873">
        <ele>172</ele>
        <time>2018-10-02T10:36:45Z</time>
      </trkpt>
      <trkpt lat="45.93025" lon="4.72877">
        <ele>172</ele>
        <time>2018-10-02T10:36:46Z</time>
      </trkpt>
      <trkpt lat="45.93021" lon="4.72882">
        <ele>172</ele>
        <time>2018-10-02T10:36:47Z</time>
      </trkpt>
      <trkpt lat="45.93017" lon="4.72886">
        <ele>172</ele>
        <time>2018-10-02T10:36:48Z</time>
      </trkpt>
      <trkpt lat="45.93013" lon="4.72891">
        <ele>172</ele>
        <time>2018-10-02T10:36:49Z</time>
      </trkpt>
      <trkpt lat="45.93009" lon="4.72897">
        <ele>172</ele>
        <time>2018-10-02T10:36:50Z</time>
      </trkpt>
      <trkpt lat="45.93005" lon="4.72902">
        <ele>171</ele>
        <time>2018-10-02T10:36:51Z</time>
      </trkpt>
      <trkpt lat="45.93" lon="4.72908">
        <ele>171</ele>
        <time>2018-10-02T10:36:52Z</time>
      </trkpt>
      <trkpt lat="45.92996" lon="4.72914">
        <ele>171</ele>
        <time>2018-10-02T10:36:53Z</time>
      </trkpt>
      <trkpt lat="45.92992" lon="4.72921">
        <ele>171</ele>
        <time>2018-10-02T10:36:54Z</time>
      </trkpt>
      <trkpt lat="45.92987" lon="4.72926">
        <ele>171</ele>
        <time>2018-10-02T10:36:55Z</time>
      </trkpt>
      <trkpt lat="45.92983" lon="4.72929">
        <ele>171</ele>
        <time>2018-10-02T10:36:56Z</time>
      </trkpt>
      <trkpt lat="45.92979" lon="4.72934">
        <ele>171</ele>
        <time>2018-10-02T10:36:57Z</time>
      </trkpt>
      <trkpt lat="45.92975" lon="4.72939">
        <ele>171</ele>
        <time>2018-10-02T10:36:58Z</time>
      </trkpt>
      <trkpt lat="45.92969" lon="4.72946">
        <ele>171</ele>
        <time>2018-10-02T10:37:00Z</time>
      </trkpt>
      <trkpt lat="45.92965" lon="4.72951">
        <ele>171</ele>
        <time>2018-10-02T10:37:01Z</time>
      </trkpt>
      <trkpt lat="45.92962" lon="4.72955">
        <ele>171</ele>
        <time>2018-10-02T10:37:02Z</time>
      </trkpt>
      <trkpt lat="45.92958" lon="4.72959">
        <ele>171</ele>
        <time>2018-10-02T10:37:03Z</time>
      </trkpt>
      <trkpt lat="45.92954" lon="4.72964">
        <ele>171</ele>
        <time>2018-10-02T10:37:04Z</time>
      </trkpt>
      <trkpt lat="45.9295" lon="4.72969">
        <ele>171</ele>
        <time>2018-10-02T10:37:05Z</time>
      </trkpt>
      <trkpt lat="45.92946" lon="4.72973">
        <ele>171</ele>
        <time>2018-10-02T10:37:06Z</time>
      </trkpt>
      <trkpt lat="45.92943" lon="4.72977">
        <ele>171</ele>
        <time>2018-10-02T10:37:07Z</time>
      </trkpt>
      <trkpt lat="45.92939" lon="4.72983">
        <ele>171</ele>
        <time>2018-10-02T10:37:08Z</time>
      </trkpt>
      <trkpt lat="45.92935" lon="4.72987">
        <ele>171</ele>
        <time>2018-10-02T10:37:09Z</time>
      </trkpt>
      <trkpt lat="45.92929" lon="4.72994">
        <ele>172</ele>
        <time>2018-10-02T10:37:11Z</time>
      </trkpt>
      <trkpt lat="45.92925" lon="4.72999">
        <ele>172</ele>
        <time>2018-10-02T10:37:12Z</time>
      </trkpt>
      <trkpt lat="45.92922" lon="4.73004">
        <ele>172</ele>
        <time>2018-10-02T10:37:13Z</time>
      </trkpt>
      <trkpt lat="45.9292" lon="4.7301">
        <ele>172</ele>
        <time>2018-10-02T10:37:14Z</time>
      </trkpt>
      <trkpt lat="45.92914" lon="4.73018">
        <ele>172</ele>
        <time>2018-10-02T10:37:16Z</time>
      </trkpt>
      <trkpt lat="45.9291" lon="4.73022">
        <ele>172</ele>
        <time>2018-10-02T10:37:17Z</time>
      </trkpt>
      <trkpt lat="45.92906" lon="4.73026">
        <ele>172</ele>
        <time>2018-10-02T10:37:18Z</time>
      </trkpt>
      <trkpt lat="45.92902" lon="4.7303">
        <ele>172</ele>
        <time>2018-10-02T10:37:19Z</time>
      </trkpt>
      <trkpt lat="45.92899" lon="4.73034">
        <ele>172</ele>
        <time>2018-10-02T10:37:20Z</time>
      </trkpt>
      <trkpt lat="45.92896" lon="4.73039">
        <ele>172</ele>
        <time>2018-10-02T10:37:21Z</time>
      </trkpt>
      <trkpt lat="45.92893" lon="4.73044">
        <ele>172</ele>
        <time>2018-10-02T10:37:22Z</time>
      </trkpt>
      <trkpt lat="45.9289" lon="4.73049">
        <ele>172</ele>
        <time>2018-10-02T10:37:23Z</time>
      </trkpt>
      <trkpt lat="45.92884" lon="4.73058">
        <ele>172</ele>
        <time>2018-10-02T10:37:25Z</time>
      </trkpt>
      <trkpt lat="45.92881" lon="4.73061">
        <ele>172</ele>
        <time>2018-10-02T10:37:26Z</time>
      </trkpt>
      <trkpt lat="45.92877" lon="4.73071">
        <ele>172</ele>
        <time>2018-10-02T10:37:28Z</time>
      </trkpt>
      <trkpt lat="45.92874" lon="4.73075">
        <ele>172</ele>
        <time>2018-10-02T10:37:29Z</time>
      </trkpt>
      <trkpt lat="45.92868" lon="4.73082">
        <ele>172</ele>
        <time>2018-10-02T10:37:31Z</time>
      </trkpt>
      <trkpt lat="45.92865" lon="4.73086">
        <ele>172</ele>
        <time>2018-10-02T10:37:32Z</time>
      </trkpt>
      <trkpt lat="45.92859" lon="4.73095">
        <ele>171</ele>
        <time>2018-10-02T10:37:34Z</time>
      </trkpt>
      <trkpt lat="45.92856" lon="4.73099">
        <ele>171</ele>
        <time>2018-10-02T10:37:35Z</time>
      </trkpt>
      <trkpt lat="45.92849" lon="4.73104">
        <ele>171</ele>
        <time>2018-10-02T10:37:37Z</time>
      </trkpt>
      <trkpt lat="45.92845" lon="4.73102">
        <ele>171</ele>
        <time>2018-10-02T10:37:38Z</time>
      </trkpt>
      <trkpt lat="45.92841" lon="4.7309">
        <ele>171</ele>
        <time>2018-10-02T10:37:40Z</time>
      </trkpt>
      <trkpt lat="45.92841" lon="4.73083">
        <ele>171</ele>
        <time>2018-10-02T10:37:41Z</time>
      </trkpt>
      <trkpt lat="45.92841" lon="4.73076">
        <ele>171</ele>
        <time>2018-10-02T10:37:42Z</time>
      </trkpt>
      <trkpt lat="45.92841" lon="4.73069">
        <ele>171</ele>
        <time>2018-10-02T10:37:43Z</time>
      </trkpt>
      <trkpt lat="45.92839" lon="4.73056">
        <ele>171</ele>
        <time>2018-10-02T10:37:45Z</time>
      </trkpt>
      <trkpt lat="45.92838" lon="4.73049">
        <ele>171</ele>
        <time>2018-10-02T10:37:46Z</time>
      </trkpt>
      <trkpt lat="45.92836" lon="4.73043">
        <ele>171</ele>
        <time>2018-10-02T10:37:47Z</time>
      </trkpt>
      <trkpt lat="45.92834" lon="4.73036">
        <ele>171</ele>
        <time>2018-10-02T10:37:48Z</time>
      </trkpt>
      <trkpt lat="45.92833" lon="4.7303">
        <ele>170</ele>
        <time>2018-10-02T10:37:49Z</time>
      </trkpt>
      <trkpt lat="45.92833" lon="4.73023">
        <ele>170</ele>
        <time>2018-10-02T10:37:50Z</time>
      </trkpt>
      <trkpt lat="45.92833" lon="4.73015">
        <ele>170</ele>
        <time>2018-10-02T10:37:51Z</time>
      </trkpt>
      <trkpt lat="45.92832" lon="4.73008">
        <ele>170</ele>
        <time>2018-10-02T10:37:52Z</time>
      </trkpt>
      <trkpt lat="45.92831" lon="4.73001">
        <ele>170</ele>
        <time>2018-10-02T10:37:53Z</time>
      </trkpt>
      <trkpt lat="45.9283" lon="4.72994">
        <ele>170</ele>
        <time>2018-10-02T10:37:54Z</time>
      </trkpt>
      <trkpt lat="45.9283" lon="4.72987">
        <ele>170</ele>
        <time>2018-10-02T10:37:55Z</time>
      </trkpt>
      <trkpt lat="45.92829" lon="4.7298">
        <ele>170</ele>
        <time>2018-10-02T10:37:56Z</time>
      </trkpt>
      <trkpt lat="45.92827" lon="4.72968">
        <ele>170</ele>
        <time>2018-10-02T10:37:58Z</time>
      </trkpt>
      <trkpt lat="45.92827" lon="4.72962">
        <ele>170</ele>
        <time>2018-10-02T10:37:59Z</time>
      </trkpt>
      <trkpt lat="45.92827" lon="4.72949">
        <ele>170</ele>
        <time>2018-10-02T10:38:01Z</time>
      </trkpt>
      <trkpt lat="45.92826" lon="4.72943">
        <ele>170</ele>
        <time>2018-10-02T10:38:02Z</time>
      </trkpt>
      <trkpt lat="45.92825" lon="4.72931">
        <ele>170</ele>
        <time>2018-10-02T10:38:04Z</time>
      </trkpt>
      <trkpt lat="45.92825" lon="4.72924">
        <ele>170</ele>
        <time>2018-10-02T10:38:05Z</time>
      </trkpt>
      <trkpt lat="45.92825" lon="4.72914">
        <ele>170</ele>
        <time>2018-10-02T10:38:07Z</time>
      </trkpt>
      <trkpt lat="45.92824" lon="4.72909">
        <ele>170</ele>
        <time>2018-10-02T10:38:08Z</time>
      </trkpt>
      <trkpt lat="45.92823" lon="4.72897">
        <ele>170</ele>
        <time>2018-10-02T10:38:10Z</time>
      </trkpt>
      <trkpt lat="45.92822" lon="4.72891">
        <ele>170</ele>
        <time>2018-10-02T10:38:11Z</time>
      </trkpt>
      <trkpt lat="45.9282" lon="4.72884">
        <ele>170</ele>
        <time>2018-10-02T10:38:12Z</time>
      </trkpt>
      <trkpt lat="45.92819" lon="4.72877">
        <ele>170</ele>
        <time>2018-10-02T10:38:13Z</time>
      </trkpt>
      <trkpt lat="45.92817" lon="4.72865">
        <ele>170</ele>
        <time>2018-10-02T10:38:15Z</time>
      </trkpt>
      <trkpt lat="45.92815" lon="4.72859">
        <ele>170</ele>
        <time>2018-10-02T10:38:16Z</time>
      </trkpt>
      <trkpt lat="45.92813" lon="4.72847">
        <ele>170</ele>
        <time>2018-10-02T10:38:18Z</time>
      </trkpt>
      <trkpt lat="45.92812" lon="4.72841">
        <ele>170</ele>
        <time>2018-10-02T10:38:19Z</time>
      </trkpt>
      <trkpt lat="45.92811" lon="4.72834">
        <ele>170</ele>
        <time>2018-10-02T10:38:20Z</time>
      </trkpt>
      <trkpt lat="45.9281" lon="4.72827">
        <ele>171</ele>
        <time>2018-10-02T10:38:21Z</time>
      </trkpt>
      <trkpt lat="45.92809" lon="4.7282">
        <ele>171</ele>
        <time>2018-10-02T10:38:22Z</time>
      </trkpt>
      <trkpt lat="45.92808" lon="4.72814">
        <ele>171</ele>
        <time>2018-10-02T10:38:23Z</time>
      </trkpt>
      <trkpt lat="45.92806" lon="4.72803">
        <ele>171</ele>
        <time>2018-10-02T10:38:25Z</time>
      </trkpt>
      <trkpt lat="45.92804" lon="4.72797">
        <ele>171</ele>
        <time>2018-10-02T10:38:26Z</time>
      </trkpt>
      <trkpt lat="45.92801" lon="4.72793">
        <ele>171</ele>
        <time>2018-10-02T10:38:27Z</time>
      </trkpt>
      <trkpt lat="45.92797" lon="4.72789">
        <ele>171</ele>
        <time>2018-10-02T10:38:28Z</time>
      </trkpt>
      <trkpt lat="45.92792" lon="4.7279">
        <ele>171</ele>
        <time>2018-10-02T10:38:30Z</time>
      </trkpt>
      <trkpt lat="45.92787" lon="4.72793">
        <ele>170</ele>
        <time>2018-10-02T10:38:31Z</time>
      </trkpt>
      <trkpt lat="45.9278" lon="4.72799">
        <ele>170</ele>
        <time>2018-10-02T10:38:33Z</time>
      </trkpt>
      <trkpt lat="45.92775" lon="4.72802">
        <ele>170</ele>
        <time>2018-10-02T10:38:34Z</time>
      </trkpt>
      <trkpt lat="45.92772" lon="4.72805">
        <ele>170</ele>
        <time>2018-10-02T10:38:35Z</time>
      </trkpt>
      <trkpt lat="45.92767" lon="4.72809">
        <ele>170</ele>
        <time>2018-10-02T10:38:36Z</time>
      </trkpt>
      <trkpt lat="45.92762" lon="4.72813">
        <ele>170</ele>
        <time>2018-10-02T10:38:37Z</time>
      </trkpt>
      <trkpt lat="45.92758" lon="4.72816">
        <ele>170</ele>
        <time>2018-10-02T10:38:38Z</time>
      </trkpt>
      <trkpt lat="45.92754" lon="4.7282">
        <ele>170</ele>
        <time>2018-10-02T10:38:39Z</time>
      </trkpt>
      <trkpt lat="45.92749" lon="4.72823">
        <ele>169</ele>
        <time>2018-10-02T10:38:40Z</time>
      </trkpt>
      <trkpt lat="45.92742" lon="4.7283">
        <ele>169</ele>
        <time>2018-10-02T10:38:42Z</time>
      </trkpt>
      <trkpt lat="45.92738" lon="4.72833">
        <ele>169</ele>
        <time>2018-10-02T10:38:43Z</time>
      </trkpt>
      <trkpt lat="45.92733" lon="4.72836">
        <ele>169</ele>
        <time>2018-10-02T10:38:44Z</time>
      </trkpt>
      <trkpt lat="45.92729" lon="4.72838">
        <ele>169</ele>
        <time>2018-10-02T10:38:45Z</time>
      </trkpt>
      <trkpt lat="45.92724" lon="4.72842">
        <ele>169</ele>
        <time>2018-10-02T10:38:46Z</time>
      </trkpt>
      <trkpt lat="45.92719" lon="4.72845">
        <ele>169</ele>
        <time>2018-10-02T10:38:47Z</time>
      </trkpt>
      <trkpt lat="45.92713" lon="4.72849">
        <ele>169</ele>
        <time>2018-10-02T10:38:48Z</time>
      </trkpt>
      <trkpt lat="45.92708" lon="4.72853">
        <ele>169</ele>
        <time>2018-10-02T10:38:49Z</time>
      </trkpt>
      <trkpt lat="45.92702" lon="4.72858">
        <ele>169</ele>
        <time>2018-10-02T10:38:50Z</time>
      </trkpt>
      <trkpt lat="45.92698" lon="4.72862">
        <ele>169</ele>
        <time>2018-10-02T10:38:51Z</time>
      </trkpt>
      <trkpt lat="45.92693" lon="4.72866">
        <ele>169</ele>
        <time>2018-10-02T10:38:52Z</time>
      </trkpt>
      <trkpt lat="45.92688" lon="4.7287">
        <ele>169</ele>
        <time>2018-10-02T10:38:53Z</time>
      </trkpt>
      <trkpt lat="45.92684" lon="4.72873">
        <ele>169</ele>
        <time>2018-10-02T10:38:54Z</time>
      </trkpt>
      <trkpt lat="45.92679" lon="4.72877">
        <ele>170</ele>
        <time>2018-10-02T10:38:55Z</time>
      </trkpt>
      <trkpt lat="45.92674" lon="4.7288">
        <ele>170</ele>
        <time>2018-10-02T10:38:56Z</time>
      </trkpt>
      <trkpt lat="45.9267" lon="4.72884">
        <ele>170</ele>
        <time>2018-10-02T10:38:57Z</time>
      </trkpt>
      <trkpt lat="45.92666" lon="4.72887">
        <ele>169</ele>
        <time>2018-10-02T10:38:58Z</time>
      </trkpt>
      <trkpt lat="45.92661" lon="4.72891">
        <ele>169</ele>
        <time>2018-10-02T10:38:59Z</time>
      </trkpt>
      <trkpt lat="45.92657" lon="4.72896">
        <ele>170</ele>
        <time>2018-10-02T10:39:00Z</time>
      </trkpt>
      <trkpt lat="45.92652" lon="4.729">
        <ele>170</ele>
        <time>2018-10-02T10:39:01Z</time>
      </trkpt>
      <trkpt lat="45.92648" lon="4.72904">
        <ele>170</ele>
        <time>2018-10-02T10:39:02Z</time>
      </trkpt>
      <trkpt lat="45.92643" lon="4.72908">
        <ele>169</ele>
        <time>2018-10-02T10:39:03Z</time>
      </trkpt>
      <trkpt lat="45.92638" lon="4.72911">
        <ele>169</ele>
        <time>2018-10-02T10:39:04Z</time>
      </trkpt>
      <trkpt lat="45.92634" lon="4.72915">
        <ele>169</ele>
        <time>2018-10-02T10:39:05Z</time>
      </trkpt>
      <trkpt lat="45.9263" lon="4.72918">
        <ele>170</ele>
        <time>2018-10-02T10:39:06Z</time>
      </trkpt>
      <trkpt lat="45.92625" lon="4.72922">
        <ele>170</ele>
        <time>2018-10-02T10:39:07Z</time>
      </trkpt>
      <trkpt lat="45.92621" lon="4.72926">
        <ele>169</ele>
        <time>2018-10-02T10:39:08Z</time>
      </trkpt>
      <trkpt lat="45.92616" lon="4.7293">
        <ele>169</ele>
        <time>2018-10-02T10:39:09Z</time>
      </trkpt>
      <trkpt lat="45.92611" lon="4.72935">
        <ele>169</ele>
        <time>2018-10-02T10:39:10Z</time>
      </trkpt>
      <trkpt lat="45.92607" lon="4.72939">
        <ele>169</ele>
        <time>2018-10-02T10:39:11Z</time>
      </trkpt>
      <trkpt lat="45.92602" lon="4.72943">
        <ele>169</ele>
        <time>2018-10-02T10:39:12Z</time>
      </trkpt>
      <trkpt lat="45.92598" lon="4.72948">
        <ele>169</ele>
        <time>2018-10-02T10:39:13Z</time>
      </trkpt>
      <trkpt lat="45.92593" lon="4.72952">
        <ele>169</ele>
        <time>2018-10-02T10:39:14Z</time>
      </trkpt>
      <trkpt lat="45.92589" lon="4.72958">
        <ele>169</ele>
        <time>2018-10-02T10:39:15Z</time>
      </trkpt>
      <trkpt lat="45.92585" lon="4.72962">
        <ele>169</ele>
        <time>2018-10-02T10:39:16Z</time>
      </trkpt>
      <trkpt lat="45.92581" lon="4.72967">
        <ele>169</ele>
        <time>2018-10-02T10:39:17Z</time>
      </trkpt>
      <trkpt lat="45.92577" lon="4.72972">
        <ele>169</ele>
        <time>2018-10-02T10:39:18Z</time>
      </trkpt>
      <trkpt lat="45.92573" lon="4.72976">
        <ele>169</ele>
        <time>2018-10-02T10:39:19Z</time>
      </trkpt>
      <trkpt lat="45.92569" lon="4.7298">
        <ele>169</ele>
        <time>2018-10-02T10:39:20Z</time>
      </trkpt>
      <trkpt lat="45.92566" lon="4.72986">
        <ele>169</ele>
        <time>2018-10-02T10:39:21Z</time>
      </trkpt>
      <trkpt lat="45.92561" lon="4.72991">
        <ele>169</ele>
        <time>2018-10-02T10:39:22Z</time>
      </trkpt>
      <trkpt lat="45.92556" lon="4.72996">
        <ele>169</ele>
        <time>2018-10-02T10:39:23Z</time>
      </trkpt>
      <trkpt lat="45.92551" lon="4.73001">
        <ele>169</ele>
        <time>2018-10-02T10:39:24Z</time>
      </trkpt>
      <trkpt lat="45.92546" lon="4.73006">
        <ele>169</ele>
        <time>2018-10-02T10:39:25Z</time>
      </trkpt>
      <trkpt lat="45.92541" lon="4.73011">
        <ele>169</ele>
        <time>2018-10-02T10:39:26Z</time>
      </trkpt>
      <trkpt lat="45.92537" lon="4.73015">
        <ele>169</ele>
        <time>2018-10-02T10:39:27Z</time>
      </trkpt>
      <trkpt lat="45.92532" lon="4.7302">
        <ele>169</ele>
        <time>2018-10-02T10:39:28Z</time>
      </trkpt>
      <trkpt lat="45.92528" lon="4.73024">
        <ele>169</ele>
        <time>2018-10-02T10:39:29Z</time>
      </trkpt>
      <trkpt lat="45.92523" lon="4.73028">
        <ele>169</ele>
        <time>2018-10-02T10:39:30Z</time>
      </trkpt>
      <trkpt lat="45.92519" lon="4.73032">
        <ele>169</ele>
        <time>2018-10-02T10:39:31Z</time>
      </trkpt>
      <trkpt lat="45.92514" lon="4.73037">
        <ele>169</ele>
        <time>2018-10-02T10:39:32Z</time>
      </trkpt>
      <trkpt lat="45.9251" lon="4.73041">
        <ele>169</ele>
        <time>2018-10-02T10:39:33Z</time>
      </trkpt>
      <trkpt lat="45.92502" lon="4.73047">
        <ele>170</ele>
        <time>2018-10-02T10:39:35Z</time>
      </trkpt>
      <trkpt lat="45.92498" lon="4.73049">
        <ele>170</ele>
        <time>2018-10-02T10:39:36Z</time>
      </trkpt>
      <trkpt lat="45.92495" lon="4.73055">
        <ele>170</ele>
        <time>2018-10-02T10:39:37Z</time>
      </trkpt>
      <trkpt lat="45.92491" lon="4.73058">
        <ele>170</ele>
        <time>2018-10-02T10:39:38Z</time>
      </trkpt>
      <trkpt lat="45.92486" lon="4.73062">
        <ele>170</ele>
        <time>2018-10-02T10:39:39Z</time>
      </trkpt>
      <trkpt lat="45.92481" lon="4.73066">
        <ele>170</ele>
        <time>2018-10-02T10:39:40Z</time>
      </trkpt>
      <trkpt lat="45.92477" lon="4.73069">
        <ele>170</ele>
        <time>2018-10-02T10:39:41Z</time>
      </trkpt>
      <trkpt lat="45.92473" lon="4.73073">
        <ele>170</ele>
        <time>2018-10-02T10:39:42Z</time>
      </trkpt>
      <trkpt lat="45.92468" lon="4.73077">
        <ele>170</ele>
        <time>2018-10-02T10:39:43Z</time>
      </trkpt>
      <trkpt lat="45.92464" lon="4.73081">
        <ele>170</ele>
        <time>2018-10-02T10:39:44Z</time>
      </trkpt>
      <trkpt lat="45.92456" lon="4.73087">
        <ele>170</ele>
        <time>2018-10-02T10:39:46Z</time>
      </trkpt>
      <trkpt lat="45.92451" lon="4.73089">
        <ele>170</ele>
        <time>2018-10-02T10:39:47Z</time>
      </trkpt>
      <trkpt lat="45.92447" lon="4.73093">
        <ele>170</ele>
        <time>2018-10-02T10:39:48Z</time>
      </trkpt>
      <trkpt lat="45.92443" lon="4.73096">
        <ele>170</ele>
        <time>2018-10-02T10:39:49Z</time>
      </trkpt>
      <trkpt lat="45.92438" lon="4.73099">
        <ele>170</ele>
        <time>2018-10-02T10:39:50Z</time>
      </trkpt>
      <trkpt lat="45.92434" lon="4.73102">
        <ele>170</ele>
        <time>2018-10-02T10:39:51Z</time>
      </trkpt>
      <trkpt lat="45.9243" lon="4.73106">
        <ele>170</ele>
        <time>2018-10-02T10:39:52Z</time>
      </trkpt>
      <trkpt lat="45.92426" lon="4.73109">
        <ele>170</ele>
        <time>2018-10-02T10:39:53Z</time>
      </trkpt>
      <trkpt lat="45.92422" lon="4.73113">
        <ele>170</ele>
        <time>2018-10-02T10:39:54Z</time>
      </trkpt>
      <trkpt lat="45.92418" lon="4.73117">
        <ele>170</ele>
        <time>2018-10-02T10:39:55Z</time>
      </trkpt>
      <trkpt lat="45.92414" lon="4.73121">
        <ele>171</ele>
        <time>2018-10-02T10:39:56Z</time>
      </trkpt>
      <trkpt lat="45.92411" lon="4.73126">
        <ele>171</ele>
        <time>2018-10-02T10:39:57Z</time>
      </trkpt>
      <trkpt lat="45.92407" lon="4.73137">
        <ele>171</ele>
        <time>2018-10-02T10:39:59Z</time>
      </trkpt>
      <trkpt lat="45.92407" lon="4.73143">
        <ele>171</ele>
        <time>2018-10-02T10:40:00Z</time>
      </trkpt>
      <trkpt lat="45.92406" lon="4.73154">
        <ele>171</ele>
        <time>2018-10-02T10:40:02Z</time>
      </trkpt>
      <trkpt lat="45.92406" lon="4.73161">
        <ele>170</ele>
        <time>2018-10-02T10:40:03Z</time>
      </trkpt>
      <trkpt lat="45.92406" lon="4.73168">
        <ele>170</ele>
        <time>2018-10-02T10:40:04Z</time>
      </trkpt>
      <trkpt lat="45.92406" lon="4.73175">
        <ele>171</ele>
        <time>2018-10-02T10:40:05Z</time>
      </trkpt>
      <trkpt lat="45.92407" lon="4.73187">
        <ele>171</ele>
        <time>2018-10-02T10:40:07Z</time>
      </trkpt>
      <trkpt lat="45.92407" lon="4.73193">
        <ele>171</ele>
        <time>2018-10-02T10:40:08Z</time>
      </trkpt>
      <trkpt lat="45.92407" lon="4.73204">
        <ele>171</ele>
        <time>2018-10-02T10:40:10Z</time>
      </trkpt>
      <trkpt lat="45.92407" lon="4.7321">
        <ele>171</ele>
        <time>2018-10-02T10:40:11Z</time>
      </trkpt>
      <trkpt lat="45.92408" lon="4.7322">
        <ele>171</ele>
        <time>2018-10-02T10:40:13Z</time>
      </trkpt>
      <trkpt lat="45.92408" lon="4.73225">
        <ele>171</ele>
        <time>2018-10-02T10:40:14Z</time>
      </trkpt>
      <trkpt lat="45.92409" lon="4.73236">
        <ele>171</ele>
        <time>2018-10-02T10:40:16Z</time>
      </trkpt>
      <trkpt lat="45.92409" lon="4.73242">
        <ele>171</ele>
        <time>2018-10-02T10:40:17Z</time>
      </trkpt>
      <trkpt lat="45.9241" lon="4.73254">
        <ele>171</ele>
        <time>2018-10-02T10:40:19Z</time>
      </trkpt>
      <trkpt lat="45.92412" lon="4.7326">
        <ele>171</ele>
        <time>2018-10-02T10:40:20Z</time>
      </trkpt>
      <trkpt lat="45.92413" lon="4.73268">
        <ele>171</ele>
        <time>2018-10-02T10:40:21Z</time>
      </trkpt>
      <trkpt lat="45.92414" lon="4.73275">
        <ele>171</ele>
        <time>2018-10-02T10:40:22Z</time>
      </trkpt>
      <trkpt lat="45.92415" lon="4.73283">
        <ele>171</ele>
        <time>2018-10-02T10:40:23Z</time>
      </trkpt>
      <trkpt lat="45.92416" lon="4.73291">
        <ele>171</ele>
        <time>2018-10-02T10:40:24Z</time>
      </trkpt>
      <trkpt lat="45.92416" lon="4.73298">
        <ele>171</ele>
        <time>2018-10-02T10:40:25Z</time>
      </trkpt>
      <trkpt lat="45.92417" lon="4.73306">
        <ele>171</ele>
        <time>2018-10-02T10:40:26Z</time>
      </trkpt>
      <trkpt lat="45.92417" lon="4.73314">
        <ele>171</ele>
        <time>2018-10-02T10:40:27Z</time>
      </trkpt>
      <trkpt lat="45.92418" lon="4.73322">
        <ele>171</ele>
        <time>2018-10-02T10:40:28Z</time>
      </trkpt>
      <trkpt lat="45.92418" lon="4.73329">
        <ele>171</ele>
        <time>2018-10-02T10:40:29Z</time>
      </trkpt>
      <trkpt lat="45.92418" lon="4.73336">
        <ele>171</ele>
        <time>2018-10-02T10:40:30Z</time>
      </trkpt>
      <trkpt lat="45.92419" lon="4.73343">
        <ele>171</ele>
        <time>2018-10-02T10:40:31Z</time>
      </trkpt>
      <trkpt lat="45.92419" lon="4.7335">
        <ele>171</ele>
        <time>2018-10-02T10:40:32Z</time>
      </trkpt>
      <trkpt lat="45.92421" lon="4.73363">
        <ele>172</ele>
        <time>2018-10-02T10:40:34Z</time>
      </trkpt>
      <trkpt lat="45.92422" lon="4.73369">
        <ele>172</ele>
        <time>2018-10-02T10:40:35Z</time>
      </trkpt>
      <trkpt lat="45.92422" lon="4.73379">
        <ele>172</ele>
        <time>2018-10-02T10:40:37Z</time>
      </trkpt>
      <trkpt lat="45.92424" lon="4.73386">
        <ele>172</ele>
        <time>2018-10-02T10:40:38Z</time>
      </trkpt>
      <trkpt lat="45.92425" lon="4.73393">
        <ele>172</ele>
        <time>2018-10-02T10:40:39Z</time>
      </trkpt>
      <trkpt lat="45.92426" lon="4.73399">
        <ele>172</ele>
        <time>2018-10-02T10:40:40Z</time>
      </trkpt>
      <trkpt lat="45.92428" lon="4.73405">
        <ele>172</ele>
        <time>2018-10-02T10:40:41Z</time>
      </trkpt>
      <trkpt lat="45.92431" lon="4.7341">
        <ele>172</ele>
        <time>2018-10-02T10:40:42Z</time>
      </trkpt>
      <trkpt lat="45.92435" lon="4.73415">
        <ele>172</ele>
        <time>2018-10-02T10:40:43Z</time>
      </trkpt>
      <trkpt lat="45.92439" lon="4.73419">
        <ele>173</ele>
        <time>2018-10-02T10:40:44Z</time>
      </trkpt>
      <trkpt lat="45.92443" lon="4.73422">
        <ele>173</ele>
        <time>2018-10-02T10:40:45Z</time>
      </trkpt>
      <trkpt lat="45.92447" lon="4.73425">
        <ele>173</ele>
        <time>2018-10-02T10:40:46Z</time>
      </trkpt>
      <trkpt lat="45.92453" lon="4.7343">
        <ele>173</ele>
        <time>2018-10-02T10:40:48Z</time>
      </trkpt>
      <trkpt lat="45.92457" lon="4.73435">
        <ele>173</ele>
        <time>2018-10-02T10:40:49Z</time>
      </trkpt>
      <trkpt lat="45.9246" lon="4.73442">
        <ele>173</ele>
        <time>2018-10-02T10:40:50Z</time>
      </trkpt>
      <trkpt lat="45.92463" lon="4.73447">
        <ele>173</ele>
        <time>2018-10-02T10:40:51Z</time>
      </trkpt>
      <trkpt lat="45.92465" lon="4.73454">
        <ele>173</ele>
        <time>2018-10-02T10:40:52Z</time>
      </trkpt>
      <trkpt lat="45.92466" lon="4.73462">
        <ele>173</ele>
        <time>2018-10-02T10:40:53Z</time>
      </trkpt>
      <trkpt lat="45.92467" lon="4.73469">
        <ele>173</ele>
        <time>2018-10-02T10:40:54Z</time>
      </trkpt>
      <trkpt lat="45.92467" lon="4.73476">
        <ele>173</ele>
        <time>2018-10-02T10:40:55Z</time>
      </trkpt>
      <trkpt lat="45.92467" lon="4.73484">
        <ele>173</ele>
        <time>2018-10-02T10:40:56Z</time>
      </trkpt>
      <trkpt lat="45.92467" lon="4.73492">
        <ele>173</ele>
        <time>2018-10-02T10:40:57Z</time>
      </trkpt>
      <trkpt lat="45.92467" lon="4.73498">
        <ele>173</ele>
        <time>2018-10-02T10:40:58Z</time>
      </trkpt>
      <trkpt lat="45.92467" lon="4.73506">
        <ele>174</ele>
        <time>2018-10-02T10:40:59Z</time>
      </trkpt>
      <trkpt lat="45.92466" lon="4.73512">
        <ele>174</ele>
        <time>2018-10-02T10:41:00Z</time>
      </trkpt>
      <trkpt lat="45.92466" lon="4.73519">
        <ele>174</ele>
        <time>2018-10-02T10:41:01Z</time>
      </trkpt>
      <trkpt lat="45.92465" lon="4.7353">
        <ele>174</ele>
        <time>2018-10-02T10:41:04Z</time>
      </trkpt>
      <trkpt lat="45.92464" lon="4.73533">
        <ele>174</ele>
        <time>2018-10-02T10:41:05Z</time>
      </trkpt>
      <trkpt lat="45.92463" lon="4.73543">
        <ele>173</ele>
        <time>2018-10-02T10:41:08Z</time>
      </trkpt>
      <trkpt lat="45.92463" lon="4.73553">
        <ele>173</ele>
        <time>2018-10-02T10:41:09Z</time>
      </trkpt>
      <trkpt lat="45.92464" lon="4.73565">
        <ele>173</ele>
        <time>2018-10-02T10:41:11Z</time>
      </trkpt>
      <trkpt lat="45.92464" lon="4.73572">
        <ele>173</ele>
        <time>2018-10-02T10:41:12Z</time>
      </trkpt>
      <trkpt lat="45.92464" lon="4.73578">
        <ele>173</ele>
        <time>2018-10-02T10:41:13Z</time>
      </trkpt>
      <trkpt lat="45.92465" lon="4.73585">
        <ele>174</ele>
        <time>2018-10-02T10:41:14Z</time>
      </trkpt>
      <trkpt lat="45.92466" lon="4.73596">
        <ele>174</ele>
        <time>2018-10-02T10:41:15Z</time>
      </trkpt>
      <trkpt lat="45.92466" lon="4.73602">
        <ele>174</ele>
        <time>2018-10-02T10:41:16Z</time>
      </trkpt>
      <trkpt lat="45.92466" lon="4.7361">
        <ele>174</ele>
        <time>2018-10-02T10:41:17Z</time>
      </trkpt>
      <trkpt lat="45.92467" lon="4.73617">
        <ele>174</ele>
        <time>2018-10-02T10:41:18Z</time>
      </trkpt>
      <trkpt lat="45.92468" lon="4.73623">
        <ele>174</ele>
        <time>2018-10-02T10:41:19Z</time>
      </trkpt>
      <trkpt lat="45.92468" lon="4.7363">
        <ele>174</ele>
        <time>2018-10-02T10:41:20Z</time>
      </trkpt>
      <trkpt lat="45.92469" lon="4.73638">
        <ele>174</ele>
        <time>2018-10-02T10:41:21Z</time>
      </trkpt>
      <trkpt lat="45.92468" lon="4.73645">
        <ele>174</ele>
        <time>2018-10-02T10:41:22Z</time>
      </trkpt>
      <trkpt lat="45.92468" lon="4.73651">
        <ele>174</ele>
        <time>2018-10-02T10:41:23Z</time>
      </trkpt>
      <trkpt lat="45.92467" lon="4.73658">
        <ele>174</ele>
        <time>2018-10-02T10:41:24Z</time>
      </trkpt>
      <trkpt lat="45.92467" lon="4.73663">
        <ele>174</ele>
        <time>2018-10-02T10:41:25Z</time>
      </trkpt>
      <trkpt lat="45.92467" lon="4.73672">
        <ele>174</ele>
        <time>2018-10-02T10:41:26Z</time>
      </trkpt>
      <trkpt lat="45.92467" lon="4.73678">
        <ele>174</ele>
        <time>2018-10-02T10:41:27Z</time>
      </trkpt>
      <trkpt lat="45.92467" lon="4.73685">
        <ele>174</ele>
        <time>2018-10-02T10:41:28Z</time>
      </trkpt>
      <trkpt lat="45.92468" lon="4.73696">
        <ele>174</ele>
        <time>2018-10-02T10:41:30Z</time>
      </trkpt>
      <trkpt lat="45.92468" lon="4.73699">
        <ele>174</ele>
        <time>2018-10-02T10:41:31Z</time>
      </trkpt>
      <trkpt lat="45.92466" lon="4.7371">
        <ele>174</ele>
        <time>2018-10-02T10:41:35Z</time>
      </trkpt>
      <trkpt lat="45.92465" lon="4.73712">
        <ele>174</ele>
        <time>2018-10-02T10:41:36Z</time>
      </trkpt>
      <trkpt lat="45.9246" lon="4.73713">
        <ele>174</ele>
        <time>2018-10-02T10:42:20.247Z</time>
      </trkpt>
    </trkseg>
  </trk>
</gpx>